<?xml version="1.0" encoding="UTF-8" standalone="no" ?>
<gpx xmlns="http://www.topografix.com/GPX/1/1" xmlns:xsi="http://www.w3.org/2001/XMLSchema-instance" xsi:schemaLocation="http://www.topografix.com/GPX/1/1 http://www.topografix.com/GPX/1/1/gpx.xsd" version="1.1" creator="VisuGPX - https://www.visugpx.com">
  <metadata>
    <name>2017-07-13 Bike ride VTT-Amberieux Les Cheres O</name>
    <desc><![CDATA[2017-07-13 Bike ride VTT-Amberieux Les Cheres O]]></desc>
  </metadata>
  <wpt lat="45.92465" lon="4.73725">
    <ele>174</ele>
    <name><![CDATA[2017-07-13 16:12 (Start)]]></name>
  </wpt>
  <wpt lat="45.92459" lon="4.73709">
    <ele>174</ele>
    <name><![CDATA[2017-07-13 16:12 (End)]]></name>
    <desc><![CDATA[Created by Google My Tracks on Android  Name: 2017-07-13 16:12 Activity type: biking Description: - Total distance: 21.97 km (13.6 mi) Total time: 1:25:19 Moving time: 1:15:52 Average speed: 15.45 km/h (9.6 mi/h) Average moving speed: 17.37 km/h (10.8 mi/h) Max speed: 37.31 km/h (23.2 mi/h) Average pace: 3:53 min/km (6:15 min/mi) Average moving pace: 3:27 min/km (5:34 min/mi) Fastest pace: 1:36 min/km (2:35 min/mi) Max elevation: 206 m (675 ft) Min elevation: 162 m (533 ft) Elevation gain: 422 m (1383 ft) Max grade: 11 % Min grade: -30 % Recorded: 13/07/2017 16:12]]></desc>
  </wpt>
  <trk>
    <name><![CDATA[2017-07-13 16:12]]></name>
    <trkseg>
      <trkpt lat="45.92465" lon="4.73725">
        <ele>174</ele>
        <time>2017-07-13T14:12:43.748Z</time>
      </trkpt>
      <trkpt lat="45.9246" lon="4.73716">
        <ele>174</ele>
        <time>2017-07-13T14:14:09Z</time>
      </trkpt>
      <trkpt lat="45.9246" lon="4.73711">
        <ele>174</ele>
        <time>2017-07-13T14:14:10Z</time>
      </trkpt>
      <trkpt lat="45.92463" lon="4.73703">
        <ele>174</ele>
        <time>2017-07-13T14:14:23Z</time>
      </trkpt>
      <trkpt lat="45.92466" lon="4.73699">
        <ele>174</ele>
        <time>2017-07-13T14:14:24Z</time>
      </trkpt>
      <trkpt lat="45.92468" lon="4.7369">
        <ele>174</ele>
        <time>2017-07-13T14:14:26Z</time>
      </trkpt>
      <trkpt lat="45.92469" lon="4.73685">
        <ele>174</ele>
        <time>2017-07-13T14:14:27Z</time>
      </trkpt>
      <trkpt lat="45.92469" lon="4.73678">
        <ele>174</ele>
        <time>2017-07-13T14:14:28Z</time>
      </trkpt>
      <trkpt lat="45.9247" lon="4.73672">
        <ele>174</ele>
        <time>2017-07-13T14:14:29Z</time>
      </trkpt>
      <trkpt lat="45.92471" lon="4.73666">
        <ele>174</ele>
        <time>2017-07-13T14:14:30Z</time>
      </trkpt>
      <trkpt lat="45.92471" lon="4.73658">
        <ele>174</ele>
        <time>2017-07-13T14:14:31Z</time>
      </trkpt>
      <trkpt lat="45.92472" lon="4.73651">
        <ele>174</ele>
        <time>2017-07-13T14:14:32Z</time>
      </trkpt>
      <trkpt lat="45.92472" lon="4.73643">
        <ele>174</ele>
        <time>2017-07-13T14:14:33Z</time>
      </trkpt>
      <trkpt lat="45.92472" lon="4.73635">
        <ele>174</ele>
        <time>2017-07-13T14:14:34Z</time>
      </trkpt>
      <trkpt lat="45.92472" lon="4.73628">
        <ele>174</ele>
        <time>2017-07-13T14:14:35Z</time>
      </trkpt>
      <trkpt lat="45.92472" lon="4.73621">
        <ele>174</ele>
        <time>2017-07-13T14:14:36Z</time>
      </trkpt>
      <trkpt lat="45.92473" lon="4.73614">
        <ele>174</ele>
        <time>2017-07-13T14:14:37Z</time>
      </trkpt>
      <trkpt lat="45.92473" lon="4.73607">
        <ele>174</ele>
        <time>2017-07-13T14:14:38Z</time>
      </trkpt>
      <trkpt lat="45.92472" lon="4.73599">
        <ele>174</ele>
        <time>2017-07-13T14:14:39Z</time>
      </trkpt>
      <trkpt lat="45.92472" lon="4.73592">
        <ele>174</ele>
        <time>2017-07-13T14:14:40Z</time>
      </trkpt>
      <trkpt lat="45.92472" lon="4.73585">
        <ele>174</ele>
        <time>2017-07-13T14:14:41Z</time>
      </trkpt>
      <trkpt lat="45.92472" lon="4.73578">
        <ele>173</ele>
        <time>2017-07-13T14:14:42Z</time>
      </trkpt>
      <trkpt lat="45.92471" lon="4.73571">
        <ele>173</ele>
        <time>2017-07-13T14:14:43Z</time>
      </trkpt>
      <trkpt lat="45.9247" lon="4.73563">
        <ele>173</ele>
        <time>2017-07-13T14:14:44Z</time>
      </trkpt>
      <trkpt lat="45.92468" lon="4.73557">
        <ele>173</ele>
        <time>2017-07-13T14:14:45Z</time>
      </trkpt>
      <trkpt lat="45.92462" lon="4.73549">
        <ele>173</ele>
        <time>2017-07-13T14:14:47Z</time>
      </trkpt>
      <trkpt lat="45.92457" lon="4.7355">
        <ele>174</ele>
        <time>2017-07-13T14:14:48Z</time>
      </trkpt>
      <trkpt lat="45.92452" lon="4.73552">
        <ele>174</ele>
        <time>2017-07-13T14:14:49Z</time>
      </trkpt>
      <trkpt lat="45.92448" lon="4.73554">
        <ele>174</ele>
        <time>2017-07-13T14:14:50Z</time>
      </trkpt>
      <trkpt lat="45.92443" lon="4.73556">
        <ele>174</ele>
        <time>2017-07-13T14:14:51Z</time>
      </trkpt>
      <trkpt lat="45.92437" lon="4.73559">
        <ele>174</ele>
        <time>2017-07-13T14:14:52Z</time>
      </trkpt>
      <trkpt lat="45.92431" lon="4.73562">
        <ele>174</ele>
        <time>2017-07-13T14:14:53Z</time>
      </trkpt>
      <trkpt lat="45.92425" lon="4.73564">
        <ele>174</ele>
        <time>2017-07-13T14:14:54Z</time>
      </trkpt>
      <trkpt lat="45.9242" lon="4.73566">
        <ele>174</ele>
        <time>2017-07-13T14:14:55Z</time>
      </trkpt>
      <trkpt lat="45.92416" lon="4.73568">
        <ele>173</ele>
        <time>2017-07-13T14:14:56Z</time>
      </trkpt>
      <trkpt lat="45.92411" lon="4.73571">
        <ele>173</ele>
        <time>2017-07-13T14:14:57Z</time>
      </trkpt>
      <trkpt lat="45.92407" lon="4.73573">
        <ele>173</ele>
        <time>2017-07-13T14:14:58Z</time>
      </trkpt>
      <trkpt lat="45.92403" lon="4.73576">
        <ele>173</ele>
        <time>2017-07-13T14:14:59Z</time>
      </trkpt>
      <trkpt lat="45.92398" lon="4.73578">
        <ele>173</ele>
        <time>2017-07-13T14:15:00Z</time>
      </trkpt>
      <trkpt lat="45.92393" lon="4.73581">
        <ele>173</ele>
        <time>2017-07-13T14:15:01Z</time>
      </trkpt>
      <trkpt lat="45.92388" lon="4.73584">
        <ele>173</ele>
        <time>2017-07-13T14:15:02Z</time>
      </trkpt>
      <trkpt lat="45.92383" lon="4.73586">
        <ele>173</ele>
        <time>2017-07-13T14:15:03Z</time>
      </trkpt>
      <trkpt lat="45.92378" lon="4.73589">
        <ele>173</ele>
        <time>2017-07-13T14:15:04Z</time>
      </trkpt>
      <trkpt lat="45.92373" lon="4.73592">
        <ele>173</ele>
        <time>2017-07-13T14:15:05Z</time>
      </trkpt>
      <trkpt lat="45.92368" lon="4.73595">
        <ele>173</ele>
        <time>2017-07-13T14:15:06Z</time>
      </trkpt>
      <trkpt lat="45.92363" lon="4.73597">
        <ele>173</ele>
        <time>2017-07-13T14:15:07Z</time>
      </trkpt>
      <trkpt lat="45.92358" lon="4.736">
        <ele>173</ele>
        <time>2017-07-13T14:15:08Z</time>
      </trkpt>
      <trkpt lat="45.92353" lon="4.73602">
        <ele>173</ele>
        <time>2017-07-13T14:15:09Z</time>
      </trkpt>
      <trkpt lat="45.92348" lon="4.73605">
        <ele>173</ele>
        <time>2017-07-13T14:15:10Z</time>
      </trkpt>
      <trkpt lat="45.92344" lon="4.73608">
        <ele>173</ele>
        <time>2017-07-13T14:15:11Z</time>
      </trkpt>
      <trkpt lat="45.9234" lon="4.7361">
        <ele>173</ele>
        <time>2017-07-13T14:15:12Z</time>
      </trkpt>
      <trkpt lat="45.92335" lon="4.73613">
        <ele>173</ele>
        <time>2017-07-13T14:15:13Z</time>
      </trkpt>
      <trkpt lat="45.9233" lon="4.73616">
        <ele>172</ele>
        <time>2017-07-13T14:15:14Z</time>
      </trkpt>
      <trkpt lat="45.92325" lon="4.73618">
        <ele>172</ele>
        <time>2017-07-13T14:15:15Z</time>
      </trkpt>
      <trkpt lat="45.9232" lon="4.73621">
        <ele>172</ele>
        <time>2017-07-13T14:15:16Z</time>
      </trkpt>
      <trkpt lat="45.92315" lon="4.73624">
        <ele>172</ele>
        <time>2017-07-13T14:15:17Z</time>
      </trkpt>
      <trkpt lat="45.9231" lon="4.73626">
        <ele>172</ele>
        <time>2017-07-13T14:15:18Z</time>
      </trkpt>
      <trkpt lat="45.92305" lon="4.73629">
        <ele>172</ele>
        <time>2017-07-13T14:15:19Z</time>
      </trkpt>
      <trkpt lat="45.92299" lon="4.73632">
        <ele>172</ele>
        <time>2017-07-13T14:15:20Z</time>
      </trkpt>
      <trkpt lat="45.92294" lon="4.73635">
        <ele>172</ele>
        <time>2017-07-13T14:15:21Z</time>
      </trkpt>
      <trkpt lat="45.92289" lon="4.73638">
        <ele>172</ele>
        <time>2017-07-13T14:15:22Z</time>
      </trkpt>
      <trkpt lat="45.92284" lon="4.73641">
        <ele>172</ele>
        <time>2017-07-13T14:15:23Z</time>
      </trkpt>
      <trkpt lat="45.92279" lon="4.73643">
        <ele>172</ele>
        <time>2017-07-13T14:15:24Z</time>
      </trkpt>
      <trkpt lat="45.92273" lon="4.73646">
        <ele>172</ele>
        <time>2017-07-13T14:15:25Z</time>
      </trkpt>
      <trkpt lat="45.92268" lon="4.73649">
        <ele>172</ele>
        <time>2017-07-13T14:15:26Z</time>
      </trkpt>
      <trkpt lat="45.92262" lon="4.73653">
        <ele>171</ele>
        <time>2017-07-13T14:15:27Z</time>
      </trkpt>
      <trkpt lat="45.92257" lon="4.73657">
        <ele>171</ele>
        <time>2017-07-13T14:15:28Z</time>
      </trkpt>
      <trkpt lat="45.9225" lon="4.73659">
        <ele>171</ele>
        <time>2017-07-13T14:15:29Z</time>
      </trkpt>
      <trkpt lat="45.92245" lon="4.73662">
        <ele>171</ele>
        <time>2017-07-13T14:15:30Z</time>
      </trkpt>
      <trkpt lat="45.92239" lon="4.73665">
        <ele>171</ele>
        <time>2017-07-13T14:15:31Z</time>
      </trkpt>
      <trkpt lat="45.92233" lon="4.73669">
        <ele>171</ele>
        <time>2017-07-13T14:15:32Z</time>
      </trkpt>
      <trkpt lat="45.92227" lon="4.73673">
        <ele>171</ele>
        <time>2017-07-13T14:15:33Z</time>
      </trkpt>
      <trkpt lat="45.92221" lon="4.73676">
        <ele>171</ele>
        <time>2017-07-13T14:15:34Z</time>
      </trkpt>
      <trkpt lat="45.92215" lon="4.73679">
        <ele>171</ele>
        <time>2017-07-13T14:15:35Z</time>
      </trkpt>
      <trkpt lat="45.9221" lon="4.73682">
        <ele>171</ele>
        <time>2017-07-13T14:15:36Z</time>
      </trkpt>
      <trkpt lat="45.92204" lon="4.73685">
        <ele>171</ele>
        <time>2017-07-13T14:15:37Z</time>
      </trkpt>
      <trkpt lat="45.92199" lon="4.73688">
        <ele>171</ele>
        <time>2017-07-13T14:15:38Z</time>
      </trkpt>
      <trkpt lat="45.92194" lon="4.73692">
        <ele>171</ele>
        <time>2017-07-13T14:15:39Z</time>
      </trkpt>
      <trkpt lat="45.92188" lon="4.73694">
        <ele>171</ele>
        <time>2017-07-13T14:15:40Z</time>
      </trkpt>
      <trkpt lat="45.92182" lon="4.73697">
        <ele>171</ele>
        <time>2017-07-13T14:15:41Z</time>
      </trkpt>
      <trkpt lat="45.92177" lon="4.73699">
        <ele>171</ele>
        <time>2017-07-13T14:15:42Z</time>
      </trkpt>
      <trkpt lat="45.92171" lon="4.73702">
        <ele>171</ele>
        <time>2017-07-13T14:15:43Z</time>
      </trkpt>
      <trkpt lat="45.92164" lon="4.73705">
        <ele>171</ele>
        <time>2017-07-13T14:15:44Z</time>
      </trkpt>
      <trkpt lat="45.92158" lon="4.73708">
        <ele>171</ele>
        <time>2017-07-13T14:15:45Z</time>
      </trkpt>
      <trkpt lat="45.92152" lon="4.7371">
        <ele>171</ele>
        <time>2017-07-13T14:15:46Z</time>
      </trkpt>
      <trkpt lat="45.92146" lon="4.73712">
        <ele>171</ele>
        <time>2017-07-13T14:15:47Z</time>
      </trkpt>
      <trkpt lat="45.9214" lon="4.73714">
        <ele>171</ele>
        <time>2017-07-13T14:15:48Z</time>
      </trkpt>
      <trkpt lat="45.92134" lon="4.73716">
        <ele>171</ele>
        <time>2017-07-13T14:15:49Z</time>
      </trkpt>
      <trkpt lat="45.92128" lon="4.73717">
        <ele>171</ele>
        <time>2017-07-13T14:15:50Z</time>
      </trkpt>
      <trkpt lat="45.92123" lon="4.73718">
        <ele>171</ele>
        <time>2017-07-13T14:15:51Z</time>
      </trkpt>
      <trkpt lat="45.92117" lon="4.7372">
        <ele>171</ele>
        <time>2017-07-13T14:15:52Z</time>
      </trkpt>
      <trkpt lat="45.92111" lon="4.73721">
        <ele>171</ele>
        <time>2017-07-13T14:15:53Z</time>
      </trkpt>
      <trkpt lat="45.92106" lon="4.73722">
        <ele>171</ele>
        <time>2017-07-13T14:15:54Z</time>
      </trkpt>
      <trkpt lat="45.92099" lon="4.73723">
        <ele>171</ele>
        <time>2017-07-13T14:15:55Z</time>
      </trkpt>
      <trkpt lat="45.92094" lon="4.73725">
        <ele>171</ele>
        <time>2017-07-13T14:15:56Z</time>
      </trkpt>
      <trkpt lat="45.92088" lon="4.73726">
        <ele>171</ele>
        <time>2017-07-13T14:15:57Z</time>
      </trkpt>
      <trkpt lat="45.92081" lon="4.73727">
        <ele>171</ele>
        <time>2017-07-13T14:15:58Z</time>
      </trkpt>
      <trkpt lat="45.92075" lon="4.73727">
        <ele>171</ele>
        <time>2017-07-13T14:15:59Z</time>
      </trkpt>
      <trkpt lat="45.92068" lon="4.73728">
        <ele>171</ele>
        <time>2017-07-13T14:16:00Z</time>
      </trkpt>
      <trkpt lat="45.92062" lon="4.73728">
        <ele>171</ele>
        <time>2017-07-13T14:16:01Z</time>
      </trkpt>
      <trkpt lat="45.92057" lon="4.73728">
        <ele>171</ele>
        <time>2017-07-13T14:16:02Z</time>
      </trkpt>
      <trkpt lat="45.92051" lon="4.73728">
        <ele>171</ele>
        <time>2017-07-13T14:16:03Z</time>
      </trkpt>
      <trkpt lat="45.92046" lon="4.73728">
        <ele>171</ele>
        <time>2017-07-13T14:16:04Z</time>
      </trkpt>
      <trkpt lat="45.9204" lon="4.73728">
        <ele>171</ele>
        <time>2017-07-13T14:16:05Z</time>
      </trkpt>
      <trkpt lat="45.92035" lon="4.73728">
        <ele>171</ele>
        <time>2017-07-13T14:16:06Z</time>
      </trkpt>
      <trkpt lat="45.92029" lon="4.73727">
        <ele>171</ele>
        <time>2017-07-13T14:16:07Z</time>
      </trkpt>
      <trkpt lat="45.92023" lon="4.73727">
        <ele>171</ele>
        <time>2017-07-13T14:16:08Z</time>
      </trkpt>
      <trkpt lat="45.92017" lon="4.73727">
        <ele>171</ele>
        <time>2017-07-13T14:16:09Z</time>
      </trkpt>
      <trkpt lat="45.92011" lon="4.73727">
        <ele>171</ele>
        <time>2017-07-13T14:16:10Z</time>
      </trkpt>
      <trkpt lat="45.92005" lon="4.73727">
        <ele>171</ele>
        <time>2017-07-13T14:16:11Z</time>
      </trkpt>
      <trkpt lat="45.91999" lon="4.73728">
        <ele>171</ele>
        <time>2017-07-13T14:16:12Z</time>
      </trkpt>
      <trkpt lat="45.91993" lon="4.73728">
        <ele>171</ele>
        <time>2017-07-13T14:16:13Z</time>
      </trkpt>
      <trkpt lat="45.91987" lon="4.73728">
        <ele>171</ele>
        <time>2017-07-13T14:16:14Z</time>
      </trkpt>
      <trkpt lat="45.91981" lon="4.73729">
        <ele>171</ele>
        <time>2017-07-13T14:16:15Z</time>
      </trkpt>
      <trkpt lat="45.91975" lon="4.73729">
        <ele>171</ele>
        <time>2017-07-13T14:16:16Z</time>
      </trkpt>
      <trkpt lat="45.9197" lon="4.73728">
        <ele>171</ele>
        <time>2017-07-13T14:16:17Z</time>
      </trkpt>
      <trkpt lat="45.91964" lon="4.73728">
        <ele>171</ele>
        <time>2017-07-13T14:16:18Z</time>
      </trkpt>
      <trkpt lat="45.91959" lon="4.73728">
        <ele>171</ele>
        <time>2017-07-13T14:16:19Z</time>
      </trkpt>
      <trkpt lat="45.91953" lon="4.73728">
        <ele>170</ele>
        <time>2017-07-13T14:16:20Z</time>
      </trkpt>
      <trkpt lat="45.91947" lon="4.73728">
        <ele>170</ele>
        <time>2017-07-13T14:16:21Z</time>
      </trkpt>
      <trkpt lat="45.91941" lon="4.73729">
        <ele>170</ele>
        <time>2017-07-13T14:16:22Z</time>
      </trkpt>
      <trkpt lat="45.91935" lon="4.73729">
        <ele>170</ele>
        <time>2017-07-13T14:16:23Z</time>
      </trkpt>
      <trkpt lat="45.91928" lon="4.7373">
        <ele>170</ele>
        <time>2017-07-13T14:16:24Z</time>
      </trkpt>
      <trkpt lat="45.91922" lon="4.7373">
        <ele>170</ele>
        <time>2017-07-13T14:16:25Z</time>
      </trkpt>
      <trkpt lat="45.91915" lon="4.7373">
        <ele>171</ele>
        <time>2017-07-13T14:16:26Z</time>
      </trkpt>
      <trkpt lat="45.91908" lon="4.7373">
        <ele>171</ele>
        <time>2017-07-13T14:16:27Z</time>
      </trkpt>
      <trkpt lat="45.91902" lon="4.73731">
        <ele>171</ele>
        <time>2017-07-13T14:16:28Z</time>
      </trkpt>
      <trkpt lat="45.91896" lon="4.73731">
        <ele>171</ele>
        <time>2017-07-13T14:16:29Z</time>
      </trkpt>
      <trkpt lat="45.9189" lon="4.73731">
        <ele>171</ele>
        <time>2017-07-13T14:16:30Z</time>
      </trkpt>
      <trkpt lat="45.91884" lon="4.73732">
        <ele>171</ele>
        <time>2017-07-13T14:16:31Z</time>
      </trkpt>
      <trkpt lat="45.91879" lon="4.73732">
        <ele>171</ele>
        <time>2017-07-13T14:16:32Z</time>
      </trkpt>
      <trkpt lat="45.91873" lon="4.73732">
        <ele>171</ele>
        <time>2017-07-13T14:16:33Z</time>
      </trkpt>
      <trkpt lat="45.91867" lon="4.73732">
        <ele>171</ele>
        <time>2017-07-13T14:16:34Z</time>
      </trkpt>
      <trkpt lat="45.91861" lon="4.73731">
        <ele>171</ele>
        <time>2017-07-13T14:16:35Z</time>
      </trkpt>
      <trkpt lat="45.91856" lon="4.73731">
        <ele>171</ele>
        <time>2017-07-13T14:16:36Z</time>
      </trkpt>
      <trkpt lat="45.91849" lon="4.73731">
        <ele>172</ele>
        <time>2017-07-13T14:16:37Z</time>
      </trkpt>
      <trkpt lat="45.91843" lon="4.73731">
        <ele>172</ele>
        <time>2017-07-13T14:16:38Z</time>
      </trkpt>
      <trkpt lat="45.91837" lon="4.73731">
        <ele>172</ele>
        <time>2017-07-13T14:16:39Z</time>
      </trkpt>
      <trkpt lat="45.91831" lon="4.73731">
        <ele>172</ele>
        <time>2017-07-13T14:16:40Z</time>
      </trkpt>
      <trkpt lat="45.91825" lon="4.73732">
        <ele>172</ele>
        <time>2017-07-13T14:16:41Z</time>
      </trkpt>
      <trkpt lat="45.9182" lon="4.73732">
        <ele>172</ele>
        <time>2017-07-13T14:16:42Z</time>
      </trkpt>
      <trkpt lat="45.91814" lon="4.73731">
        <ele>172</ele>
        <time>2017-07-13T14:16:43Z</time>
      </trkpt>
      <trkpt lat="45.91809" lon="4.73731">
        <ele>172</ele>
        <time>2017-07-13T14:16:44Z</time>
      </trkpt>
      <trkpt lat="45.91804" lon="4.73732">
        <ele>172</ele>
        <time>2017-07-13T14:16:45Z</time>
      </trkpt>
      <trkpt lat="45.91799" lon="4.73732">
        <ele>172</ele>
        <time>2017-07-13T14:16:46Z</time>
      </trkpt>
      <trkpt lat="45.91794" lon="4.73732">
        <ele>172</ele>
        <time>2017-07-13T14:16:47Z</time>
      </trkpt>
      <trkpt lat="45.91789" lon="4.73733">
        <ele>173</ele>
        <time>2017-07-13T14:16:48Z</time>
      </trkpt>
      <trkpt lat="45.91784" lon="4.73733">
        <ele>173</ele>
        <time>2017-07-13T14:16:49Z</time>
      </trkpt>
      <trkpt lat="45.91779" lon="4.73733">
        <ele>173</ele>
        <time>2017-07-13T14:16:50Z</time>
      </trkpt>
      <trkpt lat="45.91773" lon="4.73733">
        <ele>173</ele>
        <time>2017-07-13T14:16:51Z</time>
      </trkpt>
      <trkpt lat="45.91768" lon="4.73733">
        <ele>173</ele>
        <time>2017-07-13T14:16:52Z</time>
      </trkpt>
      <trkpt lat="45.91762" lon="4.73732">
        <ele>173</ele>
        <time>2017-07-13T14:16:53Z</time>
      </trkpt>
      <trkpt lat="45.91756" lon="4.73732">
        <ele>173</ele>
        <time>2017-07-13T14:16:54Z</time>
      </trkpt>
      <trkpt lat="45.9175" lon="4.73732">
        <ele>173</ele>
        <time>2017-07-13T14:16:55Z</time>
      </trkpt>
      <trkpt lat="45.91743" lon="4.73732">
        <ele>173</ele>
        <time>2017-07-13T14:16:56Z</time>
      </trkpt>
      <trkpt lat="45.91737" lon="4.73733">
        <ele>173</ele>
        <time>2017-07-13T14:16:57Z</time>
      </trkpt>
      <trkpt lat="45.9173" lon="4.73733">
        <ele>173</ele>
        <time>2017-07-13T14:16:58Z</time>
      </trkpt>
      <trkpt lat="45.91724" lon="4.73733">
        <ele>173</ele>
        <time>2017-07-13T14:16:59Z</time>
      </trkpt>
      <trkpt lat="45.91718" lon="4.73733">
        <ele>173</ele>
        <time>2017-07-13T14:17:00Z</time>
      </trkpt>
      <trkpt lat="45.91711" lon="4.73733">
        <ele>173</ele>
        <time>2017-07-13T14:17:01Z</time>
      </trkpt>
      <trkpt lat="45.91705" lon="4.73733">
        <ele>172</ele>
        <time>2017-07-13T14:17:02Z</time>
      </trkpt>
      <trkpt lat="45.91698" lon="4.73733">
        <ele>172</ele>
        <time>2017-07-13T14:17:03Z</time>
      </trkpt>
      <trkpt lat="45.91692" lon="4.73733">
        <ele>172</ele>
        <time>2017-07-13T14:17:04Z</time>
      </trkpt>
      <trkpt lat="45.91685" lon="4.73733">
        <ele>172</ele>
        <time>2017-07-13T14:17:05Z</time>
      </trkpt>
      <trkpt lat="45.91679" lon="4.73733">
        <ele>172</ele>
        <time>2017-07-13T14:17:06Z</time>
      </trkpt>
      <trkpt lat="45.91672" lon="4.73733">
        <ele>172</ele>
        <time>2017-07-13T14:17:07Z</time>
      </trkpt>
      <trkpt lat="45.91665" lon="4.73734">
        <ele>172</ele>
        <time>2017-07-13T14:17:08Z</time>
      </trkpt>
      <trkpt lat="45.91658" lon="4.73734">
        <ele>172</ele>
        <time>2017-07-13T14:17:09Z</time>
      </trkpt>
      <trkpt lat="45.91651" lon="4.73734">
        <ele>172</ele>
        <time>2017-07-13T14:17:10Z</time>
      </trkpt>
      <trkpt lat="45.91644" lon="4.73734">
        <ele>172</ele>
        <time>2017-07-13T14:17:11Z</time>
      </trkpt>
      <trkpt lat="45.91638" lon="4.73734">
        <ele>172</ele>
        <time>2017-07-13T14:17:12Z</time>
      </trkpt>
      <trkpt lat="45.91631" lon="4.73734">
        <ele>172</ele>
        <time>2017-07-13T14:17:13Z</time>
      </trkpt>
      <trkpt lat="45.91625" lon="4.73734">
        <ele>173</ele>
        <time>2017-07-13T14:17:14Z</time>
      </trkpt>
      <trkpt lat="45.91619" lon="4.73734">
        <ele>173</ele>
        <time>2017-07-13T14:17:15Z</time>
      </trkpt>
      <trkpt lat="45.91613" lon="4.73733">
        <ele>173</ele>
        <time>2017-07-13T14:17:16Z</time>
      </trkpt>
      <trkpt lat="45.91608" lon="4.73733">
        <ele>173</ele>
        <time>2017-07-13T14:17:17Z</time>
      </trkpt>
      <trkpt lat="45.91602" lon="4.73733">
        <ele>173</ele>
        <time>2017-07-13T14:17:18Z</time>
      </trkpt>
      <trkpt lat="45.91596" lon="4.73733">
        <ele>173</ele>
        <time>2017-07-13T14:17:19Z</time>
      </trkpt>
      <trkpt lat="45.91589" lon="4.73733">
        <ele>173</ele>
        <time>2017-07-13T14:17:20Z</time>
      </trkpt>
      <trkpt lat="45.91583" lon="4.73733">
        <ele>173</ele>
        <time>2017-07-13T14:17:21Z</time>
      </trkpt>
      <trkpt lat="45.91577" lon="4.73734">
        <ele>173</ele>
        <time>2017-07-13T14:17:22Z</time>
      </trkpt>
      <trkpt lat="45.9157" lon="4.73734">
        <ele>173</ele>
        <time>2017-07-13T14:17:23Z</time>
      </trkpt>
      <trkpt lat="45.91564" lon="4.73734">
        <ele>173</ele>
        <time>2017-07-13T14:17:24Z</time>
      </trkpt>
      <trkpt lat="45.91557" lon="4.73735">
        <ele>174</ele>
        <time>2017-07-13T14:17:25Z</time>
      </trkpt>
      <trkpt lat="45.91551" lon="4.73735">
        <ele>174</ele>
        <time>2017-07-13T14:17:26Z</time>
      </trkpt>
      <trkpt lat="45.91544" lon="4.73735">
        <ele>174</ele>
        <time>2017-07-13T14:17:27Z</time>
      </trkpt>
      <trkpt lat="45.91538" lon="4.73734">
        <ele>174</ele>
        <time>2017-07-13T14:17:28Z</time>
      </trkpt>
      <trkpt lat="45.91532" lon="4.73734">
        <ele>174</ele>
        <time>2017-07-13T14:17:29Z</time>
      </trkpt>
      <trkpt lat="45.91526" lon="4.73734">
        <ele>174</ele>
        <time>2017-07-13T14:17:30Z</time>
      </trkpt>
      <trkpt lat="45.9152" lon="4.73735">
        <ele>174</ele>
        <time>2017-07-13T14:17:31Z</time>
      </trkpt>
      <trkpt lat="45.91514" lon="4.73735">
        <ele>174</ele>
        <time>2017-07-13T14:17:32Z</time>
      </trkpt>
      <trkpt lat="45.91509" lon="4.73735">
        <ele>174</ele>
        <time>2017-07-13T14:17:33Z</time>
      </trkpt>
      <trkpt lat="45.91503" lon="4.73735">
        <ele>174</ele>
        <time>2017-07-13T14:17:34Z</time>
      </trkpt>
      <trkpt lat="45.91497" lon="4.73735">
        <ele>174</ele>
        <time>2017-07-13T14:17:35Z</time>
      </trkpt>
      <trkpt lat="45.91492" lon="4.73735">
        <ele>174</ele>
        <time>2017-07-13T14:17:36Z</time>
      </trkpt>
      <trkpt lat="45.91486" lon="4.73735">
        <ele>174</ele>
        <time>2017-07-13T14:17:37Z</time>
      </trkpt>
      <trkpt lat="45.9148" lon="4.73735">
        <ele>174</ele>
        <time>2017-07-13T14:17:38Z</time>
      </trkpt>
      <trkpt lat="45.91474" lon="4.73735">
        <ele>174</ele>
        <time>2017-07-13T14:17:39Z</time>
      </trkpt>
      <trkpt lat="45.91467" lon="4.73735">
        <ele>174</ele>
        <time>2017-07-13T14:17:40Z</time>
      </trkpt>
      <trkpt lat="45.91461" lon="4.73736">
        <ele>174</ele>
        <time>2017-07-13T14:17:41Z</time>
      </trkpt>
      <trkpt lat="45.91454" lon="4.73736">
        <ele>173</ele>
        <time>2017-07-13T14:17:42Z</time>
      </trkpt>
      <trkpt lat="45.91447" lon="4.73737">
        <ele>173</ele>
        <time>2017-07-13T14:17:43Z</time>
      </trkpt>
      <trkpt lat="45.91441" lon="4.73737">
        <ele>173</ele>
        <time>2017-07-13T14:17:44Z</time>
      </trkpt>
      <trkpt lat="45.91434" lon="4.73737">
        <ele>173</ele>
        <time>2017-07-13T14:17:45Z</time>
      </trkpt>
      <trkpt lat="45.91428" lon="4.73737">
        <ele>173</ele>
        <time>2017-07-13T14:17:46Z</time>
      </trkpt>
      <trkpt lat="45.91421" lon="4.73737">
        <ele>173</ele>
        <time>2017-07-13T14:17:47Z</time>
      </trkpt>
      <trkpt lat="45.91415" lon="4.73737">
        <ele>173</ele>
        <time>2017-07-13T14:17:48Z</time>
      </trkpt>
      <trkpt lat="45.91409" lon="4.73737">
        <ele>173</ele>
        <time>2017-07-13T14:17:49Z</time>
      </trkpt>
      <trkpt lat="45.91403" lon="4.73738">
        <ele>173</ele>
        <time>2017-07-13T14:17:50Z</time>
      </trkpt>
      <trkpt lat="45.91397" lon="4.73738">
        <ele>173</ele>
        <time>2017-07-13T14:17:51Z</time>
      </trkpt>
      <trkpt lat="45.91392" lon="4.73738">
        <ele>173</ele>
        <time>2017-07-13T14:17:52Z</time>
      </trkpt>
      <trkpt lat="45.91386" lon="4.73738">
        <ele>173</ele>
        <time>2017-07-13T14:17:53Z</time>
      </trkpt>
      <trkpt lat="45.9138" lon="4.73738">
        <ele>173</ele>
        <time>2017-07-13T14:17:54Z</time>
      </trkpt>
      <trkpt lat="45.91374" lon="4.73738">
        <ele>173</ele>
        <time>2017-07-13T14:17:55Z</time>
      </trkpt>
      <trkpt lat="45.91368" lon="4.73738">
        <ele>173</ele>
        <time>2017-07-13T14:17:56Z</time>
      </trkpt>
      <trkpt lat="45.91362" lon="4.73738">
        <ele>173</ele>
        <time>2017-07-13T14:17:57Z</time>
      </trkpt>
      <trkpt lat="45.91356" lon="4.73739">
        <ele>173</ele>
        <time>2017-07-13T14:17:58Z</time>
      </trkpt>
      <trkpt lat="45.91351" lon="4.73739">
        <ele>173</ele>
        <time>2017-07-13T14:17:59Z</time>
      </trkpt>
      <trkpt lat="45.91344" lon="4.73739">
        <ele>173</ele>
        <time>2017-07-13T14:18:00Z</time>
      </trkpt>
      <trkpt lat="45.91337" lon="4.73739">
        <ele>173</ele>
        <time>2017-07-13T14:18:01Z</time>
      </trkpt>
      <trkpt lat="45.91331" lon="4.73739">
        <ele>173</ele>
        <time>2017-07-13T14:18:02Z</time>
      </trkpt>
      <trkpt lat="45.91325" lon="4.73739">
        <ele>173</ele>
        <time>2017-07-13T14:18:03Z</time>
      </trkpt>
      <trkpt lat="45.91319" lon="4.73739">
        <ele>174</ele>
        <time>2017-07-13T14:18:04Z</time>
      </trkpt>
      <trkpt lat="45.91313" lon="4.7374">
        <ele>174</ele>
        <time>2017-07-13T14:18:05Z</time>
      </trkpt>
      <trkpt lat="45.91307" lon="4.7374">
        <ele>174</ele>
        <time>2017-07-13T14:18:06Z</time>
      </trkpt>
      <trkpt lat="45.91301" lon="4.73741">
        <ele>174</ele>
        <time>2017-07-13T14:18:07Z</time>
      </trkpt>
      <trkpt lat="45.91295" lon="4.73741">
        <ele>174</ele>
        <time>2017-07-13T14:18:08Z</time>
      </trkpt>
      <trkpt lat="45.9129" lon="4.73741">
        <ele>174</ele>
        <time>2017-07-13T14:18:09Z</time>
      </trkpt>
      <trkpt lat="45.91284" lon="4.73741">
        <ele>174</ele>
        <time>2017-07-13T14:18:10Z</time>
      </trkpt>
      <trkpt lat="45.91278" lon="4.73741">
        <ele>174</ele>
        <time>2017-07-13T14:18:11Z</time>
      </trkpt>
      <trkpt lat="45.91273" lon="4.73741">
        <ele>174</ele>
        <time>2017-07-13T14:18:12Z</time>
      </trkpt>
      <trkpt lat="45.91267" lon="4.73741">
        <ele>174</ele>
        <time>2017-07-13T14:18:13Z</time>
      </trkpt>
      <trkpt lat="45.91261" lon="4.7374">
        <ele>175</ele>
        <time>2017-07-13T14:18:14Z</time>
      </trkpt>
      <trkpt lat="45.91255" lon="4.7374">
        <ele>175</ele>
        <time>2017-07-13T14:18:15Z</time>
      </trkpt>
      <trkpt lat="45.91249" lon="4.73741">
        <ele>175</ele>
        <time>2017-07-13T14:18:16Z</time>
      </trkpt>
      <trkpt lat="45.91243" lon="4.73741">
        <ele>175</ele>
        <time>2017-07-13T14:18:17Z</time>
      </trkpt>
      <trkpt lat="45.91236" lon="4.73742">
        <ele>175</ele>
        <time>2017-07-13T14:18:18Z</time>
      </trkpt>
      <trkpt lat="45.9123" lon="4.73742">
        <ele>175</ele>
        <time>2017-07-13T14:18:19Z</time>
      </trkpt>
      <trkpt lat="45.91225" lon="4.73742">
        <ele>175</ele>
        <time>2017-07-13T14:18:20Z</time>
      </trkpt>
      <trkpt lat="45.91219" lon="4.73742">
        <ele>175</ele>
        <time>2017-07-13T14:18:21Z</time>
      </trkpt>
      <trkpt lat="45.91213" lon="4.73742">
        <ele>175</ele>
        <time>2017-07-13T14:18:22Z</time>
      </trkpt>
      <trkpt lat="45.91207" lon="4.73742">
        <ele>175</ele>
        <time>2017-07-13T14:18:23Z</time>
      </trkpt>
      <trkpt lat="45.91202" lon="4.73742">
        <ele>175</ele>
        <time>2017-07-13T14:18:24Z</time>
      </trkpt>
      <trkpt lat="45.91197" lon="4.73741">
        <ele>175</ele>
        <time>2017-07-13T14:18:25Z</time>
      </trkpt>
      <trkpt lat="45.91192" lon="4.73739">
        <ele>175</ele>
        <time>2017-07-13T14:18:26Z</time>
      </trkpt>
      <trkpt lat="45.91187" lon="4.73738">
        <ele>175</ele>
        <time>2017-07-13T14:18:27Z</time>
      </trkpt>
      <trkpt lat="45.91183" lon="4.73735">
        <ele>175</ele>
        <time>2017-07-13T14:18:28Z</time>
      </trkpt>
      <trkpt lat="45.91178" lon="4.73733">
        <ele>175</ele>
        <time>2017-07-13T14:18:29Z</time>
      </trkpt>
      <trkpt lat="45.91173" lon="4.73732">
        <ele>175</ele>
        <time>2017-07-13T14:18:30Z</time>
      </trkpt>
      <trkpt lat="45.91169" lon="4.73732">
        <ele>175</ele>
        <time>2017-07-13T14:18:31Z</time>
      </trkpt>
      <trkpt lat="45.91164" lon="4.73734">
        <ele>175</ele>
        <time>2017-07-13T14:18:32Z</time>
      </trkpt>
      <trkpt lat="45.91158" lon="4.73744">
        <ele>175</ele>
        <time>2017-07-13T14:18:34Z</time>
      </trkpt>
      <trkpt lat="45.91158" lon="4.73751">
        <ele>175</ele>
        <time>2017-07-13T14:18:35Z</time>
      </trkpt>
      <trkpt lat="45.9116" lon="4.73757">
        <ele>175</ele>
        <time>2017-07-13T14:18:36Z</time>
      </trkpt>
      <trkpt lat="45.91163" lon="4.73763">
        <ele>175</ele>
        <time>2017-07-13T14:18:37Z</time>
      </trkpt>
      <trkpt lat="45.91166" lon="4.7377">
        <ele>175</ele>
        <time>2017-07-13T14:18:38Z</time>
      </trkpt>
      <trkpt lat="45.91169" lon="4.73777">
        <ele>175</ele>
        <time>2017-07-13T14:18:39Z</time>
      </trkpt>
      <trkpt lat="45.91172" lon="4.73783">
        <ele>175</ele>
        <time>2017-07-13T14:18:40Z</time>
      </trkpt>
      <trkpt lat="45.91175" lon="4.7379">
        <ele>175</ele>
        <time>2017-07-13T14:18:41Z</time>
      </trkpt>
      <trkpt lat="45.91178" lon="4.73796">
        <ele>175</ele>
        <time>2017-07-13T14:18:42Z</time>
      </trkpt>
      <trkpt lat="45.91181" lon="4.73803">
        <ele>175</ele>
        <time>2017-07-13T14:18:43Z</time>
      </trkpt>
      <trkpt lat="45.91184" lon="4.73809">
        <ele>175</ele>
        <time>2017-07-13T14:18:44Z</time>
      </trkpt>
      <trkpt lat="45.91188" lon="4.73816">
        <ele>175</ele>
        <time>2017-07-13T14:18:45Z</time>
      </trkpt>
      <trkpt lat="45.91191" lon="4.73822">
        <ele>175</ele>
        <time>2017-07-13T14:18:46Z</time>
      </trkpt>
      <trkpt lat="45.91194" lon="4.73829">
        <ele>175</ele>
        <time>2017-07-13T14:18:47Z</time>
      </trkpt>
      <trkpt lat="45.91197" lon="4.73835">
        <ele>174</ele>
        <time>2017-07-13T14:18:48Z</time>
      </trkpt>
      <trkpt lat="45.912" lon="4.73841">
        <ele>174</ele>
        <time>2017-07-13T14:18:49Z</time>
      </trkpt>
      <trkpt lat="45.91203" lon="4.73847">
        <ele>174</ele>
        <time>2017-07-13T14:18:50Z</time>
      </trkpt>
      <trkpt lat="45.91205" lon="4.73853">
        <ele>174</ele>
        <time>2017-07-13T14:18:51Z</time>
      </trkpt>
      <trkpt lat="45.91208" lon="4.73859">
        <ele>174</ele>
        <time>2017-07-13T14:18:52Z</time>
      </trkpt>
      <trkpt lat="45.9121" lon="4.73865">
        <ele>174</ele>
        <time>2017-07-13T14:18:53Z</time>
      </trkpt>
      <trkpt lat="45.91212" lon="4.73872">
        <ele>174</ele>
        <time>2017-07-13T14:18:54Z</time>
      </trkpt>
      <trkpt lat="45.91214" lon="4.73878">
        <ele>174</ele>
        <time>2017-07-13T14:18:55Z</time>
      </trkpt>
      <trkpt lat="45.91216" lon="4.73885">
        <ele>174</ele>
        <time>2017-07-13T14:18:56Z</time>
      </trkpt>
      <trkpt lat="45.91218" lon="4.73891">
        <ele>174</ele>
        <time>2017-07-13T14:18:57Z</time>
      </trkpt>
      <trkpt lat="45.91219" lon="4.73898">
        <ele>174</ele>
        <time>2017-07-13T14:18:58Z</time>
      </trkpt>
      <trkpt lat="45.9122" lon="4.73904">
        <ele>174</ele>
        <time>2017-07-13T14:18:59Z</time>
      </trkpt>
      <trkpt lat="45.91221" lon="4.7391">
        <ele>174</ele>
        <time>2017-07-13T14:19:00Z</time>
      </trkpt>
      <trkpt lat="45.91222" lon="4.73917">
        <ele>174</ele>
        <time>2017-07-13T14:19:01Z</time>
      </trkpt>
      <trkpt lat="45.91223" lon="4.73923">
        <ele>173</ele>
        <time>2017-07-13T14:19:02Z</time>
      </trkpt>
      <trkpt lat="45.91223" lon="4.7393">
        <ele>173</ele>
        <time>2017-07-13T14:19:03Z</time>
      </trkpt>
      <trkpt lat="45.91224" lon="4.73936">
        <ele>173</ele>
        <time>2017-07-13T14:19:04Z</time>
      </trkpt>
      <trkpt lat="45.91225" lon="4.73943">
        <ele>173</ele>
        <time>2017-07-13T14:19:05Z</time>
      </trkpt>
      <trkpt lat="45.91225" lon="4.73955">
        <ele>173</ele>
        <time>2017-07-13T14:19:07Z</time>
      </trkpt>
      <trkpt lat="45.91225" lon="4.73961">
        <ele>173</ele>
        <time>2017-07-13T14:19:08Z</time>
      </trkpt>
      <trkpt lat="45.91224" lon="4.73974">
        <ele>173</ele>
        <time>2017-07-13T14:19:10Z</time>
      </trkpt>
      <trkpt lat="45.91224" lon="4.7398">
        <ele>173</ele>
        <time>2017-07-13T14:19:11Z</time>
      </trkpt>
      <trkpt lat="45.91223" lon="4.73992">
        <ele>173</ele>
        <time>2017-07-13T14:19:13Z</time>
      </trkpt>
      <trkpt lat="45.91222" lon="4.73998">
        <ele>173</ele>
        <time>2017-07-13T14:19:14Z</time>
      </trkpt>
      <trkpt lat="45.9122" lon="4.7401">
        <ele>173</ele>
        <time>2017-07-13T14:19:16Z</time>
      </trkpt>
      <trkpt lat="45.91219" lon="4.74016">
        <ele>173</ele>
        <time>2017-07-13T14:19:17Z</time>
      </trkpt>
      <trkpt lat="45.91217" lon="4.74028">
        <ele>173</ele>
        <time>2017-07-13T14:19:19Z</time>
      </trkpt>
      <trkpt lat="45.91216" lon="4.74034">
        <ele>173</ele>
        <time>2017-07-13T14:19:20Z</time>
      </trkpt>
      <trkpt lat="45.91214" lon="4.74041">
        <ele>173</ele>
        <time>2017-07-13T14:19:21Z</time>
      </trkpt>
      <trkpt lat="45.91213" lon="4.74047">
        <ele>173</ele>
        <time>2017-07-13T14:19:22Z</time>
      </trkpt>
      <trkpt lat="45.9121" lon="4.74059">
        <ele>173</ele>
        <time>2017-07-13T14:19:24Z</time>
      </trkpt>
      <trkpt lat="45.91209" lon="4.74064">
        <ele>173</ele>
        <time>2017-07-13T14:19:25Z</time>
      </trkpt>
      <trkpt lat="45.91206" lon="4.74075">
        <ele>173</ele>
        <time>2017-07-13T14:19:27Z</time>
      </trkpt>
      <trkpt lat="45.91205" lon="4.7408">
        <ele>173</ele>
        <time>2017-07-13T14:19:28Z</time>
      </trkpt>
      <trkpt lat="45.91203" lon="4.74092">
        <ele>173</ele>
        <time>2017-07-13T14:19:30Z</time>
      </trkpt>
      <trkpt lat="45.91202" lon="4.74099">
        <ele>173</ele>
        <time>2017-07-13T14:19:31Z</time>
      </trkpt>
      <trkpt lat="45.91201" lon="4.74106">
        <ele>173</ele>
        <time>2017-07-13T14:19:32Z</time>
      </trkpt>
      <trkpt lat="45.91199" lon="4.74113">
        <ele>174</ele>
        <time>2017-07-13T14:19:33Z</time>
      </trkpt>
      <trkpt lat="45.91198" lon="4.7412">
        <ele>174</ele>
        <time>2017-07-13T14:19:34Z</time>
      </trkpt>
      <trkpt lat="45.91197" lon="4.74126">
        <ele>174</ele>
        <time>2017-07-13T14:19:35Z</time>
      </trkpt>
      <trkpt lat="45.91195" lon="4.74133">
        <ele>174</ele>
        <time>2017-07-13T14:19:36Z</time>
      </trkpt>
      <trkpt lat="45.91193" lon="4.74139">
        <ele>174</ele>
        <time>2017-07-13T14:19:37Z</time>
      </trkpt>
      <trkpt lat="45.91192" lon="4.74146">
        <ele>174</ele>
        <time>2017-07-13T14:19:38Z</time>
      </trkpt>
      <trkpt lat="45.9119" lon="4.74153">
        <ele>174</ele>
        <time>2017-07-13T14:19:39Z</time>
      </trkpt>
      <trkpt lat="45.91189" lon="4.7416">
        <ele>174</ele>
        <time>2017-07-13T14:19:40Z</time>
      </trkpt>
      <trkpt lat="45.91188" lon="4.74167">
        <ele>174</ele>
        <time>2017-07-13T14:19:41Z</time>
      </trkpt>
      <trkpt lat="45.91187" lon="4.74174">
        <ele>174</ele>
        <time>2017-07-13T14:19:42Z</time>
      </trkpt>
      <trkpt lat="45.91186" lon="4.74182">
        <ele>174</ele>
        <time>2017-07-13T14:19:43Z</time>
      </trkpt>
      <trkpt lat="45.91186" lon="4.7419">
        <ele>175</ele>
        <time>2017-07-13T14:19:44Z</time>
      </trkpt>
      <trkpt lat="45.91185" lon="4.74198">
        <ele>175</ele>
        <time>2017-07-13T14:19:45Z</time>
      </trkpt>
      <trkpt lat="45.91185" lon="4.74206">
        <ele>175</ele>
        <time>2017-07-13T14:19:46Z</time>
      </trkpt>
      <trkpt lat="45.91185" lon="4.74215">
        <ele>175</ele>
        <time>2017-07-13T14:19:47Z</time>
      </trkpt>
      <trkpt lat="45.91185" lon="4.74223">
        <ele>175</ele>
        <time>2017-07-13T14:19:48Z</time>
      </trkpt>
      <trkpt lat="45.91186" lon="4.74232">
        <ele>175</ele>
        <time>2017-07-13T14:19:49Z</time>
      </trkpt>
      <trkpt lat="45.91187" lon="4.74242">
        <ele>175</ele>
        <time>2017-07-13T14:19:50Z</time>
      </trkpt>
      <trkpt lat="45.91189" lon="4.74251">
        <ele>175</ele>
        <time>2017-07-13T14:19:51Z</time>
      </trkpt>
      <trkpt lat="45.9119" lon="4.7426">
        <ele>175</ele>
        <time>2017-07-13T14:19:52Z</time>
      </trkpt>
      <trkpt lat="45.91192" lon="4.7427">
        <ele>175</ele>
        <time>2017-07-13T14:19:53Z</time>
      </trkpt>
      <trkpt lat="45.91194" lon="4.74279">
        <ele>175</ele>
        <time>2017-07-13T14:19:54Z</time>
      </trkpt>
      <trkpt lat="45.91196" lon="4.74288">
        <ele>175</ele>
        <time>2017-07-13T14:19:55Z</time>
      </trkpt>
      <trkpt lat="45.91199" lon="4.74297">
        <ele>175</ele>
        <time>2017-07-13T14:19:56Z</time>
      </trkpt>
      <trkpt lat="45.91201" lon="4.74307">
        <ele>175</ele>
        <time>2017-07-13T14:19:57Z</time>
      </trkpt>
      <trkpt lat="45.91204" lon="4.74316">
        <ele>175</ele>
        <time>2017-07-13T14:19:58Z</time>
      </trkpt>
      <trkpt lat="45.91206" lon="4.74326">
        <ele>175</ele>
        <time>2017-07-13T14:19:59Z</time>
      </trkpt>
      <trkpt lat="45.91208" lon="4.74336">
        <ele>175</ele>
        <time>2017-07-13T14:20:00Z</time>
      </trkpt>
      <trkpt lat="45.91211" lon="4.74346">
        <ele>175</ele>
        <time>2017-07-13T14:20:01Z</time>
      </trkpt>
      <trkpt lat="45.91214" lon="4.74356">
        <ele>175</ele>
        <time>2017-07-13T14:20:02Z</time>
      </trkpt>
      <trkpt lat="45.91217" lon="4.74365">
        <ele>174</ele>
        <time>2017-07-13T14:20:03Z</time>
      </trkpt>
      <trkpt lat="45.91219" lon="4.74375">
        <ele>174</ele>
        <time>2017-07-13T14:20:04Z</time>
      </trkpt>
      <trkpt lat="45.91222" lon="4.74385">
        <ele>174</ele>
        <time>2017-07-13T14:20:05Z</time>
      </trkpt>
      <trkpt lat="45.91225" lon="4.74394">
        <ele>174</ele>
        <time>2017-07-13T14:20:06Z</time>
      </trkpt>
      <trkpt lat="45.91228" lon="4.74404">
        <ele>174</ele>
        <time>2017-07-13T14:20:07Z</time>
      </trkpt>
      <trkpt lat="45.9123" lon="4.74412">
        <ele>174</ele>
        <time>2017-07-13T14:20:08Z</time>
      </trkpt>
      <trkpt lat="45.91232" lon="4.74422">
        <ele>174</ele>
        <time>2017-07-13T14:20:09Z</time>
      </trkpt>
      <trkpt lat="45.91235" lon="4.74431">
        <ele>174</ele>
        <time>2017-07-13T14:20:10Z</time>
      </trkpt>
      <trkpt lat="45.91237" lon="4.7444">
        <ele>174</ele>
        <time>2017-07-13T14:20:11Z</time>
      </trkpt>
      <trkpt lat="45.9124" lon="4.74448">
        <ele>174</ele>
        <time>2017-07-13T14:20:12Z</time>
      </trkpt>
      <trkpt lat="45.91242" lon="4.74456">
        <ele>174</ele>
        <time>2017-07-13T14:20:13Z</time>
      </trkpt>
      <trkpt lat="45.91244" lon="4.74464">
        <ele>174</ele>
        <time>2017-07-13T14:20:14Z</time>
      </trkpt>
      <trkpt lat="45.91246" lon="4.74472">
        <ele>174</ele>
        <time>2017-07-13T14:20:15Z</time>
      </trkpt>
      <trkpt lat="45.91248" lon="4.74479">
        <ele>174</ele>
        <time>2017-07-13T14:20:16Z</time>
      </trkpt>
      <trkpt lat="45.9125" lon="4.74486">
        <ele>174</ele>
        <time>2017-07-13T14:20:17Z</time>
      </trkpt>
      <trkpt lat="45.91252" lon="4.74494">
        <ele>174</ele>
        <time>2017-07-13T14:20:18Z</time>
      </trkpt>
      <trkpt lat="45.91254" lon="4.74502">
        <ele>174</ele>
        <time>2017-07-13T14:20:19Z</time>
      </trkpt>
      <trkpt lat="45.91256" lon="4.7451">
        <ele>174</ele>
        <time>2017-07-13T14:20:20Z</time>
      </trkpt>
      <trkpt lat="45.91258" lon="4.74518">
        <ele>174</ele>
        <time>2017-07-13T14:20:21Z</time>
      </trkpt>
      <trkpt lat="45.91261" lon="4.74526">
        <ele>173</ele>
        <time>2017-07-13T14:20:22Z</time>
      </trkpt>
      <trkpt lat="45.91263" lon="4.74534">
        <ele>173</ele>
        <time>2017-07-13T14:20:23Z</time>
      </trkpt>
      <trkpt lat="45.91266" lon="4.74541">
        <ele>173</ele>
        <time>2017-07-13T14:20:24Z</time>
      </trkpt>
      <trkpt lat="45.9127" lon="4.74548">
        <ele>173</ele>
        <time>2017-07-13T14:20:25Z</time>
      </trkpt>
      <trkpt lat="45.91273" lon="4.74555">
        <ele>173</ele>
        <time>2017-07-13T14:20:26Z</time>
      </trkpt>
      <trkpt lat="45.91276" lon="4.74561">
        <ele>173</ele>
        <time>2017-07-13T14:20:27Z</time>
      </trkpt>
      <trkpt lat="45.91279" lon="4.74568">
        <ele>173</ele>
        <time>2017-07-13T14:20:28Z</time>
      </trkpt>
      <trkpt lat="45.91282" lon="4.74575">
        <ele>173</ele>
        <time>2017-07-13T14:20:29Z</time>
      </trkpt>
      <trkpt lat="45.91285" lon="4.74582">
        <ele>173</ele>
        <time>2017-07-13T14:20:30Z</time>
      </trkpt>
      <trkpt lat="45.91288" lon="4.74588">
        <ele>173</ele>
        <time>2017-07-13T14:20:31Z</time>
      </trkpt>
      <trkpt lat="45.91291" lon="4.74595">
        <ele>173</ele>
        <time>2017-07-13T14:20:32Z</time>
      </trkpt>
      <trkpt lat="45.91294" lon="4.74602">
        <ele>173</ele>
        <time>2017-07-13T14:20:33Z</time>
      </trkpt>
      <trkpt lat="45.91297" lon="4.7461">
        <ele>173</ele>
        <time>2017-07-13T14:20:34Z</time>
      </trkpt>
      <trkpt lat="45.913" lon="4.74616">
        <ele>173</ele>
        <time>2017-07-13T14:20:35Z</time>
      </trkpt>
      <trkpt lat="45.91303" lon="4.74624">
        <ele>173</ele>
        <time>2017-07-13T14:20:36Z</time>
      </trkpt>
      <trkpt lat="45.91306" lon="4.74632">
        <ele>173</ele>
        <time>2017-07-13T14:20:37Z</time>
      </trkpt>
      <trkpt lat="45.9131" lon="4.74639">
        <ele>173</ele>
        <time>2017-07-13T14:20:38Z</time>
      </trkpt>
      <trkpt lat="45.91313" lon="4.74647">
        <ele>173</ele>
        <time>2017-07-13T14:20:39Z</time>
      </trkpt>
      <trkpt lat="45.91316" lon="4.74655">
        <ele>173</ele>
        <time>2017-07-13T14:20:40Z</time>
      </trkpt>
      <trkpt lat="45.91319" lon="4.74663">
        <ele>173</ele>
        <time>2017-07-13T14:20:41Z</time>
      </trkpt>
      <trkpt lat="45.91321" lon="4.7467">
        <ele>173</ele>
        <time>2017-07-13T14:20:42Z</time>
      </trkpt>
      <trkpt lat="45.91324" lon="4.74677">
        <ele>173</ele>
        <time>2017-07-13T14:20:43Z</time>
      </trkpt>
      <trkpt lat="45.91326" lon="4.74684">
        <ele>173</ele>
        <time>2017-07-13T14:20:44Z</time>
      </trkpt>
      <trkpt lat="45.91328" lon="4.74691">
        <ele>173</ele>
        <time>2017-07-13T14:20:45Z</time>
      </trkpt>
      <trkpt lat="45.9133" lon="4.74698">
        <ele>173</ele>
        <time>2017-07-13T14:20:46Z</time>
      </trkpt>
      <trkpt lat="45.9133" lon="4.74705">
        <ele>173</ele>
        <time>2017-07-13T14:20:47Z</time>
      </trkpt>
      <trkpt lat="45.9133" lon="4.74712">
        <ele>173</ele>
        <time>2017-07-13T14:20:48Z</time>
      </trkpt>
      <trkpt lat="45.91329" lon="4.74719">
        <ele>173</ele>
        <time>2017-07-13T14:20:49Z</time>
      </trkpt>
      <trkpt lat="45.91328" lon="4.74726">
        <ele>173</ele>
        <time>2017-07-13T14:20:50Z</time>
      </trkpt>
      <trkpt lat="45.91326" lon="4.74732">
        <ele>173</ele>
        <time>2017-07-13T14:20:51Z</time>
      </trkpt>
      <trkpt lat="45.91325" lon="4.74739">
        <ele>173</ele>
        <time>2017-07-13T14:20:52Z</time>
      </trkpt>
      <trkpt lat="45.91323" lon="4.74746">
        <ele>173</ele>
        <time>2017-07-13T14:20:53Z</time>
      </trkpt>
      <trkpt lat="45.91321" lon="4.74753">
        <ele>174</ele>
        <time>2017-07-13T14:20:54Z</time>
      </trkpt>
      <trkpt lat="45.9132" lon="4.74761">
        <ele>174</ele>
        <time>2017-07-13T14:20:55Z</time>
      </trkpt>
      <trkpt lat="45.91319" lon="4.74768">
        <ele>174</ele>
        <time>2017-07-13T14:20:56Z</time>
      </trkpt>
      <trkpt lat="45.91317" lon="4.74777">
        <ele>174</ele>
        <time>2017-07-13T14:20:57Z</time>
      </trkpt>
      <trkpt lat="45.91316" lon="4.74785">
        <ele>174</ele>
        <time>2017-07-13T14:20:58Z</time>
      </trkpt>
      <trkpt lat="45.91315" lon="4.74794">
        <ele>174</ele>
        <time>2017-07-13T14:20:59Z</time>
      </trkpt>
      <trkpt lat="45.91315" lon="4.74803">
        <ele>175</ele>
        <time>2017-07-13T14:21:00Z</time>
      </trkpt>
      <trkpt lat="45.91314" lon="4.74811">
        <ele>175</ele>
        <time>2017-07-13T14:21:01Z</time>
      </trkpt>
      <trkpt lat="45.91314" lon="4.7482">
        <ele>175</ele>
        <time>2017-07-13T14:21:02Z</time>
      </trkpt>
      <trkpt lat="45.91314" lon="4.74827">
        <ele>175</ele>
        <time>2017-07-13T14:21:03Z</time>
      </trkpt>
      <trkpt lat="45.91313" lon="4.74834">
        <ele>176</ele>
        <time>2017-07-13T14:21:04Z</time>
      </trkpt>
      <trkpt lat="45.91313" lon="4.74842">
        <ele>176</ele>
        <time>2017-07-13T14:21:05Z</time>
      </trkpt>
      <trkpt lat="45.91314" lon="4.74855">
        <ele>176</ele>
        <time>2017-07-13T14:21:07Z</time>
      </trkpt>
      <trkpt lat="45.91315" lon="4.74861">
        <ele>176</ele>
        <time>2017-07-13T14:21:08Z</time>
      </trkpt>
      <trkpt lat="45.91314" lon="4.74873">
        <ele>176</ele>
        <time>2017-07-13T14:21:10Z</time>
      </trkpt>
      <trkpt lat="45.91314" lon="4.7488">
        <ele>176</ele>
        <time>2017-07-13T14:21:11Z</time>
      </trkpt>
      <trkpt lat="45.91314" lon="4.74887">
        <ele>176</ele>
        <time>2017-07-13T14:21:12Z</time>
      </trkpt>
      <trkpt lat="45.91314" lon="4.74894">
        <ele>176</ele>
        <time>2017-07-13T14:21:13Z</time>
      </trkpt>
      <trkpt lat="45.91314" lon="4.74901">
        <ele>176</ele>
        <time>2017-07-13T14:21:14Z</time>
      </trkpt>
      <trkpt lat="45.91313" lon="4.74909">
        <ele>176</ele>
        <time>2017-07-13T14:21:15Z</time>
      </trkpt>
      <trkpt lat="45.91312" lon="4.74916">
        <ele>176</ele>
        <time>2017-07-13T14:21:16Z</time>
      </trkpt>
      <trkpt lat="45.91311" lon="4.74923">
        <ele>177</ele>
        <time>2017-07-13T14:21:17Z</time>
      </trkpt>
      <trkpt lat="45.91309" lon="4.7493">
        <ele>177</ele>
        <time>2017-07-13T14:21:18Z</time>
      </trkpt>
      <trkpt lat="45.91308" lon="4.74937">
        <ele>177</ele>
        <time>2017-07-13T14:21:19Z</time>
      </trkpt>
      <trkpt lat="45.91307" lon="4.74944">
        <ele>177</ele>
        <time>2017-07-13T14:21:20Z</time>
      </trkpt>
      <trkpt lat="45.91307" lon="4.74951">
        <ele>177</ele>
        <time>2017-07-13T14:21:21Z</time>
      </trkpt>
      <trkpt lat="45.91306" lon="4.74958">
        <ele>177</ele>
        <time>2017-07-13T14:21:22Z</time>
      </trkpt>
      <trkpt lat="45.91305" lon="4.74965">
        <ele>177</ele>
        <time>2017-07-13T14:21:23Z</time>
      </trkpt>
      <trkpt lat="45.91304" lon="4.74977">
        <ele>177</ele>
        <time>2017-07-13T14:21:25Z</time>
      </trkpt>
      <trkpt lat="45.91304" lon="4.74983">
        <ele>177</ele>
        <time>2017-07-13T14:21:26Z</time>
      </trkpt>
      <trkpt lat="45.91303" lon="4.74994">
        <ele>177</ele>
        <time>2017-07-13T14:21:28Z</time>
      </trkpt>
      <trkpt lat="45.91303" lon="4.75001">
        <ele>177</ele>
        <time>2017-07-13T14:21:29Z</time>
      </trkpt>
      <trkpt lat="45.91303" lon="4.75007">
        <ele>177</ele>
        <time>2017-07-13T14:21:30Z</time>
      </trkpt>
      <trkpt lat="45.91302" lon="4.75014">
        <ele>177</ele>
        <time>2017-07-13T14:21:31Z</time>
      </trkpt>
      <trkpt lat="45.91302" lon="4.75022">
        <ele>177</ele>
        <time>2017-07-13T14:21:32Z</time>
      </trkpt>
      <trkpt lat="45.91302" lon="4.75028">
        <ele>177</ele>
        <time>2017-07-13T14:21:33Z</time>
      </trkpt>
      <trkpt lat="45.91302" lon="4.75035">
        <ele>177</ele>
        <time>2017-07-13T14:21:34Z</time>
      </trkpt>
      <trkpt lat="45.91301" lon="4.75043">
        <ele>177</ele>
        <time>2017-07-13T14:21:35Z</time>
      </trkpt>
      <trkpt lat="45.91302" lon="4.75049">
        <ele>177</ele>
        <time>2017-07-13T14:21:36Z</time>
      </trkpt>
      <trkpt lat="45.91301" lon="4.75057">
        <ele>177</ele>
        <time>2017-07-13T14:21:37Z</time>
      </trkpt>
      <trkpt lat="45.91302" lon="4.75063">
        <ele>177</ele>
        <time>2017-07-13T14:21:38Z</time>
      </trkpt>
      <trkpt lat="45.91302" lon="4.7507">
        <ele>177</ele>
        <time>2017-07-13T14:21:39Z</time>
      </trkpt>
      <trkpt lat="45.91302" lon="4.75077">
        <ele>177</ele>
        <time>2017-07-13T14:21:40Z</time>
      </trkpt>
      <trkpt lat="45.91302" lon="4.75084">
        <ele>177</ele>
        <time>2017-07-13T14:21:41Z</time>
      </trkpt>
      <trkpt lat="45.91302" lon="4.75091">
        <ele>177</ele>
        <time>2017-07-13T14:21:42Z</time>
      </trkpt>
      <trkpt lat="45.91303" lon="4.75097">
        <ele>177</ele>
        <time>2017-07-13T14:21:43Z</time>
      </trkpt>
      <trkpt lat="45.91303" lon="4.75104">
        <ele>177</ele>
        <time>2017-07-13T14:21:44Z</time>
      </trkpt>
      <trkpt lat="45.91304" lon="4.75111">
        <ele>177</ele>
        <time>2017-07-13T14:21:45Z</time>
      </trkpt>
      <trkpt lat="45.91305" lon="4.75118">
        <ele>177</ele>
        <time>2017-07-13T14:21:46Z</time>
      </trkpt>
      <trkpt lat="45.91305" lon="4.75125">
        <ele>177</ele>
        <time>2017-07-13T14:21:47Z</time>
      </trkpt>
      <trkpt lat="45.91306" lon="4.75132">
        <ele>177</ele>
        <time>2017-07-13T14:21:48Z</time>
      </trkpt>
      <trkpt lat="45.91307" lon="4.7514">
        <ele>177</ele>
        <time>2017-07-13T14:21:49Z</time>
      </trkpt>
      <trkpt lat="45.91307" lon="4.75147">
        <ele>177</ele>
        <time>2017-07-13T14:21:50Z</time>
      </trkpt>
      <trkpt lat="45.91308" lon="4.75153">
        <ele>177</ele>
        <time>2017-07-13T14:21:51Z</time>
      </trkpt>
      <trkpt lat="45.91305" lon="4.75163">
        <ele>177</ele>
        <time>2017-07-13T14:21:54Z</time>
      </trkpt>
      <trkpt lat="45.91301" lon="4.75161">
        <ele>177</ele>
        <time>2017-07-13T14:21:55Z</time>
      </trkpt>
      <trkpt lat="45.91293" lon="4.75158">
        <ele>177</ele>
        <time>2017-07-13T14:21:57Z</time>
      </trkpt>
      <trkpt lat="45.91289" lon="4.75155">
        <ele>177</ele>
        <time>2017-07-13T14:21:58Z</time>
      </trkpt>
      <trkpt lat="45.91284" lon="4.75152">
        <ele>177</ele>
        <time>2017-07-13T14:21:59Z</time>
      </trkpt>
      <trkpt lat="45.9128" lon="4.7515">
        <ele>177</ele>
        <time>2017-07-13T14:22:00Z</time>
      </trkpt>
      <trkpt lat="45.91275" lon="4.75147">
        <ele>177</ele>
        <time>2017-07-13T14:22:01Z</time>
      </trkpt>
      <trkpt lat="45.91271" lon="4.75144">
        <ele>177</ele>
        <time>2017-07-13T14:22:02Z</time>
      </trkpt>
      <trkpt lat="45.91266" lon="4.75142">
        <ele>177</ele>
        <time>2017-07-13T14:22:03Z</time>
      </trkpt>
      <trkpt lat="45.91261" lon="4.75139">
        <ele>177</ele>
        <time>2017-07-13T14:22:04Z</time>
      </trkpt>
      <trkpt lat="45.91257" lon="4.75136">
        <ele>177</ele>
        <time>2017-07-13T14:22:05Z</time>
      </trkpt>
      <trkpt lat="45.91252" lon="4.75134">
        <ele>177</ele>
        <time>2017-07-13T14:22:06Z</time>
      </trkpt>
      <trkpt lat="45.91245" lon="4.75131">
        <ele>177</ele>
        <time>2017-07-13T14:22:07Z</time>
      </trkpt>
      <trkpt lat="45.91239" lon="4.75128">
        <ele>177</ele>
        <time>2017-07-13T14:22:08Z</time>
      </trkpt>
      <trkpt lat="45.91231" lon="4.75124">
        <ele>177</ele>
        <time>2017-07-13T14:22:10Z</time>
      </trkpt>
      <trkpt lat="45.91227" lon="4.75122">
        <ele>177</ele>
        <time>2017-07-13T14:22:11Z</time>
      </trkpt>
      <trkpt lat="45.91222" lon="4.7512">
        <ele>177</ele>
        <time>2017-07-13T14:22:12Z</time>
      </trkpt>
      <trkpt lat="45.91217" lon="4.75119">
        <ele>177</ele>
        <time>2017-07-13T14:22:13Z</time>
      </trkpt>
      <trkpt lat="45.91209" lon="4.75116">
        <ele>177</ele>
        <time>2017-07-13T14:22:15Z</time>
      </trkpt>
      <trkpt lat="45.91204" lon="4.75115">
        <ele>178</ele>
        <time>2017-07-13T14:22:16Z</time>
      </trkpt>
      <trkpt lat="45.91196" lon="4.75113">
        <ele>178</ele>
        <time>2017-07-13T14:22:18Z</time>
      </trkpt>
      <trkpt lat="45.91192" lon="4.75113">
        <ele>178</ele>
        <time>2017-07-13T14:22:19Z</time>
      </trkpt>
      <trkpt lat="45.91184" lon="4.75111">
        <ele>178</ele>
        <time>2017-07-13T14:22:21Z</time>
      </trkpt>
      <trkpt lat="45.9118" lon="4.7511">
        <ele>178</ele>
        <time>2017-07-13T14:22:22Z</time>
      </trkpt>
      <trkpt lat="45.91175" lon="4.75109">
        <ele>178</ele>
        <time>2017-07-13T14:22:23Z</time>
      </trkpt>
      <trkpt lat="45.9117" lon="4.75108">
        <ele>178</ele>
        <time>2017-07-13T14:22:24Z</time>
      </trkpt>
      <trkpt lat="45.91166" lon="4.75107">
        <ele>179</ele>
        <time>2017-07-13T14:22:25Z</time>
      </trkpt>
      <trkpt lat="45.9116" lon="4.75105">
        <ele>179</ele>
        <time>2017-07-13T14:22:26Z</time>
      </trkpt>
      <trkpt lat="45.91155" lon="4.75104">
        <ele>179</ele>
        <time>2017-07-13T14:22:27Z</time>
      </trkpt>
      <trkpt lat="45.91149" lon="4.75103">
        <ele>179</ele>
        <time>2017-07-13T14:22:28Z</time>
      </trkpt>
      <trkpt lat="45.91144" lon="4.75101">
        <ele>179</ele>
        <time>2017-07-13T14:22:29Z</time>
      </trkpt>
      <trkpt lat="45.91139" lon="4.751">
        <ele>179</ele>
        <time>2017-07-13T14:22:30Z</time>
      </trkpt>
      <trkpt lat="45.91134" lon="4.75098">
        <ele>179</ele>
        <time>2017-07-13T14:22:31Z</time>
      </trkpt>
      <trkpt lat="45.9113" lon="4.75096">
        <ele>179</ele>
        <time>2017-07-13T14:22:32Z</time>
      </trkpt>
      <trkpt lat="45.91125" lon="4.75094">
        <ele>179</ele>
        <time>2017-07-13T14:22:33Z</time>
      </trkpt>
      <trkpt lat="45.9112" lon="4.75093">
        <ele>179</ele>
        <time>2017-07-13T14:22:34Z</time>
      </trkpt>
      <trkpt lat="45.91116" lon="4.75091">
        <ele>179</ele>
        <time>2017-07-13T14:22:35Z</time>
      </trkpt>
      <trkpt lat="45.91111" lon="4.75089">
        <ele>179</ele>
        <time>2017-07-13T14:22:36Z</time>
      </trkpt>
      <trkpt lat="45.91106" lon="4.75087">
        <ele>180</ele>
        <time>2017-07-13T14:22:37Z</time>
      </trkpt>
      <trkpt lat="45.91101" lon="4.75086">
        <ele>180</ele>
        <time>2017-07-13T14:22:38Z</time>
      </trkpt>
      <trkpt lat="45.91097" lon="4.75085">
        <ele>180</ele>
        <time>2017-07-13T14:22:39Z</time>
      </trkpt>
      <trkpt lat="45.91092" lon="4.75083">
        <ele>180</ele>
        <time>2017-07-13T14:22:40Z</time>
      </trkpt>
      <trkpt lat="45.91087" lon="4.7508">
        <ele>180</ele>
        <time>2017-07-13T14:22:41Z</time>
      </trkpt>
      <trkpt lat="45.91082" lon="4.75078">
        <ele>180</ele>
        <time>2017-07-13T14:22:42Z</time>
      </trkpt>
      <trkpt lat="45.91077" lon="4.75076">
        <ele>180</ele>
        <time>2017-07-13T14:22:43Z</time>
      </trkpt>
      <trkpt lat="45.91072" lon="4.75074">
        <ele>179</ele>
        <time>2017-07-13T14:22:44Z</time>
      </trkpt>
      <trkpt lat="45.91067" lon="4.75073">
        <ele>179</ele>
        <time>2017-07-13T14:22:45Z</time>
      </trkpt>
      <trkpt lat="45.91062" lon="4.75071">
        <ele>179</ele>
        <time>2017-07-13T14:22:46Z</time>
      </trkpt>
      <trkpt lat="45.91058" lon="4.7507">
        <ele>179</ele>
        <time>2017-07-13T14:22:47Z</time>
      </trkpt>
      <trkpt lat="45.91053" lon="4.75068">
        <ele>179</ele>
        <time>2017-07-13T14:22:48Z</time>
      </trkpt>
      <trkpt lat="45.91049" lon="4.75066">
        <ele>179</ele>
        <time>2017-07-13T14:22:49Z</time>
      </trkpt>
      <trkpt lat="45.91044" lon="4.75064">
        <ele>179</ele>
        <time>2017-07-13T14:22:50Z</time>
      </trkpt>
      <trkpt lat="45.91037" lon="4.75061">
        <ele>179</ele>
        <time>2017-07-13T14:22:52Z</time>
      </trkpt>
      <trkpt lat="45.91033" lon="4.75059">
        <ele>179</ele>
        <time>2017-07-13T14:22:53Z</time>
      </trkpt>
      <trkpt lat="45.91024" lon="4.75056">
        <ele>179</ele>
        <time>2017-07-13T14:22:55Z</time>
      </trkpt>
      <trkpt lat="45.9102" lon="4.75054">
        <ele>179</ele>
        <time>2017-07-13T14:22:56Z</time>
      </trkpt>
      <trkpt lat="45.91011" lon="4.75052">
        <ele>178</ele>
        <time>2017-07-13T14:22:58Z</time>
      </trkpt>
      <trkpt lat="45.91007" lon="4.7505">
        <ele>178</ele>
        <time>2017-07-13T14:22:59Z</time>
      </trkpt>
      <trkpt lat="45.90999" lon="4.75047">
        <ele>179</ele>
        <time>2017-07-13T14:23:01Z</time>
      </trkpt>
      <trkpt lat="45.90995" lon="4.75046">
        <ele>179</ele>
        <time>2017-07-13T14:23:02Z</time>
      </trkpt>
      <trkpt lat="45.90988" lon="4.75043">
        <ele>179</ele>
        <time>2017-07-13T14:23:04Z</time>
      </trkpt>
      <trkpt lat="45.90984" lon="4.75042">
        <ele>179</ele>
        <time>2017-07-13T14:23:05Z</time>
      </trkpt>
      <trkpt lat="45.90977" lon="4.75039">
        <ele>179</ele>
        <time>2017-07-13T14:23:07Z</time>
      </trkpt>
      <trkpt lat="45.90974" lon="4.75037">
        <ele>179</ele>
        <time>2017-07-13T14:23:08Z</time>
      </trkpt>
      <trkpt lat="45.90966" lon="4.75037">
        <ele>179</ele>
        <time>2017-07-13T14:23:10Z</time>
      </trkpt>
      <trkpt lat="45.90962" lon="4.75039">
        <ele>179</ele>
        <time>2017-07-13T14:23:11Z</time>
      </trkpt>
      <trkpt lat="45.90959" lon="4.75047">
        <ele>179</ele>
        <time>2017-07-13T14:23:13Z</time>
      </trkpt>
      <trkpt lat="45.90958" lon="4.75052">
        <ele>179</ele>
        <time>2017-07-13T14:23:14Z</time>
      </trkpt>
      <trkpt lat="45.90957" lon="4.75061">
        <ele>179</ele>
        <time>2017-07-13T14:23:16Z</time>
      </trkpt>
      <trkpt lat="45.90957" lon="4.75066">
        <ele>179</ele>
        <time>2017-07-13T14:23:17Z</time>
      </trkpt>
      <trkpt lat="45.90956" lon="4.75076">
        <ele>179</ele>
        <time>2017-07-13T14:23:19Z</time>
      </trkpt>
      <trkpt lat="45.90955" lon="4.75081">
        <ele>179</ele>
        <time>2017-07-13T14:23:20Z</time>
      </trkpt>
      <trkpt lat="45.90954" lon="4.75091">
        <ele>181</ele>
        <time>2017-07-13T14:23:22Z</time>
      </trkpt>
      <trkpt lat="45.90953" lon="4.75096">
        <ele>181</ele>
        <time>2017-07-13T14:23:23Z</time>
      </trkpt>
      <trkpt lat="45.90952" lon="4.75106">
        <ele>181</ele>
        <time>2017-07-13T14:23:25Z</time>
      </trkpt>
      <trkpt lat="45.90951" lon="4.75111">
        <ele>181</ele>
        <time>2017-07-13T14:23:26Z</time>
      </trkpt>
      <trkpt lat="45.9095" lon="4.75122">
        <ele>181</ele>
        <time>2017-07-13T14:23:28Z</time>
      </trkpt>
      <trkpt lat="45.90949" lon="4.75127">
        <ele>181</ele>
        <time>2017-07-13T14:23:29Z</time>
      </trkpt>
      <trkpt lat="45.90948" lon="4.75137">
        <ele>182</ele>
        <time>2017-07-13T14:23:31Z</time>
      </trkpt>
      <trkpt lat="45.90947" lon="4.75142">
        <ele>182</ele>
        <time>2017-07-13T14:23:32Z</time>
      </trkpt>
      <trkpt lat="45.90946" lon="4.75152">
        <ele>182</ele>
        <time>2017-07-13T14:23:34Z</time>
      </trkpt>
      <trkpt lat="45.90945" lon="4.75157">
        <ele>182</ele>
        <time>2017-07-13T14:23:35Z</time>
      </trkpt>
      <trkpt lat="45.90944" lon="4.75168">
        <ele>183</ele>
        <time>2017-07-13T14:23:37Z</time>
      </trkpt>
      <trkpt lat="45.90944" lon="4.75173">
        <ele>183</ele>
        <time>2017-07-13T14:23:38Z</time>
      </trkpt>
      <trkpt lat="45.90943" lon="4.75184">
        <ele>183</ele>
        <time>2017-07-13T14:23:40Z</time>
      </trkpt>
      <trkpt lat="45.90943" lon="4.75189">
        <ele>183</ele>
        <time>2017-07-13T14:23:41Z</time>
      </trkpt>
      <trkpt lat="45.90942" lon="4.75199">
        <ele>183</ele>
        <time>2017-07-13T14:23:43Z</time>
      </trkpt>
      <trkpt lat="45.90942" lon="4.75204">
        <ele>184</ele>
        <time>2017-07-13T14:23:44Z</time>
      </trkpt>
      <trkpt lat="45.90941" lon="4.75214">
        <ele>184</ele>
        <time>2017-07-13T14:23:46Z</time>
      </trkpt>
      <trkpt lat="45.90941" lon="4.7522">
        <ele>184</ele>
        <time>2017-07-13T14:23:47Z</time>
      </trkpt>
      <trkpt lat="45.90939" lon="4.7523">
        <ele>184</ele>
        <time>2017-07-13T14:23:49Z</time>
      </trkpt>
      <trkpt lat="45.90939" lon="4.75236">
        <ele>184</ele>
        <time>2017-07-13T14:23:50Z</time>
      </trkpt>
      <trkpt lat="45.90938" lon="4.75248">
        <ele>184</ele>
        <time>2017-07-13T14:23:52Z</time>
      </trkpt>
      <trkpt lat="45.90938" lon="4.75253">
        <ele>185</ele>
        <time>2017-07-13T14:23:53Z</time>
      </trkpt>
      <trkpt lat="45.90937" lon="4.75262">
        <ele>185</ele>
        <time>2017-07-13T14:23:55Z</time>
      </trkpt>
      <trkpt lat="45.90937" lon="4.75266">
        <ele>185</ele>
        <time>2017-07-13T14:23:56Z</time>
      </trkpt>
      <trkpt lat="45.90936" lon="4.75275">
        <ele>185</ele>
        <time>2017-07-13T14:23:58Z</time>
      </trkpt>
      <trkpt lat="45.90935" lon="4.7528">
        <ele>185</ele>
        <time>2017-07-13T14:23:59Z</time>
      </trkpt>
      <trkpt lat="45.90934" lon="4.7529">
        <ele>185</ele>
        <time>2017-07-13T14:24:01Z</time>
      </trkpt>
      <trkpt lat="45.90934" lon="4.75295">
        <ele>185</ele>
        <time>2017-07-13T14:24:02Z</time>
      </trkpt>
      <trkpt lat="45.90933" lon="4.75307">
        <ele>185</ele>
        <time>2017-07-13T14:24:04Z</time>
      </trkpt>
      <trkpt lat="45.90932" lon="4.75313">
        <ele>185</ele>
        <time>2017-07-13T14:24:05Z</time>
      </trkpt>
      <trkpt lat="45.90931" lon="4.75323">
        <ele>185</ele>
        <time>2017-07-13T14:24:07Z</time>
      </trkpt>
      <trkpt lat="45.9093" lon="4.75327">
        <ele>185</ele>
        <time>2017-07-13T14:24:08Z</time>
      </trkpt>
      <trkpt lat="45.90929" lon="4.75336">
        <ele>186</ele>
        <time>2017-07-13T14:24:10Z</time>
      </trkpt>
      <trkpt lat="45.90929" lon="4.75341">
        <ele>186</ele>
        <time>2017-07-13T14:24:11Z</time>
      </trkpt>
      <trkpt lat="45.90928" lon="4.75352">
        <ele>185</ele>
        <time>2017-07-13T14:24:13Z</time>
      </trkpt>
      <trkpt lat="45.90927" lon="4.75357">
        <ele>185</ele>
        <time>2017-07-13T14:24:14Z</time>
      </trkpt>
      <trkpt lat="45.90926" lon="4.7537">
        <ele>185</ele>
        <time>2017-07-13T14:24:16Z</time>
      </trkpt>
      <trkpt lat="45.90925" lon="4.75376">
        <ele>185</ele>
        <time>2017-07-13T14:24:17Z</time>
      </trkpt>
      <trkpt lat="45.90924" lon="4.75389">
        <ele>185</ele>
        <time>2017-07-13T14:24:19Z</time>
      </trkpt>
      <trkpt lat="45.90924" lon="4.75395">
        <ele>185</ele>
        <time>2017-07-13T14:24:20Z</time>
      </trkpt>
      <trkpt lat="45.90922" lon="4.75406">
        <ele>185</ele>
        <time>2017-07-13T14:24:22Z</time>
      </trkpt>
      <trkpt lat="45.90922" lon="4.75411">
        <ele>185</ele>
        <time>2017-07-13T14:24:23Z</time>
      </trkpt>
      <trkpt lat="45.9092" lon="4.7542">
        <ele>185</ele>
        <time>2017-07-13T14:24:25Z</time>
      </trkpt>
      <trkpt lat="45.9092" lon="4.75425">
        <ele>185</ele>
        <time>2017-07-13T14:24:26Z</time>
      </trkpt>
      <trkpt lat="45.90918" lon="4.75436">
        <ele>185</ele>
        <time>2017-07-13T14:24:28Z</time>
      </trkpt>
      <trkpt lat="45.90918" lon="4.75442">
        <ele>185</ele>
        <time>2017-07-13T14:24:29Z</time>
      </trkpt>
      <trkpt lat="45.90916" lon="4.75454">
        <ele>186</ele>
        <time>2017-07-13T14:24:31Z</time>
      </trkpt>
      <trkpt lat="45.90916" lon="4.7546">
        <ele>186</ele>
        <time>2017-07-13T14:24:32Z</time>
      </trkpt>
      <trkpt lat="45.90914" lon="4.75472">
        <ele>186</ele>
        <time>2017-07-13T14:24:34Z</time>
      </trkpt>
      <trkpt lat="45.90913" lon="4.75478">
        <ele>186</ele>
        <time>2017-07-13T14:24:35Z</time>
      </trkpt>
      <trkpt lat="45.90912" lon="4.7549">
        <ele>186</ele>
        <time>2017-07-13T14:24:37Z</time>
      </trkpt>
      <trkpt lat="45.90911" lon="4.75495">
        <ele>186</ele>
        <time>2017-07-13T14:24:38Z</time>
      </trkpt>
      <trkpt lat="45.9091" lon="4.75506">
        <ele>186</ele>
        <time>2017-07-13T14:24:40Z</time>
      </trkpt>
      <trkpt lat="45.90909" lon="4.75511">
        <ele>186</ele>
        <time>2017-07-13T14:24:41Z</time>
      </trkpt>
      <trkpt lat="45.90909" lon="4.75522">
        <ele>186</ele>
        <time>2017-07-13T14:24:43Z</time>
      </trkpt>
      <trkpt lat="45.90908" lon="4.75528">
        <ele>186</ele>
        <time>2017-07-13T14:24:44Z</time>
      </trkpt>
      <trkpt lat="45.90907" lon="4.75539">
        <ele>186</ele>
        <time>2017-07-13T14:24:46Z</time>
      </trkpt>
      <trkpt lat="45.90906" lon="4.75545">
        <ele>186</ele>
        <time>2017-07-13T14:24:47Z</time>
      </trkpt>
      <trkpt lat="45.90905" lon="4.75558">
        <ele>186</ele>
        <time>2017-07-13T14:24:49Z</time>
      </trkpt>
      <trkpt lat="45.90904" lon="4.75564">
        <ele>186</ele>
        <time>2017-07-13T14:24:50Z</time>
      </trkpt>
      <trkpt lat="45.90903" lon="4.75577">
        <ele>186</ele>
        <time>2017-07-13T14:24:52Z</time>
      </trkpt>
      <trkpt lat="45.90902" lon="4.75583">
        <ele>185</ele>
        <time>2017-07-13T14:24:53Z</time>
      </trkpt>
      <trkpt lat="45.90901" lon="4.75595">
        <ele>185</ele>
        <time>2017-07-13T14:24:55Z</time>
      </trkpt>
      <trkpt lat="45.90901" lon="4.75601">
        <ele>185</ele>
        <time>2017-07-13T14:24:56Z</time>
      </trkpt>
      <trkpt lat="45.909" lon="4.75614">
        <ele>185</ele>
        <time>2017-07-13T14:24:58Z</time>
      </trkpt>
      <trkpt lat="45.90899" lon="4.7562">
        <ele>185</ele>
        <time>2017-07-13T14:24:59Z</time>
      </trkpt>
      <trkpt lat="45.90898" lon="4.75632">
        <ele>185</ele>
        <time>2017-07-13T14:25:01Z</time>
      </trkpt>
      <trkpt lat="45.90898" lon="4.75639">
        <ele>185</ele>
        <time>2017-07-13T14:25:02Z</time>
      </trkpt>
      <trkpt lat="45.90899" lon="4.7565">
        <ele>184</ele>
        <time>2017-07-13T14:25:04Z</time>
      </trkpt>
      <trkpt lat="45.90899" lon="4.75656">
        <ele>184</ele>
        <time>2017-07-13T14:25:05Z</time>
      </trkpt>
      <trkpt lat="45.90899" lon="4.75666">
        <ele>184</ele>
        <time>2017-07-13T14:25:07Z</time>
      </trkpt>
      <trkpt lat="45.90899" lon="4.75672">
        <ele>184</ele>
        <time>2017-07-13T14:25:08Z</time>
      </trkpt>
      <trkpt lat="45.90899" lon="4.75683">
        <ele>184</ele>
        <time>2017-07-13T14:25:10Z</time>
      </trkpt>
      <trkpt lat="45.90898" lon="4.75689">
        <ele>184</ele>
        <time>2017-07-13T14:25:11Z</time>
      </trkpt>
      <trkpt lat="45.90897" lon="4.75699">
        <ele>184</ele>
        <time>2017-07-13T14:25:13Z</time>
      </trkpt>
      <trkpt lat="45.90896" lon="4.75704">
        <ele>184</ele>
        <time>2017-07-13T14:25:14Z</time>
      </trkpt>
      <trkpt lat="45.90895" lon="4.75712">
        <ele>184</ele>
        <time>2017-07-13T14:25:16Z</time>
      </trkpt>
      <trkpt lat="45.90895" lon="4.75717">
        <ele>185</ele>
        <time>2017-07-13T14:25:17Z</time>
      </trkpt>
      <trkpt lat="45.90894" lon="4.75728">
        <ele>185</ele>
        <time>2017-07-13T14:25:19Z</time>
      </trkpt>
      <trkpt lat="45.90894" lon="4.75733">
        <ele>185</ele>
        <time>2017-07-13T14:25:20Z</time>
      </trkpt>
      <trkpt lat="45.90894" lon="4.75744">
        <ele>185</ele>
        <time>2017-07-13T14:25:22Z</time>
      </trkpt>
      <trkpt lat="45.90893" lon="4.7575">
        <ele>185</ele>
        <time>2017-07-13T14:25:23Z</time>
      </trkpt>
      <trkpt lat="45.90893" lon="4.75761">
        <ele>185</ele>
        <time>2017-07-13T14:25:25Z</time>
      </trkpt>
      <trkpt lat="45.90892" lon="4.75767">
        <ele>185</ele>
        <time>2017-07-13T14:25:26Z</time>
      </trkpt>
      <trkpt lat="45.90892" lon="4.7578">
        <ele>185</ele>
        <time>2017-07-13T14:25:28Z</time>
      </trkpt>
      <trkpt lat="45.90892" lon="4.75786">
        <ele>185</ele>
        <time>2017-07-13T14:25:29Z</time>
      </trkpt>
      <trkpt lat="45.90891" lon="4.75798">
        <ele>184</ele>
        <time>2017-07-13T14:25:31Z</time>
      </trkpt>
      <trkpt lat="45.9089" lon="4.75805">
        <ele>184</ele>
        <time>2017-07-13T14:25:32Z</time>
      </trkpt>
      <trkpt lat="45.90889" lon="4.75817">
        <ele>184</ele>
        <time>2017-07-13T14:25:34Z</time>
      </trkpt>
      <trkpt lat="45.90889" lon="4.75824">
        <ele>184</ele>
        <time>2017-07-13T14:25:35Z</time>
      </trkpt>
      <trkpt lat="45.90888" lon="4.75832">
        <ele>184</ele>
        <time>2017-07-13T14:25:36Z</time>
      </trkpt>
      <trkpt lat="45.90888" lon="4.75839">
        <ele>184</ele>
        <time>2017-07-13T14:25:37Z</time>
      </trkpt>
      <trkpt lat="45.90888" lon="4.75846">
        <ele>184</ele>
        <time>2017-07-13T14:25:38Z</time>
      </trkpt>
      <trkpt lat="45.90888" lon="4.75852">
        <ele>184</ele>
        <time>2017-07-13T14:25:39Z</time>
      </trkpt>
      <trkpt lat="45.90887" lon="4.75864">
        <ele>184</ele>
        <time>2017-07-13T14:25:42Z</time>
      </trkpt>
      <trkpt lat="45.90885" lon="4.75867">
        <ele>184</ele>
        <time>2017-07-13T14:25:43Z</time>
      </trkpt>
      <trkpt lat="45.90878" lon="4.75868">
        <ele>184</ele>
        <time>2017-07-13T14:25:45Z</time>
      </trkpt>
      <trkpt lat="45.90873" lon="4.75867">
        <ele>184</ele>
        <time>2017-07-13T14:25:46Z</time>
      </trkpt>
      <trkpt lat="45.90869" lon="4.75867">
        <ele>184</ele>
        <time>2017-07-13T14:25:47Z</time>
      </trkpt>
      <trkpt lat="45.90864" lon="4.75867">
        <ele>184</ele>
        <time>2017-07-13T14:25:48Z</time>
      </trkpt>
      <trkpt lat="45.90859" lon="4.75867">
        <ele>184</ele>
        <time>2017-07-13T14:25:49Z</time>
      </trkpt>
      <trkpt lat="45.90854" lon="4.75868">
        <ele>184</ele>
        <time>2017-07-13T14:25:50Z</time>
      </trkpt>
      <trkpt lat="45.90848" lon="4.75868">
        <ele>184</ele>
        <time>2017-07-13T14:25:51Z</time>
      </trkpt>
      <trkpt lat="45.90844" lon="4.75868">
        <ele>184</ele>
        <time>2017-07-13T14:25:52Z</time>
      </trkpt>
      <trkpt lat="45.90839" lon="4.75868">
        <ele>184</ele>
        <time>2017-07-13T14:25:53Z</time>
      </trkpt>
      <trkpt lat="45.90834" lon="4.75868">
        <ele>184</ele>
        <time>2017-07-13T14:25:54Z</time>
      </trkpt>
      <trkpt lat="45.90825" lon="4.75868">
        <ele>185</ele>
        <time>2017-07-13T14:25:56Z</time>
      </trkpt>
      <trkpt lat="45.90821" lon="4.75867">
        <ele>185</ele>
        <time>2017-07-13T14:25:57Z</time>
      </trkpt>
      <trkpt lat="45.90814" lon="4.75867">
        <ele>185</ele>
        <time>2017-07-13T14:25:59Z</time>
      </trkpt>
      <trkpt lat="45.9081" lon="4.75866">
        <ele>185</ele>
        <time>2017-07-13T14:26:00Z</time>
      </trkpt>
      <trkpt lat="45.90802" lon="4.75865">
        <ele>185</ele>
        <time>2017-07-13T14:26:02Z</time>
      </trkpt>
      <trkpt lat="45.90798" lon="4.75865">
        <ele>185</ele>
        <time>2017-07-13T14:26:03Z</time>
      </trkpt>
      <trkpt lat="45.90794" lon="4.75865">
        <ele>185</ele>
        <time>2017-07-13T14:26:04Z</time>
      </trkpt>
      <trkpt lat="45.90789" lon="4.75865">
        <ele>185</ele>
        <time>2017-07-13T14:26:05Z</time>
      </trkpt>
      <trkpt lat="45.90784" lon="4.75863">
        <ele>185</ele>
        <time>2017-07-13T14:26:06Z</time>
      </trkpt>
      <trkpt lat="45.90779" lon="4.75863">
        <ele>185</ele>
        <time>2017-07-13T14:26:07Z</time>
      </trkpt>
      <trkpt lat="45.90774" lon="4.75862">
        <ele>185</ele>
        <time>2017-07-13T14:26:08Z</time>
      </trkpt>
      <trkpt lat="45.9077" lon="4.75861">
        <ele>185</ele>
        <time>2017-07-13T14:26:09Z</time>
      </trkpt>
      <trkpt lat="45.90762" lon="4.75861">
        <ele>185</ele>
        <time>2017-07-13T14:26:11Z</time>
      </trkpt>
      <trkpt lat="45.90757" lon="4.75861">
        <ele>185</ele>
        <time>2017-07-13T14:26:12Z</time>
      </trkpt>
      <trkpt lat="45.90749" lon="4.75861">
        <ele>186</ele>
        <time>2017-07-13T14:26:14Z</time>
      </trkpt>
      <trkpt lat="45.90744" lon="4.75859">
        <ele>186</ele>
        <time>2017-07-13T14:26:15Z</time>
      </trkpt>
      <trkpt lat="45.90739" lon="4.75858">
        <ele>186</ele>
        <time>2017-07-13T14:26:16Z</time>
      </trkpt>
      <trkpt lat="45.90734" lon="4.75857">
        <ele>186</ele>
        <time>2017-07-13T14:26:17Z</time>
      </trkpt>
      <trkpt lat="45.9073" lon="4.75857">
        <ele>186</ele>
        <time>2017-07-13T14:26:18Z</time>
      </trkpt>
      <trkpt lat="45.90725" lon="4.75857">
        <ele>186</ele>
        <time>2017-07-13T14:26:19Z</time>
      </trkpt>
      <trkpt lat="45.9072" lon="4.75857">
        <ele>186</ele>
        <time>2017-07-13T14:26:20Z</time>
      </trkpt>
      <trkpt lat="45.90715" lon="4.75857">
        <ele>187</ele>
        <time>2017-07-13T14:26:21Z</time>
      </trkpt>
      <trkpt lat="45.90706" lon="4.75858">
        <ele>187</ele>
        <time>2017-07-13T14:26:23Z</time>
      </trkpt>
      <trkpt lat="45.90701" lon="4.75858">
        <ele>187</ele>
        <time>2017-07-13T14:26:24Z</time>
      </trkpt>
      <trkpt lat="45.90693" lon="4.75861">
        <ele>187</ele>
        <time>2017-07-13T14:26:26Z</time>
      </trkpt>
      <trkpt lat="45.90689" lon="4.75863">
        <ele>187</ele>
        <time>2017-07-13T14:26:27Z</time>
      </trkpt>
      <trkpt lat="45.90681" lon="4.75868">
        <ele>187</ele>
        <time>2017-07-13T14:26:29Z</time>
      </trkpt>
      <trkpt lat="45.90678" lon="4.75871">
        <ele>187</ele>
        <time>2017-07-13T14:26:30Z</time>
      </trkpt>
      <trkpt lat="45.9067" lon="4.75878">
        <ele>187</ele>
        <time>2017-07-13T14:26:32Z</time>
      </trkpt>
      <trkpt lat="45.90667" lon="4.75881">
        <ele>187</ele>
        <time>2017-07-13T14:26:33Z</time>
      </trkpt>
      <trkpt lat="45.90663" lon="4.75886">
        <ele>187</ele>
        <time>2017-07-13T14:26:34Z</time>
      </trkpt>
      <trkpt lat="45.9066" lon="4.75891">
        <ele>187</ele>
        <time>2017-07-13T14:26:35Z</time>
      </trkpt>
      <trkpt lat="45.90656" lon="4.75897">
        <ele>187</ele>
        <time>2017-07-13T14:26:36Z</time>
      </trkpt>
      <trkpt lat="45.90653" lon="4.75902">
        <ele>187</ele>
        <time>2017-07-13T14:26:37Z</time>
      </trkpt>
      <trkpt lat="45.90647" lon="4.75911">
        <ele>187</ele>
        <time>2017-07-13T14:26:39Z</time>
      </trkpt>
      <trkpt lat="45.90645" lon="4.75916">
        <ele>187</ele>
        <time>2017-07-13T14:26:40Z</time>
      </trkpt>
      <trkpt lat="45.9064" lon="4.75924">
        <ele>186</ele>
        <time>2017-07-13T14:26:42Z</time>
      </trkpt>
      <trkpt lat="45.90637" lon="4.75929">
        <ele>186</ele>
        <time>2017-07-13T14:26:43Z</time>
      </trkpt>
      <trkpt lat="45.90632" lon="4.75937">
        <ele>186</ele>
        <time>2017-07-13T14:26:45Z</time>
      </trkpt>
      <trkpt lat="45.90631" lon="4.75942">
        <ele>186</ele>
        <time>2017-07-13T14:26:46Z</time>
      </trkpt>
      <trkpt lat="45.90629" lon="4.75949">
        <ele>186</ele>
        <time>2017-07-13T14:26:47Z</time>
      </trkpt>
      <trkpt lat="45.90626" lon="4.75954">
        <ele>186</ele>
        <time>2017-07-13T14:26:48Z</time>
      </trkpt>
      <trkpt lat="45.90623" lon="4.75959">
        <ele>186</ele>
        <time>2017-07-13T14:26:49Z</time>
      </trkpt>
      <trkpt lat="45.9062" lon="4.75964">
        <ele>186</ele>
        <time>2017-07-13T14:26:50Z</time>
      </trkpt>
      <trkpt lat="45.90616" lon="4.75969">
        <ele>186</ele>
        <time>2017-07-13T14:26:51Z</time>
      </trkpt>
      <trkpt lat="45.90612" lon="4.75974">
        <ele>186</ele>
        <time>2017-07-13T14:26:52Z</time>
      </trkpt>
      <trkpt lat="45.90608" lon="4.75979">
        <ele>186</ele>
        <time>2017-07-13T14:26:53Z</time>
      </trkpt>
      <trkpt lat="45.90604" lon="4.75982">
        <ele>186</ele>
        <time>2017-07-13T14:26:54Z</time>
      </trkpt>
      <trkpt lat="45.90599" lon="4.75984">
        <ele>186</ele>
        <time>2017-07-13T14:26:55Z</time>
      </trkpt>
      <trkpt lat="45.90595" lon="4.75983">
        <ele>186</ele>
        <time>2017-07-13T14:26:56Z</time>
      </trkpt>
      <trkpt lat="45.90587" lon="4.75978">
        <ele>186</ele>
        <time>2017-07-13T14:26:58Z</time>
      </trkpt>
      <trkpt lat="45.90584" lon="4.75975">
        <ele>186</ele>
        <time>2017-07-13T14:26:59Z</time>
      </trkpt>
      <trkpt lat="45.9058" lon="4.75972">
        <ele>186</ele>
        <time>2017-07-13T14:27:00Z</time>
      </trkpt>
      <trkpt lat="45.90575" lon="4.75968">
        <ele>186</ele>
        <time>2017-07-13T14:27:01Z</time>
      </trkpt>
      <trkpt lat="45.9057" lon="4.75965">
        <ele>186</ele>
        <time>2017-07-13T14:27:02Z</time>
      </trkpt>
      <trkpt lat="45.90566" lon="4.75961">
        <ele>186</ele>
        <time>2017-07-13T14:27:03Z</time>
      </trkpt>
      <trkpt lat="45.9056" lon="4.75957">
        <ele>186</ele>
        <time>2017-07-13T14:27:04Z</time>
      </trkpt>
      <trkpt lat="45.90556" lon="4.75953">
        <ele>186</ele>
        <time>2017-07-13T14:27:05Z</time>
      </trkpt>
      <trkpt lat="45.90551" lon="4.75949">
        <ele>186</ele>
        <time>2017-07-13T14:27:06Z</time>
      </trkpt>
      <trkpt lat="45.90547" lon="4.75946">
        <ele>186</ele>
        <time>2017-07-13T14:27:07Z</time>
      </trkpt>
      <trkpt lat="45.90539" lon="4.7594">
        <ele>186</ele>
        <time>2017-07-13T14:27:09Z</time>
      </trkpt>
      <trkpt lat="45.90536" lon="4.75937">
        <ele>186</ele>
        <time>2017-07-13T14:27:10Z</time>
      </trkpt>
      <trkpt lat="45.90529" lon="4.75933">
        <ele>186</ele>
        <time>2017-07-13T14:27:12Z</time>
      </trkpt>
      <trkpt lat="45.90525" lon="4.75931">
        <ele>186</ele>
        <time>2017-07-13T14:27:13Z</time>
      </trkpt>
      <trkpt lat="45.90517" lon="4.7593">
        <ele>187</ele>
        <time>2017-07-13T14:27:15Z</time>
      </trkpt>
      <trkpt lat="45.90513" lon="4.7593">
        <ele>187</ele>
        <time>2017-07-13T14:27:16Z</time>
      </trkpt>
      <trkpt lat="45.90509" lon="4.7593">
        <ele>187</ele>
        <time>2017-07-13T14:27:17Z</time>
      </trkpt>
      <trkpt lat="45.90504" lon="4.75929">
        <ele>187</ele>
        <time>2017-07-13T14:27:18Z</time>
      </trkpt>
      <trkpt lat="45.90499" lon="4.7593">
        <ele>187</ele>
        <time>2017-07-13T14:27:19Z</time>
      </trkpt>
      <trkpt lat="45.90493" lon="4.75931">
        <ele>187</ele>
        <time>2017-07-13T14:27:20Z</time>
      </trkpt>
      <trkpt lat="45.90488" lon="4.75932">
        <ele>187</ele>
        <time>2017-07-13T14:27:21Z</time>
      </trkpt>
      <trkpt lat="45.90484" lon="4.75932">
        <ele>187</ele>
        <time>2017-07-13T14:27:22Z</time>
      </trkpt>
      <trkpt lat="45.90476" lon="4.75934">
        <ele>187</ele>
        <time>2017-07-13T14:27:24Z</time>
      </trkpt>
      <trkpt lat="45.90472" lon="4.75935">
        <ele>187</ele>
        <time>2017-07-13T14:27:25Z</time>
      </trkpt>
      <trkpt lat="45.90465" lon="4.75937">
        <ele>187</ele>
        <time>2017-07-13T14:27:27Z</time>
      </trkpt>
      <trkpt lat="45.90461" lon="4.75937">
        <ele>187</ele>
        <time>2017-07-13T14:27:28Z</time>
      </trkpt>
      <trkpt lat="45.90456" lon="4.75937">
        <ele>187</ele>
        <time>2017-07-13T14:27:29Z</time>
      </trkpt>
      <trkpt lat="45.90452" lon="4.75938">
        <ele>187</ele>
        <time>2017-07-13T14:27:30Z</time>
      </trkpt>
      <trkpt lat="45.90447" lon="4.75938">
        <ele>187</ele>
        <time>2017-07-13T14:27:31Z</time>
      </trkpt>
      <trkpt lat="45.90442" lon="4.75938">
        <ele>187</ele>
        <time>2017-07-13T14:27:32Z</time>
      </trkpt>
      <trkpt lat="45.90437" lon="4.75937">
        <ele>187</ele>
        <time>2017-07-13T14:27:33Z</time>
      </trkpt>
      <trkpt lat="45.90431" lon="4.75937">
        <ele>187</ele>
        <time>2017-07-13T14:27:34Z</time>
      </trkpt>
      <trkpt lat="45.90426" lon="4.75937">
        <ele>187</ele>
        <time>2017-07-13T14:27:35Z</time>
      </trkpt>
      <trkpt lat="45.90421" lon="4.75937">
        <ele>187</ele>
        <time>2017-07-13T14:27:36Z</time>
      </trkpt>
      <trkpt lat="45.90415" lon="4.75938">
        <ele>187</ele>
        <time>2017-07-13T14:27:37Z</time>
      </trkpt>
      <trkpt lat="45.9041" lon="4.75939">
        <ele>187</ele>
        <time>2017-07-13T14:27:38Z</time>
      </trkpt>
      <trkpt lat="45.90405" lon="4.7594">
        <ele>187</ele>
        <time>2017-07-13T14:27:39Z</time>
      </trkpt>
      <trkpt lat="45.90401" lon="4.75942">
        <ele>187</ele>
        <time>2017-07-13T14:27:40Z</time>
      </trkpt>
      <trkpt lat="45.90392" lon="4.75943">
        <ele>187</ele>
        <time>2017-07-13T14:27:42Z</time>
      </trkpt>
      <trkpt lat="45.90387" lon="4.75943">
        <ele>187</ele>
        <time>2017-07-13T14:27:43Z</time>
      </trkpt>
      <trkpt lat="45.90378" lon="4.75943">
        <ele>187</ele>
        <time>2017-07-13T14:27:45Z</time>
      </trkpt>
      <trkpt lat="45.90374" lon="4.75943">
        <ele>187</ele>
        <time>2017-07-13T14:27:46Z</time>
      </trkpt>
      <trkpt lat="45.90366" lon="4.75941">
        <ele>187</ele>
        <time>2017-07-13T14:27:48Z</time>
      </trkpt>
      <trkpt lat="45.90361" lon="4.75937">
        <ele>187</ele>
        <time>2017-07-13T14:27:49Z</time>
      </trkpt>
      <trkpt lat="45.90357" lon="4.75931">
        <ele>187</ele>
        <time>2017-07-13T14:27:50Z</time>
      </trkpt>
      <trkpt lat="45.90354" lon="4.75925">
        <ele>187</ele>
        <time>2017-07-13T14:27:51Z</time>
      </trkpt>
      <trkpt lat="45.90351" lon="4.75919">
        <ele>188</ele>
        <time>2017-07-13T14:27:52Z</time>
      </trkpt>
      <trkpt lat="45.90348" lon="4.75913">
        <ele>188</ele>
        <time>2017-07-13T14:27:53Z</time>
      </trkpt>
      <trkpt lat="45.90345" lon="4.75907">
        <ele>188</ele>
        <time>2017-07-13T14:27:54Z</time>
      </trkpt>
      <trkpt lat="45.90342" lon="4.759">
        <ele>188</ele>
        <time>2017-07-13T14:27:55Z</time>
      </trkpt>
      <trkpt lat="45.9034" lon="4.75894">
        <ele>188</ele>
        <time>2017-07-13T14:27:56Z</time>
      </trkpt>
      <trkpt lat="45.90337" lon="4.75888">
        <ele>188</ele>
        <time>2017-07-13T14:27:57Z</time>
      </trkpt>
      <trkpt lat="45.90335" lon="4.75883">
        <ele>188</ele>
        <time>2017-07-13T14:27:58Z</time>
      </trkpt>
      <trkpt lat="45.90332" lon="4.75878">
        <ele>189</ele>
        <time>2017-07-13T14:27:59Z</time>
      </trkpt>
      <trkpt lat="45.90327" lon="4.75867">
        <ele>189</ele>
        <time>2017-07-13T14:28:01Z</time>
      </trkpt>
      <trkpt lat="45.90325" lon="4.75862">
        <ele>189</ele>
        <time>2017-07-13T14:28:02Z</time>
      </trkpt>
      <trkpt lat="45.9032" lon="4.75854">
        <ele>189</ele>
        <time>2017-07-13T14:28:04Z</time>
      </trkpt>
      <trkpt lat="45.90318" lon="4.7585">
        <ele>189</ele>
        <time>2017-07-13T14:28:05Z</time>
      </trkpt>
      <trkpt lat="45.90314" lon="4.75843">
        <ele>189</ele>
        <time>2017-07-13T14:28:07Z</time>
      </trkpt>
      <trkpt lat="45.90312" lon="4.7584">
        <ele>189</ele>
        <time>2017-07-13T14:28:08Z</time>
      </trkpt>
      <trkpt lat="45.90304" lon="4.75835">
        <ele>189</ele>
        <time>2017-07-13T14:28:10Z</time>
      </trkpt>
      <trkpt lat="45.903" lon="4.75833">
        <ele>189</ele>
        <time>2017-07-13T14:28:11Z</time>
      </trkpt>
      <trkpt lat="45.90292" lon="4.75831">
        <ele>189</ele>
        <time>2017-07-13T14:28:13Z</time>
      </trkpt>
      <trkpt lat="45.90287" lon="4.75831">
        <ele>189</ele>
        <time>2017-07-13T14:28:14Z</time>
      </trkpt>
      <trkpt lat="45.90282" lon="4.7583">
        <ele>189</ele>
        <time>2017-07-13T14:28:15Z</time>
      </trkpt>
      <trkpt lat="45.90277" lon="4.75829">
        <ele>189</ele>
        <time>2017-07-13T14:28:16Z</time>
      </trkpt>
      <trkpt lat="45.90272" lon="4.75829">
        <ele>189</ele>
        <time>2017-07-13T14:28:17Z</time>
      </trkpt>
      <trkpt lat="45.90267" lon="4.75828">
        <ele>190</ele>
        <time>2017-07-13T14:28:18Z</time>
      </trkpt>
      <trkpt lat="45.90262" lon="4.75828">
        <ele>190</ele>
        <time>2017-07-13T14:28:19Z</time>
      </trkpt>
      <trkpt lat="45.90257" lon="4.75826">
        <ele>190</ele>
        <time>2017-07-13T14:28:20Z</time>
      </trkpt>
      <trkpt lat="45.90252" lon="4.75825">
        <ele>190</ele>
        <time>2017-07-13T14:28:21Z</time>
      </trkpt>
      <trkpt lat="45.90247" lon="4.75824">
        <ele>190</ele>
        <time>2017-07-13T14:28:22Z</time>
      </trkpt>
      <trkpt lat="45.90239" lon="4.7582">
        <ele>190</ele>
        <time>2017-07-13T14:28:24Z</time>
      </trkpt>
      <trkpt lat="45.90234" lon="4.75817">
        <ele>190</ele>
        <time>2017-07-13T14:28:25Z</time>
      </trkpt>
      <trkpt lat="45.90226" lon="4.75813">
        <ele>190</ele>
        <time>2017-07-13T14:28:27Z</time>
      </trkpt>
      <trkpt lat="45.90222" lon="4.75811">
        <ele>190</ele>
        <time>2017-07-13T14:28:28Z</time>
      </trkpt>
      <trkpt lat="45.90217" lon="4.7581">
        <ele>190</ele>
        <time>2017-07-13T14:28:29Z</time>
      </trkpt>
      <trkpt lat="45.90212" lon="4.75809">
        <ele>190</ele>
        <time>2017-07-13T14:28:30Z</time>
      </trkpt>
      <trkpt lat="45.90206" lon="4.75808">
        <ele>190</ele>
        <time>2017-07-13T14:28:31Z</time>
      </trkpt>
      <trkpt lat="45.90201" lon="4.75807">
        <ele>190</ele>
        <time>2017-07-13T14:28:32Z</time>
      </trkpt>
      <trkpt lat="45.90195" lon="4.75806">
        <ele>190</ele>
        <time>2017-07-13T14:28:33Z</time>
      </trkpt>
      <trkpt lat="45.90189" lon="4.75806">
        <ele>190</ele>
        <time>2017-07-13T14:28:34Z</time>
      </trkpt>
      <trkpt lat="45.90183" lon="4.75805">
        <ele>190</ele>
        <time>2017-07-13T14:28:35Z</time>
      </trkpt>
      <trkpt lat="45.90178" lon="4.75805">
        <ele>190</ele>
        <time>2017-07-13T14:28:36Z</time>
      </trkpt>
      <trkpt lat="45.90173" lon="4.75806">
        <ele>190</ele>
        <time>2017-07-13T14:28:37Z</time>
      </trkpt>
      <trkpt lat="45.90168" lon="4.75806">
        <ele>190</ele>
        <time>2017-07-13T14:28:38Z</time>
      </trkpt>
      <trkpt lat="45.90163" lon="4.75805">
        <ele>191</ele>
        <time>2017-07-13T14:28:39Z</time>
      </trkpt>
      <trkpt lat="45.90158" lon="4.75804">
        <ele>191</ele>
        <time>2017-07-13T14:28:40Z</time>
      </trkpt>
      <trkpt lat="45.90154" lon="4.75803">
        <ele>191</ele>
        <time>2017-07-13T14:28:41Z</time>
      </trkpt>
      <trkpt lat="45.90149" lon="4.75802">
        <ele>191</ele>
        <time>2017-07-13T14:28:42Z</time>
      </trkpt>
      <trkpt lat="45.90145" lon="4.75799">
        <ele>191</ele>
        <time>2017-07-13T14:28:43Z</time>
      </trkpt>
      <trkpt lat="45.90141" lon="4.75796">
        <ele>191</ele>
        <time>2017-07-13T14:28:44Z</time>
      </trkpt>
      <trkpt lat="45.90137" lon="4.75794">
        <ele>191</ele>
        <time>2017-07-13T14:28:45Z</time>
      </trkpt>
      <trkpt lat="45.90132" lon="4.75791">
        <ele>191</ele>
        <time>2017-07-13T14:28:46Z</time>
      </trkpt>
      <trkpt lat="45.90128" lon="4.75789">
        <ele>191</ele>
        <time>2017-07-13T14:28:47Z</time>
      </trkpt>
      <trkpt lat="45.90123" lon="4.75786">
        <ele>191</ele>
        <time>2017-07-13T14:28:48Z</time>
      </trkpt>
      <trkpt lat="45.90118" lon="4.75783">
        <ele>191</ele>
        <time>2017-07-13T14:28:49Z</time>
      </trkpt>
      <trkpt lat="45.90112" lon="4.7578">
        <ele>191</ele>
        <time>2017-07-13T14:28:50Z</time>
      </trkpt>
      <trkpt lat="45.90107" lon="4.75777">
        <ele>191</ele>
        <time>2017-07-13T14:28:51Z</time>
      </trkpt>
      <trkpt lat="45.90103" lon="4.75774">
        <ele>191</ele>
        <time>2017-07-13T14:28:52Z</time>
      </trkpt>
      <trkpt lat="45.90098" lon="4.75772">
        <ele>191</ele>
        <time>2017-07-13T14:28:53Z</time>
      </trkpt>
      <trkpt lat="45.90093" lon="4.7577">
        <ele>191</ele>
        <time>2017-07-13T14:28:54Z</time>
      </trkpt>
      <trkpt lat="45.90085" lon="4.75765">
        <ele>192</ele>
        <time>2017-07-13T14:28:56Z</time>
      </trkpt>
      <trkpt lat="45.90082" lon="4.75763">
        <ele>192</ele>
        <time>2017-07-13T14:28:57Z</time>
      </trkpt>
      <trkpt lat="45.90074" lon="4.75758">
        <ele>192</ele>
        <time>2017-07-13T14:28:59Z</time>
      </trkpt>
      <trkpt lat="45.9007" lon="4.75756">
        <ele>192</ele>
        <time>2017-07-13T14:29:00Z</time>
      </trkpt>
      <trkpt lat="45.90062" lon="4.75751">
        <ele>192</ele>
        <time>2017-07-13T14:29:02Z</time>
      </trkpt>
      <trkpt lat="45.90057" lon="4.75749">
        <ele>192</ele>
        <time>2017-07-13T14:29:03Z</time>
      </trkpt>
      <trkpt lat="45.90052" lon="4.75746">
        <ele>192</ele>
        <time>2017-07-13T14:29:04Z</time>
      </trkpt>
      <trkpt lat="45.90048" lon="4.75744">
        <ele>192</ele>
        <time>2017-07-13T14:29:05Z</time>
      </trkpt>
      <trkpt lat="45.90043" lon="4.75742">
        <ele>192</ele>
        <time>2017-07-13T14:29:06Z</time>
      </trkpt>
      <trkpt lat="45.90037" lon="4.7574">
        <ele>193</ele>
        <time>2017-07-13T14:29:07Z</time>
      </trkpt>
      <trkpt lat="45.90032" lon="4.75738">
        <ele>193</ele>
        <time>2017-07-13T14:29:08Z</time>
      </trkpt>
      <trkpt lat="45.90026" lon="4.75737">
        <ele>193</ele>
        <time>2017-07-13T14:29:09Z</time>
      </trkpt>
      <trkpt lat="45.90021" lon="4.75736">
        <ele>193</ele>
        <time>2017-07-13T14:29:10Z</time>
      </trkpt>
      <trkpt lat="45.90015" lon="4.75736">
        <ele>193</ele>
        <time>2017-07-13T14:29:11Z</time>
      </trkpt>
      <trkpt lat="45.9001" lon="4.75737">
        <ele>193</ele>
        <time>2017-07-13T14:29:12Z</time>
      </trkpt>
      <trkpt lat="45.90006" lon="4.75739">
        <ele>193</ele>
        <time>2017-07-13T14:29:13Z</time>
      </trkpt>
      <trkpt lat="45.90001" lon="4.75741">
        <ele>193</ele>
        <time>2017-07-13T14:29:14Z</time>
      </trkpt>
      <trkpt lat="45.89996" lon="4.75742">
        <ele>193</ele>
        <time>2017-07-13T14:29:15Z</time>
      </trkpt>
      <trkpt lat="45.89992" lon="4.75744">
        <ele>193</ele>
        <time>2017-07-13T14:29:16Z</time>
      </trkpt>
      <trkpt lat="45.89987" lon="4.75746">
        <ele>193</ele>
        <time>2017-07-13T14:29:17Z</time>
      </trkpt>
      <trkpt lat="45.89983" lon="4.75748">
        <ele>192</ele>
        <time>2017-07-13T14:29:18Z</time>
      </trkpt>
      <trkpt lat="45.89978" lon="4.7575">
        <ele>192</ele>
        <time>2017-07-13T14:29:19Z</time>
      </trkpt>
      <trkpt lat="45.89973" lon="4.75753">
        <ele>192</ele>
        <time>2017-07-13T14:29:20Z</time>
      </trkpt>
      <trkpt lat="45.89967" lon="4.75755">
        <ele>192</ele>
        <time>2017-07-13T14:29:21Z</time>
      </trkpt>
      <trkpt lat="45.89962" lon="4.75757">
        <ele>192</ele>
        <time>2017-07-13T14:29:22Z</time>
      </trkpt>
      <trkpt lat="45.89956" lon="4.7576">
        <ele>192</ele>
        <time>2017-07-13T14:29:23Z</time>
      </trkpt>
      <trkpt lat="45.89951" lon="4.75762">
        <ele>192</ele>
        <time>2017-07-13T14:29:24Z</time>
      </trkpt>
      <trkpt lat="45.89946" lon="4.75765">
        <ele>192</ele>
        <time>2017-07-13T14:29:25Z</time>
      </trkpt>
      <trkpt lat="45.89941" lon="4.75768">
        <ele>192</ele>
        <time>2017-07-13T14:29:26Z</time>
      </trkpt>
      <trkpt lat="45.89936" lon="4.7577">
        <ele>192</ele>
        <time>2017-07-13T14:29:27Z</time>
      </trkpt>
      <trkpt lat="45.89932" lon="4.75773">
        <ele>192</ele>
        <time>2017-07-13T14:29:28Z</time>
      </trkpt>
      <trkpt lat="45.89928" lon="4.75777">
        <ele>192</ele>
        <time>2017-07-13T14:29:29Z</time>
      </trkpt>
      <trkpt lat="45.89921" lon="4.75782">
        <ele>192</ele>
        <time>2017-07-13T14:29:31Z</time>
      </trkpt>
      <trkpt lat="45.89918" lon="4.75784">
        <ele>192</ele>
        <time>2017-07-13T14:29:32Z</time>
      </trkpt>
      <trkpt lat="45.89911" lon="4.75788">
        <ele>192</ele>
        <time>2017-07-13T14:29:34Z</time>
      </trkpt>
      <trkpt lat="45.89908" lon="4.75789">
        <ele>192</ele>
        <time>2017-07-13T14:29:35Z</time>
      </trkpt>
      <trkpt lat="45.89901" lon="4.75793">
        <ele>192</ele>
        <time>2017-07-13T14:29:37Z</time>
      </trkpt>
      <trkpt lat="45.89898" lon="4.75794">
        <ele>192</ele>
        <time>2017-07-13T14:29:38Z</time>
      </trkpt>
      <trkpt lat="45.89889" lon="4.75798">
        <ele>192</ele>
        <time>2017-07-13T14:29:40Z</time>
      </trkpt>
      <trkpt lat="45.89884" lon="4.758">
        <ele>192</ele>
        <time>2017-07-13T14:29:41Z</time>
      </trkpt>
      <trkpt lat="45.89879" lon="4.75803">
        <ele>192</ele>
        <time>2017-07-13T14:29:42Z</time>
      </trkpt>
      <trkpt lat="45.89874" lon="4.75808">
        <ele>192</ele>
        <time>2017-07-13T14:29:43Z</time>
      </trkpt>
      <trkpt lat="45.89869" lon="4.75813">
        <ele>192</ele>
        <time>2017-07-13T14:29:44Z</time>
      </trkpt>
      <trkpt lat="45.89864" lon="4.75819">
        <ele>192</ele>
        <time>2017-07-13T14:29:45Z</time>
      </trkpt>
      <trkpt lat="45.89859" lon="4.75824">
        <ele>192</ele>
        <time>2017-07-13T14:29:46Z</time>
      </trkpt>
      <trkpt lat="45.89855" lon="4.7583">
        <ele>192</ele>
        <time>2017-07-13T14:29:47Z</time>
      </trkpt>
      <trkpt lat="45.89851" lon="4.75836">
        <ele>192</ele>
        <time>2017-07-13T14:29:48Z</time>
      </trkpt>
      <trkpt lat="45.89848" lon="4.7584">
        <ele>192</ele>
        <time>2017-07-13T14:29:49Z</time>
      </trkpt>
      <trkpt lat="45.89844" lon="4.75844">
        <ele>192</ele>
        <time>2017-07-13T14:29:50Z</time>
      </trkpt>
      <trkpt lat="45.8984" lon="4.75848">
        <ele>192</ele>
        <time>2017-07-13T14:29:51Z</time>
      </trkpt>
      <trkpt lat="45.89836" lon="4.75851">
        <ele>193</ele>
        <time>2017-07-13T14:29:52Z</time>
      </trkpt>
      <trkpt lat="45.89833" lon="4.75856">
        <ele>193</ele>
        <time>2017-07-13T14:29:53Z</time>
      </trkpt>
      <trkpt lat="45.89829" lon="4.75862">
        <ele>194</ele>
        <time>2017-07-13T14:29:54Z</time>
      </trkpt>
      <trkpt lat="45.89826" lon="4.75867">
        <ele>194</ele>
        <time>2017-07-13T14:29:55Z</time>
      </trkpt>
      <trkpt lat="45.89824" lon="4.75872">
        <ele>194</ele>
        <time>2017-07-13T14:29:56Z</time>
      </trkpt>
      <trkpt lat="45.89821" lon="4.75878">
        <ele>194</ele>
        <time>2017-07-13T14:29:57Z</time>
      </trkpt>
      <trkpt lat="45.89819" lon="4.75883">
        <ele>194</ele>
        <time>2017-07-13T14:29:58Z</time>
      </trkpt>
      <trkpt lat="45.89816" lon="4.75889">
        <ele>194</ele>
        <time>2017-07-13T14:29:59Z</time>
      </trkpt>
      <trkpt lat="45.89814" lon="4.75895">
        <ele>194</ele>
        <time>2017-07-13T14:30:00Z</time>
      </trkpt>
      <trkpt lat="45.89812" lon="4.75901">
        <ele>194</ele>
        <time>2017-07-13T14:30:01Z</time>
      </trkpt>
      <trkpt lat="45.89808" lon="4.75913">
        <ele>194</ele>
        <time>2017-07-13T14:30:03Z</time>
      </trkpt>
      <trkpt lat="45.89807" lon="4.75918">
        <ele>195</ele>
        <time>2017-07-13T14:30:04Z</time>
      </trkpt>
      <trkpt lat="45.89804" lon="4.75928">
        <ele>195</ele>
        <time>2017-07-13T14:30:06Z</time>
      </trkpt>
      <trkpt lat="45.89802" lon="4.75932">
        <ele>195</ele>
        <time>2017-07-13T14:30:07Z</time>
      </trkpt>
      <trkpt lat="45.89799" lon="4.75942">
        <ele>195</ele>
        <time>2017-07-13T14:30:09Z</time>
      </trkpt>
      <trkpt lat="45.89797" lon="4.75947">
        <ele>195</ele>
        <time>2017-07-13T14:30:10Z</time>
      </trkpt>
      <trkpt lat="45.89794" lon="4.75959">
        <ele>195</ele>
        <time>2017-07-13T14:30:12Z</time>
      </trkpt>
      <trkpt lat="45.89792" lon="4.75964">
        <ele>195</ele>
        <time>2017-07-13T14:30:13Z</time>
      </trkpt>
      <trkpt lat="45.89788" lon="4.75974">
        <ele>195</ele>
        <time>2017-07-13T14:30:15Z</time>
      </trkpt>
      <trkpt lat="45.89786" lon="4.75979">
        <ele>195</ele>
        <time>2017-07-13T14:30:16Z</time>
      </trkpt>
      <trkpt lat="45.89782" lon="4.7599">
        <ele>195</ele>
        <time>2017-07-13T14:30:18Z</time>
      </trkpt>
      <trkpt lat="45.8978" lon="4.75995">
        <ele>195</ele>
        <time>2017-07-13T14:30:19Z</time>
      </trkpt>
      <trkpt lat="45.89776" lon="4.76004">
        <ele>195</ele>
        <time>2017-07-13T14:30:21Z</time>
      </trkpt>
      <trkpt lat="45.89774" lon="4.76009">
        <ele>195</ele>
        <time>2017-07-13T14:30:22Z</time>
      </trkpt>
      <trkpt lat="45.8977" lon="4.76018">
        <ele>195</ele>
        <time>2017-07-13T14:30:24Z</time>
      </trkpt>
      <trkpt lat="45.89768" lon="4.76023">
        <ele>195</ele>
        <time>2017-07-13T14:30:25Z</time>
      </trkpt>
      <trkpt lat="45.89766" lon="4.76029">
        <ele>195</ele>
        <time>2017-07-13T14:30:26Z</time>
      </trkpt>
      <trkpt lat="45.89763" lon="4.76035">
        <ele>195</ele>
        <time>2017-07-13T14:30:27Z</time>
      </trkpt>
      <trkpt lat="45.89761" lon="4.7604">
        <ele>195</ele>
        <time>2017-07-13T14:30:28Z</time>
      </trkpt>
      <trkpt lat="45.89759" lon="4.76047">
        <ele>195</ele>
        <time>2017-07-13T14:30:29Z</time>
      </trkpt>
      <trkpt lat="45.89757" lon="4.76053">
        <ele>195</ele>
        <time>2017-07-13T14:30:30Z</time>
      </trkpt>
      <trkpt lat="45.89754" lon="4.76059">
        <ele>195</ele>
        <time>2017-07-13T14:30:31Z</time>
      </trkpt>
      <trkpt lat="45.89752" lon="4.76066">
        <ele>195</ele>
        <time>2017-07-13T14:30:32Z</time>
      </trkpt>
      <trkpt lat="45.8975" lon="4.76073">
        <ele>195</ele>
        <time>2017-07-13T14:30:33Z</time>
      </trkpt>
      <trkpt lat="45.89748" lon="4.76079">
        <ele>195</ele>
        <time>2017-07-13T14:30:34Z</time>
      </trkpt>
      <trkpt lat="45.89746" lon="4.76084">
        <ele>195</ele>
        <time>2017-07-13T14:30:35Z</time>
      </trkpt>
      <trkpt lat="45.89741" lon="4.76095">
        <ele>195</ele>
        <time>2017-07-13T14:30:37Z</time>
      </trkpt>
      <trkpt lat="45.89739" lon="4.761">
        <ele>195</ele>
        <time>2017-07-13T14:30:38Z</time>
      </trkpt>
      <trkpt lat="45.89735" lon="4.7611">
        <ele>195</ele>
        <time>2017-07-13T14:30:40Z</time>
      </trkpt>
      <trkpt lat="45.89734" lon="4.76115">
        <ele>195</ele>
        <time>2017-07-13T14:30:41Z</time>
      </trkpt>
      <trkpt lat="45.8973" lon="4.76126">
        <ele>195</ele>
        <time>2017-07-13T14:30:43Z</time>
      </trkpt>
      <trkpt lat="45.89728" lon="4.76132">
        <ele>195</ele>
        <time>2017-07-13T14:30:44Z</time>
      </trkpt>
      <trkpt lat="45.89726" lon="4.76139">
        <ele>195</ele>
        <time>2017-07-13T14:30:45Z</time>
      </trkpt>
      <trkpt lat="45.89724" lon="4.76146">
        <ele>195</ele>
        <time>2017-07-13T14:30:46Z</time>
      </trkpt>
      <trkpt lat="45.89723" lon="4.76154">
        <ele>195</ele>
        <time>2017-07-13T14:30:47Z</time>
      </trkpt>
      <trkpt lat="45.89721" lon="4.76161">
        <ele>195</ele>
        <time>2017-07-13T14:30:48Z</time>
      </trkpt>
      <trkpt lat="45.8972" lon="4.76169">
        <ele>195</ele>
        <time>2017-07-13T14:30:49Z</time>
      </trkpt>
      <trkpt lat="45.89718" lon="4.76175">
        <ele>195</ele>
        <time>2017-07-13T14:30:50Z</time>
      </trkpt>
      <trkpt lat="45.89716" lon="4.76181">
        <ele>195</ele>
        <time>2017-07-13T14:30:51Z</time>
      </trkpt>
      <trkpt lat="45.89714" lon="4.76187">
        <ele>195</ele>
        <time>2017-07-13T14:30:52Z</time>
      </trkpt>
      <trkpt lat="45.89712" lon="4.76193">
        <ele>195</ele>
        <time>2017-07-13T14:30:53Z</time>
      </trkpt>
      <trkpt lat="45.89711" lon="4.762">
        <ele>195</ele>
        <time>2017-07-13T14:30:54Z</time>
      </trkpt>
      <trkpt lat="45.89707" lon="4.7621">
        <ele>195</ele>
        <time>2017-07-13T14:30:56Z</time>
      </trkpt>
      <trkpt lat="45.89705" lon="4.76215">
        <ele>195</ele>
        <time>2017-07-13T14:30:57Z</time>
      </trkpt>
      <trkpt lat="45.89701" lon="4.76226">
        <ele>195</ele>
        <time>2017-07-13T14:30:59Z</time>
      </trkpt>
      <trkpt lat="45.89699" lon="4.76232">
        <ele>195</ele>
        <time>2017-07-13T14:31:00Z</time>
      </trkpt>
      <trkpt lat="45.89697" lon="4.76239">
        <ele>195</ele>
        <time>2017-07-13T14:31:01Z</time>
      </trkpt>
      <trkpt lat="45.89695" lon="4.76245">
        <ele>195</ele>
        <time>2017-07-13T14:31:02Z</time>
      </trkpt>
      <trkpt lat="45.89693" lon="4.76251">
        <ele>195</ele>
        <time>2017-07-13T14:31:03Z</time>
      </trkpt>
      <trkpt lat="45.89691" lon="4.76257">
        <ele>195</ele>
        <time>2017-07-13T14:31:04Z</time>
      </trkpt>
      <trkpt lat="45.89689" lon="4.76263">
        <ele>195</ele>
        <time>2017-07-13T14:31:05Z</time>
      </trkpt>
      <trkpt lat="45.89687" lon="4.76269">
        <ele>195</ele>
        <time>2017-07-13T14:31:06Z</time>
      </trkpt>
      <trkpt lat="45.89683" lon="4.7628">
        <ele>195</ele>
        <time>2017-07-13T14:31:08Z</time>
      </trkpt>
      <trkpt lat="45.89681" lon="4.76285">
        <ele>195</ele>
        <time>2017-07-13T14:31:09Z</time>
      </trkpt>
      <trkpt lat="45.89677" lon="4.76296">
        <ele>195</ele>
        <time>2017-07-13T14:31:11Z</time>
      </trkpt>
      <trkpt lat="45.89676" lon="4.76302">
        <ele>195</ele>
        <time>2017-07-13T14:31:12Z</time>
      </trkpt>
      <trkpt lat="45.89674" lon="4.76308">
        <ele>195</ele>
        <time>2017-07-13T14:31:13Z</time>
      </trkpt>
      <trkpt lat="45.89672" lon="4.76314">
        <ele>195</ele>
        <time>2017-07-13T14:31:14Z</time>
      </trkpt>
      <trkpt lat="45.8967" lon="4.7632">
        <ele>195</ele>
        <time>2017-07-13T14:31:15Z</time>
      </trkpt>
      <trkpt lat="45.89667" lon="4.76327">
        <ele>195</ele>
        <time>2017-07-13T14:31:16Z</time>
      </trkpt>
      <trkpt lat="45.89665" lon="4.76333">
        <ele>195</ele>
        <time>2017-07-13T14:31:17Z</time>
      </trkpt>
      <trkpt lat="45.89663" lon="4.7634">
        <ele>195</ele>
        <time>2017-07-13T14:31:18Z</time>
      </trkpt>
      <trkpt lat="45.8966" lon="4.76351">
        <ele>195</ele>
        <time>2017-07-13T14:31:20Z</time>
      </trkpt>
      <trkpt lat="45.89658" lon="4.76357">
        <ele>195</ele>
        <time>2017-07-13T14:31:21Z</time>
      </trkpt>
      <trkpt lat="45.89654" lon="4.76367">
        <ele>195</ele>
        <time>2017-07-13T14:31:23Z</time>
      </trkpt>
      <trkpt lat="45.89652" lon="4.76372">
        <ele>195</ele>
        <time>2017-07-13T14:31:24Z</time>
      </trkpt>
      <trkpt lat="45.89648" lon="4.76381">
        <ele>195</ele>
        <time>2017-07-13T14:31:26Z</time>
      </trkpt>
      <trkpt lat="45.89646" lon="4.76386">
        <ele>195</ele>
        <time>2017-07-13T14:31:27Z</time>
      </trkpt>
      <trkpt lat="45.89642" lon="4.76394">
        <ele>195</ele>
        <time>2017-07-13T14:31:29Z</time>
      </trkpt>
      <trkpt lat="45.8964" lon="4.76398">
        <ele>195</ele>
        <time>2017-07-13T14:31:30Z</time>
      </trkpt>
      <trkpt lat="45.89636" lon="4.76406">
        <ele>195</ele>
        <time>2017-07-13T14:31:32Z</time>
      </trkpt>
      <trkpt lat="45.89635" lon="4.7641">
        <ele>195</ele>
        <time>2017-07-13T14:31:33Z</time>
      </trkpt>
      <trkpt lat="45.89631" lon="4.76418">
        <ele>195</ele>
        <time>2017-07-13T14:31:35Z</time>
      </trkpt>
      <trkpt lat="45.89629" lon="4.76422">
        <ele>195</ele>
        <time>2017-07-13T14:31:36Z</time>
      </trkpt>
      <trkpt lat="45.89625" lon="4.76432">
        <ele>195</ele>
        <time>2017-07-13T14:31:38Z</time>
      </trkpt>
      <trkpt lat="45.89623" lon="4.76437">
        <ele>195</ele>
        <time>2017-07-13T14:31:39Z</time>
      </trkpt>
      <trkpt lat="45.8962" lon="4.76447">
        <ele>195</ele>
        <time>2017-07-13T14:31:41Z</time>
      </trkpt>
      <trkpt lat="45.89618" lon="4.76452">
        <ele>195</ele>
        <time>2017-07-13T14:31:42Z</time>
      </trkpt>
      <trkpt lat="45.89615" lon="4.76462">
        <ele>194</ele>
        <time>2017-07-13T14:31:44Z</time>
      </trkpt>
      <trkpt lat="45.89613" lon="4.76467">
        <ele>194</ele>
        <time>2017-07-13T14:31:45Z</time>
      </trkpt>
      <trkpt lat="45.8961" lon="4.76477">
        <ele>194</ele>
        <time>2017-07-13T14:31:47Z</time>
      </trkpt>
      <trkpt lat="45.89608" lon="4.76481">
        <ele>194</ele>
        <time>2017-07-13T14:31:48Z</time>
      </trkpt>
      <trkpt lat="45.89605" lon="4.7649">
        <ele>194</ele>
        <time>2017-07-13T14:31:50Z</time>
      </trkpt>
      <trkpt lat="45.89603" lon="4.76494">
        <ele>194</ele>
        <time>2017-07-13T14:31:51Z</time>
      </trkpt>
      <trkpt lat="45.89601" lon="4.76503">
        <ele>194</ele>
        <time>2017-07-13T14:31:53Z</time>
      </trkpt>
      <trkpt lat="45.896" lon="4.76506">
        <ele>194</ele>
        <time>2017-07-13T14:31:54Z</time>
      </trkpt>
      <trkpt lat="45.89597" lon="4.76514">
        <ele>194</ele>
        <time>2017-07-13T14:31:56Z</time>
      </trkpt>
      <trkpt lat="45.89594" lon="4.76518">
        <ele>194</ele>
        <time>2017-07-13T14:31:57Z</time>
      </trkpt>
      <trkpt lat="45.8959" lon="4.76528">
        <ele>194</ele>
        <time>2017-07-13T14:31:59Z</time>
      </trkpt>
      <trkpt lat="45.89589" lon="4.76531">
        <ele>194</ele>
        <time>2017-07-13T14:32:00Z</time>
      </trkpt>
      <trkpt lat="45.89581" lon="4.76537">
        <ele>194</ele>
        <time>2017-07-13T14:32:04Z</time>
      </trkpt>
      <trkpt lat="45.89578" lon="4.76537">
        <ele>194</ele>
        <time>2017-07-13T14:32:05Z</time>
      </trkpt>
      <trkpt lat="45.89571" lon="4.76537">
        <ele>194</ele>
        <time>2017-07-13T14:32:08Z</time>
      </trkpt>
      <trkpt lat="45.89568" lon="4.76537">
        <ele>194</ele>
        <time>2017-07-13T14:32:09Z</time>
      </trkpt>
      <trkpt lat="45.89561" lon="4.76537">
        <ele>194</ele>
        <time>2017-07-13T14:32:11Z</time>
      </trkpt>
      <trkpt lat="45.89558" lon="4.76536">
        <ele>194</ele>
        <time>2017-07-13T14:32:12Z</time>
      </trkpt>
      <trkpt lat="45.8955" lon="4.76536">
        <ele>194</ele>
        <time>2017-07-13T14:32:15Z</time>
      </trkpt>
      <trkpt lat="45.89547" lon="4.76536">
        <ele>194</ele>
        <time>2017-07-13T14:32:16Z</time>
      </trkpt>
      <trkpt lat="45.89538" lon="4.76538">
        <ele>194</ele>
        <time>2017-07-13T14:32:19Z</time>
      </trkpt>
      <trkpt lat="45.89536" lon="4.76539">
        <ele>194</ele>
        <time>2017-07-13T14:32:20Z</time>
      </trkpt>
      <trkpt lat="45.89529" lon="4.76542">
        <ele>194</ele>
        <time>2017-07-13T14:32:23Z</time>
      </trkpt>
      <trkpt lat="45.89527" lon="4.76543">
        <ele>194</ele>
        <time>2017-07-13T14:32:24Z</time>
      </trkpt>
      <trkpt lat="45.89522" lon="4.76545">
        <ele>194</ele>
        <time>2017-07-13T14:32:26Z</time>
      </trkpt>
      <trkpt lat="45.89517" lon="4.76543">
        <ele>194</ele>
        <time>2017-07-13T14:32:27Z</time>
      </trkpt>
      <trkpt lat="45.8951" lon="4.76544">
        <ele>194</ele>
        <time>2017-07-13T14:32:29Z</time>
      </trkpt>
      <trkpt lat="45.89507" lon="4.76545">
        <ele>194</ele>
        <time>2017-07-13T14:32:30Z</time>
      </trkpt>
      <trkpt lat="45.89499" lon="4.76549">
        <ele>194</ele>
        <time>2017-07-13T14:32:33Z</time>
      </trkpt>
      <trkpt lat="45.89497" lon="4.76551">
        <ele>194</ele>
        <time>2017-07-13T14:32:34Z</time>
      </trkpt>
      <trkpt lat="45.89489" lon="4.76552">
        <ele>194</ele>
        <time>2017-07-13T14:32:38Z</time>
      </trkpt>
      <trkpt lat="45.89487" lon="4.76553">
        <ele>194</ele>
        <time>2017-07-13T14:32:39Z</time>
      </trkpt>
      <trkpt lat="45.89483" lon="4.76554">
        <ele>194</ele>
        <time>2017-07-13T14:32:42Z</time>
      </trkpt>
      <trkpt lat="45.89478" lon="4.76556">
        <ele>194</ele>
        <time>2017-07-13T14:32:43Z</time>
      </trkpt>
      <trkpt lat="45.89472" lon="4.76558">
        <ele>194</ele>
        <time>2017-07-13T14:32:45Z</time>
      </trkpt>
      <trkpt lat="45.89469" lon="4.76558">
        <ele>194</ele>
        <time>2017-07-13T14:32:46Z</time>
      </trkpt>
      <trkpt lat="45.89462" lon="4.76561">
        <ele>194</ele>
        <time>2017-07-13T14:32:49Z</time>
      </trkpt>
      <trkpt lat="45.8946" lon="4.76562">
        <ele>194</ele>
        <time>2017-07-13T14:32:50Z</time>
      </trkpt>
      <trkpt lat="45.89454" lon="4.76563">
        <ele>194</ele>
        <time>2017-07-13T14:32:53Z</time>
      </trkpt>
      <trkpt lat="45.89451" lon="4.76563">
        <ele>194</ele>
        <time>2017-07-13T14:32:54Z</time>
      </trkpt>
      <trkpt lat="45.89443" lon="4.76562">
        <ele>194</ele>
        <time>2017-07-13T14:32:57Z</time>
      </trkpt>
      <trkpt lat="45.89439" lon="4.76562">
        <ele>194</ele>
        <time>2017-07-13T14:32:58Z</time>
      </trkpt>
      <trkpt lat="45.89432" lon="4.76557">
        <ele>194</ele>
        <time>2017-07-13T14:33:02Z</time>
      </trkpt>
      <trkpt lat="45.8943" lon="4.76555">
        <ele>194</ele>
        <time>2017-07-13T14:33:03Z</time>
      </trkpt>
      <trkpt lat="45.89424" lon="4.76548">
        <ele>194</ele>
        <time>2017-07-13T14:33:06Z</time>
      </trkpt>
      <trkpt lat="45.89422" lon="4.76546">
        <ele>194</ele>
        <time>2017-07-13T14:33:07Z</time>
      </trkpt>
      <trkpt lat="45.89414" lon="4.76542">
        <ele>194</ele>
        <time>2017-07-13T14:33:10Z</time>
      </trkpt>
      <trkpt lat="45.89411" lon="4.76541">
        <ele>194</ele>
        <time>2017-07-13T14:33:11Z</time>
      </trkpt>
      <trkpt lat="45.89404" lon="4.76539">
        <ele>194</ele>
        <time>2017-07-13T14:33:13Z</time>
      </trkpt>
      <trkpt lat="45.89401" lon="4.76538">
        <ele>194</ele>
        <time>2017-07-13T14:33:14Z</time>
      </trkpt>
      <trkpt lat="45.89394" lon="4.76535">
        <ele>194</ele>
        <time>2017-07-13T14:33:16Z</time>
      </trkpt>
      <trkpt lat="45.89391" lon="4.76534">
        <ele>194</ele>
        <time>2017-07-13T14:33:17Z</time>
      </trkpt>
      <trkpt lat="45.89384" lon="4.76531">
        <ele>194</ele>
        <time>2017-07-13T14:33:20Z</time>
      </trkpt>
      <trkpt lat="45.89381" lon="4.7653">
        <ele>194</ele>
        <time>2017-07-13T14:33:21Z</time>
      </trkpt>
      <trkpt lat="45.89374" lon="4.76528">
        <ele>194</ele>
        <time>2017-07-13T14:33:23Z</time>
      </trkpt>
      <trkpt lat="45.89372" lon="4.76527">
        <ele>194</ele>
        <time>2017-07-13T14:33:24Z</time>
      </trkpt>
      <trkpt lat="45.89365" lon="4.76525">
        <ele>194</ele>
        <time>2017-07-13T14:33:27Z</time>
      </trkpt>
      <trkpt lat="45.89363" lon="4.76525">
        <ele>194</ele>
        <time>2017-07-13T14:33:28Z</time>
      </trkpt>
      <trkpt lat="45.89356" lon="4.76522">
        <ele>194</ele>
        <time>2017-07-13T14:33:30Z</time>
      </trkpt>
      <trkpt lat="45.89353" lon="4.76521">
        <ele>194</ele>
        <time>2017-07-13T14:33:31Z</time>
      </trkpt>
      <trkpt lat="45.89348" lon="4.76517">
        <ele>194</ele>
        <time>2017-07-13T14:33:33Z</time>
      </trkpt>
      <trkpt lat="45.89345" lon="4.76515">
        <ele>194</ele>
        <time>2017-07-13T14:33:34Z</time>
      </trkpt>
      <trkpt lat="45.89338" lon="4.76511">
        <ele>194</ele>
        <time>2017-07-13T14:33:36Z</time>
      </trkpt>
      <trkpt lat="45.89335" lon="4.7651">
        <ele>194</ele>
        <time>2017-07-13T14:33:37Z</time>
      </trkpt>
      <trkpt lat="45.89328" lon="4.76508">
        <ele>194</ele>
        <time>2017-07-13T14:33:40Z</time>
      </trkpt>
      <trkpt lat="45.89325" lon="4.76508">
        <ele>194</ele>
        <time>2017-07-13T14:33:41Z</time>
      </trkpt>
      <trkpt lat="45.89317" lon="4.76505">
        <ele>194</ele>
        <time>2017-07-13T14:33:44Z</time>
      </trkpt>
      <trkpt lat="45.89315" lon="4.76504">
        <ele>194</ele>
        <time>2017-07-13T14:33:45Z</time>
      </trkpt>
      <trkpt lat="45.89308" lon="4.76501">
        <ele>194</ele>
        <time>2017-07-13T14:33:48Z</time>
      </trkpt>
      <trkpt lat="45.89305" lon="4.76501">
        <ele>194</ele>
        <time>2017-07-13T14:33:49Z</time>
      </trkpt>
      <trkpt lat="45.89299" lon="4.765">
        <ele>194</ele>
        <time>2017-07-13T14:33:51Z</time>
      </trkpt>
      <trkpt lat="45.89296" lon="4.76499">
        <ele>194</ele>
        <time>2017-07-13T14:33:52Z</time>
      </trkpt>
      <trkpt lat="45.89289" lon="4.76497">
        <ele>193</ele>
        <time>2017-07-13T14:33:54Z</time>
      </trkpt>
      <trkpt lat="45.89285" lon="4.76496">
        <ele>193</ele>
        <time>2017-07-13T14:33:55Z</time>
      </trkpt>
      <trkpt lat="45.89278" lon="4.76494">
        <ele>193</ele>
        <time>2017-07-13T14:33:57Z</time>
      </trkpt>
      <trkpt lat="45.89275" lon="4.76493">
        <ele>193</ele>
        <time>2017-07-13T14:33:58Z</time>
      </trkpt>
      <trkpt lat="45.89268" lon="4.76491">
        <ele>193</ele>
        <time>2017-07-13T14:34:00Z</time>
      </trkpt>
      <trkpt lat="45.89265" lon="4.7649">
        <ele>193</ele>
        <time>2017-07-13T14:34:01Z</time>
      </trkpt>
      <trkpt lat="45.89259" lon="4.76487">
        <ele>193</ele>
        <time>2017-07-13T14:34:03Z</time>
      </trkpt>
      <trkpt lat="45.89256" lon="4.76485">
        <ele>193</ele>
        <time>2017-07-13T14:34:04Z</time>
      </trkpt>
      <trkpt lat="45.89248" lon="4.76479">
        <ele>193</ele>
        <time>2017-07-13T14:34:07Z</time>
      </trkpt>
      <trkpt lat="45.89245" lon="4.76476">
        <ele>193</ele>
        <time>2017-07-13T14:34:08Z</time>
      </trkpt>
      <trkpt lat="45.89239" lon="4.7647">
        <ele>193</ele>
        <time>2017-07-13T14:34:11Z</time>
      </trkpt>
      <trkpt lat="45.89237" lon="4.76468">
        <ele>193</ele>
        <time>2017-07-13T14:34:12Z</time>
      </trkpt>
      <trkpt lat="45.89231" lon="4.7646">
        <ele>193</ele>
        <time>2017-07-13T14:34:16Z</time>
      </trkpt>
      <trkpt lat="45.89229" lon="4.76457">
        <ele>194</ele>
        <time>2017-07-13T14:34:17Z</time>
      </trkpt>
      <trkpt lat="45.89224" lon="4.76447">
        <ele>194</ele>
        <time>2017-07-13T14:34:20Z</time>
      </trkpt>
      <trkpt lat="45.89221" lon="4.76442">
        <ele>194</ele>
        <time>2017-07-13T14:34:21Z</time>
      </trkpt>
      <trkpt lat="45.89216" lon="4.76433">
        <ele>194</ele>
        <time>2017-07-13T14:34:23Z</time>
      </trkpt>
      <trkpt lat="45.89214" lon="4.76428">
        <ele>194</ele>
        <time>2017-07-13T14:34:24Z</time>
      </trkpt>
      <trkpt lat="45.8921" lon="4.76419">
        <ele>194</ele>
        <time>2017-07-13T14:34:26Z</time>
      </trkpt>
      <trkpt lat="45.89208" lon="4.76414">
        <ele>194</ele>
        <time>2017-07-13T14:34:27Z</time>
      </trkpt>
      <trkpt lat="45.89203" lon="4.76406">
        <ele>194</ele>
        <time>2017-07-13T14:34:29Z</time>
      </trkpt>
      <trkpt lat="45.89201" lon="4.76401">
        <ele>194</ele>
        <time>2017-07-13T14:34:30Z</time>
      </trkpt>
      <trkpt lat="45.89196" lon="4.76392">
        <ele>194</ele>
        <time>2017-07-13T14:34:32Z</time>
      </trkpt>
      <trkpt lat="45.89194" lon="4.76388">
        <ele>194</ele>
        <time>2017-07-13T14:34:33Z</time>
      </trkpt>
      <trkpt lat="45.8919" lon="4.76381">
        <ele>194</ele>
        <time>2017-07-13T14:34:35Z</time>
      </trkpt>
      <trkpt lat="45.89188" lon="4.76377">
        <ele>194</ele>
        <time>2017-07-13T14:34:36Z</time>
      </trkpt>
      <trkpt lat="45.89185" lon="4.76369">
        <ele>194</ele>
        <time>2017-07-13T14:34:38Z</time>
      </trkpt>
      <trkpt lat="45.89183" lon="4.76365">
        <ele>194</ele>
        <time>2017-07-13T14:34:39Z</time>
      </trkpt>
      <trkpt lat="45.89179" lon="4.76356">
        <ele>194</ele>
        <time>2017-07-13T14:34:41Z</time>
      </trkpt>
      <trkpt lat="45.89177" lon="4.76352">
        <ele>195</ele>
        <time>2017-07-13T14:34:42Z</time>
      </trkpt>
      <trkpt lat="45.89173" lon="4.76343">
        <ele>195</ele>
        <time>2017-07-13T14:34:44Z</time>
      </trkpt>
      <trkpt lat="45.89171" lon="4.76338">
        <ele>195</ele>
        <time>2017-07-13T14:34:45Z</time>
      </trkpt>
      <trkpt lat="45.89166" lon="4.76329">
        <ele>195</ele>
        <time>2017-07-13T14:34:47Z</time>
      </trkpt>
      <trkpt lat="45.89164" lon="4.76324">
        <ele>195</ele>
        <time>2017-07-13T14:34:48Z</time>
      </trkpt>
      <trkpt lat="45.89159" lon="4.76316">
        <ele>196</ele>
        <time>2017-07-13T14:34:50Z</time>
      </trkpt>
      <trkpt lat="45.89157" lon="4.76312">
        <ele>196</ele>
        <time>2017-07-13T14:34:51Z</time>
      </trkpt>
      <trkpt lat="45.89153" lon="4.76302">
        <ele>196</ele>
        <time>2017-07-13T14:34:53Z</time>
      </trkpt>
      <trkpt lat="45.8915" lon="4.76298">
        <ele>196</ele>
        <time>2017-07-13T14:34:54Z</time>
      </trkpt>
      <trkpt lat="45.89145" lon="4.76288">
        <ele>196</ele>
        <time>2017-07-13T14:34:56Z</time>
      </trkpt>
      <trkpt lat="45.89143" lon="4.76283">
        <ele>196</ele>
        <time>2017-07-13T14:34:57Z</time>
      </trkpt>
      <trkpt lat="45.89139" lon="4.76274">
        <ele>196</ele>
        <time>2017-07-13T14:34:59Z</time>
      </trkpt>
      <trkpt lat="45.89137" lon="4.76269">
        <ele>196</ele>
        <time>2017-07-13T14:35:00Z</time>
      </trkpt>
      <trkpt lat="45.89131" lon="4.7626">
        <ele>197</ele>
        <time>2017-07-13T14:35:02Z</time>
      </trkpt>
      <trkpt lat="45.89129" lon="4.76255">
        <ele>197</ele>
        <time>2017-07-13T14:35:03Z</time>
      </trkpt>
      <trkpt lat="45.89124" lon="4.76246">
        <ele>196</ele>
        <time>2017-07-13T14:35:05Z</time>
      </trkpt>
      <trkpt lat="45.89122" lon="4.76241">
        <ele>196</ele>
        <time>2017-07-13T14:35:06Z</time>
      </trkpt>
      <trkpt lat="45.89119" lon="4.76232">
        <ele>196</ele>
        <time>2017-07-13T14:35:08Z</time>
      </trkpt>
      <trkpt lat="45.89117" lon="4.76228">
        <ele>196</ele>
        <time>2017-07-13T14:35:09Z</time>
      </trkpt>
      <trkpt lat="45.89112" lon="4.7622">
        <ele>196</ele>
        <time>2017-07-13T14:35:11Z</time>
      </trkpt>
      <trkpt lat="45.8911" lon="4.76217">
        <ele>196</ele>
        <time>2017-07-13T14:35:12Z</time>
      </trkpt>
      <trkpt lat="45.89106" lon="4.76208">
        <ele>196</ele>
        <time>2017-07-13T14:35:14Z</time>
      </trkpt>
      <trkpt lat="45.89104" lon="4.76204">
        <ele>196</ele>
        <time>2017-07-13T14:35:15Z</time>
      </trkpt>
      <trkpt lat="45.891" lon="4.76195">
        <ele>196</ele>
        <time>2017-07-13T14:35:17Z</time>
      </trkpt>
      <trkpt lat="45.89097" lon="4.76191">
        <ele>196</ele>
        <time>2017-07-13T14:35:18Z</time>
      </trkpt>
      <trkpt lat="45.89091" lon="4.76183">
        <ele>196</ele>
        <time>2017-07-13T14:35:20Z</time>
      </trkpt>
      <trkpt lat="45.89089" lon="4.76177">
        <ele>195</ele>
        <time>2017-07-13T14:35:21Z</time>
      </trkpt>
      <trkpt lat="45.89083" lon="4.76168">
        <ele>195</ele>
        <time>2017-07-13T14:35:23Z</time>
      </trkpt>
      <trkpt lat="45.89081" lon="4.76163">
        <ele>195</ele>
        <time>2017-07-13T14:35:24Z</time>
      </trkpt>
      <trkpt lat="45.89077" lon="4.76155">
        <ele>196</ele>
        <time>2017-07-13T14:35:26Z</time>
      </trkpt>
      <trkpt lat="45.89075" lon="4.76151">
        <ele>196</ele>
        <time>2017-07-13T14:35:27Z</time>
      </trkpt>
      <trkpt lat="45.89072" lon="4.76143">
        <ele>197</ele>
        <time>2017-07-13T14:35:29Z</time>
      </trkpt>
      <trkpt lat="45.89069" lon="4.76139">
        <ele>197</ele>
        <time>2017-07-13T14:35:30Z</time>
      </trkpt>
      <trkpt lat="45.89066" lon="4.7613">
        <ele>197</ele>
        <time>2017-07-13T14:35:32Z</time>
      </trkpt>
      <trkpt lat="45.89064" lon="4.76126">
        <ele>197</ele>
        <time>2017-07-13T14:35:33Z</time>
      </trkpt>
      <trkpt lat="45.89059" lon="4.76116">
        <ele>197</ele>
        <time>2017-07-13T14:35:35Z</time>
      </trkpt>
      <trkpt lat="45.89058" lon="4.76111">
        <ele>197</ele>
        <time>2017-07-13T14:35:36Z</time>
      </trkpt>
      <trkpt lat="45.89054" lon="4.76101">
        <ele>197</ele>
        <time>2017-07-13T14:35:38Z</time>
      </trkpt>
      <trkpt lat="45.89051" lon="4.76097">
        <ele>197</ele>
        <time>2017-07-13T14:35:39Z</time>
      </trkpt>
      <trkpt lat="45.89046" lon="4.76087">
        <ele>198</ele>
        <time>2017-07-13T14:35:41Z</time>
      </trkpt>
      <trkpt lat="45.89044" lon="4.76082">
        <ele>199</ele>
        <time>2017-07-13T14:35:42Z</time>
      </trkpt>
      <trkpt lat="45.8904" lon="4.76074">
        <ele>199</ele>
        <time>2017-07-13T14:35:44Z</time>
      </trkpt>
      <trkpt lat="45.89039" lon="4.7607">
        <ele>199</ele>
        <time>2017-07-13T14:35:45Z</time>
      </trkpt>
      <trkpt lat="45.89036" lon="4.76059">
        <ele>199</ele>
        <time>2017-07-13T14:35:48Z</time>
      </trkpt>
      <trkpt lat="45.89034" lon="4.76055">
        <ele>199</ele>
        <time>2017-07-13T14:35:49Z</time>
      </trkpt>
      <trkpt lat="45.8903" lon="4.76047">
        <ele>199</ele>
        <time>2017-07-13T14:35:51Z</time>
      </trkpt>
      <trkpt lat="45.89028" lon="4.76042">
        <ele>199</ele>
        <time>2017-07-13T14:35:52Z</time>
      </trkpt>
      <trkpt lat="45.89024" lon="4.76032">
        <ele>199</ele>
        <time>2017-07-13T14:35:54Z</time>
      </trkpt>
      <trkpt lat="45.89022" lon="4.76028">
        <ele>199</ele>
        <time>2017-07-13T14:35:55Z</time>
      </trkpt>
      <trkpt lat="45.89018" lon="4.76018">
        <ele>199</ele>
        <time>2017-07-13T14:35:57Z</time>
      </trkpt>
      <trkpt lat="45.89016" lon="4.76014">
        <ele>200</ele>
        <time>2017-07-13T14:35:58Z</time>
      </trkpt>
      <trkpt lat="45.89012" lon="4.76007">
        <ele>200</ele>
        <time>2017-07-13T14:36:00Z</time>
      </trkpt>
      <trkpt lat="45.8901" lon="4.76003">
        <ele>200</ele>
        <time>2017-07-13T14:36:01Z</time>
      </trkpt>
      <trkpt lat="45.89007" lon="4.75995">
        <ele>200</ele>
        <time>2017-07-13T14:36:03Z</time>
      </trkpt>
      <trkpt lat="45.89005" lon="4.7599">
        <ele>200</ele>
        <time>2017-07-13T14:36:04Z</time>
      </trkpt>
      <trkpt lat="45.89001" lon="4.75981">
        <ele>200</ele>
        <time>2017-07-13T14:36:06Z</time>
      </trkpt>
      <trkpt lat="45.88999" lon="4.75976">
        <ele>199</ele>
        <time>2017-07-13T14:36:07Z</time>
      </trkpt>
      <trkpt lat="45.88996" lon="4.75967">
        <ele>199</ele>
        <time>2017-07-13T14:36:09Z</time>
      </trkpt>
      <trkpt lat="45.88994" lon="4.75963">
        <ele>199</ele>
        <time>2017-07-13T14:36:10Z</time>
      </trkpt>
      <trkpt lat="45.88991" lon="4.75952">
        <ele>199</ele>
        <time>2017-07-13T14:36:13Z</time>
      </trkpt>
      <trkpt lat="45.88991" lon="4.75949">
        <ele>199</ele>
        <time>2017-07-13T14:36:14Z</time>
      </trkpt>
      <trkpt lat="45.88992" lon="4.75937">
        <ele>199</ele>
        <time>2017-07-13T14:36:17Z</time>
      </trkpt>
      <trkpt lat="45.88993" lon="4.75933">
        <ele>199</ele>
        <time>2017-07-13T14:36:18Z</time>
      </trkpt>
      <trkpt lat="45.88997" lon="4.75923">
        <ele>200</ele>
        <time>2017-07-13T14:36:20Z</time>
      </trkpt>
      <trkpt lat="45.88998" lon="4.75919">
        <ele>200</ele>
        <time>2017-07-13T14:36:21Z</time>
      </trkpt>
      <trkpt lat="45.89001" lon="4.7591">
        <ele>200</ele>
        <time>2017-07-13T14:36:23Z</time>
      </trkpt>
      <trkpt lat="45.89002" lon="4.75906">
        <ele>200</ele>
        <time>2017-07-13T14:36:24Z</time>
      </trkpt>
      <trkpt lat="45.89006" lon="4.75897">
        <ele>200</ele>
        <time>2017-07-13T14:36:26Z</time>
      </trkpt>
      <trkpt lat="45.89008" lon="4.75892">
        <ele>200</ele>
        <time>2017-07-13T14:36:27Z</time>
      </trkpt>
      <trkpt lat="45.89011" lon="4.75881">
        <ele>200</ele>
        <time>2017-07-13T14:36:29Z</time>
      </trkpt>
      <trkpt lat="45.89012" lon="4.75877">
        <ele>200</ele>
        <time>2017-07-13T14:36:30Z</time>
      </trkpt>
      <trkpt lat="45.89016" lon="4.75869">
        <ele>200</ele>
        <time>2017-07-13T14:36:32Z</time>
      </trkpt>
      <trkpt lat="45.89018" lon="4.75864">
        <ele>200</ele>
        <time>2017-07-13T14:36:33Z</time>
      </trkpt>
      <trkpt lat="45.89019" lon="4.75859">
        <ele>200</ele>
        <time>2017-07-13T14:36:34Z</time>
      </trkpt>
      <trkpt lat="45.89021" lon="4.75851">
        <ele>200</ele>
        <time>2017-07-13T14:36:35Z</time>
      </trkpt>
      <trkpt lat="45.89021" lon="4.75844">
        <ele>200</ele>
        <time>2017-07-13T14:36:36Z</time>
      </trkpt>
      <trkpt lat="45.89021" lon="4.75838">
        <ele>200</ele>
        <time>2017-07-13T14:36:37Z</time>
      </trkpt>
      <trkpt lat="45.8902" lon="4.75831">
        <ele>199</ele>
        <time>2017-07-13T14:36:38Z</time>
      </trkpt>
      <trkpt lat="45.8902" lon="4.75824">
        <ele>199</ele>
        <time>2017-07-13T14:36:39Z</time>
      </trkpt>
      <trkpt lat="45.89018" lon="4.75818">
        <ele>199</ele>
        <time>2017-07-13T14:36:40Z</time>
      </trkpt>
      <trkpt lat="45.89017" lon="4.7581">
        <ele>199</ele>
        <time>2017-07-13T14:36:41Z</time>
      </trkpt>
      <trkpt lat="45.89016" lon="4.75803">
        <ele>199</ele>
        <time>2017-07-13T14:36:42Z</time>
      </trkpt>
      <trkpt lat="45.89015" lon="4.75796">
        <ele>199</ele>
        <time>2017-07-13T14:36:43Z</time>
      </trkpt>
      <trkpt lat="45.89013" lon="4.7579">
        <ele>199</ele>
        <time>2017-07-13T14:36:44Z</time>
      </trkpt>
      <trkpt lat="45.89011" lon="4.75784">
        <ele>199</ele>
        <time>2017-07-13T14:36:45Z</time>
      </trkpt>
      <trkpt lat="45.89007" lon="4.75774">
        <ele>199</ele>
        <time>2017-07-13T14:36:47Z</time>
      </trkpt>
      <trkpt lat="45.89005" lon="4.75769">
        <ele>198</ele>
        <time>2017-07-13T14:36:48Z</time>
      </trkpt>
      <trkpt lat="45.89002" lon="4.7576">
        <ele>198</ele>
        <time>2017-07-13T14:36:50Z</time>
      </trkpt>
      <trkpt lat="45.89001" lon="4.75755">
        <ele>198</ele>
        <time>2017-07-13T14:36:51Z</time>
      </trkpt>
      <trkpt lat="45.88998" lon="4.75745">
        <ele>198</ele>
        <time>2017-07-13T14:36:53Z</time>
      </trkpt>
      <trkpt lat="45.88996" lon="4.7574">
        <ele>198</ele>
        <time>2017-07-13T14:36:54Z</time>
      </trkpt>
      <trkpt lat="45.88994" lon="4.75729">
        <ele>198</ele>
        <time>2017-07-13T14:36:56Z</time>
      </trkpt>
      <trkpt lat="45.88993" lon="4.75723">
        <ele>198</ele>
        <time>2017-07-13T14:36:57Z</time>
      </trkpt>
      <trkpt lat="45.88992" lon="4.75711">
        <ele>198</ele>
        <time>2017-07-13T14:36:59Z</time>
      </trkpt>
      <trkpt lat="45.88991" lon="4.75706">
        <ele>199</ele>
        <time>2017-07-13T14:37:00Z</time>
      </trkpt>
      <trkpt lat="45.88989" lon="4.75694">
        <ele>198</ele>
        <time>2017-07-13T14:37:02Z</time>
      </trkpt>
      <trkpt lat="45.88988" lon="4.75689">
        <ele>198</ele>
        <time>2017-07-13T14:37:03Z</time>
      </trkpt>
      <trkpt lat="45.88986" lon="4.75678">
        <ele>198</ele>
        <time>2017-07-13T14:37:05Z</time>
      </trkpt>
      <trkpt lat="45.88986" lon="4.75672">
        <ele>198</ele>
        <time>2017-07-13T14:37:06Z</time>
      </trkpt>
      <trkpt lat="45.88983" lon="4.75661">
        <ele>198</ele>
        <time>2017-07-13T14:37:08Z</time>
      </trkpt>
      <trkpt lat="45.88982" lon="4.75656">
        <ele>198</ele>
        <time>2017-07-13T14:37:09Z</time>
      </trkpt>
      <trkpt lat="45.88978" lon="4.75645">
        <ele>198</ele>
        <time>2017-07-13T14:37:11Z</time>
      </trkpt>
      <trkpt lat="45.88976" lon="4.75638">
        <ele>198</ele>
        <time>2017-07-13T14:37:12Z</time>
      </trkpt>
      <trkpt lat="45.88973" lon="4.75632">
        <ele>198</ele>
        <time>2017-07-13T14:37:13Z</time>
      </trkpt>
      <trkpt lat="45.88971" lon="4.75626">
        <ele>198</ele>
        <time>2017-07-13T14:37:14Z</time>
      </trkpt>
      <trkpt lat="45.88969" lon="4.75619">
        <ele>198</ele>
        <time>2017-07-13T14:37:15Z</time>
      </trkpt>
      <trkpt lat="45.88967" lon="4.75613">
        <ele>198</ele>
        <time>2017-07-13T14:37:16Z</time>
      </trkpt>
      <trkpt lat="45.88965" lon="4.75601">
        <ele>198</ele>
        <time>2017-07-13T14:37:18Z</time>
      </trkpt>
      <trkpt lat="45.88964" lon="4.75595">
        <ele>198</ele>
        <time>2017-07-13T14:37:19Z</time>
      </trkpt>
      <trkpt lat="45.88963" lon="4.75584">
        <ele>198</ele>
        <time>2017-07-13T14:37:21Z</time>
      </trkpt>
      <trkpt lat="45.88963" lon="4.75579">
        <ele>198</ele>
        <time>2017-07-13T14:37:22Z</time>
      </trkpt>
      <trkpt lat="45.88962" lon="4.75568">
        <ele>198</ele>
        <time>2017-07-13T14:37:24Z</time>
      </trkpt>
      <trkpt lat="45.88961" lon="4.75562">
        <ele>198</ele>
        <time>2017-07-13T14:37:25Z</time>
      </trkpt>
      <trkpt lat="45.88959" lon="4.75549">
        <ele>198</ele>
        <time>2017-07-13T14:37:27Z</time>
      </trkpt>
      <trkpt lat="45.88958" lon="4.75542">
        <ele>198</ele>
        <time>2017-07-13T14:37:28Z</time>
      </trkpt>
      <trkpt lat="45.88958" lon="4.75536">
        <ele>198</ele>
        <time>2017-07-13T14:37:29Z</time>
      </trkpt>
      <trkpt lat="45.88957" lon="4.75529">
        <ele>198</ele>
        <time>2017-07-13T14:37:30Z</time>
      </trkpt>
      <trkpt lat="45.88957" lon="4.75517">
        <ele>198</ele>
        <time>2017-07-13T14:37:32Z</time>
      </trkpt>
      <trkpt lat="45.88957" lon="4.75511">
        <ele>198</ele>
        <time>2017-07-13T14:37:33Z</time>
      </trkpt>
      <trkpt lat="45.88956" lon="4.75499">
        <ele>198</ele>
        <time>2017-07-13T14:37:35Z</time>
      </trkpt>
      <trkpt lat="45.88956" lon="4.75493">
        <ele>198</ele>
        <time>2017-07-13T14:37:36Z</time>
      </trkpt>
      <trkpt lat="45.88957" lon="4.7548">
        <ele>199</ele>
        <time>2017-07-13T14:37:38Z</time>
      </trkpt>
      <trkpt lat="45.88957" lon="4.75474">
        <ele>199</ele>
        <time>2017-07-13T14:37:39Z</time>
      </trkpt>
      <trkpt lat="45.88956" lon="4.75462">
        <ele>199</ele>
        <time>2017-07-13T14:37:41Z</time>
      </trkpt>
      <trkpt lat="45.88956" lon="4.75457">
        <ele>199</ele>
        <time>2017-07-13T14:37:42Z</time>
      </trkpt>
      <trkpt lat="45.88955" lon="4.75448">
        <ele>199</ele>
        <time>2017-07-13T14:37:44Z</time>
      </trkpt>
      <trkpt lat="45.88955" lon="4.75443">
        <ele>199</ele>
        <time>2017-07-13T14:37:45Z</time>
      </trkpt>
      <trkpt lat="45.88955" lon="4.75434">
        <ele>199</ele>
        <time>2017-07-13T14:37:47Z</time>
      </trkpt>
      <trkpt lat="45.88956" lon="4.75429">
        <ele>199</ele>
        <time>2017-07-13T14:37:48Z</time>
      </trkpt>
      <trkpt lat="45.88961" lon="4.75422">
        <ele>199</ele>
        <time>2017-07-13T14:37:51Z</time>
      </trkpt>
      <trkpt lat="45.88963" lon="4.75422">
        <ele>199</ele>
        <time>2017-07-13T14:37:52Z</time>
      </trkpt>
      <trkpt lat="45.88971" lon="4.75422">
        <ele>199</ele>
        <time>2017-07-13T14:37:55Z</time>
      </trkpt>
      <trkpt lat="45.88975" lon="4.75422">
        <ele>199</ele>
        <time>2017-07-13T14:37:56Z</time>
      </trkpt>
      <trkpt lat="45.88983" lon="4.75422">
        <ele>199</ele>
        <time>2017-07-13T14:37:58Z</time>
      </trkpt>
      <trkpt lat="45.88987" lon="4.75421">
        <ele>199</ele>
        <time>2017-07-13T14:37:59Z</time>
      </trkpt>
      <trkpt lat="45.88992" lon="4.75421">
        <ele>199</ele>
        <time>2017-07-13T14:38:00Z</time>
      </trkpt>
      <trkpt lat="45.88997" lon="4.7542">
        <ele>199</ele>
        <time>2017-07-13T14:38:01Z</time>
      </trkpt>
      <trkpt lat="45.89002" lon="4.75418">
        <ele>199</ele>
        <time>2017-07-13T14:38:02Z</time>
      </trkpt>
      <trkpt lat="45.89007" lon="4.75416">
        <ele>199</ele>
        <time>2017-07-13T14:38:03Z</time>
      </trkpt>
      <trkpt lat="45.89012" lon="4.75414">
        <ele>199</ele>
        <time>2017-07-13T14:38:04Z</time>
      </trkpt>
      <trkpt lat="45.89017" lon="4.75412">
        <ele>199</ele>
        <time>2017-07-13T14:38:05Z</time>
      </trkpt>
      <trkpt lat="45.89025" lon="4.75409">
        <ele>199</ele>
        <time>2017-07-13T14:38:07Z</time>
      </trkpt>
      <trkpt lat="45.8903" lon="4.75407">
        <ele>199</ele>
        <time>2017-07-13T14:38:08Z</time>
      </trkpt>
      <trkpt lat="45.89035" lon="4.75404">
        <ele>199</ele>
        <time>2017-07-13T14:38:09Z</time>
      </trkpt>
      <trkpt lat="45.8904" lon="4.75401">
        <ele>199</ele>
        <time>2017-07-13T14:38:10Z</time>
      </trkpt>
      <trkpt lat="45.89046" lon="4.75394">
        <ele>199</ele>
        <time>2017-07-13T14:38:12Z</time>
      </trkpt>
      <trkpt lat="45.89048" lon="4.75389">
        <ele>199</ele>
        <time>2017-07-13T14:38:13Z</time>
      </trkpt>
      <trkpt lat="45.89048" lon="4.75379">
        <ele>199</ele>
        <time>2017-07-13T14:38:15Z</time>
      </trkpt>
      <trkpt lat="45.89049" lon="4.75373">
        <ele>199</ele>
        <time>2017-07-13T14:38:16Z</time>
      </trkpt>
      <trkpt lat="45.8905" lon="4.7536">
        <ele>199</ele>
        <time>2017-07-13T14:38:18Z</time>
      </trkpt>
      <trkpt lat="45.8905" lon="4.75353">
        <ele>199</ele>
        <time>2017-07-13T14:38:19Z</time>
      </trkpt>
      <trkpt lat="45.8905" lon="4.75347">
        <ele>199</ele>
        <time>2017-07-13T14:38:20Z</time>
      </trkpt>
      <trkpt lat="45.8905" lon="4.75339">
        <ele>199</ele>
        <time>2017-07-13T14:38:21Z</time>
      </trkpt>
      <trkpt lat="45.89051" lon="4.75332">
        <ele>199</ele>
        <time>2017-07-13T14:38:22Z</time>
      </trkpt>
      <trkpt lat="45.89051" lon="4.75325">
        <ele>199</ele>
        <time>2017-07-13T14:38:23Z</time>
      </trkpt>
      <trkpt lat="45.89052" lon="4.75317">
        <ele>199</ele>
        <time>2017-07-13T14:38:24Z</time>
      </trkpt>
      <trkpt lat="45.89053" lon="4.7531">
        <ele>199</ele>
        <time>2017-07-13T14:38:25Z</time>
      </trkpt>
      <trkpt lat="45.89054" lon="4.75298">
        <ele>199</ele>
        <time>2017-07-13T14:38:27Z</time>
      </trkpt>
      <trkpt lat="45.89055" lon="4.75292">
        <ele>199</ele>
        <time>2017-07-13T14:38:28Z</time>
      </trkpt>
      <trkpt lat="45.89056" lon="4.7528">
        <ele>199</ele>
        <time>2017-07-13T14:38:30Z</time>
      </trkpt>
      <trkpt lat="45.89057" lon="4.75275">
        <ele>199</ele>
        <time>2017-07-13T14:38:31Z</time>
      </trkpt>
      <trkpt lat="45.89059" lon="4.75264">
        <ele>199</ele>
        <time>2017-07-13T14:38:33Z</time>
      </trkpt>
      <trkpt lat="45.89059" lon="4.75258">
        <ele>199</ele>
        <time>2017-07-13T14:38:34Z</time>
      </trkpt>
      <trkpt lat="45.8906" lon="4.75246">
        <ele>199</ele>
        <time>2017-07-13T14:38:36Z</time>
      </trkpt>
      <trkpt lat="45.89061" lon="4.7524">
        <ele>199</ele>
        <time>2017-07-13T14:38:37Z</time>
      </trkpt>
      <trkpt lat="45.89062" lon="4.7523">
        <ele>199</ele>
        <time>2017-07-13T14:38:39Z</time>
      </trkpt>
      <trkpt lat="45.89062" lon="4.75224">
        <ele>199</ele>
        <time>2017-07-13T14:38:40Z</time>
      </trkpt>
      <trkpt lat="45.89063" lon="4.75219">
        <ele>199</ele>
        <time>2017-07-13T14:38:41Z</time>
      </trkpt>
      <trkpt lat="45.89066" lon="4.75212">
        <ele>199</ele>
        <time>2017-07-13T14:38:42Z</time>
      </trkpt>
      <trkpt lat="45.89067" lon="4.75206">
        <ele>199</ele>
        <time>2017-07-13T14:38:43Z</time>
      </trkpt>
      <trkpt lat="45.89068" lon="4.75199">
        <ele>199</ele>
        <time>2017-07-13T14:38:44Z</time>
      </trkpt>
      <trkpt lat="45.89068" lon="4.75192">
        <ele>199</ele>
        <time>2017-07-13T14:38:45Z</time>
      </trkpt>
      <trkpt lat="45.89068" lon="4.75185">
        <ele>199</ele>
        <time>2017-07-13T14:38:46Z</time>
      </trkpt>
      <trkpt lat="45.89067" lon="4.75179">
        <ele>199</ele>
        <time>2017-07-13T14:38:47Z</time>
      </trkpt>
      <trkpt lat="45.89066" lon="4.75172">
        <ele>199</ele>
        <time>2017-07-13T14:38:48Z</time>
      </trkpt>
      <trkpt lat="45.89065" lon="4.75161">
        <ele>199</ele>
        <time>2017-07-13T14:38:50Z</time>
      </trkpt>
      <trkpt lat="45.89064" lon="4.75155">
        <ele>199</ele>
        <time>2017-07-13T14:38:51Z</time>
      </trkpt>
      <trkpt lat="45.89063" lon="4.75145">
        <ele>199</ele>
        <time>2017-07-13T14:38:53Z</time>
      </trkpt>
      <trkpt lat="45.89062" lon="4.7514">
        <ele>199</ele>
        <time>2017-07-13T14:38:54Z</time>
      </trkpt>
      <trkpt lat="45.8906" lon="4.75131">
        <ele>199</ele>
        <time>2017-07-13T14:38:56Z</time>
      </trkpt>
      <trkpt lat="45.89058" lon="4.75125">
        <ele>199</ele>
        <time>2017-07-13T14:38:57Z</time>
      </trkpt>
      <trkpt lat="45.89053" lon="4.75116">
        <ele>199</ele>
        <time>2017-07-13T14:38:59Z</time>
      </trkpt>
      <trkpt lat="45.89051" lon="4.75112">
        <ele>199</ele>
        <time>2017-07-13T14:39:00Z</time>
      </trkpt>
      <trkpt lat="45.89047" lon="4.75104">
        <ele>199</ele>
        <time>2017-07-13T14:39:02Z</time>
      </trkpt>
      <trkpt lat="45.89044" lon="4.751">
        <ele>199</ele>
        <time>2017-07-13T14:39:03Z</time>
      </trkpt>
      <trkpt lat="45.89039" lon="4.75091">
        <ele>199</ele>
        <time>2017-07-13T14:39:05Z</time>
      </trkpt>
      <trkpt lat="45.89036" lon="4.75086">
        <ele>199</ele>
        <time>2017-07-13T14:39:06Z</time>
      </trkpt>
      <trkpt lat="45.89033" lon="4.75081">
        <ele>199</ele>
        <time>2017-07-13T14:39:07Z</time>
      </trkpt>
      <trkpt lat="45.8903" lon="4.75076">
        <ele>199</ele>
        <time>2017-07-13T14:39:08Z</time>
      </trkpt>
      <trkpt lat="45.89027" lon="4.7507">
        <ele>199</ele>
        <time>2017-07-13T14:39:09Z</time>
      </trkpt>
      <trkpt lat="45.89023" lon="4.75065">
        <ele>199</ele>
        <time>2017-07-13T14:39:10Z</time>
      </trkpt>
      <trkpt lat="45.8902" lon="4.75059">
        <ele>199</ele>
        <time>2017-07-13T14:39:11Z</time>
      </trkpt>
      <trkpt lat="45.89018" lon="4.75053">
        <ele>199</ele>
        <time>2017-07-13T14:39:12Z</time>
      </trkpt>
      <trkpt lat="45.89015" lon="4.75041">
        <ele>199</ele>
        <time>2017-07-13T14:39:14Z</time>
      </trkpt>
      <trkpt lat="45.89014" lon="4.75035">
        <ele>199</ele>
        <time>2017-07-13T14:39:15Z</time>
      </trkpt>
      <trkpt lat="45.89013" lon="4.75024">
        <ele>199</ele>
        <time>2017-07-13T14:39:17Z</time>
      </trkpt>
      <trkpt lat="45.89013" lon="4.75018">
        <ele>199</ele>
        <time>2017-07-13T14:39:18Z</time>
      </trkpt>
      <trkpt lat="45.89012" lon="4.75008">
        <ele>199</ele>
        <time>2017-07-13T14:39:20Z</time>
      </trkpt>
      <trkpt lat="45.89012" lon="4.75002">
        <ele>199</ele>
        <time>2017-07-13T14:39:21Z</time>
      </trkpt>
      <trkpt lat="45.89013" lon="4.74989">
        <ele>199</ele>
        <time>2017-07-13T14:39:23Z</time>
      </trkpt>
      <trkpt lat="45.89012" lon="4.74982">
        <ele>199</ele>
        <time>2017-07-13T14:39:24Z</time>
      </trkpt>
      <trkpt lat="45.89012" lon="4.74976">
        <ele>199</ele>
        <time>2017-07-13T14:39:25Z</time>
      </trkpt>
      <trkpt lat="45.89013" lon="4.74969">
        <ele>199</ele>
        <time>2017-07-13T14:39:26Z</time>
      </trkpt>
      <trkpt lat="45.89014" lon="4.74962">
        <ele>199</ele>
        <time>2017-07-13T14:39:27Z</time>
      </trkpt>
      <trkpt lat="45.89015" lon="4.74956">
        <ele>199</ele>
        <time>2017-07-13T14:39:28Z</time>
      </trkpt>
      <trkpt lat="45.89016" lon="4.74943">
        <ele>199</ele>
        <time>2017-07-13T14:39:30Z</time>
      </trkpt>
      <trkpt lat="45.89017" lon="4.74938">
        <ele>199</ele>
        <time>2017-07-13T14:39:31Z</time>
      </trkpt>
      <trkpt lat="45.8902" lon="4.74927">
        <ele>199</ele>
        <time>2017-07-13T14:39:33Z</time>
      </trkpt>
      <trkpt lat="45.89021" lon="4.74922">
        <ele>199</ele>
        <time>2017-07-13T14:39:34Z</time>
      </trkpt>
      <trkpt lat="45.89023" lon="4.74912">
        <ele>199</ele>
        <time>2017-07-13T14:39:36Z</time>
      </trkpt>
      <trkpt lat="45.89024" lon="4.74907">
        <ele>199</ele>
        <time>2017-07-13T14:39:37Z</time>
      </trkpt>
      <trkpt lat="45.89027" lon="4.74899">
        <ele>199</ele>
        <time>2017-07-13T14:39:39Z</time>
      </trkpt>
      <trkpt lat="45.8903" lon="4.74895">
        <ele>199</ele>
        <time>2017-07-13T14:39:40Z</time>
      </trkpt>
      <trkpt lat="45.89038" lon="4.7489">
        <ele>199</ele>
        <time>2017-07-13T14:39:42Z</time>
      </trkpt>
      <trkpt lat="45.89042" lon="4.74886">
        <ele>199</ele>
        <time>2017-07-13T14:39:43Z</time>
      </trkpt>
      <trkpt lat="45.89045" lon="4.74881">
        <ele>199</ele>
        <time>2017-07-13T14:39:44Z</time>
      </trkpt>
      <trkpt lat="45.89047" lon="4.74874">
        <ele>199</ele>
        <time>2017-07-13T14:39:45Z</time>
      </trkpt>
      <trkpt lat="45.89046" lon="4.74866">
        <ele>199</ele>
        <time>2017-07-13T14:39:46Z</time>
      </trkpt>
      <trkpt lat="45.89044" lon="4.74859">
        <ele>199</ele>
        <time>2017-07-13T14:39:47Z</time>
      </trkpt>
      <trkpt lat="45.89042" lon="4.74852">
        <ele>199</ele>
        <time>2017-07-13T14:39:48Z</time>
      </trkpt>
      <trkpt lat="45.89041" lon="4.74844">
        <ele>199</ele>
        <time>2017-07-13T14:39:49Z</time>
      </trkpt>
      <trkpt lat="45.8904" lon="4.74837">
        <ele>199</ele>
        <time>2017-07-13T14:39:50Z</time>
      </trkpt>
      <trkpt lat="45.8904" lon="4.74829">
        <ele>199</ele>
        <time>2017-07-13T14:39:51Z</time>
      </trkpt>
      <trkpt lat="45.89038" lon="4.74821">
        <ele>199</ele>
        <time>2017-07-13T14:39:52Z</time>
      </trkpt>
      <trkpt lat="45.89037" lon="4.74813">
        <ele>199</ele>
        <time>2017-07-13T14:39:53Z</time>
      </trkpt>
      <trkpt lat="45.89035" lon="4.74805">
        <ele>198</ele>
        <time>2017-07-13T14:39:54Z</time>
      </trkpt>
      <trkpt lat="45.89034" lon="4.74797">
        <ele>198</ele>
        <time>2017-07-13T14:39:55Z</time>
      </trkpt>
      <trkpt lat="45.89032" lon="4.74788">
        <ele>198</ele>
        <time>2017-07-13T14:39:56Z</time>
      </trkpt>
      <trkpt lat="45.89031" lon="4.7478">
        <ele>198</ele>
        <time>2017-07-13T14:39:57Z</time>
      </trkpt>
      <trkpt lat="45.8903" lon="4.7477">
        <ele>198</ele>
        <time>2017-07-13T14:39:58Z</time>
      </trkpt>
      <trkpt lat="45.89029" lon="4.74761">
        <ele>198</ele>
        <time>2017-07-13T14:39:59Z</time>
      </trkpt>
      <trkpt lat="45.89028" lon="4.74752">
        <ele>198</ele>
        <time>2017-07-13T14:40:00Z</time>
      </trkpt>
      <trkpt lat="45.89027" lon="4.74744">
        <ele>196</ele>
        <time>2017-07-13T14:40:01Z</time>
      </trkpt>
      <trkpt lat="45.89024" lon="4.74733">
        <ele>196</ele>
        <time>2017-07-13T14:40:03Z</time>
      </trkpt>
      <trkpt lat="45.89022" lon="4.74731">
        <ele>196</ele>
        <time>2017-07-13T14:40:04Z</time>
      </trkpt>
      <trkpt lat="45.89015" lon="4.7473">
        <ele>196</ele>
        <time>2017-07-13T14:40:06Z</time>
      </trkpt>
      <trkpt lat="45.89012" lon="4.7473">
        <ele>196</ele>
        <time>2017-07-13T14:40:07Z</time>
      </trkpt>
      <trkpt lat="45.89004" lon="4.74731">
        <ele>196</ele>
        <time>2017-07-13T14:40:09Z</time>
      </trkpt>
      <trkpt lat="45.89001" lon="4.7473">
        <ele>196</ele>
        <time>2017-07-13T14:40:10Z</time>
      </trkpt>
      <trkpt lat="45.88995" lon="4.74723">
        <ele>196</ele>
        <time>2017-07-13T14:40:12Z</time>
      </trkpt>
      <trkpt lat="45.88993" lon="4.74718">
        <ele>196</ele>
        <time>2017-07-13T14:40:13Z</time>
      </trkpt>
      <trkpt lat="45.88995" lon="4.74709">
        <ele>196</ele>
        <time>2017-07-13T14:40:15Z</time>
      </trkpt>
      <trkpt lat="45.88997" lon="4.74701">
        <ele>196</ele>
        <time>2017-07-13T14:40:16Z</time>
      </trkpt>
      <trkpt lat="45.88998" lon="4.74694">
        <ele>196</ele>
        <time>2017-07-13T14:40:17Z</time>
      </trkpt>
      <trkpt lat="45.88998" lon="4.74687">
        <ele>195</ele>
        <time>2017-07-13T14:40:18Z</time>
      </trkpt>
      <trkpt lat="45.88998" lon="4.74679">
        <ele>195</ele>
        <time>2017-07-13T14:40:19Z</time>
      </trkpt>
      <trkpt lat="45.88999" lon="4.74672">
        <ele>194</ele>
        <time>2017-07-13T14:40:20Z</time>
      </trkpt>
      <trkpt lat="45.89" lon="4.74665">
        <ele>194</ele>
        <time>2017-07-13T14:40:21Z</time>
      </trkpt>
      <trkpt lat="45.89" lon="4.74657">
        <ele>193</ele>
        <time>2017-07-13T14:40:22Z</time>
      </trkpt>
      <trkpt lat="45.89001" lon="4.74649">
        <ele>193</ele>
        <time>2017-07-13T14:40:23Z</time>
      </trkpt>
      <trkpt lat="45.89002" lon="4.74642">
        <ele>192</ele>
        <time>2017-07-13T14:40:24Z</time>
      </trkpt>
      <trkpt lat="45.89003" lon="4.74634">
        <ele>192</ele>
        <time>2017-07-13T14:40:25Z</time>
      </trkpt>
      <trkpt lat="45.89004" lon="4.74627">
        <ele>192</ele>
        <time>2017-07-13T14:40:26Z</time>
      </trkpt>
      <trkpt lat="45.89006" lon="4.7462">
        <ele>192</ele>
        <time>2017-07-13T14:40:27Z</time>
      </trkpt>
      <trkpt lat="45.89008" lon="4.74614">
        <ele>191</ele>
        <time>2017-07-13T14:40:28Z</time>
      </trkpt>
      <trkpt lat="45.8901" lon="4.74607">
        <ele>191</ele>
        <time>2017-07-13T14:40:29Z</time>
      </trkpt>
      <trkpt lat="45.89011" lon="4.74601">
        <ele>191</ele>
        <time>2017-07-13T14:40:30Z</time>
      </trkpt>
      <trkpt lat="45.89013" lon="4.74594">
        <ele>191</ele>
        <time>2017-07-13T14:40:31Z</time>
      </trkpt>
      <trkpt lat="45.89015" lon="4.74588">
        <ele>191</ele>
        <time>2017-07-13T14:40:32Z</time>
      </trkpt>
      <trkpt lat="45.89017" lon="4.74576">
        <ele>190</ele>
        <time>2017-07-13T14:40:34Z</time>
      </trkpt>
      <trkpt lat="45.89018" lon="4.7457">
        <ele>190</ele>
        <time>2017-07-13T14:40:35Z</time>
      </trkpt>
      <trkpt lat="45.8902" lon="4.74558">
        <ele>190</ele>
        <time>2017-07-13T14:40:37Z</time>
      </trkpt>
      <trkpt lat="45.89021" lon="4.74553">
        <ele>190</ele>
        <time>2017-07-13T14:40:38Z</time>
      </trkpt>
      <trkpt lat="45.89023" lon="4.74542">
        <ele>189</ele>
        <time>2017-07-13T14:40:40Z</time>
      </trkpt>
      <trkpt lat="45.89024" lon="4.74536">
        <ele>189</ele>
        <time>2017-07-13T14:40:41Z</time>
      </trkpt>
      <trkpt lat="45.89025" lon="4.74525">
        <ele>189</ele>
        <time>2017-07-13T14:40:43Z</time>
      </trkpt>
      <trkpt lat="45.89026" lon="4.74521">
        <ele>189</ele>
        <time>2017-07-13T14:40:44Z</time>
      </trkpt>
      <trkpt lat="45.89024" lon="4.7451">
        <ele>189</ele>
        <time>2017-07-13T14:40:50Z</time>
      </trkpt>
      <trkpt lat="45.89022" lon="4.74509">
        <ele>189</ele>
        <time>2017-07-13T14:40:51Z</time>
      </trkpt>
      <trkpt lat="45.89015" lon="4.74504">
        <ele>189</ele>
        <time>2017-07-13T14:40:54Z</time>
      </trkpt>
      <trkpt lat="45.89012" lon="4.74504">
        <ele>189</ele>
        <time>2017-07-13T14:40:55Z</time>
      </trkpt>
      <trkpt lat="45.89005" lon="4.74497">
        <ele>189</ele>
        <time>2017-07-13T14:41:00Z</time>
      </trkpt>
      <trkpt lat="45.89006" lon="4.74494">
        <ele>189</ele>
        <time>2017-07-13T14:41:01Z</time>
      </trkpt>
      <trkpt lat="45.89009" lon="4.74483">
        <ele>189</ele>
        <time>2017-07-13T14:41:03Z</time>
      </trkpt>
      <trkpt lat="45.89009" lon="4.74478">
        <ele>189</ele>
        <time>2017-07-13T14:41:04Z</time>
      </trkpt>
      <trkpt lat="45.89004" lon="4.74469">
        <ele>188</ele>
        <time>2017-07-13T14:41:06Z</time>
      </trkpt>
      <trkpt lat="45.89001" lon="4.74467">
        <ele>188</ele>
        <time>2017-07-13T14:41:07Z</time>
      </trkpt>
      <trkpt lat="45.88996" lon="4.74461">
        <ele>189</ele>
        <time>2017-07-13T14:41:09Z</time>
      </trkpt>
      <trkpt lat="45.88993" lon="4.74458">
        <ele>188</ele>
        <time>2017-07-13T14:41:10Z</time>
      </trkpt>
      <trkpt lat="45.88989" lon="4.74451">
        <ele>188</ele>
        <time>2017-07-13T14:41:12Z</time>
      </trkpt>
      <trkpt lat="45.88986" lon="4.74448">
        <ele>188</ele>
        <time>2017-07-13T14:41:13Z</time>
      </trkpt>
      <trkpt lat="45.88978" lon="4.74443">
        <ele>188</ele>
        <time>2017-07-13T14:41:15Z</time>
      </trkpt>
      <trkpt lat="45.88974" lon="4.74441">
        <ele>188</ele>
        <time>2017-07-13T14:41:16Z</time>
      </trkpt>
      <trkpt lat="45.88969" lon="4.74439">
        <ele>188</ele>
        <time>2017-07-13T14:41:17Z</time>
      </trkpt>
      <trkpt lat="45.88964" lon="4.74437">
        <ele>188</ele>
        <time>2017-07-13T14:41:18Z</time>
      </trkpt>
      <trkpt lat="45.88959" lon="4.74435">
        <ele>188</ele>
        <time>2017-07-13T14:41:19Z</time>
      </trkpt>
      <trkpt lat="45.88955" lon="4.74432">
        <ele>188</ele>
        <time>2017-07-13T14:41:20Z</time>
      </trkpt>
      <trkpt lat="45.88951" lon="4.74429">
        <ele>188</ele>
        <time>2017-07-13T14:41:21Z</time>
      </trkpt>
      <trkpt lat="45.88947" lon="4.74425">
        <ele>188</ele>
        <time>2017-07-13T14:41:22Z</time>
      </trkpt>
      <trkpt lat="45.88941" lon="4.74417">
        <ele>188</ele>
        <time>2017-07-13T14:41:24Z</time>
      </trkpt>
      <trkpt lat="45.8894" lon="4.74413">
        <ele>188</ele>
        <time>2017-07-13T14:41:25Z</time>
      </trkpt>
      <trkpt lat="45.88941" lon="4.74404">
        <ele>188</ele>
        <time>2017-07-13T14:41:27Z</time>
      </trkpt>
      <trkpt lat="45.88942" lon="4.74399">
        <ele>188</ele>
        <time>2017-07-13T14:41:28Z</time>
      </trkpt>
      <trkpt lat="45.88944" lon="4.74393">
        <ele>188</ele>
        <time>2017-07-13T14:41:29Z</time>
      </trkpt>
      <trkpt lat="45.88947" lon="4.74387">
        <ele>188</ele>
        <time>2017-07-13T14:41:30Z</time>
      </trkpt>
      <trkpt lat="45.8895" lon="4.74381">
        <ele>188</ele>
        <time>2017-07-13T14:41:31Z</time>
      </trkpt>
      <trkpt lat="45.88953" lon="4.74375">
        <ele>188</ele>
        <time>2017-07-13T14:41:32Z</time>
      </trkpt>
      <trkpt lat="45.88957" lon="4.74364">
        <ele>188</ele>
        <time>2017-07-13T14:41:34Z</time>
      </trkpt>
      <trkpt lat="45.8896" lon="4.74359">
        <ele>188</ele>
        <time>2017-07-13T14:41:35Z</time>
      </trkpt>
      <trkpt lat="45.88965" lon="4.7435">
        <ele>188</ele>
        <time>2017-07-13T14:41:37Z</time>
      </trkpt>
      <trkpt lat="45.88968" lon="4.74344">
        <ele>188</ele>
        <time>2017-07-13T14:41:38Z</time>
      </trkpt>
      <trkpt lat="45.88972" lon="4.74334">
        <ele>188</ele>
        <time>2017-07-13T14:41:40Z</time>
      </trkpt>
      <trkpt lat="45.88973" lon="4.74328">
        <ele>187</ele>
        <time>2017-07-13T14:41:41Z</time>
      </trkpt>
      <trkpt lat="45.88974" lon="4.74316">
        <ele>187</ele>
        <time>2017-07-13T14:41:43Z</time>
      </trkpt>
      <trkpt lat="45.88976" lon="4.74313">
        <ele>187</ele>
        <time>2017-07-13T14:41:44Z</time>
      </trkpt>
      <trkpt lat="45.88984" lon="4.74308">
        <ele>187</ele>
        <time>2017-07-13T14:41:47Z</time>
      </trkpt>
      <trkpt lat="45.88985" lon="4.74305">
        <ele>187</ele>
        <time>2017-07-13T14:41:48Z</time>
      </trkpt>
      <trkpt lat="45.8899" lon="4.74296">
        <ele>187</ele>
        <time>2017-07-13T14:41:51Z</time>
      </trkpt>
      <trkpt lat="45.88991" lon="4.74294">
        <ele>187</ele>
        <time>2017-07-13T14:41:52Z</time>
      </trkpt>
      <trkpt lat="45.88991" lon="4.74293">
        <ele>187</ele>
        <time>2017-07-13T14:41:53Z</time>
      </trkpt>
      <trkpt lat="45.8899" lon="4.74291">
        <ele>187</ele>
        <time>2017-07-13T14:42:01Z</time>
      </trkpt>
      <trkpt lat="45.8899" lon="4.74289">
        <ele>187</ele>
        <time>2017-07-13T14:42:02Z</time>
      </trkpt>
      <trkpt lat="45.88995" lon="4.74279">
        <ele>187</ele>
        <time>2017-07-13T14:42:06Z</time>
      </trkpt>
      <trkpt lat="45.88999" lon="4.74279">
        <ele>187</ele>
        <time>2017-07-13T14:42:07Z</time>
      </trkpt>
      <trkpt lat="45.89005" lon="4.74278">
        <ele>187</ele>
        <time>2017-07-13T14:42:09Z</time>
      </trkpt>
      <trkpt lat="45.89009" lon="4.74278">
        <ele>187</ele>
        <time>2017-07-13T14:42:10Z</time>
      </trkpt>
      <trkpt lat="45.89016" lon="4.74278">
        <ele>187</ele>
        <time>2017-07-13T14:42:12Z</time>
      </trkpt>
      <trkpt lat="45.89019" lon="4.74278">
        <ele>187</ele>
        <time>2017-07-13T14:42:13Z</time>
      </trkpt>
      <trkpt lat="45.89024" lon="4.74271">
        <ele>187</ele>
        <time>2017-07-13T14:42:17Z</time>
      </trkpt>
      <trkpt lat="45.89023" lon="4.74266">
        <ele>187</ele>
        <time>2017-07-13T14:42:18Z</time>
      </trkpt>
      <trkpt lat="45.89022" lon="4.74259">
        <ele>187</ele>
        <time>2017-07-13T14:42:19Z</time>
      </trkpt>
      <trkpt lat="45.8902" lon="4.74252">
        <ele>187</ele>
        <time>2017-07-13T14:42:20Z</time>
      </trkpt>
      <trkpt lat="45.89014" lon="4.74245">
        <ele>186</ele>
        <time>2017-07-13T14:42:22Z</time>
      </trkpt>
      <trkpt lat="45.89011" lon="4.74242">
        <ele>186</ele>
        <time>2017-07-13T14:42:23Z</time>
      </trkpt>
      <trkpt lat="45.89007" lon="4.74234">
        <ele>186</ele>
        <time>2017-07-13T14:42:25Z</time>
      </trkpt>
      <trkpt lat="45.89008" lon="4.74228">
        <ele>186</ele>
        <time>2017-07-13T14:42:26Z</time>
      </trkpt>
      <trkpt lat="45.89007" lon="4.74227">
        <ele>186</ele>
        <time>2017-07-13T14:42:27Z</time>
      </trkpt>
      <trkpt lat="45.89005" lon="4.74224">
        <ele>186</ele>
        <time>2017-07-13T14:42:35Z</time>
      </trkpt>
      <trkpt lat="45.89006" lon="4.74223">
        <ele>186</ele>
        <time>2017-07-13T14:42:36Z</time>
      </trkpt>
      <trkpt lat="45.89008" lon="4.74211">
        <ele>186</ele>
        <time>2017-07-13T14:42:45Z</time>
      </trkpt>
      <trkpt lat="45.89009" lon="4.74208">
        <ele>186</ele>
        <time>2017-07-13T14:42:46Z</time>
      </trkpt>
      <trkpt lat="45.89013" lon="4.74197">
        <ele>186</ele>
        <time>2017-07-13T14:42:48Z</time>
      </trkpt>
      <trkpt lat="45.89015" lon="4.74191">
        <ele>186</ele>
        <time>2017-07-13T14:42:49Z</time>
      </trkpt>
      <trkpt lat="45.89017" lon="4.74183">
        <ele>185</ele>
        <time>2017-07-13T14:42:50Z</time>
      </trkpt>
      <trkpt lat="45.8902" lon="4.74177">
        <ele>185</ele>
        <time>2017-07-13T14:42:51Z</time>
      </trkpt>
      <trkpt lat="45.89023" lon="4.7417">
        <ele>185</ele>
        <time>2017-07-13T14:42:52Z</time>
      </trkpt>
      <trkpt lat="45.89026" lon="4.74163">
        <ele>185</ele>
        <time>2017-07-13T14:42:53Z</time>
      </trkpt>
      <trkpt lat="45.89029" lon="4.74156">
        <ele>185</ele>
        <time>2017-07-13T14:42:54Z</time>
      </trkpt>
      <trkpt lat="45.89031" lon="4.74148">
        <ele>185</ele>
        <time>2017-07-13T14:42:55Z</time>
      </trkpt>
      <trkpt lat="45.89036" lon="4.74138">
        <ele>185</ele>
        <time>2017-07-13T14:42:56Z</time>
      </trkpt>
      <trkpt lat="45.89038" lon="4.7413">
        <ele>185</ele>
        <time>2017-07-13T14:42:57Z</time>
      </trkpt>
      <trkpt lat="45.89039" lon="4.74122">
        <ele>185</ele>
        <time>2017-07-13T14:42:58Z</time>
      </trkpt>
      <trkpt lat="45.89039" lon="4.74114">
        <ele>185</ele>
        <time>2017-07-13T14:42:59Z</time>
      </trkpt>
      <trkpt lat="45.8904" lon="4.74105">
        <ele>185</ele>
        <time>2017-07-13T14:43:00Z</time>
      </trkpt>
      <trkpt lat="45.8904" lon="4.74097">
        <ele>185</ele>
        <time>2017-07-13T14:43:01Z</time>
      </trkpt>
      <trkpt lat="45.89039" lon="4.74089">
        <ele>185</ele>
        <time>2017-07-13T14:43:02Z</time>
      </trkpt>
      <trkpt lat="45.89039" lon="4.74081">
        <ele>184</ele>
        <time>2017-07-13T14:43:03Z</time>
      </trkpt>
      <trkpt lat="45.89038" lon="4.74073">
        <ele>184</ele>
        <time>2017-07-13T14:43:04Z</time>
      </trkpt>
      <trkpt lat="45.89038" lon="4.74066">
        <ele>184</ele>
        <time>2017-07-13T14:43:05Z</time>
      </trkpt>
      <trkpt lat="45.89038" lon="4.74058">
        <ele>184</ele>
        <time>2017-07-13T14:43:06Z</time>
      </trkpt>
      <trkpt lat="45.89038" lon="4.7405">
        <ele>184</ele>
        <time>2017-07-13T14:43:07Z</time>
      </trkpt>
      <trkpt lat="45.89038" lon="4.74042">
        <ele>184</ele>
        <time>2017-07-13T14:43:08Z</time>
      </trkpt>
      <trkpt lat="45.89038" lon="4.74035">
        <ele>184</ele>
        <time>2017-07-13T14:43:09Z</time>
      </trkpt>
      <trkpt lat="45.89038" lon="4.74027">
        <ele>184</ele>
        <time>2017-07-13T14:43:10Z</time>
      </trkpt>
      <trkpt lat="45.89038" lon="4.7402">
        <ele>184</ele>
        <time>2017-07-13T14:43:11Z</time>
      </trkpt>
      <trkpt lat="45.8904" lon="4.74014">
        <ele>184</ele>
        <time>2017-07-13T14:43:12Z</time>
      </trkpt>
      <trkpt lat="45.89044" lon="4.7401">
        <ele>184</ele>
        <time>2017-07-13T14:43:13Z</time>
      </trkpt>
      <trkpt lat="45.89048" lon="4.74007">
        <ele>184</ele>
        <time>2017-07-13T14:43:14Z</time>
      </trkpt>
      <trkpt lat="45.89052" lon="4.74006">
        <ele>184</ele>
        <time>2017-07-13T14:43:15Z</time>
      </trkpt>
      <trkpt lat="45.89057" lon="4.74005">
        <ele>184</ele>
        <time>2017-07-13T14:43:16Z</time>
      </trkpt>
      <trkpt lat="45.89062" lon="4.74004">
        <ele>184</ele>
        <time>2017-07-13T14:43:17Z</time>
      </trkpt>
      <trkpt lat="45.89067" lon="4.74003">
        <ele>184</ele>
        <time>2017-07-13T14:43:18Z</time>
      </trkpt>
      <trkpt lat="45.89073" lon="4.74003">
        <ele>183</ele>
        <time>2017-07-13T14:43:19Z</time>
      </trkpt>
      <trkpt lat="45.89077" lon="4.74002">
        <ele>183</ele>
        <time>2017-07-13T14:43:20Z</time>
      </trkpt>
      <trkpt lat="45.89082" lon="4.74001">
        <ele>183</ele>
        <time>2017-07-13T14:43:21Z</time>
      </trkpt>
      <trkpt lat="45.89087" lon="4.74">
        <ele>183</ele>
        <time>2017-07-13T14:43:22Z</time>
      </trkpt>
      <trkpt lat="45.89091" lon="4.73998">
        <ele>183</ele>
        <time>2017-07-13T14:43:23Z</time>
      </trkpt>
      <trkpt lat="45.89096" lon="4.73997">
        <ele>183</ele>
        <time>2017-07-13T14:43:24Z</time>
      </trkpt>
      <trkpt lat="45.891" lon="4.73996">
        <ele>183</ele>
        <time>2017-07-13T14:43:25Z</time>
      </trkpt>
      <trkpt lat="45.89109" lon="4.73995">
        <ele>183</ele>
        <time>2017-07-13T14:43:27Z</time>
      </trkpt>
      <trkpt lat="45.89114" lon="4.73994">
        <ele>183</ele>
        <time>2017-07-13T14:43:28Z</time>
      </trkpt>
      <trkpt lat="45.89118" lon="4.7399">
        <ele>183</ele>
        <time>2017-07-13T14:43:29Z</time>
      </trkpt>
      <trkpt lat="45.89121" lon="4.73985">
        <ele>183</ele>
        <time>2017-07-13T14:43:30Z</time>
      </trkpt>
      <trkpt lat="45.89122" lon="4.73977">
        <ele>183</ele>
        <time>2017-07-13T14:43:31Z</time>
      </trkpt>
      <trkpt lat="45.89123" lon="4.73968">
        <ele>183</ele>
        <time>2017-07-13T14:43:32Z</time>
      </trkpt>
      <trkpt lat="45.89123" lon="4.7396">
        <ele>183</ele>
        <time>2017-07-13T14:43:33Z</time>
      </trkpt>
      <trkpt lat="45.89123" lon="4.73951">
        <ele>183</ele>
        <time>2017-07-13T14:43:34Z</time>
      </trkpt>
      <trkpt lat="45.89122" lon="4.73942">
        <ele>183</ele>
        <time>2017-07-13T14:43:35Z</time>
      </trkpt>
      <trkpt lat="45.89122" lon="4.73934">
        <ele>183</ele>
        <time>2017-07-13T14:43:36Z</time>
      </trkpt>
      <trkpt lat="45.89122" lon="4.73926">
        <ele>183</ele>
        <time>2017-07-13T14:43:37Z</time>
      </trkpt>
      <trkpt lat="45.89122" lon="4.73918">
        <ele>183</ele>
        <time>2017-07-13T14:43:38Z</time>
      </trkpt>
      <trkpt lat="45.89123" lon="4.73911">
        <ele>182</ele>
        <time>2017-07-13T14:43:39Z</time>
      </trkpt>
      <trkpt lat="45.89123" lon="4.73903">
        <ele>182</ele>
        <time>2017-07-13T14:43:40Z</time>
      </trkpt>
      <trkpt lat="45.89123" lon="4.73896">
        <ele>182</ele>
        <time>2017-07-13T14:43:41Z</time>
      </trkpt>
      <trkpt lat="45.89122" lon="4.73889">
        <ele>182</ele>
        <time>2017-07-13T14:43:42Z</time>
      </trkpt>
      <trkpt lat="45.89121" lon="4.73882">
        <ele>182</ele>
        <time>2017-07-13T14:43:43Z</time>
      </trkpt>
      <trkpt lat="45.89121" lon="4.73875">
        <ele>182</ele>
        <time>2017-07-13T14:43:44Z</time>
      </trkpt>
      <trkpt lat="45.8912" lon="4.73868">
        <ele>182</ele>
        <time>2017-07-13T14:43:45Z</time>
      </trkpt>
      <trkpt lat="45.89119" lon="4.7386">
        <ele>182</ele>
        <time>2017-07-13T14:43:46Z</time>
      </trkpt>
      <trkpt lat="45.89119" lon="4.73853">
        <ele>182</ele>
        <time>2017-07-13T14:43:47Z</time>
      </trkpt>
      <trkpt lat="45.89119" lon="4.73845">
        <ele>182</ele>
        <time>2017-07-13T14:43:48Z</time>
      </trkpt>
      <trkpt lat="45.89118" lon="4.73836">
        <ele>182</ele>
        <time>2017-07-13T14:43:49Z</time>
      </trkpt>
      <trkpt lat="45.89117" lon="4.73828">
        <ele>181</ele>
        <time>2017-07-13T14:43:50Z</time>
      </trkpt>
      <trkpt lat="45.89117" lon="4.7382">
        <ele>181</ele>
        <time>2017-07-13T14:43:51Z</time>
      </trkpt>
      <trkpt lat="45.89116" lon="4.73811">
        <ele>181</ele>
        <time>2017-07-13T14:43:52Z</time>
      </trkpt>
      <trkpt lat="45.89116" lon="4.73803">
        <ele>181</ele>
        <time>2017-07-13T14:43:53Z</time>
      </trkpt>
      <trkpt lat="45.89115" lon="4.73795">
        <ele>181</ele>
        <time>2017-07-13T14:43:54Z</time>
      </trkpt>
      <trkpt lat="45.89115" lon="4.73787">
        <ele>181</ele>
        <time>2017-07-13T14:43:55Z</time>
      </trkpt>
      <trkpt lat="45.89114" lon="4.73779">
        <ele>181</ele>
        <time>2017-07-13T14:43:56Z</time>
      </trkpt>
      <trkpt lat="45.89114" lon="4.73772">
        <ele>181</ele>
        <time>2017-07-13T14:43:57Z</time>
      </trkpt>
      <trkpt lat="45.89113" lon="4.73766">
        <ele>181</ele>
        <time>2017-07-13T14:43:58Z</time>
      </trkpt>
      <trkpt lat="45.89113" lon="4.73759">
        <ele>181</ele>
        <time>2017-07-13T14:43:59Z</time>
      </trkpt>
      <trkpt lat="45.89113" lon="4.73752">
        <ele>181</ele>
        <time>2017-07-13T14:44:00Z</time>
      </trkpt>
      <trkpt lat="45.89111" lon="4.7374">
        <ele>181</ele>
        <time>2017-07-13T14:44:02Z</time>
      </trkpt>
      <trkpt lat="45.8911" lon="4.73734">
        <ele>181</ele>
        <time>2017-07-13T14:44:03Z</time>
      </trkpt>
      <trkpt lat="45.8911" lon="4.73722">
        <ele>182</ele>
        <time>2017-07-13T14:44:05Z</time>
      </trkpt>
      <trkpt lat="45.89109" lon="4.73716">
        <ele>182</ele>
        <time>2017-07-13T14:44:06Z</time>
      </trkpt>
      <trkpt lat="45.89109" lon="4.73709">
        <ele>182</ele>
        <time>2017-07-13T14:44:07Z</time>
      </trkpt>
      <trkpt lat="45.89109" lon="4.73702">
        <ele>182</ele>
        <time>2017-07-13T14:44:08Z</time>
      </trkpt>
      <trkpt lat="45.89109" lon="4.73695">
        <ele>182</ele>
        <time>2017-07-13T14:44:09Z</time>
      </trkpt>
      <trkpt lat="45.8911" lon="4.73689">
        <ele>182</ele>
        <time>2017-07-13T14:44:10Z</time>
      </trkpt>
      <trkpt lat="45.8911" lon="4.73681">
        <ele>182</ele>
        <time>2017-07-13T14:44:11Z</time>
      </trkpt>
      <trkpt lat="45.8911" lon="4.73674">
        <ele>182</ele>
        <time>2017-07-13T14:44:12Z</time>
      </trkpt>
      <trkpt lat="45.89111" lon="4.73667">
        <ele>182</ele>
        <time>2017-07-13T14:44:13Z</time>
      </trkpt>
      <trkpt lat="45.89112" lon="4.73659">
        <ele>182</ele>
        <time>2017-07-13T14:44:14Z</time>
      </trkpt>
      <trkpt lat="45.89114" lon="4.73652">
        <ele>182</ele>
        <time>2017-07-13T14:44:15Z</time>
      </trkpt>
      <trkpt lat="45.89116" lon="4.73646">
        <ele>182</ele>
        <time>2017-07-13T14:44:16Z</time>
      </trkpt>
      <trkpt lat="45.89117" lon="4.73639">
        <ele>182</ele>
        <time>2017-07-13T14:44:17Z</time>
      </trkpt>
      <trkpt lat="45.89116" lon="4.73633">
        <ele>181</ele>
        <time>2017-07-13T14:44:18Z</time>
      </trkpt>
      <trkpt lat="45.89113" lon="4.73621">
        <ele>181</ele>
        <time>2017-07-13T14:44:20Z</time>
      </trkpt>
      <trkpt lat="45.89111" lon="4.73616">
        <ele>181</ele>
        <time>2017-07-13T14:44:21Z</time>
      </trkpt>
      <trkpt lat="45.89108" lon="4.73605">
        <ele>181</ele>
        <time>2017-07-13T14:44:23Z</time>
      </trkpt>
      <trkpt lat="45.89106" lon="4.73599">
        <ele>181</ele>
        <time>2017-07-13T14:44:24Z</time>
      </trkpt>
      <trkpt lat="45.89104" lon="4.73593">
        <ele>181</ele>
        <time>2017-07-13T14:44:25Z</time>
      </trkpt>
      <trkpt lat="45.89102" lon="4.73587">
        <ele>181</ele>
        <time>2017-07-13T14:44:26Z</time>
      </trkpt>
      <trkpt lat="45.891" lon="4.7358">
        <ele>181</ele>
        <time>2017-07-13T14:44:27Z</time>
      </trkpt>
      <trkpt lat="45.89099" lon="4.73573">
        <ele>181</ele>
        <time>2017-07-13T14:44:28Z</time>
      </trkpt>
      <trkpt lat="45.89097" lon="4.73565">
        <ele>181</ele>
        <time>2017-07-13T14:44:29Z</time>
      </trkpt>
      <trkpt lat="45.89095" lon="4.73557">
        <ele>181</ele>
        <time>2017-07-13T14:44:30Z</time>
      </trkpt>
      <trkpt lat="45.89095" lon="4.7355">
        <ele>181</ele>
        <time>2017-07-13T14:44:31Z</time>
      </trkpt>
      <trkpt lat="45.89095" lon="4.73544">
        <ele>181</ele>
        <time>2017-07-13T14:44:32Z</time>
      </trkpt>
      <trkpt lat="45.89096" lon="4.73532">
        <ele>181</ele>
        <time>2017-07-13T14:44:34Z</time>
      </trkpt>
      <trkpt lat="45.89096" lon="4.73526">
        <ele>181</ele>
        <time>2017-07-13T14:44:35Z</time>
      </trkpt>
      <trkpt lat="45.89095" lon="4.73514">
        <ele>181</ele>
        <time>2017-07-13T14:44:37Z</time>
      </trkpt>
      <trkpt lat="45.89095" lon="4.73508">
        <ele>181</ele>
        <time>2017-07-13T14:44:38Z</time>
      </trkpt>
      <trkpt lat="45.89095" lon="4.73501">
        <ele>181</ele>
        <time>2017-07-13T14:44:39Z</time>
      </trkpt>
      <trkpt lat="45.89094" lon="4.73494">
        <ele>181</ele>
        <time>2017-07-13T14:44:40Z</time>
      </trkpt>
      <trkpt lat="45.89093" lon="4.73488">
        <ele>180</ele>
        <time>2017-07-13T14:44:41Z</time>
      </trkpt>
      <trkpt lat="45.89091" lon="4.73481">
        <ele>180</ele>
        <time>2017-07-13T14:44:42Z</time>
      </trkpt>
      <trkpt lat="45.8909" lon="4.73474">
        <ele>180</ele>
        <time>2017-07-13T14:44:43Z</time>
      </trkpt>
      <trkpt lat="45.89089" lon="4.73467">
        <ele>180</ele>
        <time>2017-07-13T14:44:44Z</time>
      </trkpt>
      <trkpt lat="45.89087" lon="4.7346">
        <ele>180</ele>
        <time>2017-07-13T14:44:45Z</time>
      </trkpt>
      <trkpt lat="45.89086" lon="4.73453">
        <ele>180</ele>
        <time>2017-07-13T14:44:46Z</time>
      </trkpt>
      <trkpt lat="45.89084" lon="4.73446">
        <ele>180</ele>
        <time>2017-07-13T14:44:47Z</time>
      </trkpt>
      <trkpt lat="45.89082" lon="4.7344">
        <ele>181</ele>
        <time>2017-07-13T14:44:48Z</time>
      </trkpt>
      <trkpt lat="45.89079" lon="4.73428">
        <ele>180</ele>
        <time>2017-07-13T14:44:50Z</time>
      </trkpt>
      <trkpt lat="45.89079" lon="4.73423">
        <ele>180</ele>
        <time>2017-07-13T14:44:51Z</time>
      </trkpt>
      <trkpt lat="45.89079" lon="4.73413">
        <ele>180</ele>
        <time>2017-07-13T14:44:53Z</time>
      </trkpt>
      <trkpt lat="45.8908" lon="4.73409">
        <ele>180</ele>
        <time>2017-07-13T14:44:54Z</time>
      </trkpt>
      <trkpt lat="45.8908" lon="4.73398">
        <ele>180</ele>
        <time>2017-07-13T14:44:56Z</time>
      </trkpt>
      <trkpt lat="45.8908" lon="4.73392">
        <ele>180</ele>
        <time>2017-07-13T14:44:57Z</time>
      </trkpt>
      <trkpt lat="45.89079" lon="4.73379">
        <ele>180</ele>
        <time>2017-07-13T14:44:59Z</time>
      </trkpt>
      <trkpt lat="45.89078" lon="4.73372">
        <ele>180</ele>
        <time>2017-07-13T14:45:00Z</time>
      </trkpt>
      <trkpt lat="45.89077" lon="4.73365">
        <ele>180</ele>
        <time>2017-07-13T14:45:01Z</time>
      </trkpt>
      <trkpt lat="45.89077" lon="4.73358">
        <ele>180</ele>
        <time>2017-07-13T14:45:02Z</time>
      </trkpt>
      <trkpt lat="45.89076" lon="4.7335">
        <ele>180</ele>
        <time>2017-07-13T14:45:03Z</time>
      </trkpt>
      <trkpt lat="45.89076" lon="4.73343">
        <ele>179</ele>
        <time>2017-07-13T14:45:04Z</time>
      </trkpt>
      <trkpt lat="45.89076" lon="4.73336">
        <ele>179</ele>
        <time>2017-07-13T14:45:05Z</time>
      </trkpt>
      <trkpt lat="45.89075" lon="4.73328">
        <ele>179</ele>
        <time>2017-07-13T14:45:06Z</time>
      </trkpt>
      <trkpt lat="45.89074" lon="4.7332">
        <ele>179</ele>
        <time>2017-07-13T14:45:07Z</time>
      </trkpt>
      <trkpt lat="45.89073" lon="4.73313">
        <ele>179</ele>
        <time>2017-07-13T14:45:08Z</time>
      </trkpt>
      <trkpt lat="45.89072" lon="4.73306">
        <ele>179</ele>
        <time>2017-07-13T14:45:09Z</time>
      </trkpt>
      <trkpt lat="45.8907" lon="4.73299">
        <ele>179</ele>
        <time>2017-07-13T14:45:10Z</time>
      </trkpt>
      <trkpt lat="45.89068" lon="4.73292">
        <ele>179</ele>
        <time>2017-07-13T14:45:11Z</time>
      </trkpt>
      <trkpt lat="45.89067" lon="4.73286">
        <ele>179</ele>
        <time>2017-07-13T14:45:12Z</time>
      </trkpt>
      <trkpt lat="45.89064" lon="4.73273">
        <ele>179</ele>
        <time>2017-07-13T14:45:14Z</time>
      </trkpt>
      <trkpt lat="45.89064" lon="4.73268">
        <ele>179</ele>
        <time>2017-07-13T14:45:15Z</time>
      </trkpt>
      <trkpt lat="45.89061" lon="4.73257">
        <ele>179</ele>
        <time>2017-07-13T14:45:17Z</time>
      </trkpt>
      <trkpt lat="45.8906" lon="4.73251">
        <ele>179</ele>
        <time>2017-07-13T14:45:18Z</time>
      </trkpt>
      <trkpt lat="45.89059" lon="4.73239">
        <ele>180</ele>
        <time>2017-07-13T14:45:20Z</time>
      </trkpt>
      <trkpt lat="45.89059" lon="4.73233">
        <ele>180</ele>
        <time>2017-07-13T14:45:21Z</time>
      </trkpt>
      <trkpt lat="45.89058" lon="4.73227">
        <ele>180</ele>
        <time>2017-07-13T14:45:22Z</time>
      </trkpt>
      <trkpt lat="45.89058" lon="4.7322">
        <ele>180</ele>
        <time>2017-07-13T14:45:23Z</time>
      </trkpt>
      <trkpt lat="45.89057" lon="4.73213">
        <ele>180</ele>
        <time>2017-07-13T14:45:24Z</time>
      </trkpt>
      <trkpt lat="45.89058" lon="4.73206">
        <ele>180</ele>
        <time>2017-07-13T14:45:25Z</time>
      </trkpt>
      <trkpt lat="45.89058" lon="4.73199">
        <ele>180</ele>
        <time>2017-07-13T14:45:26Z</time>
      </trkpt>
      <trkpt lat="45.89058" lon="4.73191">
        <ele>180</ele>
        <time>2017-07-13T14:45:27Z</time>
      </trkpt>
      <trkpt lat="45.89057" lon="4.73184">
        <ele>180</ele>
        <time>2017-07-13T14:45:28Z</time>
      </trkpt>
      <trkpt lat="45.89057" lon="4.73177">
        <ele>180</ele>
        <time>2017-07-13T14:45:29Z</time>
      </trkpt>
      <trkpt lat="45.89056" lon="4.7317">
        <ele>180</ele>
        <time>2017-07-13T14:45:30Z</time>
      </trkpt>
      <trkpt lat="45.89056" lon="4.73163">
        <ele>181</ele>
        <time>2017-07-13T14:45:31Z</time>
      </trkpt>
      <trkpt lat="45.89056" lon="4.7315">
        <ele>181</ele>
        <time>2017-07-13T14:45:33Z</time>
      </trkpt>
      <trkpt lat="45.89056" lon="4.73143">
        <ele>181</ele>
        <time>2017-07-13T14:45:34Z</time>
      </trkpt>
      <trkpt lat="45.89056" lon="4.73131">
        <ele>182</ele>
        <time>2017-07-13T14:45:36Z</time>
      </trkpt>
      <trkpt lat="45.89055" lon="4.73124">
        <ele>182</ele>
        <time>2017-07-13T14:45:37Z</time>
      </trkpt>
      <trkpt lat="45.89055" lon="4.73118">
        <ele>182</ele>
        <time>2017-07-13T14:45:38Z</time>
      </trkpt>
      <trkpt lat="45.89055" lon="4.73111">
        <ele>182</ele>
        <time>2017-07-13T14:45:39Z</time>
      </trkpt>
      <trkpt lat="45.89055" lon="4.73105">
        <ele>182</ele>
        <time>2017-07-13T14:45:40Z</time>
      </trkpt>
      <trkpt lat="45.89055" lon="4.73098">
        <ele>182</ele>
        <time>2017-07-13T14:45:41Z</time>
      </trkpt>
      <trkpt lat="45.89056" lon="4.73091">
        <ele>182</ele>
        <time>2017-07-13T14:45:42Z</time>
      </trkpt>
      <trkpt lat="45.89056" lon="4.73084">
        <ele>182</ele>
        <time>2017-07-13T14:45:43Z</time>
      </trkpt>
      <trkpt lat="45.89057" lon="4.73078">
        <ele>182</ele>
        <time>2017-07-13T14:45:44Z</time>
      </trkpt>
      <trkpt lat="45.89057" lon="4.73071">
        <ele>182</ele>
        <time>2017-07-13T14:45:45Z</time>
      </trkpt>
      <trkpt lat="45.89056" lon="4.73059">
        <ele>182</ele>
        <time>2017-07-13T14:45:47Z</time>
      </trkpt>
      <trkpt lat="45.89052" lon="4.73056">
        <ele>182</ele>
        <time>2017-07-13T14:45:48Z</time>
      </trkpt>
      <trkpt lat="45.89046" lon="4.73054">
        <ele>182</ele>
        <time>2017-07-13T14:45:50Z</time>
      </trkpt>
      <trkpt lat="45.89042" lon="4.73055">
        <ele>182</ele>
        <time>2017-07-13T14:45:51Z</time>
      </trkpt>
      <trkpt lat="45.89037" lon="4.73057">
        <ele>182</ele>
        <time>2017-07-13T14:45:52Z</time>
      </trkpt>
      <trkpt lat="45.89033" lon="4.73057">
        <ele>182</ele>
        <time>2017-07-13T14:45:53Z</time>
      </trkpt>
      <trkpt lat="45.89028" lon="4.73058">
        <ele>182</ele>
        <time>2017-07-13T14:45:54Z</time>
      </trkpt>
      <trkpt lat="45.89023" lon="4.73059">
        <ele>182</ele>
        <time>2017-07-13T14:45:55Z</time>
      </trkpt>
      <trkpt lat="45.89018" lon="4.73061">
        <ele>182</ele>
        <time>2017-07-13T14:45:56Z</time>
      </trkpt>
      <trkpt lat="45.89012" lon="4.73063">
        <ele>182</ele>
        <time>2017-07-13T14:45:57Z</time>
      </trkpt>
      <trkpt lat="45.89007" lon="4.73065">
        <ele>182</ele>
        <time>2017-07-13T14:45:58Z</time>
      </trkpt>
      <trkpt lat="45.89001" lon="4.73067">
        <ele>183</ele>
        <time>2017-07-13T14:45:59Z</time>
      </trkpt>
      <trkpt lat="45.88996" lon="4.73068">
        <ele>183</ele>
        <time>2017-07-13T14:46:00Z</time>
      </trkpt>
      <trkpt lat="45.88991" lon="4.73068">
        <ele>183</ele>
        <time>2017-07-13T14:46:01Z</time>
      </trkpt>
      <trkpt lat="45.88985" lon="4.73069">
        <ele>183</ele>
        <time>2017-07-13T14:46:02Z</time>
      </trkpt>
      <trkpt lat="45.88981" lon="4.73069">
        <ele>183</ele>
        <time>2017-07-13T14:46:03Z</time>
      </trkpt>
      <trkpt lat="45.88972" lon="4.73071">
        <ele>183</ele>
        <time>2017-07-13T14:46:05Z</time>
      </trkpt>
      <trkpt lat="45.88968" lon="4.73071">
        <ele>183</ele>
        <time>2017-07-13T14:46:06Z</time>
      </trkpt>
      <trkpt lat="45.8896" lon="4.73072">
        <ele>183</ele>
        <time>2017-07-13T14:46:08Z</time>
      </trkpt>
      <trkpt lat="45.88956" lon="4.73073">
        <ele>183</ele>
        <time>2017-07-13T14:46:09Z</time>
      </trkpt>
      <trkpt lat="45.88948" lon="4.73076">
        <ele>183</ele>
        <time>2017-07-13T14:46:11Z</time>
      </trkpt>
      <trkpt lat="45.88943" lon="4.73077">
        <ele>183</ele>
        <time>2017-07-13T14:46:12Z</time>
      </trkpt>
      <trkpt lat="45.88938" lon="4.73078">
        <ele>183</ele>
        <time>2017-07-13T14:46:13Z</time>
      </trkpt>
      <trkpt lat="45.88933" lon="4.73079">
        <ele>183</ele>
        <time>2017-07-13T14:46:14Z</time>
      </trkpt>
      <trkpt lat="45.88928" lon="4.73081">
        <ele>183</ele>
        <time>2017-07-13T14:46:15Z</time>
      </trkpt>
      <trkpt lat="45.88923" lon="4.73082">
        <ele>183</ele>
        <time>2017-07-13T14:46:16Z</time>
      </trkpt>
      <trkpt lat="45.88918" lon="4.73083">
        <ele>183</ele>
        <time>2017-07-13T14:46:17Z</time>
      </trkpt>
      <trkpt lat="45.88913" lon="4.73085">
        <ele>183</ele>
        <time>2017-07-13T14:46:18Z</time>
      </trkpt>
      <trkpt lat="45.88905" lon="4.73087">
        <ele>183</ele>
        <time>2017-07-13T14:46:20Z</time>
      </trkpt>
      <trkpt lat="45.88901" lon="4.73088">
        <ele>182</ele>
        <time>2017-07-13T14:46:21Z</time>
      </trkpt>
      <trkpt lat="45.88893" lon="4.73091">
        <ele>182</ele>
        <time>2017-07-13T14:46:23Z</time>
      </trkpt>
      <trkpt lat="45.88889" lon="4.73092">
        <ele>182</ele>
        <time>2017-07-13T14:46:24Z</time>
      </trkpt>
      <trkpt lat="45.8888" lon="4.73093">
        <ele>182</ele>
        <time>2017-07-13T14:46:26Z</time>
      </trkpt>
      <trkpt lat="45.88876" lon="4.73094">
        <ele>182</ele>
        <time>2017-07-13T14:46:27Z</time>
      </trkpt>
      <trkpt lat="45.88868" lon="4.73097">
        <ele>182</ele>
        <time>2017-07-13T14:46:29Z</time>
      </trkpt>
      <trkpt lat="45.88864" lon="4.73099">
        <ele>182</ele>
        <time>2017-07-13T14:46:30Z</time>
      </trkpt>
      <trkpt lat="45.88856" lon="4.73101">
        <ele>182</ele>
        <time>2017-07-13T14:46:32Z</time>
      </trkpt>
      <trkpt lat="45.88851" lon="4.73102">
        <ele>182</ele>
        <time>2017-07-13T14:46:33Z</time>
      </trkpt>
      <trkpt lat="45.88845" lon="4.73104">
        <ele>182</ele>
        <time>2017-07-13T14:46:34Z</time>
      </trkpt>
      <trkpt lat="45.88841" lon="4.73105">
        <ele>182</ele>
        <time>2017-07-13T14:46:35Z</time>
      </trkpt>
      <trkpt lat="45.88833" lon="4.73107">
        <ele>182</ele>
        <time>2017-07-13T14:46:37Z</time>
      </trkpt>
      <trkpt lat="45.8883" lon="4.73108">
        <ele>182</ele>
        <time>2017-07-13T14:46:38Z</time>
      </trkpt>
      <trkpt lat="45.88823" lon="4.73111">
        <ele>182</ele>
        <time>2017-07-13T14:46:40Z</time>
      </trkpt>
      <trkpt lat="45.88821" lon="4.73113">
        <ele>182</ele>
        <time>2017-07-13T14:46:41Z</time>
      </trkpt>
      <trkpt lat="45.88817" lon="4.73116">
        <ele>182</ele>
        <time>2017-07-13T14:46:43Z</time>
      </trkpt>
      <trkpt lat="45.88815" lon="4.73117">
        <ele>182</ele>
        <time>2017-07-13T14:46:44Z</time>
      </trkpt>
      <trkpt lat="45.88814" lon="4.73116">
        <ele>182</ele>
        <time>2017-07-13T14:46:45Z</time>
      </trkpt>
      <trkpt lat="45.88812" lon="4.73115">
        <ele>182</ele>
        <time>2017-07-13T14:46:46Z</time>
      </trkpt>
      <trkpt lat="45.88804" lon="4.73114">
        <ele>182</ele>
        <time>2017-07-13T14:46:49Z</time>
      </trkpt>
      <trkpt lat="45.888" lon="4.73115">
        <ele>182</ele>
        <time>2017-07-13T14:46:50Z</time>
      </trkpt>
      <trkpt lat="45.88793" lon="4.73118">
        <ele>182</ele>
        <time>2017-07-13T14:46:52Z</time>
      </trkpt>
      <trkpt lat="45.88789" lon="4.73117">
        <ele>182</ele>
        <time>2017-07-13T14:46:53Z</time>
      </trkpt>
      <trkpt lat="45.88783" lon="4.73111">
        <ele>182</ele>
        <time>2017-07-13T14:46:55Z</time>
      </trkpt>
      <trkpt lat="45.88782" lon="4.73106">
        <ele>182</ele>
        <time>2017-07-13T14:46:56Z</time>
      </trkpt>
      <trkpt lat="45.88782" lon="4.73095">
        <ele>183</ele>
        <time>2017-07-13T14:46:58Z</time>
      </trkpt>
      <trkpt lat="45.88781" lon="4.73088">
        <ele>183</ele>
        <time>2017-07-13T14:46:59Z</time>
      </trkpt>
      <trkpt lat="45.88781" lon="4.73082">
        <ele>183</ele>
        <time>2017-07-13T14:47:00Z</time>
      </trkpt>
      <trkpt lat="45.8878" lon="4.73075">
        <ele>184</ele>
        <time>2017-07-13T14:47:01Z</time>
      </trkpt>
      <trkpt lat="45.8878" lon="4.73068">
        <ele>184</ele>
        <time>2017-07-13T14:47:02Z</time>
      </trkpt>
      <trkpt lat="45.8878" lon="4.73061">
        <ele>184</ele>
        <time>2017-07-13T14:47:03Z</time>
      </trkpt>
      <trkpt lat="45.8878" lon="4.73054">
        <ele>184</ele>
        <time>2017-07-13T14:47:04Z</time>
      </trkpt>
      <trkpt lat="45.88779" lon="4.73047">
        <ele>184</ele>
        <time>2017-07-13T14:47:05Z</time>
      </trkpt>
      <trkpt lat="45.88779" lon="4.7304">
        <ele>184</ele>
        <time>2017-07-13T14:47:06Z</time>
      </trkpt>
      <trkpt lat="45.88778" lon="4.73033">
        <ele>184</ele>
        <time>2017-07-13T14:47:07Z</time>
      </trkpt>
      <trkpt lat="45.88778" lon="4.73026">
        <ele>184</ele>
        <time>2017-07-13T14:47:08Z</time>
      </trkpt>
      <trkpt lat="45.88777" lon="4.73018">
        <ele>184</ele>
        <time>2017-07-13T14:47:09Z</time>
      </trkpt>
      <trkpt lat="45.88776" lon="4.73012">
        <ele>184</ele>
        <time>2017-07-13T14:47:10Z</time>
      </trkpt>
      <trkpt lat="45.88776" lon="4.73005">
        <ele>184</ele>
        <time>2017-07-13T14:47:11Z</time>
      </trkpt>
      <trkpt lat="45.88775" lon="4.72998">
        <ele>185</ele>
        <time>2017-07-13T14:47:12Z</time>
      </trkpt>
      <trkpt lat="45.88775" lon="4.7299">
        <ele>185</ele>
        <time>2017-07-13T14:47:13Z</time>
      </trkpt>
      <trkpt lat="45.88775" lon="4.72983">
        <ele>185</ele>
        <time>2017-07-13T14:47:14Z</time>
      </trkpt>
      <trkpt lat="45.88774" lon="4.72975">
        <ele>185</ele>
        <time>2017-07-13T14:47:15Z</time>
      </trkpt>
      <trkpt lat="45.88774" lon="4.72968">
        <ele>185</ele>
        <time>2017-07-13T14:47:16Z</time>
      </trkpt>
      <trkpt lat="45.88773" lon="4.72962">
        <ele>185</ele>
        <time>2017-07-13T14:47:17Z</time>
      </trkpt>
      <trkpt lat="45.88773" lon="4.72955">
        <ele>185</ele>
        <time>2017-07-13T14:47:18Z</time>
      </trkpt>
      <trkpt lat="45.88773" lon="4.72948">
        <ele>185</ele>
        <time>2017-07-13T14:47:19Z</time>
      </trkpt>
      <trkpt lat="45.88773" lon="4.72941">
        <ele>185</ele>
        <time>2017-07-13T14:47:20Z</time>
      </trkpt>
      <trkpt lat="45.88772" lon="4.72935">
        <ele>185</ele>
        <time>2017-07-13T14:47:21Z</time>
      </trkpt>
      <trkpt lat="45.88771" lon="4.72928">
        <ele>185</ele>
        <time>2017-07-13T14:47:22Z</time>
      </trkpt>
      <trkpt lat="45.88771" lon="4.72921">
        <ele>185</ele>
        <time>2017-07-13T14:47:23Z</time>
      </trkpt>
      <trkpt lat="45.88771" lon="4.72914">
        <ele>185</ele>
        <time>2017-07-13T14:47:24Z</time>
      </trkpt>
      <trkpt lat="45.8877" lon="4.72907">
        <ele>185</ele>
        <time>2017-07-13T14:47:25Z</time>
      </trkpt>
      <trkpt lat="45.88769" lon="4.72899">
        <ele>185</ele>
        <time>2017-07-13T14:47:26Z</time>
      </trkpt>
      <trkpt lat="45.88769" lon="4.72892">
        <ele>185</ele>
        <time>2017-07-13T14:47:27Z</time>
      </trkpt>
      <trkpt lat="45.88768" lon="4.72883">
        <ele>185</ele>
        <time>2017-07-13T14:47:28Z</time>
      </trkpt>
      <trkpt lat="45.88767" lon="4.72874">
        <ele>185</ele>
        <time>2017-07-13T14:47:29Z</time>
      </trkpt>
      <trkpt lat="45.88767" lon="4.72866">
        <ele>185</ele>
        <time>2017-07-13T14:47:30Z</time>
      </trkpt>
      <trkpt lat="45.88766" lon="4.72857">
        <ele>185</ele>
        <time>2017-07-13T14:47:31Z</time>
      </trkpt>
      <trkpt lat="45.88766" lon="4.72848">
        <ele>185</ele>
        <time>2017-07-13T14:47:32Z</time>
      </trkpt>
      <trkpt lat="45.88765" lon="4.7284">
        <ele>185</ele>
        <time>2017-07-13T14:47:33Z</time>
      </trkpt>
      <trkpt lat="45.88765" lon="4.72831">
        <ele>185</ele>
        <time>2017-07-13T14:47:34Z</time>
      </trkpt>
      <trkpt lat="45.88763" lon="4.72823">
        <ele>185</ele>
        <time>2017-07-13T14:47:35Z</time>
      </trkpt>
      <trkpt lat="45.88762" lon="4.72815">
        <ele>185</ele>
        <time>2017-07-13T14:47:36Z</time>
      </trkpt>
      <trkpt lat="45.88761" lon="4.72807">
        <ele>184</ele>
        <time>2017-07-13T14:47:37Z</time>
      </trkpt>
      <trkpt lat="45.8876" lon="4.72799">
        <ele>184</ele>
        <time>2017-07-13T14:47:38Z</time>
      </trkpt>
      <trkpt lat="45.8876" lon="4.72791">
        <ele>184</ele>
        <time>2017-07-13T14:47:39Z</time>
      </trkpt>
      <trkpt lat="45.88759" lon="4.72783">
        <ele>184</ele>
        <time>2017-07-13T14:47:40Z</time>
      </trkpt>
      <trkpt lat="45.88759" lon="4.72776">
        <ele>184</ele>
        <time>2017-07-13T14:47:41Z</time>
      </trkpt>
      <trkpt lat="45.88758" lon="4.72769">
        <ele>184</ele>
        <time>2017-07-13T14:47:42Z</time>
      </trkpt>
      <trkpt lat="45.88758" lon="4.72761">
        <ele>183</ele>
        <time>2017-07-13T14:47:43Z</time>
      </trkpt>
      <trkpt lat="45.88757" lon="4.72754">
        <ele>183</ele>
        <time>2017-07-13T14:47:44Z</time>
      </trkpt>
      <trkpt lat="45.88756" lon="4.72747">
        <ele>183</ele>
        <time>2017-07-13T14:47:45Z</time>
      </trkpt>
      <trkpt lat="45.88755" lon="4.72738">
        <ele>183</ele>
        <time>2017-07-13T14:47:46Z</time>
      </trkpt>
      <trkpt lat="45.88755" lon="4.72729">
        <ele>183</ele>
        <time>2017-07-13T14:47:47Z</time>
      </trkpt>
      <trkpt lat="45.88754" lon="4.7272">
        <ele>183</ele>
        <time>2017-07-13T14:47:48Z</time>
      </trkpt>
      <trkpt lat="45.88754" lon="4.72711">
        <ele>183</ele>
        <time>2017-07-13T14:47:49Z</time>
      </trkpt>
      <trkpt lat="45.88753" lon="4.72703">
        <ele>182</ele>
        <time>2017-07-13T14:47:50Z</time>
      </trkpt>
      <trkpt lat="45.88753" lon="4.72695">
        <ele>182</ele>
        <time>2017-07-13T14:47:51Z</time>
      </trkpt>
      <trkpt lat="45.88752" lon="4.72687">
        <ele>182</ele>
        <time>2017-07-13T14:47:52Z</time>
      </trkpt>
      <trkpt lat="45.88751" lon="4.7268">
        <ele>182</ele>
        <time>2017-07-13T14:47:53Z</time>
      </trkpt>
      <trkpt lat="45.88751" lon="4.72673">
        <ele>182</ele>
        <time>2017-07-13T14:47:54Z</time>
      </trkpt>
      <trkpt lat="45.8875" lon="4.72665">
        <ele>182</ele>
        <time>2017-07-13T14:47:55Z</time>
      </trkpt>
      <trkpt lat="45.88749" lon="4.72658">
        <ele>182</ele>
        <time>2017-07-13T14:47:56Z</time>
      </trkpt>
      <trkpt lat="45.88748" lon="4.72651">
        <ele>183</ele>
        <time>2017-07-13T14:47:57Z</time>
      </trkpt>
      <trkpt lat="45.88748" lon="4.72643">
        <ele>183</ele>
        <time>2017-07-13T14:47:58Z</time>
      </trkpt>
      <trkpt lat="45.88747" lon="4.72635">
        <ele>183</ele>
        <time>2017-07-13T14:47:59Z</time>
      </trkpt>
      <trkpt lat="45.88746" lon="4.72627">
        <ele>183</ele>
        <time>2017-07-13T14:48:00Z</time>
      </trkpt>
      <trkpt lat="45.88745" lon="4.72619">
        <ele>183</ele>
        <time>2017-07-13T14:48:01Z</time>
      </trkpt>
      <trkpt lat="45.88745" lon="4.7261">
        <ele>183</ele>
        <time>2017-07-13T14:48:02Z</time>
      </trkpt>
      <trkpt lat="45.88744" lon="4.72601">
        <ele>184</ele>
        <time>2017-07-13T14:48:03Z</time>
      </trkpt>
      <trkpt lat="45.88743" lon="4.72593">
        <ele>184</ele>
        <time>2017-07-13T14:48:04Z</time>
      </trkpt>
      <trkpt lat="45.88741" lon="4.72585">
        <ele>184</ele>
        <time>2017-07-13T14:48:05Z</time>
      </trkpt>
      <trkpt lat="45.88741" lon="4.72578">
        <ele>184</ele>
        <time>2017-07-13T14:48:06Z</time>
      </trkpt>
      <trkpt lat="45.8874" lon="4.72571">
        <ele>184</ele>
        <time>2017-07-13T14:48:07Z</time>
      </trkpt>
      <trkpt lat="45.88739" lon="4.72564">
        <ele>183</ele>
        <time>2017-07-13T14:48:08Z</time>
      </trkpt>
      <trkpt lat="45.88738" lon="4.72558">
        <ele>183</ele>
        <time>2017-07-13T14:48:09Z</time>
      </trkpt>
      <trkpt lat="45.88737" lon="4.72551">
        <ele>183</ele>
        <time>2017-07-13T14:48:10Z</time>
      </trkpt>
      <trkpt lat="45.88735" lon="4.72544">
        <ele>183</ele>
        <time>2017-07-13T14:48:11Z</time>
      </trkpt>
      <trkpt lat="45.88734" lon="4.72537">
        <ele>183</ele>
        <time>2017-07-13T14:48:12Z</time>
      </trkpt>
      <trkpt lat="45.88732" lon="4.72531">
        <ele>183</ele>
        <time>2017-07-13T14:48:13Z</time>
      </trkpt>
      <trkpt lat="45.88731" lon="4.72524">
        <ele>183</ele>
        <time>2017-07-13T14:48:14Z</time>
      </trkpt>
      <trkpt lat="45.88729" lon="4.72517">
        <ele>183</ele>
        <time>2017-07-13T14:48:15Z</time>
      </trkpt>
      <trkpt lat="45.88728" lon="4.7251">
        <ele>183</ele>
        <time>2017-07-13T14:48:16Z</time>
      </trkpt>
      <trkpt lat="45.88726" lon="4.72503">
        <ele>183</ele>
        <time>2017-07-13T14:48:17Z</time>
      </trkpt>
      <trkpt lat="45.88726" lon="4.72495">
        <ele>182</ele>
        <time>2017-07-13T14:48:18Z</time>
      </trkpt>
      <trkpt lat="45.88726" lon="4.72487">
        <ele>182</ele>
        <time>2017-07-13T14:48:19Z</time>
      </trkpt>
      <trkpt lat="45.88727" lon="4.72479">
        <ele>182</ele>
        <time>2017-07-13T14:48:20Z</time>
      </trkpt>
      <trkpt lat="45.88728" lon="4.7247">
        <ele>182</ele>
        <time>2017-07-13T14:48:21Z</time>
      </trkpt>
      <trkpt lat="45.88729" lon="4.72463">
        <ele>182</ele>
        <time>2017-07-13T14:48:22Z</time>
      </trkpt>
      <trkpt lat="45.88731" lon="4.72455">
        <ele>182</ele>
        <time>2017-07-13T14:48:23Z</time>
      </trkpt>
      <trkpt lat="45.88733" lon="4.72448">
        <ele>182</ele>
        <time>2017-07-13T14:48:24Z</time>
      </trkpt>
      <trkpt lat="45.88736" lon="4.72442">
        <ele>182</ele>
        <time>2017-07-13T14:48:25Z</time>
      </trkpt>
      <trkpt lat="45.88738" lon="4.72436">
        <ele>182</ele>
        <time>2017-07-13T14:48:26Z</time>
      </trkpt>
      <trkpt lat="45.88741" lon="4.7243">
        <ele>182</ele>
        <time>2017-07-13T14:48:27Z</time>
      </trkpt>
      <trkpt lat="45.88744" lon="4.72424">
        <ele>182</ele>
        <time>2017-07-13T14:48:28Z</time>
      </trkpt>
      <trkpt lat="45.88746" lon="4.72418">
        <ele>182</ele>
        <time>2017-07-13T14:48:29Z</time>
      </trkpt>
      <trkpt lat="45.8875" lon="4.72412">
        <ele>182</ele>
        <time>2017-07-13T14:48:30Z</time>
      </trkpt>
      <trkpt lat="45.88753" lon="4.72406">
        <ele>182</ele>
        <time>2017-07-13T14:48:31Z</time>
      </trkpt>
      <trkpt lat="45.88757" lon="4.724">
        <ele>182</ele>
        <time>2017-07-13T14:48:32Z</time>
      </trkpt>
      <trkpt lat="45.88761" lon="4.72394">
        <ele>182</ele>
        <time>2017-07-13T14:48:33Z</time>
      </trkpt>
      <trkpt lat="45.88764" lon="4.72387">
        <ele>182</ele>
        <time>2017-07-13T14:48:34Z</time>
      </trkpt>
      <trkpt lat="45.88767" lon="4.7238">
        <ele>182</ele>
        <time>2017-07-13T14:48:35Z</time>
      </trkpt>
      <trkpt lat="45.8877" lon="4.72373">
        <ele>182</ele>
        <time>2017-07-13T14:48:36Z</time>
      </trkpt>
      <trkpt lat="45.88773" lon="4.72367">
        <ele>182</ele>
        <time>2017-07-13T14:48:37Z</time>
      </trkpt>
      <trkpt lat="45.88777" lon="4.72361">
        <ele>182</ele>
        <time>2017-07-13T14:48:38Z</time>
      </trkpt>
      <trkpt lat="45.8878" lon="4.72356">
        <ele>182</ele>
        <time>2017-07-13T14:48:39Z</time>
      </trkpt>
      <trkpt lat="45.88782" lon="4.7235">
        <ele>182</ele>
        <time>2017-07-13T14:48:40Z</time>
      </trkpt>
      <trkpt lat="45.88785" lon="4.72344">
        <ele>182</ele>
        <time>2017-07-13T14:48:41Z</time>
      </trkpt>
      <trkpt lat="45.88787" lon="4.72338">
        <ele>182</ele>
        <time>2017-07-13T14:48:42Z</time>
      </trkpt>
      <trkpt lat="45.8879" lon="4.72332">
        <ele>182</ele>
        <time>2017-07-13T14:48:43Z</time>
      </trkpt>
      <trkpt lat="45.88792" lon="4.72326">
        <ele>182</ele>
        <time>2017-07-13T14:48:44Z</time>
      </trkpt>
      <trkpt lat="45.88794" lon="4.7232">
        <ele>182</ele>
        <time>2017-07-13T14:48:45Z</time>
      </trkpt>
      <trkpt lat="45.88796" lon="4.72314">
        <ele>182</ele>
        <time>2017-07-13T14:48:46Z</time>
      </trkpt>
      <trkpt lat="45.88798" lon="4.72307">
        <ele>182</ele>
        <time>2017-07-13T14:48:47Z</time>
      </trkpt>
      <trkpt lat="45.888" lon="4.72299">
        <ele>182</ele>
        <time>2017-07-13T14:48:48Z</time>
      </trkpt>
      <trkpt lat="45.88802" lon="4.72291">
        <ele>182</ele>
        <time>2017-07-13T14:48:49Z</time>
      </trkpt>
      <trkpt lat="45.88804" lon="4.72284">
        <ele>182</ele>
        <time>2017-07-13T14:48:50Z</time>
      </trkpt>
      <trkpt lat="45.88805" lon="4.72276">
        <ele>182</ele>
        <time>2017-07-13T14:48:51Z</time>
      </trkpt>
      <trkpt lat="45.88806" lon="4.72268">
        <ele>182</ele>
        <time>2017-07-13T14:48:52Z</time>
      </trkpt>
      <trkpt lat="45.88808" lon="4.72261">
        <ele>182</ele>
        <time>2017-07-13T14:48:53Z</time>
      </trkpt>
      <trkpt lat="45.8881" lon="4.72254">
        <ele>182</ele>
        <time>2017-07-13T14:48:54Z</time>
      </trkpt>
      <trkpt lat="45.88811" lon="4.72246">
        <ele>182</ele>
        <time>2017-07-13T14:48:55Z</time>
      </trkpt>
      <trkpt lat="45.88812" lon="4.72238">
        <ele>182</ele>
        <time>2017-07-13T14:48:56Z</time>
      </trkpt>
      <trkpt lat="45.88813" lon="4.7223">
        <ele>182</ele>
        <time>2017-07-13T14:48:57Z</time>
      </trkpt>
      <trkpt lat="45.88815" lon="4.72222">
        <ele>182</ele>
        <time>2017-07-13T14:48:58Z</time>
      </trkpt>
      <trkpt lat="45.88816" lon="4.72213">
        <ele>182</ele>
        <time>2017-07-13T14:48:59Z</time>
      </trkpt>
      <trkpt lat="45.88817" lon="4.72204">
        <ele>182</ele>
        <time>2017-07-13T14:49:00Z</time>
      </trkpt>
      <trkpt lat="45.88818" lon="4.72195">
        <ele>182</ele>
        <time>2017-07-13T14:49:01Z</time>
      </trkpt>
      <trkpt lat="45.8882" lon="4.72187">
        <ele>182</ele>
        <time>2017-07-13T14:49:02Z</time>
      </trkpt>
      <trkpt lat="45.88821" lon="4.72178">
        <ele>182</ele>
        <time>2017-07-13T14:49:03Z</time>
      </trkpt>
      <trkpt lat="45.88823" lon="4.7217">
        <ele>182</ele>
        <time>2017-07-13T14:49:04Z</time>
      </trkpt>
      <trkpt lat="45.88824" lon="4.72162">
        <ele>182</ele>
        <time>2017-07-13T14:49:05Z</time>
      </trkpt>
      <trkpt lat="45.88825" lon="4.72154">
        <ele>182</ele>
        <time>2017-07-13T14:49:06Z</time>
      </trkpt>
      <trkpt lat="45.88827" lon="4.72147">
        <ele>182</ele>
        <time>2017-07-13T14:49:07Z</time>
      </trkpt>
      <trkpt lat="45.88829" lon="4.7214">
        <ele>182</ele>
        <time>2017-07-13T14:49:08Z</time>
      </trkpt>
      <trkpt lat="45.8883" lon="4.72133">
        <ele>182</ele>
        <time>2017-07-13T14:49:09Z</time>
      </trkpt>
      <trkpt lat="45.88831" lon="4.72126">
        <ele>182</ele>
        <time>2017-07-13T14:49:10Z</time>
      </trkpt>
      <trkpt lat="45.88832" lon="4.72119">
        <ele>181</ele>
        <time>2017-07-13T14:49:11Z</time>
      </trkpt>
      <trkpt lat="45.88836" lon="4.72107">
        <ele>181</ele>
        <time>2017-07-13T14:49:13Z</time>
      </trkpt>
      <trkpt lat="45.8884" lon="4.72104">
        <ele>181</ele>
        <time>2017-07-13T14:49:14Z</time>
      </trkpt>
      <trkpt lat="45.88844" lon="4.72102">
        <ele>181</ele>
        <time>2017-07-13T14:49:15Z</time>
      </trkpt>
      <trkpt lat="45.88849" lon="4.72102">
        <ele>181</ele>
        <time>2017-07-13T14:49:16Z</time>
      </trkpt>
      <trkpt lat="45.88854" lon="4.72103">
        <ele>181</ele>
        <time>2017-07-13T14:49:17Z</time>
      </trkpt>
      <trkpt lat="45.88859" lon="4.72105">
        <ele>181</ele>
        <time>2017-07-13T14:49:18Z</time>
      </trkpt>
      <trkpt lat="45.88864" lon="4.72106">
        <ele>181</ele>
        <time>2017-07-13T14:49:19Z</time>
      </trkpt>
      <trkpt lat="45.88869" lon="4.72107">
        <ele>181</ele>
        <time>2017-07-13T14:49:20Z</time>
      </trkpt>
      <trkpt lat="45.88875" lon="4.72109">
        <ele>181</ele>
        <time>2017-07-13T14:49:21Z</time>
      </trkpt>
      <trkpt lat="45.8888" lon="4.7211">
        <ele>181</ele>
        <time>2017-07-13T14:49:22Z</time>
      </trkpt>
      <trkpt lat="45.88886" lon="4.72111">
        <ele>181</ele>
        <time>2017-07-13T14:49:23Z</time>
      </trkpt>
      <trkpt lat="45.88891" lon="4.72113">
        <ele>181</ele>
        <time>2017-07-13T14:49:24Z</time>
      </trkpt>
      <trkpt lat="45.88896" lon="4.72115">
        <ele>181</ele>
        <time>2017-07-13T14:49:25Z</time>
      </trkpt>
      <trkpt lat="45.88901" lon="4.72117">
        <ele>181</ele>
        <time>2017-07-13T14:49:26Z</time>
      </trkpt>
      <trkpt lat="45.88905" lon="4.72119">
        <ele>181</ele>
        <time>2017-07-13T14:49:27Z</time>
      </trkpt>
      <trkpt lat="45.8891" lon="4.7212">
        <ele>181</ele>
        <time>2017-07-13T14:49:28Z</time>
      </trkpt>
      <trkpt lat="45.88918" lon="4.72123">
        <ele>181</ele>
        <time>2017-07-13T14:49:30Z</time>
      </trkpt>
      <trkpt lat="45.88922" lon="4.72124">
        <ele>181</ele>
        <time>2017-07-13T14:49:31Z</time>
      </trkpt>
      <trkpt lat="45.8893" lon="4.72128">
        <ele>181</ele>
        <time>2017-07-13T14:49:33Z</time>
      </trkpt>
      <trkpt lat="45.88934" lon="4.72131">
        <ele>181</ele>
        <time>2017-07-13T14:49:34Z</time>
      </trkpt>
      <trkpt lat="45.88939" lon="4.72134">
        <ele>181</ele>
        <time>2017-07-13T14:49:35Z</time>
      </trkpt>
      <trkpt lat="45.88944" lon="4.72137">
        <ele>181</ele>
        <time>2017-07-13T14:49:36Z</time>
      </trkpt>
      <trkpt lat="45.8895" lon="4.72138">
        <ele>181</ele>
        <time>2017-07-13T14:49:37Z</time>
      </trkpt>
      <trkpt lat="45.88955" lon="4.72139">
        <ele>181</ele>
        <time>2017-07-13T14:49:38Z</time>
      </trkpt>
      <trkpt lat="45.88961" lon="4.7214">
        <ele>180</ele>
        <time>2017-07-13T14:49:39Z</time>
      </trkpt>
      <trkpt lat="45.88966" lon="4.72144">
        <ele>180</ele>
        <time>2017-07-13T14:49:40Z</time>
      </trkpt>
      <trkpt lat="45.88972" lon="4.72145">
        <ele>180</ele>
        <time>2017-07-13T14:49:41Z</time>
      </trkpt>
      <trkpt lat="45.88977" lon="4.72147">
        <ele>180</ele>
        <time>2017-07-13T14:49:42Z</time>
      </trkpt>
      <trkpt lat="45.88983" lon="4.72149">
        <ele>180</ele>
        <time>2017-07-13T14:49:43Z</time>
      </trkpt>
      <trkpt lat="45.88988" lon="4.7215">
        <ele>180</ele>
        <time>2017-07-13T14:49:44Z</time>
      </trkpt>
      <trkpt lat="45.88993" lon="4.72152">
        <ele>180</ele>
        <time>2017-07-13T14:49:45Z</time>
      </trkpt>
      <trkpt lat="45.88998" lon="4.72154">
        <ele>180</ele>
        <time>2017-07-13T14:49:46Z</time>
      </trkpt>
      <trkpt lat="45.89002" lon="4.72155">
        <ele>180</ele>
        <time>2017-07-13T14:49:47Z</time>
      </trkpt>
      <trkpt lat="45.89007" lon="4.72157">
        <ele>180</ele>
        <time>2017-07-13T14:49:48Z</time>
      </trkpt>
      <trkpt lat="45.89011" lon="4.72158">
        <ele>180</ele>
        <time>2017-07-13T14:49:49Z</time>
      </trkpt>
      <trkpt lat="45.89015" lon="4.7216">
        <ele>180</ele>
        <time>2017-07-13T14:49:50Z</time>
      </trkpt>
      <trkpt lat="45.8902" lon="4.72161">
        <ele>180</ele>
        <time>2017-07-13T14:49:51Z</time>
      </trkpt>
      <trkpt lat="45.89024" lon="4.72163">
        <ele>180</ele>
        <time>2017-07-13T14:49:52Z</time>
      </trkpt>
      <trkpt lat="45.89028" lon="4.72165">
        <ele>180</ele>
        <time>2017-07-13T14:49:53Z</time>
      </trkpt>
      <trkpt lat="45.89033" lon="4.72167">
        <ele>180</ele>
        <time>2017-07-13T14:49:54Z</time>
      </trkpt>
      <trkpt lat="45.89037" lon="4.7217">
        <ele>180</ele>
        <time>2017-07-13T14:49:55Z</time>
      </trkpt>
      <trkpt lat="45.89041" lon="4.72173">
        <ele>180</ele>
        <time>2017-07-13T14:49:56Z</time>
      </trkpt>
      <trkpt lat="45.89046" lon="4.72176">
        <ele>180</ele>
        <time>2017-07-13T14:49:57Z</time>
      </trkpt>
      <trkpt lat="45.8905" lon="4.72179">
        <ele>180</ele>
        <time>2017-07-13T14:49:58Z</time>
      </trkpt>
      <trkpt lat="45.89055" lon="4.72182">
        <ele>180</ele>
        <time>2017-07-13T14:49:59Z</time>
      </trkpt>
      <trkpt lat="45.8906" lon="4.72185">
        <ele>180</ele>
        <time>2017-07-13T14:50:00Z</time>
      </trkpt>
      <trkpt lat="45.89065" lon="4.72188">
        <ele>180</ele>
        <time>2017-07-13T14:50:01Z</time>
      </trkpt>
      <trkpt lat="45.8907" lon="4.72191">
        <ele>180</ele>
        <time>2017-07-13T14:50:02Z</time>
      </trkpt>
      <trkpt lat="45.89076" lon="4.72194">
        <ele>180</ele>
        <time>2017-07-13T14:50:03Z</time>
      </trkpt>
      <trkpt lat="45.89081" lon="4.72197">
        <ele>180</ele>
        <time>2017-07-13T14:50:04Z</time>
      </trkpt>
      <trkpt lat="45.89086" lon="4.72198">
        <ele>180</ele>
        <time>2017-07-13T14:50:05Z</time>
      </trkpt>
      <trkpt lat="45.89091" lon="4.722">
        <ele>180</ele>
        <time>2017-07-13T14:50:06Z</time>
      </trkpt>
      <trkpt lat="45.89096" lon="4.72203">
        <ele>180</ele>
        <time>2017-07-13T14:50:07Z</time>
      </trkpt>
      <trkpt lat="45.891" lon="4.72204">
        <ele>180</ele>
        <time>2017-07-13T14:50:08Z</time>
      </trkpt>
      <trkpt lat="45.89104" lon="4.72206">
        <ele>180</ele>
        <time>2017-07-13T14:50:09Z</time>
      </trkpt>
      <trkpt lat="45.89109" lon="4.72207">
        <ele>180</ele>
        <time>2017-07-13T14:50:10Z</time>
      </trkpt>
      <trkpt lat="45.89117" lon="4.72212">
        <ele>180</ele>
        <time>2017-07-13T14:50:12Z</time>
      </trkpt>
      <trkpt lat="45.89121" lon="4.72213">
        <ele>180</ele>
        <time>2017-07-13T14:50:13Z</time>
      </trkpt>
      <trkpt lat="45.89129" lon="4.72218">
        <ele>180</ele>
        <time>2017-07-13T14:50:15Z</time>
      </trkpt>
      <trkpt lat="45.89133" lon="4.7222">
        <ele>180</ele>
        <time>2017-07-13T14:50:16Z</time>
      </trkpt>
      <trkpt lat="45.89137" lon="4.72222">
        <ele>180</ele>
        <time>2017-07-13T14:50:17Z</time>
      </trkpt>
      <trkpt lat="45.89142" lon="4.72225">
        <ele>180</ele>
        <time>2017-07-13T14:50:18Z</time>
      </trkpt>
      <trkpt lat="45.89146" lon="4.72227">
        <ele>180</ele>
        <time>2017-07-13T14:50:19Z</time>
      </trkpt>
      <trkpt lat="45.89151" lon="4.72228">
        <ele>180</ele>
        <time>2017-07-13T14:50:20Z</time>
      </trkpt>
      <trkpt lat="45.89155" lon="4.7223">
        <ele>180</ele>
        <time>2017-07-13T14:50:21Z</time>
      </trkpt>
      <trkpt lat="45.89161" lon="4.72233">
        <ele>180</ele>
        <time>2017-07-13T14:50:22Z</time>
      </trkpt>
      <trkpt lat="45.89166" lon="4.72235">
        <ele>180</ele>
        <time>2017-07-13T14:50:23Z</time>
      </trkpt>
      <trkpt lat="45.89171" lon="4.72238">
        <ele>180</ele>
        <time>2017-07-13T14:50:24Z</time>
      </trkpt>
      <trkpt lat="45.89176" lon="4.72241">
        <ele>180</ele>
        <time>2017-07-13T14:50:25Z</time>
      </trkpt>
      <trkpt lat="45.89181" lon="4.72244">
        <ele>180</ele>
        <time>2017-07-13T14:50:26Z</time>
      </trkpt>
      <trkpt lat="45.89186" lon="4.72246">
        <ele>180</ele>
        <time>2017-07-13T14:50:27Z</time>
      </trkpt>
      <trkpt lat="45.8919" lon="4.72249">
        <ele>180</ele>
        <time>2017-07-13T14:50:28Z</time>
      </trkpt>
      <trkpt lat="45.89195" lon="4.72251">
        <ele>181</ele>
        <time>2017-07-13T14:50:29Z</time>
      </trkpt>
      <trkpt lat="45.89199" lon="4.72253">
        <ele>181</ele>
        <time>2017-07-13T14:50:30Z</time>
      </trkpt>
      <trkpt lat="45.89207" lon="4.72257">
        <ele>181</ele>
        <time>2017-07-13T14:50:32Z</time>
      </trkpt>
      <trkpt lat="45.89211" lon="4.7226">
        <ele>181</ele>
        <time>2017-07-13T14:50:33Z</time>
      </trkpt>
      <trkpt lat="45.89218" lon="4.72264">
        <ele>181</ele>
        <time>2017-07-13T14:50:35Z</time>
      </trkpt>
      <trkpt lat="45.89222" lon="4.72267">
        <ele>181</ele>
        <time>2017-07-13T14:50:36Z</time>
      </trkpt>
      <trkpt lat="45.8923" lon="4.7227">
        <ele>181</ele>
        <time>2017-07-13T14:50:38Z</time>
      </trkpt>
      <trkpt lat="45.89235" lon="4.72271">
        <ele>181</ele>
        <time>2017-07-13T14:50:39Z</time>
      </trkpt>
      <trkpt lat="45.89239" lon="4.72273">
        <ele>181</ele>
        <time>2017-07-13T14:50:40Z</time>
      </trkpt>
      <trkpt lat="45.89244" lon="4.72274">
        <ele>181</ele>
        <time>2017-07-13T14:50:41Z</time>
      </trkpt>
      <trkpt lat="45.89249" lon="4.72275">
        <ele>181</ele>
        <time>2017-07-13T14:50:42Z</time>
      </trkpt>
      <trkpt lat="45.89254" lon="4.72277">
        <ele>181</ele>
        <time>2017-07-13T14:50:43Z</time>
      </trkpt>
      <trkpt lat="45.89259" lon="4.72279">
        <ele>181</ele>
        <time>2017-07-13T14:50:44Z</time>
      </trkpt>
      <trkpt lat="45.89263" lon="4.72282">
        <ele>181</ele>
        <time>2017-07-13T14:50:45Z</time>
      </trkpt>
      <trkpt lat="45.89268" lon="4.72284">
        <ele>181</ele>
        <time>2017-07-13T14:50:46Z</time>
      </trkpt>
      <trkpt lat="45.89272" lon="4.72285">
        <ele>181</ele>
        <time>2017-07-13T14:50:47Z</time>
      </trkpt>
      <trkpt lat="45.8928" lon="4.72288">
        <ele>181</ele>
        <time>2017-07-13T14:50:49Z</time>
      </trkpt>
      <trkpt lat="45.89283" lon="4.72289">
        <ele>181</ele>
        <time>2017-07-13T14:50:50Z</time>
      </trkpt>
      <trkpt lat="45.8929" lon="4.72292">
        <ele>181</ele>
        <time>2017-07-13T14:50:52Z</time>
      </trkpt>
      <trkpt lat="45.89293" lon="4.72294">
        <ele>181</ele>
        <time>2017-07-13T14:50:53Z</time>
      </trkpt>
      <trkpt lat="45.89299" lon="4.72296">
        <ele>181</ele>
        <time>2017-07-13T14:50:55Z</time>
      </trkpt>
      <trkpt lat="45.89302" lon="4.72297">
        <ele>181</ele>
        <time>2017-07-13T14:50:56Z</time>
      </trkpt>
      <trkpt lat="45.89307" lon="4.72299">
        <ele>181</ele>
        <time>2017-07-13T14:50:58Z</time>
      </trkpt>
      <trkpt lat="45.89311" lon="4.723">
        <ele>181</ele>
        <time>2017-07-13T14:50:59Z</time>
      </trkpt>
      <trkpt lat="45.89319" lon="4.72303">
        <ele>181</ele>
        <time>2017-07-13T14:51:01Z</time>
      </trkpt>
      <trkpt lat="45.89324" lon="4.72304">
        <ele>181</ele>
        <time>2017-07-13T14:51:02Z</time>
      </trkpt>
      <trkpt lat="45.89329" lon="4.72304">
        <ele>181</ele>
        <time>2017-07-13T14:51:03Z</time>
      </trkpt>
      <trkpt lat="45.89334" lon="4.72304">
        <ele>181</ele>
        <time>2017-07-13T14:51:04Z</time>
      </trkpt>
      <trkpt lat="45.8934" lon="4.72304">
        <ele>181</ele>
        <time>2017-07-13T14:51:05Z</time>
      </trkpt>
      <trkpt lat="45.89345" lon="4.72303">
        <ele>181</ele>
        <time>2017-07-13T14:51:06Z</time>
      </trkpt>
      <trkpt lat="45.8935" lon="4.72303">
        <ele>181</ele>
        <time>2017-07-13T14:51:07Z</time>
      </trkpt>
      <trkpt lat="45.89354" lon="4.72302">
        <ele>181</ele>
        <time>2017-07-13T14:51:08Z</time>
      </trkpt>
      <trkpt lat="45.89362" lon="4.72302">
        <ele>181</ele>
        <time>2017-07-13T14:51:10Z</time>
      </trkpt>
      <trkpt lat="45.89366" lon="4.72302">
        <ele>181</ele>
        <time>2017-07-13T14:51:11Z</time>
      </trkpt>
      <trkpt lat="45.89374" lon="4.72303">
        <ele>181</ele>
        <time>2017-07-13T14:51:13Z</time>
      </trkpt>
      <trkpt lat="45.89378" lon="4.72303">
        <ele>181</ele>
        <time>2017-07-13T14:51:14Z</time>
      </trkpt>
      <trkpt lat="45.89386" lon="4.72301">
        <ele>181</ele>
        <time>2017-07-13T14:51:16Z</time>
      </trkpt>
      <trkpt lat="45.8939" lon="4.723">
        <ele>180</ele>
        <time>2017-07-13T14:51:17Z</time>
      </trkpt>
      <trkpt lat="45.89394" lon="4.72298">
        <ele>180</ele>
        <time>2017-07-13T14:51:18Z</time>
      </trkpt>
      <trkpt lat="45.89399" lon="4.72297">
        <ele>180</ele>
        <time>2017-07-13T14:51:19Z</time>
      </trkpt>
      <trkpt lat="45.89404" lon="4.72296">
        <ele>180</ele>
        <time>2017-07-13T14:51:20Z</time>
      </trkpt>
      <trkpt lat="45.89408" lon="4.72296">
        <ele>180</ele>
        <time>2017-07-13T14:51:21Z</time>
      </trkpt>
      <trkpt lat="45.89413" lon="4.72296">
        <ele>180</ele>
        <time>2017-07-13T14:51:22Z</time>
      </trkpt>
      <trkpt lat="45.89417" lon="4.72296">
        <ele>180</ele>
        <time>2017-07-13T14:51:23Z</time>
      </trkpt>
      <trkpt lat="45.89426" lon="4.72295">
        <ele>180</ele>
        <time>2017-07-13T14:51:25Z</time>
      </trkpt>
      <trkpt lat="45.8943" lon="4.72294">
        <ele>180</ele>
        <time>2017-07-13T14:51:26Z</time>
      </trkpt>
      <trkpt lat="45.89438" lon="4.72292">
        <ele>179</ele>
        <time>2017-07-13T14:51:28Z</time>
      </trkpt>
      <trkpt lat="45.89442" lon="4.72292">
        <ele>179</ele>
        <time>2017-07-13T14:51:29Z</time>
      </trkpt>
      <trkpt lat="45.89449" lon="4.72291">
        <ele>179</ele>
        <time>2017-07-13T14:51:31Z</time>
      </trkpt>
      <trkpt lat="45.89452" lon="4.7229">
        <ele>179</ele>
        <time>2017-07-13T14:51:32Z</time>
      </trkpt>
      <trkpt lat="45.8946" lon="4.7229">
        <ele>179</ele>
        <time>2017-07-13T14:51:34Z</time>
      </trkpt>
      <trkpt lat="45.89464" lon="4.72291">
        <ele>179</ele>
        <time>2017-07-13T14:51:35Z</time>
      </trkpt>
      <trkpt lat="45.89469" lon="4.72291">
        <ele>179</ele>
        <time>2017-07-13T14:51:36Z</time>
      </trkpt>
      <trkpt lat="45.89474" lon="4.72291">
        <ele>179</ele>
        <time>2017-07-13T14:51:37Z</time>
      </trkpt>
      <trkpt lat="45.89479" lon="4.72289">
        <ele>179</ele>
        <time>2017-07-13T14:51:38Z</time>
      </trkpt>
      <trkpt lat="45.89484" lon="4.72288">
        <ele>179</ele>
        <time>2017-07-13T14:51:39Z</time>
      </trkpt>
      <trkpt lat="45.89489" lon="4.72288">
        <ele>179</ele>
        <time>2017-07-13T14:51:40Z</time>
      </trkpt>
      <trkpt lat="45.89494" lon="4.72287">
        <ele>179</ele>
        <time>2017-07-13T14:51:41Z</time>
      </trkpt>
      <trkpt lat="45.89498" lon="4.72287">
        <ele>179</ele>
        <time>2017-07-13T14:51:42Z</time>
      </trkpt>
      <trkpt lat="45.89503" lon="4.72285">
        <ele>179</ele>
        <time>2017-07-13T14:51:43Z</time>
      </trkpt>
      <trkpt lat="45.89508" lon="4.72284">
        <ele>179</ele>
        <time>2017-07-13T14:51:44Z</time>
      </trkpt>
      <trkpt lat="45.89512" lon="4.72284">
        <ele>179</ele>
        <time>2017-07-13T14:51:45Z</time>
      </trkpt>
      <trkpt lat="45.8952" lon="4.72285">
        <ele>179</ele>
        <time>2017-07-13T14:51:47Z</time>
      </trkpt>
      <trkpt lat="45.89524" lon="4.72285">
        <ele>179</ele>
        <time>2017-07-13T14:51:48Z</time>
      </trkpt>
      <trkpt lat="45.89532" lon="4.72285">
        <ele>179</ele>
        <time>2017-07-13T14:51:50Z</time>
      </trkpt>
      <trkpt lat="45.89536" lon="4.72285">
        <ele>179</ele>
        <time>2017-07-13T14:51:51Z</time>
      </trkpt>
      <trkpt lat="45.89544" lon="4.72286">
        <ele>179</ele>
        <time>2017-07-13T14:51:53Z</time>
      </trkpt>
      <trkpt lat="45.89548" lon="4.72285">
        <ele>179</ele>
        <time>2017-07-13T14:51:54Z</time>
      </trkpt>
      <trkpt lat="45.89557" lon="4.72285">
        <ele>179</ele>
        <time>2017-07-13T14:51:56Z</time>
      </trkpt>
      <trkpt lat="45.89562" lon="4.72286">
        <ele>179</ele>
        <time>2017-07-13T14:51:57Z</time>
      </trkpt>
      <trkpt lat="45.89567" lon="4.72286">
        <ele>179</ele>
        <time>2017-07-13T14:51:58Z</time>
      </trkpt>
      <trkpt lat="45.89572" lon="4.72286">
        <ele>179</ele>
        <time>2017-07-13T14:51:59Z</time>
      </trkpt>
      <trkpt lat="45.89577" lon="4.72286">
        <ele>179</ele>
        <time>2017-07-13T14:52:00Z</time>
      </trkpt>
      <trkpt lat="45.89582" lon="4.72286">
        <ele>179</ele>
        <time>2017-07-13T14:52:01Z</time>
      </trkpt>
      <trkpt lat="45.8959" lon="4.72287">
        <ele>179</ele>
        <time>2017-07-13T14:52:03Z</time>
      </trkpt>
      <trkpt lat="45.89594" lon="4.72287">
        <ele>179</ele>
        <time>2017-07-13T14:52:04Z</time>
      </trkpt>
      <trkpt lat="45.89602" lon="4.72287">
        <ele>179</ele>
        <time>2017-07-13T14:52:06Z</time>
      </trkpt>
      <trkpt lat="45.89605" lon="4.72287">
        <ele>179</ele>
        <time>2017-07-13T14:52:07Z</time>
      </trkpt>
      <trkpt lat="45.89612" lon="4.72286">
        <ele>179</ele>
        <time>2017-07-13T14:52:09Z</time>
      </trkpt>
      <trkpt lat="45.89616" lon="4.72286">
        <ele>179</ele>
        <time>2017-07-13T14:52:10Z</time>
      </trkpt>
      <trkpt lat="45.89624" lon="4.72286">
        <ele>179</ele>
        <time>2017-07-13T14:52:12Z</time>
      </trkpt>
      <trkpt lat="45.89628" lon="4.72286">
        <ele>179</ele>
        <time>2017-07-13T14:52:13Z</time>
      </trkpt>
      <trkpt lat="45.89637" lon="4.72284">
        <ele>179</ele>
        <time>2017-07-13T14:52:15Z</time>
      </trkpt>
      <trkpt lat="45.89642" lon="4.72284">
        <ele>179</ele>
        <time>2017-07-13T14:52:16Z</time>
      </trkpt>
      <trkpt lat="45.89649" lon="4.72282">
        <ele>179</ele>
        <time>2017-07-13T14:52:18Z</time>
      </trkpt>
      <trkpt lat="45.89652" lon="4.72279">
        <ele>179</ele>
        <time>2017-07-13T14:52:19Z</time>
      </trkpt>
      <trkpt lat="45.89657" lon="4.72272">
        <ele>179</ele>
        <time>2017-07-13T14:52:21Z</time>
      </trkpt>
      <trkpt lat="45.89658" lon="4.72267">
        <ele>179</ele>
        <time>2017-07-13T14:52:22Z</time>
      </trkpt>
      <trkpt lat="45.8966" lon="4.72256">
        <ele>179</ele>
        <time>2017-07-13T14:52:24Z</time>
      </trkpt>
      <trkpt lat="45.89659" lon="4.7225">
        <ele>179</ele>
        <time>2017-07-13T14:52:25Z</time>
      </trkpt>
      <trkpt lat="45.89659" lon="4.72237">
        <ele>179</ele>
        <time>2017-07-13T14:52:27Z</time>
      </trkpt>
      <trkpt lat="45.89659" lon="4.7223">
        <ele>179</ele>
        <time>2017-07-13T14:52:28Z</time>
      </trkpt>
      <trkpt lat="45.8966" lon="4.72223">
        <ele>179</ele>
        <time>2017-07-13T14:52:29Z</time>
      </trkpt>
      <trkpt lat="45.8966" lon="4.72217">
        <ele>179</ele>
        <time>2017-07-13T14:52:30Z</time>
      </trkpt>
      <trkpt lat="45.89661" lon="4.72205">
        <ele>179</ele>
        <time>2017-07-13T14:52:32Z</time>
      </trkpt>
      <trkpt lat="45.8966" lon="4.722">
        <ele>179</ele>
        <time>2017-07-13T14:52:33Z</time>
      </trkpt>
      <trkpt lat="45.8966" lon="4.72189">
        <ele>179</ele>
        <time>2017-07-13T14:52:35Z</time>
      </trkpt>
      <trkpt lat="45.8966" lon="4.72184">
        <ele>179</ele>
        <time>2017-07-13T14:52:36Z</time>
      </trkpt>
      <trkpt lat="45.8966" lon="4.72174">
        <ele>179</ele>
        <time>2017-07-13T14:52:38Z</time>
      </trkpt>
      <trkpt lat="45.8966" lon="4.72169">
        <ele>179</ele>
        <time>2017-07-13T14:52:39Z</time>
      </trkpt>
      <trkpt lat="45.89661" lon="4.72158">
        <ele>179</ele>
        <time>2017-07-13T14:52:41Z</time>
      </trkpt>
      <trkpt lat="45.89661" lon="4.72152">
        <ele>179</ele>
        <time>2017-07-13T14:52:42Z</time>
      </trkpt>
      <trkpt lat="45.89661" lon="4.7214">
        <ele>179</ele>
        <time>2017-07-13T14:52:44Z</time>
      </trkpt>
      <trkpt lat="45.8966" lon="4.72135">
        <ele>179</ele>
        <time>2017-07-13T14:52:45Z</time>
      </trkpt>
      <trkpt lat="45.8966" lon="4.72122">
        <ele>179</ele>
        <time>2017-07-13T14:52:47Z</time>
      </trkpt>
      <trkpt lat="45.8966" lon="4.72116">
        <ele>179</ele>
        <time>2017-07-13T14:52:48Z</time>
      </trkpt>
      <trkpt lat="45.8966" lon="4.72103">
        <ele>180</ele>
        <time>2017-07-13T14:52:50Z</time>
      </trkpt>
      <trkpt lat="45.8966" lon="4.72097">
        <ele>180</ele>
        <time>2017-07-13T14:52:51Z</time>
      </trkpt>
      <trkpt lat="45.8966" lon="4.72086">
        <ele>180</ele>
        <time>2017-07-13T14:52:53Z</time>
      </trkpt>
      <trkpt lat="45.8966" lon="4.72081">
        <ele>180</ele>
        <time>2017-07-13T14:52:54Z</time>
      </trkpt>
      <trkpt lat="45.8966" lon="4.72071">
        <ele>180</ele>
        <time>2017-07-13T14:52:56Z</time>
      </trkpt>
      <trkpt lat="45.89661" lon="4.72067">
        <ele>180</ele>
        <time>2017-07-13T14:52:57Z</time>
      </trkpt>
      <trkpt lat="45.89663" lon="4.72058">
        <ele>180</ele>
        <time>2017-07-13T14:52:59Z</time>
      </trkpt>
      <trkpt lat="45.89663" lon="4.72053">
        <ele>180</ele>
        <time>2017-07-13T14:53:00Z</time>
      </trkpt>
      <trkpt lat="45.89663" lon="4.72042">
        <ele>180</ele>
        <time>2017-07-13T14:53:02Z</time>
      </trkpt>
      <trkpt lat="45.89662" lon="4.72036">
        <ele>180</ele>
        <time>2017-07-13T14:53:03Z</time>
      </trkpt>
      <trkpt lat="45.89661" lon="4.72024">
        <ele>180</ele>
        <time>2017-07-13T14:53:05Z</time>
      </trkpt>
      <trkpt lat="45.89661" lon="4.72018">
        <ele>180</ele>
        <time>2017-07-13T14:53:06Z</time>
      </trkpt>
      <trkpt lat="45.89661" lon="4.72006">
        <ele>181</ele>
        <time>2017-07-13T14:53:08Z</time>
      </trkpt>
      <trkpt lat="45.89661" lon="4.72">
        <ele>181</ele>
        <time>2017-07-13T14:53:09Z</time>
      </trkpt>
      <trkpt lat="45.89661" lon="4.71988">
        <ele>181</ele>
        <time>2017-07-13T14:53:11Z</time>
      </trkpt>
      <trkpt lat="45.89662" lon="4.71983">
        <ele>181</ele>
        <time>2017-07-13T14:53:12Z</time>
      </trkpt>
      <trkpt lat="45.89661" lon="4.71973">
        <ele>181</ele>
        <time>2017-07-13T14:53:14Z</time>
      </trkpt>
      <trkpt lat="45.89661" lon="4.71969">
        <ele>181</ele>
        <time>2017-07-13T14:53:15Z</time>
      </trkpt>
      <trkpt lat="45.89661" lon="4.71957">
        <ele>181</ele>
        <time>2017-07-13T14:53:18Z</time>
      </trkpt>
      <trkpt lat="45.89661" lon="4.71953">
        <ele>181</ele>
        <time>2017-07-13T14:53:19Z</time>
      </trkpt>
      <trkpt lat="45.89662" lon="4.71942">
        <ele>181</ele>
        <time>2017-07-13T14:53:21Z</time>
      </trkpt>
      <trkpt lat="45.89661" lon="4.71937">
        <ele>181</ele>
        <time>2017-07-13T14:53:22Z</time>
      </trkpt>
      <trkpt lat="45.89661" lon="4.71926">
        <ele>181</ele>
        <time>2017-07-13T14:53:24Z</time>
      </trkpt>
      <trkpt lat="45.89661" lon="4.7192">
        <ele>181</ele>
        <time>2017-07-13T14:53:25Z</time>
      </trkpt>
      <trkpt lat="45.89662" lon="4.71909">
        <ele>181</ele>
        <time>2017-07-13T14:53:27Z</time>
      </trkpt>
      <trkpt lat="45.89662" lon="4.71903">
        <ele>181</ele>
        <time>2017-07-13T14:53:28Z</time>
      </trkpt>
      <trkpt lat="45.89662" lon="4.71892">
        <ele>181</ele>
        <time>2017-07-13T14:53:30Z</time>
      </trkpt>
      <trkpt lat="45.89662" lon="4.71887">
        <ele>181</ele>
        <time>2017-07-13T14:53:31Z</time>
      </trkpt>
      <trkpt lat="45.89663" lon="4.71878">
        <ele>181</ele>
        <time>2017-07-13T14:53:33Z</time>
      </trkpt>
      <trkpt lat="45.89663" lon="4.71874">
        <ele>181</ele>
        <time>2017-07-13T14:53:34Z</time>
      </trkpt>
      <trkpt lat="45.89662" lon="4.71864">
        <ele>181</ele>
        <time>2017-07-13T14:53:36Z</time>
      </trkpt>
      <trkpt lat="45.89662" lon="4.71859">
        <ele>181</ele>
        <time>2017-07-13T14:53:37Z</time>
      </trkpt>
      <trkpt lat="45.89662" lon="4.71848">
        <ele>181</ele>
        <time>2017-07-13T14:53:39Z</time>
      </trkpt>
      <trkpt lat="45.89662" lon="4.71842">
        <ele>181</ele>
        <time>2017-07-13T14:53:40Z</time>
      </trkpt>
      <trkpt lat="45.89662" lon="4.71831">
        <ele>181</ele>
        <time>2017-07-13T14:53:42Z</time>
      </trkpt>
      <trkpt lat="45.89662" lon="4.71826">
        <ele>181</ele>
        <time>2017-07-13T14:53:43Z</time>
      </trkpt>
      <trkpt lat="45.89663" lon="4.71815">
        <ele>182</ele>
        <time>2017-07-13T14:53:45Z</time>
      </trkpt>
      <trkpt lat="45.89664" lon="4.7181">
        <ele>182</ele>
        <time>2017-07-13T14:53:46Z</time>
      </trkpt>
      <trkpt lat="45.89664" lon="4.718">
        <ele>182</ele>
        <time>2017-07-13T14:53:48Z</time>
      </trkpt>
      <trkpt lat="45.89665" lon="4.71794">
        <ele>182</ele>
        <time>2017-07-13T14:53:49Z</time>
      </trkpt>
      <trkpt lat="45.89664" lon="4.71784">
        <ele>182</ele>
        <time>2017-07-13T14:53:51Z</time>
      </trkpt>
      <trkpt lat="45.89663" lon="4.71779">
        <ele>182</ele>
        <time>2017-07-13T14:53:52Z</time>
      </trkpt>
      <trkpt lat="45.89661" lon="4.71769">
        <ele>182</ele>
        <time>2017-07-13T14:53:54Z</time>
      </trkpt>
      <trkpt lat="45.89661" lon="4.71764">
        <ele>183</ele>
        <time>2017-07-13T14:53:55Z</time>
      </trkpt>
      <trkpt lat="45.89661" lon="4.71754">
        <ele>183</ele>
        <time>2017-07-13T14:53:57Z</time>
      </trkpt>
      <trkpt lat="45.89661" lon="4.7175">
        <ele>183</ele>
        <time>2017-07-13T14:53:58Z</time>
      </trkpt>
      <trkpt lat="45.8966" lon="4.71741">
        <ele>184</ele>
        <time>2017-07-13T14:54:00Z</time>
      </trkpt>
      <trkpt lat="45.89659" lon="4.71736">
        <ele>184</ele>
        <time>2017-07-13T14:54:01Z</time>
      </trkpt>
      <trkpt lat="45.89657" lon="4.71724">
        <ele>185</ele>
        <time>2017-07-13T14:54:04Z</time>
      </trkpt>
      <trkpt lat="45.89657" lon="4.71721">
        <ele>185</ele>
        <time>2017-07-13T14:54:05Z</time>
      </trkpt>
      <trkpt lat="45.89656" lon="4.71709">
        <ele>185</ele>
        <time>2017-07-13T14:54:08Z</time>
      </trkpt>
      <trkpt lat="45.89655" lon="4.71705">
        <ele>185</ele>
        <time>2017-07-13T14:54:09Z</time>
      </trkpt>
      <trkpt lat="45.89655" lon="4.71696">
        <ele>186</ele>
        <time>2017-07-13T14:54:11Z</time>
      </trkpt>
      <trkpt lat="45.89654" lon="4.71692">
        <ele>186</ele>
        <time>2017-07-13T14:54:12Z</time>
      </trkpt>
      <trkpt lat="45.89652" lon="4.71681">
        <ele>186</ele>
        <time>2017-07-13T14:54:15Z</time>
      </trkpt>
      <trkpt lat="45.89652" lon="4.71677">
        <ele>186</ele>
        <time>2017-07-13T14:54:16Z</time>
      </trkpt>
      <trkpt lat="45.89651" lon="4.71666">
        <ele>188</ele>
        <time>2017-07-13T14:54:19Z</time>
      </trkpt>
      <trkpt lat="45.89651" lon="4.71663">
        <ele>188</ele>
        <time>2017-07-13T14:54:20Z</time>
      </trkpt>
      <trkpt lat="45.89651" lon="4.71652">
        <ele>189</ele>
        <time>2017-07-13T14:54:23Z</time>
      </trkpt>
      <trkpt lat="45.89651" lon="4.71649">
        <ele>189</ele>
        <time>2017-07-13T14:54:24Z</time>
      </trkpt>
      <trkpt lat="45.89649" lon="4.71638">
        <ele>189</ele>
        <time>2017-07-13T14:54:27Z</time>
      </trkpt>
      <trkpt lat="45.89648" lon="4.71634">
        <ele>190</ele>
        <time>2017-07-13T14:54:28Z</time>
      </trkpt>
      <trkpt lat="45.89647" lon="4.71623">
        <ele>190</ele>
        <time>2017-07-13T14:54:31Z</time>
      </trkpt>
      <trkpt lat="45.89647" lon="4.71619">
        <ele>190</ele>
        <time>2017-07-13T14:54:32Z</time>
      </trkpt>
      <trkpt lat="45.89645" lon="4.71608">
        <ele>190</ele>
        <time>2017-07-13T14:54:35Z</time>
      </trkpt>
      <trkpt lat="45.89645" lon="4.71605">
        <ele>191</ele>
        <time>2017-07-13T14:54:36Z</time>
      </trkpt>
      <trkpt lat="45.89643" lon="4.71593">
        <ele>191</ele>
        <time>2017-07-13T14:54:39Z</time>
      </trkpt>
      <trkpt lat="45.89643" lon="4.71589">
        <ele>191</ele>
        <time>2017-07-13T14:54:40Z</time>
      </trkpt>
      <trkpt lat="45.89641" lon="4.71576">
        <ele>193</ele>
        <time>2017-07-13T14:54:43Z</time>
      </trkpt>
      <trkpt lat="45.89641" lon="4.71572">
        <ele>193</ele>
        <time>2017-07-13T14:54:44Z</time>
      </trkpt>
      <trkpt lat="45.89644" lon="4.71561">
        <ele>193</ele>
        <time>2017-07-13T14:54:47Z</time>
      </trkpt>
      <trkpt lat="45.89646" lon="4.71557">
        <ele>193</ele>
        <time>2017-07-13T14:54:48Z</time>
      </trkpt>
      <trkpt lat="45.89651" lon="4.71552">
        <ele>193</ele>
        <time>2017-07-13T14:54:50Z</time>
      </trkpt>
      <trkpt lat="45.89654" lon="4.7155">
        <ele>193</ele>
        <time>2017-07-13T14:54:51Z</time>
      </trkpt>
      <trkpt lat="45.89661" lon="4.71544">
        <ele>193</ele>
        <time>2017-07-13T14:54:54Z</time>
      </trkpt>
      <trkpt lat="45.89664" lon="4.71544">
        <ele>193</ele>
        <time>2017-07-13T14:54:55Z</time>
      </trkpt>
      <trkpt lat="45.89671" lon="4.71544">
        <ele>193</ele>
        <time>2017-07-13T14:54:58Z</time>
      </trkpt>
      <trkpt lat="45.89674" lon="4.71544">
        <ele>193</ele>
        <time>2017-07-13T14:54:59Z</time>
      </trkpt>
      <trkpt lat="45.8968" lon="4.71544">
        <ele>193</ele>
        <time>2017-07-13T14:55:01Z</time>
      </trkpt>
      <trkpt lat="45.89684" lon="4.71544">
        <ele>193</ele>
        <time>2017-07-13T14:55:02Z</time>
      </trkpt>
      <trkpt lat="45.8969" lon="4.71543">
        <ele>193</ele>
        <time>2017-07-13T14:55:04Z</time>
      </trkpt>
      <trkpt lat="45.89694" lon="4.71543">
        <ele>193</ele>
        <time>2017-07-13T14:55:05Z</time>
      </trkpt>
      <trkpt lat="45.897" lon="4.71544">
        <ele>193</ele>
        <time>2017-07-13T14:55:07Z</time>
      </trkpt>
      <trkpt lat="45.89704" lon="4.71544">
        <ele>192</ele>
        <time>2017-07-13T14:55:08Z</time>
      </trkpt>
      <trkpt lat="45.8971" lon="4.71543">
        <ele>192</ele>
        <time>2017-07-13T14:55:10Z</time>
      </trkpt>
      <trkpt lat="45.89714" lon="4.71542">
        <ele>192</ele>
        <time>2017-07-13T14:55:11Z</time>
      </trkpt>
      <trkpt lat="45.89721" lon="4.71542">
        <ele>192</ele>
        <time>2017-07-13T14:55:13Z</time>
      </trkpt>
      <trkpt lat="45.89724" lon="4.71543">
        <ele>192</ele>
        <time>2017-07-13T14:55:14Z</time>
      </trkpt>
      <trkpt lat="45.89732" lon="4.71542">
        <ele>192</ele>
        <time>2017-07-13T14:55:16Z</time>
      </trkpt>
      <trkpt lat="45.89737" lon="4.71542">
        <ele>192</ele>
        <time>2017-07-13T14:55:17Z</time>
      </trkpt>
      <trkpt lat="45.89741" lon="4.71542">
        <ele>192</ele>
        <time>2017-07-13T14:55:18Z</time>
      </trkpt>
      <trkpt lat="45.89746" lon="4.71542">
        <ele>192</ele>
        <time>2017-07-13T14:55:19Z</time>
      </trkpt>
      <trkpt lat="45.89754" lon="4.71541">
        <ele>192</ele>
        <time>2017-07-13T14:55:21Z</time>
      </trkpt>
      <trkpt lat="45.89759" lon="4.71542">
        <ele>192</ele>
        <time>2017-07-13T14:55:22Z</time>
      </trkpt>
      <trkpt lat="45.89764" lon="4.71542">
        <ele>192</ele>
        <time>2017-07-13T14:55:23Z</time>
      </trkpt>
      <trkpt lat="45.89769" lon="4.71541">
        <ele>192</ele>
        <time>2017-07-13T14:55:24Z</time>
      </trkpt>
      <trkpt lat="45.89775" lon="4.71541">
        <ele>192</ele>
        <time>2017-07-13T14:55:25Z</time>
      </trkpt>
      <trkpt lat="45.8978" lon="4.71541">
        <ele>192</ele>
        <time>2017-07-13T14:55:26Z</time>
      </trkpt>
      <trkpt lat="45.89785" lon="4.71541">
        <ele>192</ele>
        <time>2017-07-13T14:55:27Z</time>
      </trkpt>
      <trkpt lat="45.89791" lon="4.71541">
        <ele>192</ele>
        <time>2017-07-13T14:55:28Z</time>
      </trkpt>
      <trkpt lat="45.89797" lon="4.7154">
        <ele>192</ele>
        <time>2017-07-13T14:55:29Z</time>
      </trkpt>
      <trkpt lat="45.89803" lon="4.71541">
        <ele>192</ele>
        <time>2017-07-13T14:55:30Z</time>
      </trkpt>
      <trkpt lat="45.89808" lon="4.71543">
        <ele>192</ele>
        <time>2017-07-13T14:55:31Z</time>
      </trkpt>
      <trkpt lat="45.89813" lon="4.71545">
        <ele>192</ele>
        <time>2017-07-13T14:55:32Z</time>
      </trkpt>
      <trkpt lat="45.89819" lon="4.71547">
        <ele>192</ele>
        <time>2017-07-13T14:55:33Z</time>
      </trkpt>
      <trkpt lat="45.89825" lon="4.71549">
        <ele>192</ele>
        <time>2017-07-13T14:55:34Z</time>
      </trkpt>
      <trkpt lat="45.89832" lon="4.71551">
        <ele>192</ele>
        <time>2017-07-13T14:55:35Z</time>
      </trkpt>
      <trkpt lat="45.89839" lon="4.71552">
        <ele>192</ele>
        <time>2017-07-13T14:55:36Z</time>
      </trkpt>
      <trkpt lat="45.89846" lon="4.71553">
        <ele>192</ele>
        <time>2017-07-13T14:55:37Z</time>
      </trkpt>
      <trkpt lat="45.89853" lon="4.71553">
        <ele>192</ele>
        <time>2017-07-13T14:55:38Z</time>
      </trkpt>
      <trkpt lat="45.8986" lon="4.71553">
        <ele>192</ele>
        <time>2017-07-13T14:55:39Z</time>
      </trkpt>
      <trkpt lat="45.89867" lon="4.71553">
        <ele>192</ele>
        <time>2017-07-13T14:55:40Z</time>
      </trkpt>
      <trkpt lat="45.89874" lon="4.71553">
        <ele>192</ele>
        <time>2017-07-13T14:55:41Z</time>
      </trkpt>
      <trkpt lat="45.8988" lon="4.71552">
        <ele>192</ele>
        <time>2017-07-13T14:55:42Z</time>
      </trkpt>
      <trkpt lat="45.89887" lon="4.7155">
        <ele>192</ele>
        <time>2017-07-13T14:55:43Z</time>
      </trkpt>
      <trkpt lat="45.89892" lon="4.7155">
        <ele>192</ele>
        <time>2017-07-13T14:55:44Z</time>
      </trkpt>
      <trkpt lat="45.89897" lon="4.7155">
        <ele>192</ele>
        <time>2017-07-13T14:55:45Z</time>
      </trkpt>
      <trkpt lat="45.89902" lon="4.7155">
        <ele>192</ele>
        <time>2017-07-13T14:55:46Z</time>
      </trkpt>
      <trkpt lat="45.89907" lon="4.71549">
        <ele>192</ele>
        <time>2017-07-13T14:55:47Z</time>
      </trkpt>
      <trkpt lat="45.89912" lon="4.71547">
        <ele>192</ele>
        <time>2017-07-13T14:55:48Z</time>
      </trkpt>
      <trkpt lat="45.89917" lon="4.71546">
        <ele>192</ele>
        <time>2017-07-13T14:55:49Z</time>
      </trkpt>
      <trkpt lat="45.89921" lon="4.71545">
        <ele>193</ele>
        <time>2017-07-13T14:55:50Z</time>
      </trkpt>
      <trkpt lat="45.89928" lon="4.71546">
        <ele>193</ele>
        <time>2017-07-13T14:55:52Z</time>
      </trkpt>
      <trkpt lat="45.89931" lon="4.71546">
        <ele>193</ele>
        <time>2017-07-13T14:55:53Z</time>
      </trkpt>
      <trkpt lat="45.8994" lon="4.71545">
        <ele>193</ele>
        <time>2017-07-13T14:55:55Z</time>
      </trkpt>
      <trkpt lat="45.89944" lon="4.71544">
        <ele>193</ele>
        <time>2017-07-13T14:55:56Z</time>
      </trkpt>
      <trkpt lat="45.89952" lon="4.71543">
        <ele>193</ele>
        <time>2017-07-13T14:55:58Z</time>
      </trkpt>
      <trkpt lat="45.89956" lon="4.71542">
        <ele>193</ele>
        <time>2017-07-13T14:55:59Z</time>
      </trkpt>
      <trkpt lat="45.89963" lon="4.71542">
        <ele>194</ele>
        <time>2017-07-13T14:56:01Z</time>
      </trkpt>
      <trkpt lat="45.89967" lon="4.71541">
        <ele>194</ele>
        <time>2017-07-13T14:56:02Z</time>
      </trkpt>
      <trkpt lat="45.89973" lon="4.71541">
        <ele>194</ele>
        <time>2017-07-13T14:56:04Z</time>
      </trkpt>
      <trkpt lat="45.89977" lon="4.71541">
        <ele>194</ele>
        <time>2017-07-13T14:56:05Z</time>
      </trkpt>
      <trkpt lat="45.89984" lon="4.71543">
        <ele>194</ele>
        <time>2017-07-13T14:56:07Z</time>
      </trkpt>
      <trkpt lat="45.89988" lon="4.71543">
        <ele>194</ele>
        <time>2017-07-13T14:56:08Z</time>
      </trkpt>
      <trkpt lat="45.89996" lon="4.71542">
        <ele>194</ele>
        <time>2017-07-13T14:56:10Z</time>
      </trkpt>
      <trkpt lat="45.89999" lon="4.71541">
        <ele>194</ele>
        <time>2017-07-13T14:56:11Z</time>
      </trkpt>
      <trkpt lat="45.90006" lon="4.71541">
        <ele>196</ele>
        <time>2017-07-13T14:56:13Z</time>
      </trkpt>
      <trkpt lat="45.90009" lon="4.71541">
        <ele>196</ele>
        <time>2017-07-13T14:56:14Z</time>
      </trkpt>
      <trkpt lat="45.90016" lon="4.71539">
        <ele>196</ele>
        <time>2017-07-13T14:56:16Z</time>
      </trkpt>
      <trkpt lat="45.90019" lon="4.71539">
        <ele>197</ele>
        <time>2017-07-13T14:56:17Z</time>
      </trkpt>
      <trkpt lat="45.90028" lon="4.71541">
        <ele>197</ele>
        <time>2017-07-13T14:56:20Z</time>
      </trkpt>
      <trkpt lat="45.90031" lon="4.7154">
        <ele>197</ele>
        <time>2017-07-13T14:56:21Z</time>
      </trkpt>
      <trkpt lat="45.90037" lon="4.71541">
        <ele>197</ele>
        <time>2017-07-13T14:56:23Z</time>
      </trkpt>
      <trkpt lat="45.90041" lon="4.71541">
        <ele>197</ele>
        <time>2017-07-13T14:56:24Z</time>
      </trkpt>
      <trkpt lat="45.90048" lon="4.7154">
        <ele>197</ele>
        <time>2017-07-13T14:56:26Z</time>
      </trkpt>
      <trkpt lat="45.90051" lon="4.7154">
        <ele>198</ele>
        <time>2017-07-13T14:56:27Z</time>
      </trkpt>
      <trkpt lat="45.90058" lon="4.7154">
        <ele>198</ele>
        <time>2017-07-13T14:56:29Z</time>
      </trkpt>
      <trkpt lat="45.90062" lon="4.71539">
        <ele>198</ele>
        <time>2017-07-13T14:56:30Z</time>
      </trkpt>
      <trkpt lat="45.90069" lon="4.71538">
        <ele>198</ele>
        <time>2017-07-13T14:56:32Z</time>
      </trkpt>
      <trkpt lat="45.90072" lon="4.71538">
        <ele>198</ele>
        <time>2017-07-13T14:56:33Z</time>
      </trkpt>
      <trkpt lat="45.9008" lon="4.71538">
        <ele>198</ele>
        <time>2017-07-13T14:56:36Z</time>
      </trkpt>
      <trkpt lat="45.90084" lon="4.71537">
        <ele>200</ele>
        <time>2017-07-13T14:56:37Z</time>
      </trkpt>
      <trkpt lat="45.9009" lon="4.71537">
        <ele>200</ele>
        <time>2017-07-13T14:56:39Z</time>
      </trkpt>
      <trkpt lat="45.90093" lon="4.71537">
        <ele>200</ele>
        <time>2017-07-13T14:56:40Z</time>
      </trkpt>
      <trkpt lat="45.90099" lon="4.71536">
        <ele>200</ele>
        <time>2017-07-13T14:56:42Z</time>
      </trkpt>
      <trkpt lat="45.90102" lon="4.71536">
        <ele>200</ele>
        <time>2017-07-13T14:56:43Z</time>
      </trkpt>
      <trkpt lat="45.90109" lon="4.71535">
        <ele>200</ele>
        <time>2017-07-13T14:56:45Z</time>
      </trkpt>
      <trkpt lat="45.90113" lon="4.71537">
        <ele>200</ele>
        <time>2017-07-13T14:56:46Z</time>
      </trkpt>
      <trkpt lat="45.9012" lon="4.71538">
        <ele>201</ele>
        <time>2017-07-13T14:56:48Z</time>
      </trkpt>
      <trkpt lat="45.90123" lon="4.71539">
        <ele>201</ele>
        <time>2017-07-13T14:56:49Z</time>
      </trkpt>
      <trkpt lat="45.90132" lon="4.71539">
        <ele>201</ele>
        <time>2017-07-13T14:56:51Z</time>
      </trkpt>
      <trkpt lat="45.90136" lon="4.7154">
        <ele>201</ele>
        <time>2017-07-13T14:56:52Z</time>
      </trkpt>
      <trkpt lat="45.90144" lon="4.71541">
        <ele>201</ele>
        <time>2017-07-13T14:56:54Z</time>
      </trkpt>
      <trkpt lat="45.90147" lon="4.71541">
        <ele>201</ele>
        <time>2017-07-13T14:56:55Z</time>
      </trkpt>
      <trkpt lat="45.90155" lon="4.71541">
        <ele>201</ele>
        <time>2017-07-13T14:56:57Z</time>
      </trkpt>
      <trkpt lat="45.90159" lon="4.71543">
        <ele>201</ele>
        <time>2017-07-13T14:56:58Z</time>
      </trkpt>
      <trkpt lat="45.90168" lon="4.71545">
        <ele>200</ele>
        <time>2017-07-13T14:57:00Z</time>
      </trkpt>
      <trkpt lat="45.90172" lon="4.71545">
        <ele>200</ele>
        <time>2017-07-13T14:57:01Z</time>
      </trkpt>
      <trkpt lat="45.90177" lon="4.71546">
        <ele>200</ele>
        <time>2017-07-13T14:57:02Z</time>
      </trkpt>
      <trkpt lat="45.90181" lon="4.71546">
        <ele>200</ele>
        <time>2017-07-13T14:57:03Z</time>
      </trkpt>
      <trkpt lat="45.90186" lon="4.71547">
        <ele>200</ele>
        <time>2017-07-13T14:57:04Z</time>
      </trkpt>
      <trkpt lat="45.90192" lon="4.71549">
        <ele>199</ele>
        <time>2017-07-13T14:57:05Z</time>
      </trkpt>
      <trkpt lat="45.90196" lon="4.7155">
        <ele>199</ele>
        <time>2017-07-13T14:57:06Z</time>
      </trkpt>
      <trkpt lat="45.90201" lon="4.71551">
        <ele>199</ele>
        <time>2017-07-13T14:57:07Z</time>
      </trkpt>
      <trkpt lat="45.90206" lon="4.71553">
        <ele>199</ele>
        <time>2017-07-13T14:57:08Z</time>
      </trkpt>
      <trkpt lat="45.90212" lon="4.71555">
        <ele>199</ele>
        <time>2017-07-13T14:57:09Z</time>
      </trkpt>
      <trkpt lat="45.90218" lon="4.71557">
        <ele>199</ele>
        <time>2017-07-13T14:57:10Z</time>
      </trkpt>
      <trkpt lat="45.90223" lon="4.71559">
        <ele>199</ele>
        <time>2017-07-13T14:57:11Z</time>
      </trkpt>
      <trkpt lat="45.90229" lon="4.71559">
        <ele>198</ele>
        <time>2017-07-13T14:57:12Z</time>
      </trkpt>
      <trkpt lat="45.90235" lon="4.71558">
        <ele>198</ele>
        <time>2017-07-13T14:57:13Z</time>
      </trkpt>
      <trkpt lat="45.9024" lon="4.71557">
        <ele>198</ele>
        <time>2017-07-13T14:57:14Z</time>
      </trkpt>
      <trkpt lat="45.90246" lon="4.71557">
        <ele>198</ele>
        <time>2017-07-13T14:57:15Z</time>
      </trkpt>
      <trkpt lat="45.90252" lon="4.71556">
        <ele>196</ele>
        <time>2017-07-13T14:57:16Z</time>
      </trkpt>
      <trkpt lat="45.90257" lon="4.71555">
        <ele>196</ele>
        <time>2017-07-13T14:57:17Z</time>
      </trkpt>
      <trkpt lat="45.90262" lon="4.71554">
        <ele>196</ele>
        <time>2017-07-13T14:57:18Z</time>
      </trkpt>
      <trkpt lat="45.90266" lon="4.71554">
        <ele>196</ele>
        <time>2017-07-13T14:57:19Z</time>
      </trkpt>
      <trkpt lat="45.90274" lon="4.71558">
        <ele>195</ele>
        <time>2017-07-13T14:57:21Z</time>
      </trkpt>
      <trkpt lat="45.90275" lon="4.71565">
        <ele>195</ele>
        <time>2017-07-13T14:57:22Z</time>
      </trkpt>
      <trkpt lat="45.90274" lon="4.71572">
        <ele>195</ele>
        <time>2017-07-13T14:57:23Z</time>
      </trkpt>
      <trkpt lat="45.90273" lon="4.71578">
        <ele>195</ele>
        <time>2017-07-13T14:57:24Z</time>
      </trkpt>
      <trkpt lat="45.90272" lon="4.71589">
        <ele>194</ele>
        <time>2017-07-13T14:57:26Z</time>
      </trkpt>
      <trkpt lat="45.90272" lon="4.71596">
        <ele>194</ele>
        <time>2017-07-13T14:57:27Z</time>
      </trkpt>
      <trkpt lat="45.90271" lon="4.71604">
        <ele>193</ele>
        <time>2017-07-13T14:57:28Z</time>
      </trkpt>
      <trkpt lat="45.90271" lon="4.71612">
        <ele>193</ele>
        <time>2017-07-13T14:57:29Z</time>
      </trkpt>
      <trkpt lat="45.9027" lon="4.71621">
        <ele>193</ele>
        <time>2017-07-13T14:57:30Z</time>
      </trkpt>
      <trkpt lat="45.9027" lon="4.71631">
        <ele>193</ele>
        <time>2017-07-13T14:57:31Z</time>
      </trkpt>
      <trkpt lat="45.90269" lon="4.71642">
        <ele>192</ele>
        <time>2017-07-13T14:57:32Z</time>
      </trkpt>
      <trkpt lat="45.90269" lon="4.71652">
        <ele>192</ele>
        <time>2017-07-13T14:57:33Z</time>
      </trkpt>
      <trkpt lat="45.90268" lon="4.71663">
        <ele>192</ele>
        <time>2017-07-13T14:57:34Z</time>
      </trkpt>
      <trkpt lat="45.90267" lon="4.71674">
        <ele>189</ele>
        <time>2017-07-13T14:57:35Z</time>
      </trkpt>
      <trkpt lat="45.90265" lon="4.71684">
        <ele>189</ele>
        <time>2017-07-13T14:57:36Z</time>
      </trkpt>
      <trkpt lat="45.90263" lon="4.71694">
        <ele>188</ele>
        <time>2017-07-13T14:57:37Z</time>
      </trkpt>
      <trkpt lat="45.90261" lon="4.71704">
        <ele>187</ele>
        <time>2017-07-13T14:57:38Z</time>
      </trkpt>
      <trkpt lat="45.90259" lon="4.71716">
        <ele>187</ele>
        <time>2017-07-13T14:57:39Z</time>
      </trkpt>
      <trkpt lat="45.90257" lon="4.71727">
        <ele>186</ele>
        <time>2017-07-13T14:57:40Z</time>
      </trkpt>
      <trkpt lat="45.90255" lon="4.71739">
        <ele>186</ele>
        <time>2017-07-13T14:57:41Z</time>
      </trkpt>
      <trkpt lat="45.90254" lon="4.71753">
        <ele>184</ele>
        <time>2017-07-13T14:57:42Z</time>
      </trkpt>
      <trkpt lat="45.90253" lon="4.71767">
        <ele>183</ele>
        <time>2017-07-13T14:57:43Z</time>
      </trkpt>
      <trkpt lat="45.90252" lon="4.71781">
        <ele>183</ele>
        <time>2017-07-13T14:57:44Z</time>
      </trkpt>
      <trkpt lat="45.90251" lon="4.71794">
        <ele>182</ele>
        <time>2017-07-13T14:57:45Z</time>
      </trkpt>
      <trkpt lat="45.90248" lon="4.71807">
        <ele>184</ele>
        <time>2017-07-13T14:57:46Z</time>
      </trkpt>
      <trkpt lat="45.90245" lon="4.71818">
        <ele>183</ele>
        <time>2017-07-13T14:57:47Z</time>
      </trkpt>
      <trkpt lat="45.90241" lon="4.71829">
        <ele>183</ele>
        <time>2017-07-13T14:57:48Z</time>
      </trkpt>
      <trkpt lat="45.90235" lon="4.71838">
        <ele>182</ele>
        <time>2017-07-13T14:57:49Z</time>
      </trkpt>
      <trkpt lat="45.9023" lon="4.71848">
        <ele>181</ele>
        <time>2017-07-13T14:57:50Z</time>
      </trkpt>
      <trkpt lat="45.90225" lon="4.71857">
        <ele>181</ele>
        <time>2017-07-13T14:57:51Z</time>
      </trkpt>
      <trkpt lat="45.90219" lon="4.71867">
        <ele>181</ele>
        <time>2017-07-13T14:57:52Z</time>
      </trkpt>
      <trkpt lat="45.90214" lon="4.71876">
        <ele>180</ele>
        <time>2017-07-13T14:57:53Z</time>
      </trkpt>
      <trkpt lat="45.90209" lon="4.71885">
        <ele>180</ele>
        <time>2017-07-13T14:57:54Z</time>
      </trkpt>
      <trkpt lat="45.90204" lon="4.71893">
        <ele>180</ele>
        <time>2017-07-13T14:57:55Z</time>
      </trkpt>
      <trkpt lat="45.902" lon="4.71901">
        <ele>180</ele>
        <time>2017-07-13T14:57:56Z</time>
      </trkpt>
      <trkpt lat="45.90196" lon="4.71909">
        <ele>179</ele>
        <time>2017-07-13T14:57:57Z</time>
      </trkpt>
      <trkpt lat="45.90192" lon="4.71918">
        <ele>178</ele>
        <time>2017-07-13T14:57:58Z</time>
      </trkpt>
      <trkpt lat="45.90189" lon="4.71927">
        <ele>178</ele>
        <time>2017-07-13T14:57:59Z</time>
      </trkpt>
      <trkpt lat="45.90186" lon="4.71935">
        <ele>178</ele>
        <time>2017-07-13T14:58:00Z</time>
      </trkpt>
      <trkpt lat="45.90183" lon="4.71943">
        <ele>179</ele>
        <time>2017-07-13T14:58:01Z</time>
      </trkpt>
      <trkpt lat="45.90181" lon="4.71951">
        <ele>179</ele>
        <time>2017-07-13T14:58:02Z</time>
      </trkpt>
      <trkpt lat="45.9018" lon="4.71959">
        <ele>179</ele>
        <time>2017-07-13T14:58:03Z</time>
      </trkpt>
      <trkpt lat="45.90179" lon="4.71966">
        <ele>179</ele>
        <time>2017-07-13T14:58:04Z</time>
      </trkpt>
      <trkpt lat="45.90178" lon="4.71973">
        <ele>179</ele>
        <time>2017-07-13T14:58:05Z</time>
      </trkpt>
      <trkpt lat="45.90177" lon="4.7198">
        <ele>179</ele>
        <time>2017-07-13T14:58:06Z</time>
      </trkpt>
      <trkpt lat="45.90177" lon="4.71987">
        <ele>179</ele>
        <time>2017-07-13T14:58:07Z</time>
      </trkpt>
      <trkpt lat="45.90176" lon="4.71993">
        <ele>179</ele>
        <time>2017-07-13T14:58:08Z</time>
      </trkpt>
      <trkpt lat="45.90176" lon="4.72005">
        <ele>179</ele>
        <time>2017-07-13T14:58:10Z</time>
      </trkpt>
      <trkpt lat="45.90176" lon="4.72011">
        <ele>179</ele>
        <time>2017-07-13T14:58:11Z</time>
      </trkpt>
      <trkpt lat="45.90176" lon="4.72022">
        <ele>179</ele>
        <time>2017-07-13T14:58:13Z</time>
      </trkpt>
      <trkpt lat="45.90176" lon="4.72028">
        <ele>179</ele>
        <time>2017-07-13T14:58:14Z</time>
      </trkpt>
      <trkpt lat="45.90177" lon="4.72035">
        <ele>179</ele>
        <time>2017-07-13T14:58:15Z</time>
      </trkpt>
      <trkpt lat="45.90177" lon="4.72041">
        <ele>179</ele>
        <time>2017-07-13T14:58:16Z</time>
      </trkpt>
      <trkpt lat="45.90178" lon="4.72048">
        <ele>179</ele>
        <time>2017-07-13T14:58:17Z</time>
      </trkpt>
      <trkpt lat="45.90178" lon="4.72055">
        <ele>179</ele>
        <time>2017-07-13T14:58:18Z</time>
      </trkpt>
      <trkpt lat="45.90179" lon="4.72063">
        <ele>179</ele>
        <time>2017-07-13T14:58:19Z</time>
      </trkpt>
      <trkpt lat="45.90179" lon="4.7207">
        <ele>179</ele>
        <time>2017-07-13T14:58:20Z</time>
      </trkpt>
      <trkpt lat="45.9018" lon="4.72078">
        <ele>178</ele>
        <time>2017-07-13T14:58:21Z</time>
      </trkpt>
      <trkpt lat="45.9018" lon="4.72085">
        <ele>178</ele>
        <time>2017-07-13T14:58:22Z</time>
      </trkpt>
      <trkpt lat="45.90181" lon="4.72093">
        <ele>178</ele>
        <time>2017-07-13T14:58:23Z</time>
      </trkpt>
      <trkpt lat="45.90182" lon="4.721">
        <ele>178</ele>
        <time>2017-07-13T14:58:24Z</time>
      </trkpt>
      <trkpt lat="45.90182" lon="4.72107">
        <ele>178</ele>
        <time>2017-07-13T14:58:25Z</time>
      </trkpt>
      <trkpt lat="45.90183" lon="4.72114">
        <ele>178</ele>
        <time>2017-07-13T14:58:26Z</time>
      </trkpt>
      <trkpt lat="45.90183" lon="4.7212">
        <ele>178</ele>
        <time>2017-07-13T14:58:27Z</time>
      </trkpt>
      <trkpt lat="45.90184" lon="4.72127">
        <ele>178</ele>
        <time>2017-07-13T14:58:28Z</time>
      </trkpt>
      <trkpt lat="45.90184" lon="4.72139">
        <ele>178</ele>
        <time>2017-07-13T14:58:30Z</time>
      </trkpt>
      <trkpt lat="45.90185" lon="4.72145">
        <ele>178</ele>
        <time>2017-07-13T14:58:31Z</time>
      </trkpt>
      <trkpt lat="45.90185" lon="4.72156">
        <ele>178</ele>
        <time>2017-07-13T14:58:33Z</time>
      </trkpt>
      <trkpt lat="45.90186" lon="4.72163">
        <ele>178</ele>
        <time>2017-07-13T14:58:34Z</time>
      </trkpt>
      <trkpt lat="45.90186" lon="4.7217">
        <ele>177</ele>
        <time>2017-07-13T14:58:35Z</time>
      </trkpt>
      <trkpt lat="45.90187" lon="4.72177">
        <ele>177</ele>
        <time>2017-07-13T14:58:36Z</time>
      </trkpt>
      <trkpt lat="45.90187" lon="4.72185">
        <ele>177</ele>
        <time>2017-07-13T14:58:37Z</time>
      </trkpt>
      <trkpt lat="45.90188" lon="4.72193">
        <ele>177</ele>
        <time>2017-07-13T14:58:38Z</time>
      </trkpt>
      <trkpt lat="45.90188" lon="4.72201">
        <ele>177</ele>
        <time>2017-07-13T14:58:39Z</time>
      </trkpt>
      <trkpt lat="45.90189" lon="4.72209">
        <ele>177</ele>
        <time>2017-07-13T14:58:40Z</time>
      </trkpt>
      <trkpt lat="45.9019" lon="4.72216">
        <ele>177</ele>
        <time>2017-07-13T14:58:41Z</time>
      </trkpt>
      <trkpt lat="45.90191" lon="4.72223">
        <ele>177</ele>
        <time>2017-07-13T14:58:42Z</time>
      </trkpt>
      <trkpt lat="45.90192" lon="4.7223">
        <ele>177</ele>
        <time>2017-07-13T14:58:43Z</time>
      </trkpt>
      <trkpt lat="45.90192" lon="4.72237">
        <ele>177</ele>
        <time>2017-07-13T14:58:44Z</time>
      </trkpt>
      <trkpt lat="45.90193" lon="4.72244">
        <ele>177</ele>
        <time>2017-07-13T14:58:45Z</time>
      </trkpt>
      <trkpt lat="45.90194" lon="4.7225">
        <ele>177</ele>
        <time>2017-07-13T14:58:46Z</time>
      </trkpt>
      <trkpt lat="45.90195" lon="4.72263">
        <ele>177</ele>
        <time>2017-07-13T14:58:48Z</time>
      </trkpt>
      <trkpt lat="45.90196" lon="4.72269">
        <ele>177</ele>
        <time>2017-07-13T14:58:49Z</time>
      </trkpt>
      <trkpt lat="45.90197" lon="4.7228">
        <ele>177</ele>
        <time>2017-07-13T14:58:51Z</time>
      </trkpt>
      <trkpt lat="45.90198" lon="4.72286">
        <ele>177</ele>
        <time>2017-07-13T14:58:52Z</time>
      </trkpt>
      <trkpt lat="45.902" lon="4.72297">
        <ele>177</ele>
        <time>2017-07-13T14:58:54Z</time>
      </trkpt>
      <trkpt lat="45.90202" lon="4.72302">
        <ele>177</ele>
        <time>2017-07-13T14:58:55Z</time>
      </trkpt>
      <trkpt lat="45.90207" lon="4.7231">
        <ele>177</ele>
        <time>2017-07-13T14:58:57Z</time>
      </trkpt>
      <trkpt lat="45.90211" lon="4.72312">
        <ele>177</ele>
        <time>2017-07-13T14:58:58Z</time>
      </trkpt>
      <trkpt lat="45.90218" lon="4.72315">
        <ele>177</ele>
        <time>2017-07-13T14:59:00Z</time>
      </trkpt>
      <trkpt lat="45.90222" lon="4.72314">
        <ele>177</ele>
        <time>2017-07-13T14:59:01Z</time>
      </trkpt>
      <trkpt lat="45.9023" lon="4.72312">
        <ele>177</ele>
        <time>2017-07-13T14:59:03Z</time>
      </trkpt>
      <trkpt lat="45.90234" lon="4.72311">
        <ele>177</ele>
        <time>2017-07-13T14:59:04Z</time>
      </trkpt>
      <trkpt lat="45.90243" lon="4.7231">
        <ele>177</ele>
        <time>2017-07-13T14:59:06Z</time>
      </trkpt>
      <trkpt lat="45.90247" lon="4.72309">
        <ele>177</ele>
        <time>2017-07-13T14:59:07Z</time>
      </trkpt>
      <trkpt lat="45.90255" lon="4.72307">
        <ele>177</ele>
        <time>2017-07-13T14:59:09Z</time>
      </trkpt>
      <trkpt lat="45.90259" lon="4.72306">
        <ele>177</ele>
        <time>2017-07-13T14:59:10Z</time>
      </trkpt>
      <trkpt lat="45.90263" lon="4.72306">
        <ele>177</ele>
        <time>2017-07-13T14:59:11Z</time>
      </trkpt>
      <trkpt lat="45.90268" lon="4.72305">
        <ele>177</ele>
        <time>2017-07-13T14:59:12Z</time>
      </trkpt>
      <trkpt lat="45.90273" lon="4.72303">
        <ele>177</ele>
        <time>2017-07-13T14:59:13Z</time>
      </trkpt>
      <trkpt lat="45.90277" lon="4.72301">
        <ele>177</ele>
        <time>2017-07-13T14:59:14Z</time>
      </trkpt>
      <trkpt lat="45.90285" lon="4.72299">
        <ele>177</ele>
        <time>2017-07-13T14:59:16Z</time>
      </trkpt>
      <trkpt lat="45.90289" lon="4.72299">
        <ele>177</ele>
        <time>2017-07-13T14:59:17Z</time>
      </trkpt>
      <trkpt lat="45.90298" lon="4.72297">
        <ele>177</ele>
        <time>2017-07-13T14:59:19Z</time>
      </trkpt>
      <trkpt lat="45.90302" lon="4.72296">
        <ele>177</ele>
        <time>2017-07-13T14:59:20Z</time>
      </trkpt>
      <trkpt lat="45.90307" lon="4.72294">
        <ele>177</ele>
        <time>2017-07-13T14:59:21Z</time>
      </trkpt>
      <trkpt lat="45.90311" lon="4.72293">
        <ele>177</ele>
        <time>2017-07-13T14:59:22Z</time>
      </trkpt>
      <trkpt lat="45.90319" lon="4.7229">
        <ele>177</ele>
        <time>2017-07-13T14:59:24Z</time>
      </trkpt>
      <trkpt lat="45.90323" lon="4.72289">
        <ele>177</ele>
        <time>2017-07-13T14:59:25Z</time>
      </trkpt>
      <trkpt lat="45.9033" lon="4.72285">
        <ele>177</ele>
        <time>2017-07-13T14:59:27Z</time>
      </trkpt>
      <trkpt lat="45.90334" lon="4.72284">
        <ele>178</ele>
        <time>2017-07-13T14:59:28Z</time>
      </trkpt>
      <trkpt lat="45.9034" lon="4.72282">
        <ele>178</ele>
        <time>2017-07-13T14:59:30Z</time>
      </trkpt>
      <trkpt lat="45.90343" lon="4.72281">
        <ele>178</ele>
        <time>2017-07-13T14:59:31Z</time>
      </trkpt>
      <trkpt lat="45.90351" lon="4.72276">
        <ele>178</ele>
        <time>2017-07-13T14:59:34Z</time>
      </trkpt>
      <trkpt lat="45.90355" lon="4.72274">
        <ele>178</ele>
        <time>2017-07-13T14:59:35Z</time>
      </trkpt>
      <trkpt lat="45.90362" lon="4.7227">
        <ele>178</ele>
        <time>2017-07-13T14:59:37Z</time>
      </trkpt>
      <trkpt lat="45.90365" lon="4.72267">
        <ele>178</ele>
        <time>2017-07-13T14:59:38Z</time>
      </trkpt>
      <trkpt lat="45.90371" lon="4.72264">
        <ele>178</ele>
        <time>2017-07-13T14:59:40Z</time>
      </trkpt>
      <trkpt lat="45.90374" lon="4.72264">
        <ele>178</ele>
        <time>2017-07-13T14:59:41Z</time>
      </trkpt>
      <trkpt lat="45.90379" lon="4.72262">
        <ele>178</ele>
        <time>2017-07-13T14:59:43Z</time>
      </trkpt>
      <trkpt lat="45.90383" lon="4.7226">
        <ele>178</ele>
        <time>2017-07-13T14:59:44Z</time>
      </trkpt>
      <trkpt lat="45.9039" lon="4.72257">
        <ele>178</ele>
        <time>2017-07-13T14:59:46Z</time>
      </trkpt>
      <trkpt lat="45.90394" lon="4.72255">
        <ele>178</ele>
        <time>2017-07-13T14:59:47Z</time>
      </trkpt>
      <trkpt lat="45.90402" lon="4.72251">
        <ele>178</ele>
        <time>2017-07-13T14:59:49Z</time>
      </trkpt>
      <trkpt lat="45.90405" lon="4.72249">
        <ele>179</ele>
        <time>2017-07-13T14:59:50Z</time>
      </trkpt>
      <trkpt lat="45.90412" lon="4.72247">
        <ele>179</ele>
        <time>2017-07-13T14:59:52Z</time>
      </trkpt>
      <trkpt lat="45.90415" lon="4.72245">
        <ele>179</ele>
        <time>2017-07-13T14:59:53Z</time>
      </trkpt>
      <trkpt lat="45.90421" lon="4.72243">
        <ele>179</ele>
        <time>2017-07-13T14:59:55Z</time>
      </trkpt>
      <trkpt lat="45.90425" lon="4.72242">
        <ele>179</ele>
        <time>2017-07-13T14:59:56Z</time>
      </trkpt>
      <trkpt lat="45.90431" lon="4.72239">
        <ele>179</ele>
        <time>2017-07-13T14:59:58Z</time>
      </trkpt>
      <trkpt lat="45.90434" lon="4.72236">
        <ele>179</ele>
        <time>2017-07-13T14:59:59Z</time>
      </trkpt>
      <trkpt lat="45.90442" lon="4.7223">
        <ele>179</ele>
        <time>2017-07-13T15:00:01Z</time>
      </trkpt>
      <trkpt lat="45.90445" lon="4.72227">
        <ele>179</ele>
        <time>2017-07-13T15:00:02Z</time>
      </trkpt>
      <trkpt lat="45.90452" lon="4.72222">
        <ele>179</ele>
        <time>2017-07-13T15:00:04Z</time>
      </trkpt>
      <trkpt lat="45.90455" lon="4.72219">
        <ele>179</ele>
        <time>2017-07-13T15:00:05Z</time>
      </trkpt>
      <trkpt lat="45.9046" lon="4.72215">
        <ele>179</ele>
        <time>2017-07-13T15:00:07Z</time>
      </trkpt>
      <trkpt lat="45.90464" lon="4.72212">
        <ele>179</ele>
        <time>2017-07-13T15:00:08Z</time>
      </trkpt>
      <trkpt lat="45.90469" lon="4.7221">
        <ele>179</ele>
        <time>2017-07-13T15:00:10Z</time>
      </trkpt>
      <trkpt lat="45.90472" lon="4.72208">
        <ele>179</ele>
        <time>2017-07-13T15:00:11Z</time>
      </trkpt>
      <trkpt lat="45.90478" lon="4.72205">
        <ele>178</ele>
        <time>2017-07-13T15:00:14Z</time>
      </trkpt>
      <trkpt lat="45.90481" lon="4.72203">
        <ele>178</ele>
        <time>2017-07-13T15:00:15Z</time>
      </trkpt>
      <trkpt lat="45.90488" lon="4.72199">
        <ele>178</ele>
        <time>2017-07-13T15:00:17Z</time>
      </trkpt>
      <trkpt lat="45.90491" lon="4.72198">
        <ele>178</ele>
        <time>2017-07-13T15:00:18Z</time>
      </trkpt>
      <trkpt lat="45.90499" lon="4.72194">
        <ele>178</ele>
        <time>2017-07-13T15:00:20Z</time>
      </trkpt>
      <trkpt lat="45.90502" lon="4.72193">
        <ele>177</ele>
        <time>2017-07-13T15:00:21Z</time>
      </trkpt>
      <trkpt lat="45.9051" lon="4.7219">
        <ele>177</ele>
        <time>2017-07-13T15:00:24Z</time>
      </trkpt>
      <trkpt lat="45.90513" lon="4.72189">
        <ele>177</ele>
        <time>2017-07-13T15:00:25Z</time>
      </trkpt>
      <trkpt lat="45.90518" lon="4.72188">
        <ele>177</ele>
        <time>2017-07-13T15:00:27Z</time>
      </trkpt>
      <trkpt lat="45.90521" lon="4.72186">
        <ele>177</ele>
        <time>2017-07-13T15:00:28Z</time>
      </trkpt>
      <trkpt lat="45.90529" lon="4.72182">
        <ele>177</ele>
        <time>2017-07-13T15:00:30Z</time>
      </trkpt>
      <trkpt lat="45.90534" lon="4.72181">
        <ele>177</ele>
        <time>2017-07-13T15:00:31Z</time>
      </trkpt>
      <trkpt lat="45.90541" lon="4.72179">
        <ele>177</ele>
        <time>2017-07-13T15:00:33Z</time>
      </trkpt>
      <trkpt lat="45.90545" lon="4.72176">
        <ele>177</ele>
        <time>2017-07-13T15:00:34Z</time>
      </trkpt>
      <trkpt lat="45.90553" lon="4.72173">
        <ele>177</ele>
        <time>2017-07-13T15:00:36Z</time>
      </trkpt>
      <trkpt lat="45.90556" lon="4.72172">
        <ele>177</ele>
        <time>2017-07-13T15:00:37Z</time>
      </trkpt>
      <trkpt lat="45.90563" lon="4.7217">
        <ele>176</ele>
        <time>2017-07-13T15:00:39Z</time>
      </trkpt>
      <trkpt lat="45.90566" lon="4.72169">
        <ele>176</ele>
        <time>2017-07-13T15:00:40Z</time>
      </trkpt>
      <trkpt lat="45.90573" lon="4.72167">
        <ele>177</ele>
        <time>2017-07-13T15:00:42Z</time>
      </trkpt>
      <trkpt lat="45.90576" lon="4.72167">
        <ele>177</ele>
        <time>2017-07-13T15:00:43Z</time>
      </trkpt>
      <trkpt lat="45.90584" lon="4.72165">
        <ele>176</ele>
        <time>2017-07-13T15:00:46Z</time>
      </trkpt>
      <trkpt lat="45.90586" lon="4.72164">
        <ele>176</ele>
        <time>2017-07-13T15:00:47Z</time>
      </trkpt>
      <trkpt lat="45.90592" lon="4.7216">
        <ele>176</ele>
        <time>2017-07-13T15:00:49Z</time>
      </trkpt>
      <trkpt lat="45.90594" lon="4.72158">
        <ele>176</ele>
        <time>2017-07-13T15:00:50Z</time>
      </trkpt>
      <trkpt lat="45.906" lon="4.72155">
        <ele>176</ele>
        <time>2017-07-13T15:00:52Z</time>
      </trkpt>
      <trkpt lat="45.90604" lon="4.72152">
        <ele>176</ele>
        <time>2017-07-13T15:00:53Z</time>
      </trkpt>
      <trkpt lat="45.90611" lon="4.72147">
        <ele>176</ele>
        <time>2017-07-13T15:00:55Z</time>
      </trkpt>
      <trkpt lat="45.90614" lon="4.72145">
        <ele>176</ele>
        <time>2017-07-13T15:00:56Z</time>
      </trkpt>
      <trkpt lat="45.90621" lon="4.72141">
        <ele>175</ele>
        <time>2017-07-13T15:00:58Z</time>
      </trkpt>
      <trkpt lat="45.90624" lon="4.72139">
        <ele>175</ele>
        <time>2017-07-13T15:00:59Z</time>
      </trkpt>
      <trkpt lat="45.90632" lon="4.72135">
        <ele>175</ele>
        <time>2017-07-13T15:01:02Z</time>
      </trkpt>
      <trkpt lat="45.90635" lon="4.72133">
        <ele>175</ele>
        <time>2017-07-13T15:01:03Z</time>
      </trkpt>
      <trkpt lat="45.90643" lon="4.7213">
        <ele>175</ele>
        <time>2017-07-13T15:01:05Z</time>
      </trkpt>
      <trkpt lat="45.90646" lon="4.72128">
        <ele>175</ele>
        <time>2017-07-13T15:01:06Z</time>
      </trkpt>
      <trkpt lat="45.90655" lon="4.72124">
        <ele>175</ele>
        <time>2017-07-13T15:01:08Z</time>
      </trkpt>
      <trkpt lat="45.90659" lon="4.72123">
        <ele>175</ele>
        <time>2017-07-13T15:01:09Z</time>
      </trkpt>
      <trkpt lat="45.90667" lon="4.72121">
        <ele>175</ele>
        <time>2017-07-13T15:01:11Z</time>
      </trkpt>
      <trkpt lat="45.9067" lon="4.7212">
        <ele>174</ele>
        <time>2017-07-13T15:01:12Z</time>
      </trkpt>
      <trkpt lat="45.90678" lon="4.72118">
        <ele>174</ele>
        <time>2017-07-13T15:01:14Z</time>
      </trkpt>
      <trkpt lat="45.90681" lon="4.72117">
        <ele>174</ele>
        <time>2017-07-13T15:01:15Z</time>
      </trkpt>
      <trkpt lat="45.90688" lon="4.72115">
        <ele>174</ele>
        <time>2017-07-13T15:01:17Z</time>
      </trkpt>
      <trkpt lat="45.90692" lon="4.72114">
        <ele>174</ele>
        <time>2017-07-13T15:01:18Z</time>
      </trkpt>
      <trkpt lat="45.90699" lon="4.72111">
        <ele>174</ele>
        <time>2017-07-13T15:01:20Z</time>
      </trkpt>
      <trkpt lat="45.90703" lon="4.72109">
        <ele>174</ele>
        <time>2017-07-13T15:01:21Z</time>
      </trkpt>
      <trkpt lat="45.90707" lon="4.72106">
        <ele>174</ele>
        <time>2017-07-13T15:01:22Z</time>
      </trkpt>
      <trkpt lat="45.90712" lon="4.72103">
        <ele>174</ele>
        <time>2017-07-13T15:01:23Z</time>
      </trkpt>
      <trkpt lat="45.90716" lon="4.721">
        <ele>174</ele>
        <time>2017-07-13T15:01:24Z</time>
      </trkpt>
      <trkpt lat="45.9072" lon="4.72097">
        <ele>174</ele>
        <time>2017-07-13T15:01:25Z</time>
      </trkpt>
      <trkpt lat="45.90728" lon="4.72092">
        <ele>174</ele>
        <time>2017-07-13T15:01:27Z</time>
      </trkpt>
      <trkpt lat="45.90731" lon="4.72089">
        <ele>174</ele>
        <time>2017-07-13T15:01:28Z</time>
      </trkpt>
      <trkpt lat="45.90739" lon="4.72084">
        <ele>174</ele>
        <time>2017-07-13T15:01:30Z</time>
      </trkpt>
      <trkpt lat="45.90742" lon="4.72081">
        <ele>174</ele>
        <time>2017-07-13T15:01:31Z</time>
      </trkpt>
      <trkpt lat="45.90748" lon="4.72077">
        <ele>174</ele>
        <time>2017-07-13T15:01:33Z</time>
      </trkpt>
      <trkpt lat="45.90751" lon="4.72074">
        <ele>174</ele>
        <time>2017-07-13T15:01:34Z</time>
      </trkpt>
      <trkpt lat="45.90758" lon="4.72068">
        <ele>174</ele>
        <time>2017-07-13T15:01:36Z</time>
      </trkpt>
      <trkpt lat="45.90761" lon="4.72065">
        <ele>174</ele>
        <time>2017-07-13T15:01:37Z</time>
      </trkpt>
      <trkpt lat="45.90768" lon="4.7206">
        <ele>175</ele>
        <time>2017-07-13T15:01:39Z</time>
      </trkpt>
      <trkpt lat="45.90772" lon="4.72058">
        <ele>175</ele>
        <time>2017-07-13T15:01:40Z</time>
      </trkpt>
      <trkpt lat="45.9078" lon="4.72053">
        <ele>175</ele>
        <time>2017-07-13T15:01:42Z</time>
      </trkpt>
      <trkpt lat="45.90785" lon="4.7205">
        <ele>175</ele>
        <time>2017-07-13T15:01:43Z</time>
      </trkpt>
      <trkpt lat="45.90793" lon="4.72047">
        <ele>175</ele>
        <time>2017-07-13T15:01:45Z</time>
      </trkpt>
      <trkpt lat="45.90797" lon="4.72045">
        <ele>175</ele>
        <time>2017-07-13T15:01:46Z</time>
      </trkpt>
      <trkpt lat="45.90804" lon="4.72043">
        <ele>175</ele>
        <time>2017-07-13T15:01:48Z</time>
      </trkpt>
      <trkpt lat="45.90807" lon="4.72042">
        <ele>175</ele>
        <time>2017-07-13T15:01:49Z</time>
      </trkpt>
      <trkpt lat="45.90814" lon="4.7204">
        <ele>175</ele>
        <time>2017-07-13T15:01:51Z</time>
      </trkpt>
      <trkpt lat="45.90818" lon="4.72038">
        <ele>175</ele>
        <time>2017-07-13T15:01:52Z</time>
      </trkpt>
      <trkpt lat="45.90825" lon="4.72034">
        <ele>175</ele>
        <time>2017-07-13T15:01:54Z</time>
      </trkpt>
      <trkpt lat="45.9083" lon="4.72032">
        <ele>175</ele>
        <time>2017-07-13T15:01:55Z</time>
      </trkpt>
      <trkpt lat="45.90837" lon="4.72027">
        <ele>174</ele>
        <time>2017-07-13T15:01:57Z</time>
      </trkpt>
      <trkpt lat="45.90841" lon="4.72025">
        <ele>174</ele>
        <time>2017-07-13T15:01:58Z</time>
      </trkpt>
      <trkpt lat="45.90849" lon="4.72021">
        <ele>174</ele>
        <time>2017-07-13T15:02:00Z</time>
      </trkpt>
      <trkpt lat="45.90853" lon="4.72019">
        <ele>174</ele>
        <time>2017-07-13T15:02:01Z</time>
      </trkpt>
      <trkpt lat="45.9086" lon="4.72015">
        <ele>174</ele>
        <time>2017-07-13T15:02:03Z</time>
      </trkpt>
      <trkpt lat="45.90864" lon="4.72014">
        <ele>174</ele>
        <time>2017-07-13T15:02:04Z</time>
      </trkpt>
      <trkpt lat="45.9087" lon="4.72011">
        <ele>174</ele>
        <time>2017-07-13T15:02:06Z</time>
      </trkpt>
      <trkpt lat="45.90874" lon="4.72009">
        <ele>174</ele>
        <time>2017-07-13T15:02:07Z</time>
      </trkpt>
      <trkpt lat="45.9088" lon="4.72006">
        <ele>174</ele>
        <time>2017-07-13T15:02:09Z</time>
      </trkpt>
      <trkpt lat="45.90883" lon="4.72005">
        <ele>174</ele>
        <time>2017-07-13T15:02:10Z</time>
      </trkpt>
      <trkpt lat="45.9089" lon="4.72002">
        <ele>174</ele>
        <time>2017-07-13T15:02:12Z</time>
      </trkpt>
      <trkpt lat="45.90894" lon="4.72">
        <ele>174</ele>
        <time>2017-07-13T15:02:13Z</time>
      </trkpt>
      <trkpt lat="45.90902" lon="4.71996">
        <ele>174</ele>
        <time>2017-07-13T15:02:15Z</time>
      </trkpt>
      <trkpt lat="45.90907" lon="4.71994">
        <ele>174</ele>
        <time>2017-07-13T15:02:16Z</time>
      </trkpt>
      <trkpt lat="45.90911" lon="4.71991">
        <ele>174</ele>
        <time>2017-07-13T15:02:17Z</time>
      </trkpt>
      <trkpt lat="45.90915" lon="4.71989">
        <ele>174</ele>
        <time>2017-07-13T15:02:18Z</time>
      </trkpt>
      <trkpt lat="45.90923" lon="4.71985">
        <ele>174</ele>
        <time>2017-07-13T15:02:20Z</time>
      </trkpt>
      <trkpt lat="45.90927" lon="4.71983">
        <ele>174</ele>
        <time>2017-07-13T15:02:21Z</time>
      </trkpt>
      <trkpt lat="45.90935" lon="4.71978">
        <ele>174</ele>
        <time>2017-07-13T15:02:23Z</time>
      </trkpt>
      <trkpt lat="45.90939" lon="4.71976">
        <ele>174</ele>
        <time>2017-07-13T15:02:24Z</time>
      </trkpt>
      <trkpt lat="45.90947" lon="4.71971">
        <ele>174</ele>
        <time>2017-07-13T15:02:26Z</time>
      </trkpt>
      <trkpt lat="45.90951" lon="4.71969">
        <ele>174</ele>
        <time>2017-07-13T15:02:27Z</time>
      </trkpt>
      <trkpt lat="45.90956" lon="4.71966">
        <ele>174</ele>
        <time>2017-07-13T15:02:28Z</time>
      </trkpt>
      <trkpt lat="45.9096" lon="4.71963">
        <ele>174</ele>
        <time>2017-07-13T15:02:29Z</time>
      </trkpt>
      <trkpt lat="45.90968" lon="4.71958">
        <ele>174</ele>
        <time>2017-07-13T15:02:31Z</time>
      </trkpt>
      <trkpt lat="45.90972" lon="4.71956">
        <ele>174</ele>
        <time>2017-07-13T15:02:32Z</time>
      </trkpt>
      <trkpt lat="45.9098" lon="4.71951">
        <ele>174</ele>
        <time>2017-07-13T15:02:34Z</time>
      </trkpt>
      <trkpt lat="45.90984" lon="4.71948">
        <ele>174</ele>
        <time>2017-07-13T15:02:35Z</time>
      </trkpt>
      <trkpt lat="45.90992" lon="4.71944">
        <ele>174</ele>
        <time>2017-07-13T15:02:37Z</time>
      </trkpt>
      <trkpt lat="45.90997" lon="4.71942">
        <ele>173</ele>
        <time>2017-07-13T15:02:38Z</time>
      </trkpt>
      <trkpt lat="45.91001" lon="4.7194">
        <ele>173</ele>
        <time>2017-07-13T15:02:39Z</time>
      </trkpt>
      <trkpt lat="45.91006" lon="4.71939">
        <ele>173</ele>
        <time>2017-07-13T15:02:40Z</time>
      </trkpt>
      <trkpt lat="45.91014" lon="4.71937">
        <ele>173</ele>
        <time>2017-07-13T15:02:42Z</time>
      </trkpt>
      <trkpt lat="45.91019" lon="4.71936">
        <ele>174</ele>
        <time>2017-07-13T15:02:43Z</time>
      </trkpt>
      <trkpt lat="45.91026" lon="4.71936">
        <ele>174</ele>
        <time>2017-07-13T15:02:45Z</time>
      </trkpt>
      <trkpt lat="45.9103" lon="4.71936">
        <ele>174</ele>
        <time>2017-07-13T15:02:46Z</time>
      </trkpt>
      <trkpt lat="45.91036" lon="4.71937">
        <ele>174</ele>
        <time>2017-07-13T15:02:48Z</time>
      </trkpt>
      <trkpt lat="45.9104" lon="4.71938">
        <ele>174</ele>
        <time>2017-07-13T15:02:49Z</time>
      </trkpt>
      <trkpt lat="45.91048" lon="4.7194">
        <ele>174</ele>
        <time>2017-07-13T15:02:51Z</time>
      </trkpt>
      <trkpt lat="45.91052" lon="4.7194">
        <ele>174</ele>
        <time>2017-07-13T15:02:52Z</time>
      </trkpt>
      <trkpt lat="45.91061" lon="4.71941">
        <ele>174</ele>
        <time>2017-07-13T15:02:54Z</time>
      </trkpt>
      <trkpt lat="45.91065" lon="4.71941">
        <ele>174</ele>
        <time>2017-07-13T15:02:55Z</time>
      </trkpt>
      <trkpt lat="45.91073" lon="4.71941">
        <ele>174</ele>
        <time>2017-07-13T15:02:57Z</time>
      </trkpt>
      <trkpt lat="45.91077" lon="4.7194">
        <ele>174</ele>
        <time>2017-07-13T15:02:58Z</time>
      </trkpt>
      <trkpt lat="45.91084" lon="4.71938">
        <ele>174</ele>
        <time>2017-07-13T15:03:00Z</time>
      </trkpt>
      <trkpt lat="45.91087" lon="4.71938">
        <ele>174</ele>
        <time>2017-07-13T15:03:01Z</time>
      </trkpt>
      <trkpt lat="45.91093" lon="4.71935">
        <ele>174</ele>
        <time>2017-07-13T15:03:03Z</time>
      </trkpt>
      <trkpt lat="45.91096" lon="4.71934">
        <ele>174</ele>
        <time>2017-07-13T15:03:04Z</time>
      </trkpt>
      <trkpt lat="45.911" lon="4.71931">
        <ele>174</ele>
        <time>2017-07-13T15:03:05Z</time>
      </trkpt>
      <trkpt lat="45.91105" lon="4.71929">
        <ele>174</ele>
        <time>2017-07-13T15:03:06Z</time>
      </trkpt>
      <trkpt lat="45.91113" lon="4.71924">
        <ele>174</ele>
        <time>2017-07-13T15:03:08Z</time>
      </trkpt>
      <trkpt lat="45.91117" lon="4.71921">
        <ele>174</ele>
        <time>2017-07-13T15:03:09Z</time>
      </trkpt>
      <trkpt lat="45.91124" lon="4.71917">
        <ele>175</ele>
        <time>2017-07-13T15:03:11Z</time>
      </trkpt>
      <trkpt lat="45.91127" lon="4.71915">
        <ele>175</ele>
        <time>2017-07-13T15:03:12Z</time>
      </trkpt>
      <trkpt lat="45.91133" lon="4.71911">
        <ele>175</ele>
        <time>2017-07-13T15:03:14Z</time>
      </trkpt>
      <trkpt lat="45.91136" lon="4.7191">
        <ele>175</ele>
        <time>2017-07-13T15:03:15Z</time>
      </trkpt>
      <trkpt lat="45.91143" lon="4.71907">
        <ele>175</ele>
        <time>2017-07-13T15:03:17Z</time>
      </trkpt>
      <trkpt lat="45.91147" lon="4.71905">
        <ele>175</ele>
        <time>2017-07-13T15:03:18Z</time>
      </trkpt>
      <trkpt lat="45.91152" lon="4.71903">
        <ele>175</ele>
        <time>2017-07-13T15:03:19Z</time>
      </trkpt>
      <trkpt lat="45.91156" lon="4.71902">
        <ele>175</ele>
        <time>2017-07-13T15:03:20Z</time>
      </trkpt>
      <trkpt lat="45.91165" lon="4.71901">
        <ele>176</ele>
        <time>2017-07-13T15:03:22Z</time>
      </trkpt>
      <trkpt lat="45.91169" lon="4.71902">
        <ele>176</ele>
        <time>2017-07-13T15:03:23Z</time>
      </trkpt>
      <trkpt lat="45.91177" lon="4.71903">
        <ele>176</ele>
        <time>2017-07-13T15:03:25Z</time>
      </trkpt>
      <trkpt lat="45.9118" lon="4.71906">
        <ele>176</ele>
        <time>2017-07-13T15:03:26Z</time>
      </trkpt>
      <trkpt lat="45.91187" lon="4.71909">
        <ele>176</ele>
        <time>2017-07-13T15:03:28Z</time>
      </trkpt>
      <trkpt lat="45.9119" lon="4.7191">
        <ele>176</ele>
        <time>2017-07-13T15:03:29Z</time>
      </trkpt>
      <trkpt lat="45.91198" lon="4.71913">
        <ele>176</ele>
        <time>2017-07-13T15:03:31Z</time>
      </trkpt>
      <trkpt lat="45.91202" lon="4.71914">
        <ele>176</ele>
        <time>2017-07-13T15:03:32Z</time>
      </trkpt>
      <trkpt lat="45.91206" lon="4.71915">
        <ele>176</ele>
        <time>2017-07-13T15:03:33Z</time>
      </trkpt>
      <trkpt lat="45.91211" lon="4.71916">
        <ele>176</ele>
        <time>2017-07-13T15:03:34Z</time>
      </trkpt>
      <trkpt lat="45.91219" lon="4.71919">
        <ele>176</ele>
        <time>2017-07-13T15:03:36Z</time>
      </trkpt>
      <trkpt lat="45.91223" lon="4.71919">
        <ele>176</ele>
        <time>2017-07-13T15:03:37Z</time>
      </trkpt>
      <trkpt lat="45.9123" lon="4.71921">
        <ele>176</ele>
        <time>2017-07-13T15:03:39Z</time>
      </trkpt>
      <trkpt lat="45.91232" lon="4.71923">
        <ele>176</ele>
        <time>2017-07-13T15:03:40Z</time>
      </trkpt>
      <trkpt lat="45.91239" lon="4.71926">
        <ele>176</ele>
        <time>2017-07-13T15:03:42Z</time>
      </trkpt>
      <trkpt lat="45.91243" lon="4.71927">
        <ele>176</ele>
        <time>2017-07-13T15:03:43Z</time>
      </trkpt>
      <trkpt lat="45.91248" lon="4.71928">
        <ele>176</ele>
        <time>2017-07-13T15:03:44Z</time>
      </trkpt>
      <trkpt lat="45.91252" lon="4.7193">
        <ele>176</ele>
        <time>2017-07-13T15:03:45Z</time>
      </trkpt>
      <trkpt lat="45.91257" lon="4.71932">
        <ele>176</ele>
        <time>2017-07-13T15:03:46Z</time>
      </trkpt>
      <trkpt lat="45.91261" lon="4.71934">
        <ele>176</ele>
        <time>2017-07-13T15:03:47Z</time>
      </trkpt>
      <trkpt lat="45.91266" lon="4.71936">
        <ele>175</ele>
        <time>2017-07-13T15:03:48Z</time>
      </trkpt>
      <trkpt lat="45.91271" lon="4.71938">
        <ele>175</ele>
        <time>2017-07-13T15:03:49Z</time>
      </trkpt>
      <trkpt lat="45.9128" lon="4.71941">
        <ele>175</ele>
        <time>2017-07-13T15:03:51Z</time>
      </trkpt>
      <trkpt lat="45.91284" lon="4.71942">
        <ele>175</ele>
        <time>2017-07-13T15:03:52Z</time>
      </trkpt>
      <trkpt lat="45.91291" lon="4.71945">
        <ele>175</ele>
        <time>2017-07-13T15:03:54Z</time>
      </trkpt>
      <trkpt lat="45.91294" lon="4.71946">
        <ele>175</ele>
        <time>2017-07-13T15:03:55Z</time>
      </trkpt>
      <trkpt lat="45.91301" lon="4.71949">
        <ele>174</ele>
        <time>2017-07-13T15:03:57Z</time>
      </trkpt>
      <trkpt lat="45.91305" lon="4.71951">
        <ele>174</ele>
        <time>2017-07-13T15:03:58Z</time>
      </trkpt>
      <trkpt lat="45.91313" lon="4.71955">
        <ele>174</ele>
        <time>2017-07-13T15:04:00Z</time>
      </trkpt>
      <trkpt lat="45.91317" lon="4.71956">
        <ele>174</ele>
        <time>2017-07-13T15:04:01Z</time>
      </trkpt>
      <trkpt lat="45.91325" lon="4.71961">
        <ele>174</ele>
        <time>2017-07-13T15:04:03Z</time>
      </trkpt>
      <trkpt lat="45.9133" lon="4.71963">
        <ele>174</ele>
        <time>2017-07-13T15:04:04Z</time>
      </trkpt>
      <trkpt lat="45.91334" lon="4.71965">
        <ele>173</ele>
        <time>2017-07-13T15:04:05Z</time>
      </trkpt>
      <trkpt lat="45.91339" lon="4.71967">
        <ele>173</ele>
        <time>2017-07-13T15:04:06Z</time>
      </trkpt>
      <trkpt lat="45.91344" lon="4.71969">
        <ele>173</ele>
        <time>2017-07-13T15:04:07Z</time>
      </trkpt>
      <trkpt lat="45.91349" lon="4.71971">
        <ele>173</ele>
        <time>2017-07-13T15:04:08Z</time>
      </trkpt>
      <trkpt lat="45.91357" lon="4.71973">
        <ele>173</ele>
        <time>2017-07-13T15:04:10Z</time>
      </trkpt>
      <trkpt lat="45.91362" lon="4.71973">
        <ele>173</ele>
        <time>2017-07-13T15:04:11Z</time>
      </trkpt>
      <trkpt lat="45.9137" lon="4.71973">
        <ele>173</ele>
        <time>2017-07-13T15:04:13Z</time>
      </trkpt>
      <trkpt lat="45.91374" lon="4.71974">
        <ele>173</ele>
        <time>2017-07-13T15:04:14Z</time>
      </trkpt>
      <trkpt lat="45.91382" lon="4.71973">
        <ele>174</ele>
        <time>2017-07-13T15:04:16Z</time>
      </trkpt>
      <trkpt lat="45.91385" lon="4.71972">
        <ele>174</ele>
        <time>2017-07-13T15:04:17Z</time>
      </trkpt>
      <trkpt lat="45.91392" lon="4.7197">
        <ele>174</ele>
        <time>2017-07-13T15:04:19Z</time>
      </trkpt>
      <trkpt lat="45.91396" lon="4.71968">
        <ele>174</ele>
        <time>2017-07-13T15:04:20Z</time>
      </trkpt>
      <trkpt lat="45.91403" lon="4.71963">
        <ele>174</ele>
        <time>2017-07-13T15:04:22Z</time>
      </trkpt>
      <trkpt lat="45.91407" lon="4.71959">
        <ele>174</ele>
        <time>2017-07-13T15:04:23Z</time>
      </trkpt>
      <trkpt lat="45.91411" lon="4.71955">
        <ele>173</ele>
        <time>2017-07-13T15:04:24Z</time>
      </trkpt>
      <trkpt lat="45.91415" lon="4.71952">
        <ele>173</ele>
        <time>2017-07-13T15:04:25Z</time>
      </trkpt>
      <trkpt lat="45.91421" lon="4.71945">
        <ele>173</ele>
        <time>2017-07-13T15:04:27Z</time>
      </trkpt>
      <trkpt lat="45.91424" lon="4.71943">
        <ele>173</ele>
        <time>2017-07-13T15:04:28Z</time>
      </trkpt>
      <trkpt lat="45.91429" lon="4.71937">
        <ele>173</ele>
        <time>2017-07-13T15:04:30Z</time>
      </trkpt>
      <trkpt lat="45.91432" lon="4.71935">
        <ele>173</ele>
        <time>2017-07-13T15:04:31Z</time>
      </trkpt>
      <trkpt lat="45.91439" lon="4.7193">
        <ele>173</ele>
        <time>2017-07-13T15:04:33Z</time>
      </trkpt>
      <trkpt lat="45.91443" lon="4.71928">
        <ele>173</ele>
        <time>2017-07-13T15:04:34Z</time>
      </trkpt>
      <trkpt lat="45.91451" lon="4.71924">
        <ele>173</ele>
        <time>2017-07-13T15:04:36Z</time>
      </trkpt>
      <trkpt lat="45.91455" lon="4.71922">
        <ele>173</ele>
        <time>2017-07-13T15:04:37Z</time>
      </trkpt>
      <trkpt lat="45.91463" lon="4.71918">
        <ele>173</ele>
        <time>2017-07-13T15:04:39Z</time>
      </trkpt>
      <trkpt lat="45.91467" lon="4.71916">
        <ele>173</ele>
        <time>2017-07-13T15:04:40Z</time>
      </trkpt>
      <trkpt lat="45.91475" lon="4.71912">
        <ele>173</ele>
        <time>2017-07-13T15:04:42Z</time>
      </trkpt>
      <trkpt lat="45.91478" lon="4.71909">
        <ele>173</ele>
        <time>2017-07-13T15:04:43Z</time>
      </trkpt>
      <trkpt lat="45.91485" lon="4.71905">
        <ele>173</ele>
        <time>2017-07-13T15:04:45Z</time>
      </trkpt>
      <trkpt lat="45.91487" lon="4.71903">
        <ele>173</ele>
        <time>2017-07-13T15:04:46Z</time>
      </trkpt>
      <trkpt lat="45.91494" lon="4.71896">
        <ele>173</ele>
        <time>2017-07-13T15:04:49Z</time>
      </trkpt>
      <trkpt lat="45.91498" lon="4.71893">
        <ele>173</ele>
        <time>2017-07-13T15:04:50Z</time>
      </trkpt>
      <trkpt lat="45.91504" lon="4.71887">
        <ele>173</ele>
        <time>2017-07-13T15:04:52Z</time>
      </trkpt>
      <trkpt lat="45.91506" lon="4.71884">
        <ele>173</ele>
        <time>2017-07-13T15:04:53Z</time>
      </trkpt>
      <trkpt lat="45.9151" lon="4.71877">
        <ele>173</ele>
        <time>2017-07-13T15:04:55Z</time>
      </trkpt>
      <trkpt lat="45.91512" lon="4.71874">
        <ele>174</ele>
        <time>2017-07-13T15:04:56Z</time>
      </trkpt>
      <trkpt lat="45.91517" lon="4.71865">
        <ele>174</ele>
        <time>2017-07-13T15:04:58Z</time>
      </trkpt>
      <trkpt lat="45.91519" lon="4.71859">
        <ele>174</ele>
        <time>2017-07-13T15:04:59Z</time>
      </trkpt>
      <trkpt lat="45.91522" lon="4.71853">
        <ele>174</ele>
        <time>2017-07-13T15:05:00Z</time>
      </trkpt>
      <trkpt lat="45.91524" lon="4.71846">
        <ele>174</ele>
        <time>2017-07-13T15:05:01Z</time>
      </trkpt>
      <trkpt lat="45.91526" lon="4.7184">
        <ele>174</ele>
        <time>2017-07-13T15:05:02Z</time>
      </trkpt>
      <trkpt lat="45.91528" lon="4.71833">
        <ele>174</ele>
        <time>2017-07-13T15:05:03Z</time>
      </trkpt>
      <trkpt lat="45.9153" lon="4.71827">
        <ele>174</ele>
        <time>2017-07-13T15:05:04Z</time>
      </trkpt>
      <trkpt lat="45.91533" lon="4.71822">
        <ele>174</ele>
        <time>2017-07-13T15:05:05Z</time>
      </trkpt>
      <trkpt lat="45.91537" lon="4.71812">
        <ele>174</ele>
        <time>2017-07-13T15:05:07Z</time>
      </trkpt>
      <trkpt lat="45.91539" lon="4.71807">
        <ele>174</ele>
        <time>2017-07-13T15:05:08Z</time>
      </trkpt>
      <trkpt lat="45.91543" lon="4.71799">
        <ele>174</ele>
        <time>2017-07-13T15:05:10Z</time>
      </trkpt>
      <trkpt lat="45.91545" lon="4.71794">
        <ele>174</ele>
        <time>2017-07-13T15:05:11Z</time>
      </trkpt>
      <trkpt lat="45.91549" lon="4.71787">
        <ele>174</ele>
        <time>2017-07-13T15:05:13Z</time>
      </trkpt>
      <trkpt lat="45.91552" lon="4.71782">
        <ele>174</ele>
        <time>2017-07-13T15:05:14Z</time>
      </trkpt>
      <trkpt lat="45.91558" lon="4.71775">
        <ele>174</ele>
        <time>2017-07-13T15:05:16Z</time>
      </trkpt>
      <trkpt lat="45.91562" lon="4.7177">
        <ele>174</ele>
        <time>2017-07-13T15:05:17Z</time>
      </trkpt>
      <trkpt lat="45.91565" lon="4.71766">
        <ele>174</ele>
        <time>2017-07-13T15:05:18Z</time>
      </trkpt>
      <trkpt lat="45.91569" lon="4.71762">
        <ele>174</ele>
        <time>2017-07-13T15:05:19Z</time>
      </trkpt>
      <trkpt lat="45.91575" lon="4.71754">
        <ele>174</ele>
        <time>2017-07-13T15:05:21Z</time>
      </trkpt>
      <trkpt lat="45.91579" lon="4.7175">
        <ele>174</ele>
        <time>2017-07-13T15:05:22Z</time>
      </trkpt>
      <trkpt lat="45.91586" lon="4.71743">
        <ele>174</ele>
        <time>2017-07-13T15:05:24Z</time>
      </trkpt>
      <trkpt lat="45.9159" lon="4.71741">
        <ele>174</ele>
        <time>2017-07-13T15:05:25Z</time>
      </trkpt>
      <trkpt lat="45.91597" lon="4.71736">
        <ele>173</ele>
        <time>2017-07-13T15:05:27Z</time>
      </trkpt>
      <trkpt lat="45.916" lon="4.71734">
        <ele>173</ele>
        <time>2017-07-13T15:05:28Z</time>
      </trkpt>
      <trkpt lat="45.91607" lon="4.71731">
        <ele>173</ele>
        <time>2017-07-13T15:05:30Z</time>
      </trkpt>
      <trkpt lat="45.91611" lon="4.7173">
        <ele>173</ele>
        <time>2017-07-13T15:05:31Z</time>
      </trkpt>
      <trkpt lat="45.91618" lon="4.71726">
        <ele>173</ele>
        <time>2017-07-13T15:05:33Z</time>
      </trkpt>
      <trkpt lat="45.91622" lon="4.71725">
        <ele>173</ele>
        <time>2017-07-13T15:05:34Z</time>
      </trkpt>
      <trkpt lat="45.91628" lon="4.71722">
        <ele>173</ele>
        <time>2017-07-13T15:05:36Z</time>
      </trkpt>
      <trkpt lat="45.91631" lon="4.71722">
        <ele>173</ele>
        <time>2017-07-13T15:05:37Z</time>
      </trkpt>
      <trkpt lat="45.91635" lon="4.71728">
        <ele>173</ele>
        <time>2017-07-13T15:05:39Z</time>
      </trkpt>
      <trkpt lat="45.91636" lon="4.71734">
        <ele>173</ele>
        <time>2017-07-13T15:05:40Z</time>
      </trkpt>
      <trkpt lat="45.91638" lon="4.7174">
        <ele>173</ele>
        <time>2017-07-13T15:05:41Z</time>
      </trkpt>
      <trkpt lat="45.9164" lon="4.71746">
        <ele>173</ele>
        <time>2017-07-13T15:05:42Z</time>
      </trkpt>
      <trkpt lat="45.91642" lon="4.71752">
        <ele>173</ele>
        <time>2017-07-13T15:05:43Z</time>
      </trkpt>
      <trkpt lat="45.91645" lon="4.71757">
        <ele>173</ele>
        <time>2017-07-13T15:05:44Z</time>
      </trkpt>
      <trkpt lat="45.91648" lon="4.71762">
        <ele>173</ele>
        <time>2017-07-13T15:05:45Z</time>
      </trkpt>
      <trkpt lat="45.91652" lon="4.71766">
        <ele>173</ele>
        <time>2017-07-13T15:05:46Z</time>
      </trkpt>
      <trkpt lat="45.91657" lon="4.71769">
        <ele>173</ele>
        <time>2017-07-13T15:05:47Z</time>
      </trkpt>
      <trkpt lat="45.91661" lon="4.71771">
        <ele>173</ele>
        <time>2017-07-13T15:05:48Z</time>
      </trkpt>
      <trkpt lat="45.9167" lon="4.71774">
        <ele>173</ele>
        <time>2017-07-13T15:05:50Z</time>
      </trkpt>
      <trkpt lat="45.91674" lon="4.71775">
        <ele>173</ele>
        <time>2017-07-13T15:05:51Z</time>
      </trkpt>
      <trkpt lat="45.91682" lon="4.71776">
        <ele>173</ele>
        <time>2017-07-13T15:05:53Z</time>
      </trkpt>
      <trkpt lat="45.91686" lon="4.71776">
        <ele>173</ele>
        <time>2017-07-13T15:05:54Z</time>
      </trkpt>
      <trkpt lat="45.91693" lon="4.71777">
        <ele>173</ele>
        <time>2017-07-13T15:05:56Z</time>
      </trkpt>
      <trkpt lat="45.91696" lon="4.71777">
        <ele>173</ele>
        <time>2017-07-13T15:05:57Z</time>
      </trkpt>
      <trkpt lat="45.91704" lon="4.71776">
        <ele>173</ele>
        <time>2017-07-13T15:05:59Z</time>
      </trkpt>
      <trkpt lat="45.91708" lon="4.71777">
        <ele>173</ele>
        <time>2017-07-13T15:06:00Z</time>
      </trkpt>
      <trkpt lat="45.91716" lon="4.71777">
        <ele>173</ele>
        <time>2017-07-13T15:06:02Z</time>
      </trkpt>
      <trkpt lat="45.9172" lon="4.71777">
        <ele>173</ele>
        <time>2017-07-13T15:06:03Z</time>
      </trkpt>
      <trkpt lat="45.91728" lon="4.71778">
        <ele>173</ele>
        <time>2017-07-13T15:06:05Z</time>
      </trkpt>
      <trkpt lat="45.91732" lon="4.71778">
        <ele>173</ele>
        <time>2017-07-13T15:06:06Z</time>
      </trkpt>
      <trkpt lat="45.91739" lon="4.71779">
        <ele>173</ele>
        <time>2017-07-13T15:06:08Z</time>
      </trkpt>
      <trkpt lat="45.91742" lon="4.71779">
        <ele>173</ele>
        <time>2017-07-13T15:06:09Z</time>
      </trkpt>
      <trkpt lat="45.91748" lon="4.7178">
        <ele>173</ele>
        <time>2017-07-13T15:06:11Z</time>
      </trkpt>
      <trkpt lat="45.91752" lon="4.71782">
        <ele>173</ele>
        <time>2017-07-13T15:06:12Z</time>
      </trkpt>
      <trkpt lat="45.91759" lon="4.71783">
        <ele>173</ele>
        <time>2017-07-13T15:06:14Z</time>
      </trkpt>
      <trkpt lat="45.91763" lon="4.71783">
        <ele>173</ele>
        <time>2017-07-13T15:06:15Z</time>
      </trkpt>
      <trkpt lat="45.91772" lon="4.71783">
        <ele>173</ele>
        <time>2017-07-13T15:06:17Z</time>
      </trkpt>
      <trkpt lat="45.91776" lon="4.71783">
        <ele>173</ele>
        <time>2017-07-13T15:06:18Z</time>
      </trkpt>
      <trkpt lat="45.91781" lon="4.71783">
        <ele>173</ele>
        <time>2017-07-13T15:06:19Z</time>
      </trkpt>
      <trkpt lat="45.91785" lon="4.71783">
        <ele>173</ele>
        <time>2017-07-13T15:06:20Z</time>
      </trkpt>
      <trkpt lat="45.91793" lon="4.71782">
        <ele>172</ele>
        <time>2017-07-13T15:06:22Z</time>
      </trkpt>
      <trkpt lat="45.91796" lon="4.71782">
        <ele>172</ele>
        <time>2017-07-13T15:06:23Z</time>
      </trkpt>
      <trkpt lat="45.91803" lon="4.71782">
        <ele>172</ele>
        <time>2017-07-13T15:06:25Z</time>
      </trkpt>
      <trkpt lat="45.91807" lon="4.71782">
        <ele>172</ele>
        <time>2017-07-13T15:06:26Z</time>
      </trkpt>
      <trkpt lat="45.91815" lon="4.71782">
        <ele>172</ele>
        <time>2017-07-13T15:06:28Z</time>
      </trkpt>
      <trkpt lat="45.91819" lon="4.71782">
        <ele>172</ele>
        <time>2017-07-13T15:06:29Z</time>
      </trkpt>
      <trkpt lat="45.91828" lon="4.71781">
        <ele>172</ele>
        <time>2017-07-13T15:06:31Z</time>
      </trkpt>
      <trkpt lat="45.91833" lon="4.71781">
        <ele>172</ele>
        <time>2017-07-13T15:06:32Z</time>
      </trkpt>
      <trkpt lat="45.91837" lon="4.7178">
        <ele>172</ele>
        <time>2017-07-13T15:06:33Z</time>
      </trkpt>
      <trkpt lat="45.91842" lon="4.71779">
        <ele>172</ele>
        <time>2017-07-13T15:06:34Z</time>
      </trkpt>
      <trkpt lat="45.9185" lon="4.71778">
        <ele>172</ele>
        <time>2017-07-13T15:06:36Z</time>
      </trkpt>
      <trkpt lat="45.91854" lon="4.71777">
        <ele>172</ele>
        <time>2017-07-13T15:06:37Z</time>
      </trkpt>
      <trkpt lat="45.91861" lon="4.71776">
        <ele>172</ele>
        <time>2017-07-13T15:06:39Z</time>
      </trkpt>
      <trkpt lat="45.91865" lon="4.71776">
        <ele>172</ele>
        <time>2017-07-13T15:06:40Z</time>
      </trkpt>
      <trkpt lat="45.91872" lon="4.71776">
        <ele>172</ele>
        <time>2017-07-13T15:06:42Z</time>
      </trkpt>
      <trkpt lat="45.91876" lon="4.71777">
        <ele>172</ele>
        <time>2017-07-13T15:06:43Z</time>
      </trkpt>
      <trkpt lat="45.91884" lon="4.71778">
        <ele>172</ele>
        <time>2017-07-13T15:06:45Z</time>
      </trkpt>
      <trkpt lat="45.91888" lon="4.71778">
        <ele>172</ele>
        <time>2017-07-13T15:06:46Z</time>
      </trkpt>
      <trkpt lat="45.91896" lon="4.71779">
        <ele>172</ele>
        <time>2017-07-13T15:06:48Z</time>
      </trkpt>
      <trkpt lat="45.91899" lon="4.71779">
        <ele>172</ele>
        <time>2017-07-13T15:06:49Z</time>
      </trkpt>
      <trkpt lat="45.91907" lon="4.71781">
        <ele>172</ele>
        <time>2017-07-13T15:06:51Z</time>
      </trkpt>
      <trkpt lat="45.91911" lon="4.71783">
        <ele>172</ele>
        <time>2017-07-13T15:06:52Z</time>
      </trkpt>
      <trkpt lat="45.91916" lon="4.71784">
        <ele>172</ele>
        <time>2017-07-13T15:06:53Z</time>
      </trkpt>
      <trkpt lat="45.9192" lon="4.71785">
        <ele>172</ele>
        <time>2017-07-13T15:06:54Z</time>
      </trkpt>
      <trkpt lat="45.91925" lon="4.71786">
        <ele>172</ele>
        <time>2017-07-13T15:06:55Z</time>
      </trkpt>
      <trkpt lat="45.9193" lon="4.71788">
        <ele>173</ele>
        <time>2017-07-13T15:06:56Z</time>
      </trkpt>
      <trkpt lat="45.91935" lon="4.71788">
        <ele>173</ele>
        <time>2017-07-13T15:06:57Z</time>
      </trkpt>
      <trkpt lat="45.91939" lon="4.71789">
        <ele>173</ele>
        <time>2017-07-13T15:06:58Z</time>
      </trkpt>
      <trkpt lat="45.91947" lon="4.7179">
        <ele>173</ele>
        <time>2017-07-13T15:07:00Z</time>
      </trkpt>
      <trkpt lat="45.91951" lon="4.7179">
        <ele>173</ele>
        <time>2017-07-13T15:07:01Z</time>
      </trkpt>
      <trkpt lat="45.91958" lon="4.7179">
        <ele>173</ele>
        <time>2017-07-13T15:07:03Z</time>
      </trkpt>
      <trkpt lat="45.91962" lon="4.7179">
        <ele>173</ele>
        <time>2017-07-13T15:07:04Z</time>
      </trkpt>
      <trkpt lat="45.91968" lon="4.7179">
        <ele>173</ele>
        <time>2017-07-13T15:07:06Z</time>
      </trkpt>
      <trkpt lat="45.91971" lon="4.7179">
        <ele>173</ele>
        <time>2017-07-13T15:07:07Z</time>
      </trkpt>
      <trkpt lat="45.91979" lon="4.71789">
        <ele>173</ele>
        <time>2017-07-13T15:07:09Z</time>
      </trkpt>
      <trkpt lat="45.91983" lon="4.71789">
        <ele>173</ele>
        <time>2017-07-13T15:07:10Z</time>
      </trkpt>
      <trkpt lat="45.91991" lon="4.71791">
        <ele>173</ele>
        <time>2017-07-13T15:07:12Z</time>
      </trkpt>
      <trkpt lat="45.91996" lon="4.71792">
        <ele>173</ele>
        <time>2017-07-13T15:07:13Z</time>
      </trkpt>
      <trkpt lat="45.92003" lon="4.71791">
        <ele>173</ele>
        <time>2017-07-13T15:07:15Z</time>
      </trkpt>
      <trkpt lat="45.92007" lon="4.71791">
        <ele>173</ele>
        <time>2017-07-13T15:07:16Z</time>
      </trkpt>
      <trkpt lat="45.92014" lon="4.7179">
        <ele>173</ele>
        <time>2017-07-13T15:07:18Z</time>
      </trkpt>
      <trkpt lat="45.92018" lon="4.7179">
        <ele>173</ele>
        <time>2017-07-13T15:07:19Z</time>
      </trkpt>
      <trkpt lat="45.92024" lon="4.7179">
        <ele>173</ele>
        <time>2017-07-13T15:07:21Z</time>
      </trkpt>
      <trkpt lat="45.92027" lon="4.71789">
        <ele>173</ele>
        <time>2017-07-13T15:07:22Z</time>
      </trkpt>
      <trkpt lat="45.92034" lon="4.7179">
        <ele>173</ele>
        <time>2017-07-13T15:07:24Z</time>
      </trkpt>
      <trkpt lat="45.92037" lon="4.71791">
        <ele>173</ele>
        <time>2017-07-13T15:07:25Z</time>
      </trkpt>
      <trkpt lat="45.92044" lon="4.71791">
        <ele>173</ele>
        <time>2017-07-13T15:07:27Z</time>
      </trkpt>
      <trkpt lat="45.92046" lon="4.71788">
        <ele>173</ele>
        <time>2017-07-13T15:07:28Z</time>
      </trkpt>
      <trkpt lat="45.9205" lon="4.71781">
        <ele>173</ele>
        <time>2017-07-13T15:07:30Z</time>
      </trkpt>
      <trkpt lat="45.92051" lon="4.71776">
        <ele>173</ele>
        <time>2017-07-13T15:07:31Z</time>
      </trkpt>
      <trkpt lat="45.92052" lon="4.71769">
        <ele>173</ele>
        <time>2017-07-13T15:07:32Z</time>
      </trkpt>
      <trkpt lat="45.92053" lon="4.71762">
        <ele>173</ele>
        <time>2017-07-13T15:07:33Z</time>
      </trkpt>
      <trkpt lat="45.92054" lon="4.71755">
        <ele>173</ele>
        <time>2017-07-13T15:07:34Z</time>
      </trkpt>
      <trkpt lat="45.92055" lon="4.71748">
        <ele>173</ele>
        <time>2017-07-13T15:07:35Z</time>
      </trkpt>
      <trkpt lat="45.92056" lon="4.71741">
        <ele>173</ele>
        <time>2017-07-13T15:07:36Z</time>
      </trkpt>
      <trkpt lat="45.92056" lon="4.71734">
        <ele>173</ele>
        <time>2017-07-13T15:07:37Z</time>
      </trkpt>
      <trkpt lat="45.92058" lon="4.71722">
        <ele>173</ele>
        <time>2017-07-13T15:07:39Z</time>
      </trkpt>
      <trkpt lat="45.92058" lon="4.71716">
        <ele>173</ele>
        <time>2017-07-13T15:07:40Z</time>
      </trkpt>
      <trkpt lat="45.92061" lon="4.71706">
        <ele>173</ele>
        <time>2017-07-13T15:07:42Z</time>
      </trkpt>
      <trkpt lat="45.92062" lon="4.717">
        <ele>173</ele>
        <time>2017-07-13T15:07:43Z</time>
      </trkpt>
      <trkpt lat="45.92063" lon="4.71693">
        <ele>173</ele>
        <time>2017-07-13T15:07:44Z</time>
      </trkpt>
      <trkpt lat="45.92064" lon="4.71686">
        <ele>173</ele>
        <time>2017-07-13T15:07:45Z</time>
      </trkpt>
      <trkpt lat="45.92065" lon="4.71679">
        <ele>173</ele>
        <time>2017-07-13T15:07:46Z</time>
      </trkpt>
      <trkpt lat="45.92066" lon="4.71672">
        <ele>173</ele>
        <time>2017-07-13T15:07:47Z</time>
      </trkpt>
      <trkpt lat="45.92067" lon="4.71664">
        <ele>172</ele>
        <time>2017-07-13T15:07:48Z</time>
      </trkpt>
      <trkpt lat="45.92069" lon="4.71655">
        <ele>172</ele>
        <time>2017-07-13T15:07:49Z</time>
      </trkpt>
      <trkpt lat="45.9207" lon="4.71648">
        <ele>172</ele>
        <time>2017-07-13T15:07:50Z</time>
      </trkpt>
      <trkpt lat="45.92072" lon="4.7164">
        <ele>172</ele>
        <time>2017-07-13T15:07:51Z</time>
      </trkpt>
      <trkpt lat="45.92073" lon="4.71633">
        <ele>172</ele>
        <time>2017-07-13T15:07:52Z</time>
      </trkpt>
      <trkpt lat="45.92074" lon="4.71626">
        <ele>173</ele>
        <time>2017-07-13T15:07:53Z</time>
      </trkpt>
      <trkpt lat="45.92075" lon="4.71619">
        <ele>172</ele>
        <time>2017-07-13T15:07:54Z</time>
      </trkpt>
      <trkpt lat="45.92076" lon="4.71613">
        <ele>172</ele>
        <time>2017-07-13T15:07:55Z</time>
      </trkpt>
      <trkpt lat="45.92077" lon="4.71606">
        <ele>172</ele>
        <time>2017-07-13T15:07:56Z</time>
      </trkpt>
      <trkpt lat="45.92078" lon="4.716">
        <ele>172</ele>
        <time>2017-07-13T15:07:57Z</time>
      </trkpt>
      <trkpt lat="45.9208" lon="4.71588">
        <ele>172</ele>
        <time>2017-07-13T15:07:59Z</time>
      </trkpt>
      <trkpt lat="45.92081" lon="4.71581">
        <ele>172</ele>
        <time>2017-07-13T15:08:00Z</time>
      </trkpt>
      <trkpt lat="45.92083" lon="4.71575">
        <ele>173</ele>
        <time>2017-07-13T15:08:01Z</time>
      </trkpt>
      <trkpt lat="45.92084" lon="4.71568">
        <ele>173</ele>
        <time>2017-07-13T15:08:02Z</time>
      </trkpt>
      <trkpt lat="45.92085" lon="4.7156">
        <ele>173</ele>
        <time>2017-07-13T15:08:03Z</time>
      </trkpt>
      <trkpt lat="45.92086" lon="4.71553">
        <ele>173</ele>
        <time>2017-07-13T15:08:04Z</time>
      </trkpt>
      <trkpt lat="45.92087" lon="4.71545">
        <ele>173</ele>
        <time>2017-07-13T15:08:05Z</time>
      </trkpt>
      <trkpt lat="45.92088" lon="4.71537">
        <ele>173</ele>
        <time>2017-07-13T15:08:06Z</time>
      </trkpt>
      <trkpt lat="45.92089" lon="4.71529">
        <ele>174</ele>
        <time>2017-07-13T15:08:07Z</time>
      </trkpt>
      <trkpt lat="45.9209" lon="4.71522">
        <ele>174</ele>
        <time>2017-07-13T15:08:08Z</time>
      </trkpt>
      <trkpt lat="45.92092" lon="4.71515">
        <ele>174</ele>
        <time>2017-07-13T15:08:09Z</time>
      </trkpt>
      <trkpt lat="45.92093" lon="4.71508">
        <ele>174</ele>
        <time>2017-07-13T15:08:10Z</time>
      </trkpt>
      <trkpt lat="45.92095" lon="4.71496">
        <ele>174</ele>
        <time>2017-07-13T15:08:12Z</time>
      </trkpt>
      <trkpt lat="45.92097" lon="4.7149">
        <ele>174</ele>
        <time>2017-07-13T15:08:13Z</time>
      </trkpt>
      <trkpt lat="45.92098" lon="4.71479">
        <ele>174</ele>
        <time>2017-07-13T15:08:15Z</time>
      </trkpt>
      <trkpt lat="45.92099" lon="4.71474">
        <ele>174</ele>
        <time>2017-07-13T15:08:16Z</time>
      </trkpt>
      <trkpt lat="45.92101" lon="4.71462">
        <ele>174</ele>
        <time>2017-07-13T15:08:18Z</time>
      </trkpt>
      <trkpt lat="45.92103" lon="4.71456">
        <ele>174</ele>
        <time>2017-07-13T15:08:19Z</time>
      </trkpt>
      <trkpt lat="45.92105" lon="4.7145">
        <ele>174</ele>
        <time>2017-07-13T15:08:20Z</time>
      </trkpt>
      <trkpt lat="45.92107" lon="4.71444">
        <ele>174</ele>
        <time>2017-07-13T15:08:21Z</time>
      </trkpt>
      <trkpt lat="45.92108" lon="4.71437">
        <ele>174</ele>
        <time>2017-07-13T15:08:22Z</time>
      </trkpt>
      <trkpt lat="45.92109" lon="4.71429">
        <ele>174</ele>
        <time>2017-07-13T15:08:23Z</time>
      </trkpt>
      <trkpt lat="45.92111" lon="4.71421">
        <ele>174</ele>
        <time>2017-07-13T15:08:24Z</time>
      </trkpt>
      <trkpt lat="45.92112" lon="4.71413">
        <ele>173</ele>
        <time>2017-07-13T15:08:25Z</time>
      </trkpt>
      <trkpt lat="45.92112" lon="4.71404">
        <ele>173</ele>
        <time>2017-07-13T15:08:26Z</time>
      </trkpt>
      <trkpt lat="45.92113" lon="4.71396">
        <ele>173</ele>
        <time>2017-07-13T15:08:27Z</time>
      </trkpt>
      <trkpt lat="45.92114" lon="4.71388">
        <ele>173</ele>
        <time>2017-07-13T15:08:28Z</time>
      </trkpt>
      <trkpt lat="45.92115" lon="4.7138">
        <ele>173</ele>
        <time>2017-07-13T15:08:29Z</time>
      </trkpt>
      <trkpt lat="45.92116" lon="4.71373">
        <ele>173</ele>
        <time>2017-07-13T15:08:30Z</time>
      </trkpt>
      <trkpt lat="45.92117" lon="4.71365">
        <ele>173</ele>
        <time>2017-07-13T15:08:31Z</time>
      </trkpt>
      <trkpt lat="45.92118" lon="4.71358">
        <ele>173</ele>
        <time>2017-07-13T15:08:32Z</time>
      </trkpt>
      <trkpt lat="45.92118" lon="4.71352">
        <ele>173</ele>
        <time>2017-07-13T15:08:33Z</time>
      </trkpt>
      <trkpt lat="45.9212" lon="4.71339">
        <ele>173</ele>
        <time>2017-07-13T15:08:35Z</time>
      </trkpt>
      <trkpt lat="45.92121" lon="4.71333">
        <ele>174</ele>
        <time>2017-07-13T15:08:36Z</time>
      </trkpt>
      <trkpt lat="45.92121" lon="4.71321">
        <ele>174</ele>
        <time>2017-07-13T15:08:38Z</time>
      </trkpt>
      <trkpt lat="45.92122" lon="4.71314">
        <ele>174</ele>
        <time>2017-07-13T15:08:39Z</time>
      </trkpt>
      <trkpt lat="45.92123" lon="4.71307">
        <ele>174</ele>
        <time>2017-07-13T15:08:40Z</time>
      </trkpt>
      <trkpt lat="45.92123" lon="4.71301">
        <ele>174</ele>
        <time>2017-07-13T15:08:41Z</time>
      </trkpt>
      <trkpt lat="45.92124" lon="4.71294">
        <ele>174</ele>
        <time>2017-07-13T15:08:42Z</time>
      </trkpt>
      <trkpt lat="45.92125" lon="4.71287">
        <ele>174</ele>
        <time>2017-07-13T15:08:43Z</time>
      </trkpt>
      <trkpt lat="45.92126" lon="4.71279">
        <ele>173</ele>
        <time>2017-07-13T15:08:44Z</time>
      </trkpt>
      <trkpt lat="45.92126" lon="4.71273">
        <ele>173</ele>
        <time>2017-07-13T15:08:45Z</time>
      </trkpt>
      <trkpt lat="45.92126" lon="4.71265">
        <ele>173</ele>
        <time>2017-07-13T15:08:46Z</time>
      </trkpt>
      <trkpt lat="45.92126" lon="4.71258">
        <ele>173</ele>
        <time>2017-07-13T15:08:47Z</time>
      </trkpt>
      <trkpt lat="45.92127" lon="4.71251">
        <ele>173</ele>
        <time>2017-07-13T15:08:48Z</time>
      </trkpt>
      <trkpt lat="45.92128" lon="4.71243">
        <ele>175</ele>
        <time>2017-07-13T15:08:49Z</time>
      </trkpt>
      <trkpt lat="45.92129" lon="4.71236">
        <ele>175</ele>
        <time>2017-07-13T15:08:50Z</time>
      </trkpt>
      <trkpt lat="45.92129" lon="4.71229">
        <ele>175</ele>
        <time>2017-07-13T15:08:51Z</time>
      </trkpt>
      <trkpt lat="45.92129" lon="4.71222">
        <ele>175</ele>
        <time>2017-07-13T15:08:52Z</time>
      </trkpt>
      <trkpt lat="45.9213" lon="4.71215">
        <ele>175</ele>
        <time>2017-07-13T15:08:53Z</time>
      </trkpt>
      <trkpt lat="45.92132" lon="4.71204">
        <ele>175</ele>
        <time>2017-07-13T15:08:55Z</time>
      </trkpt>
      <trkpt lat="45.92133" lon="4.712">
        <ele>175</ele>
        <time>2017-07-13T15:08:56Z</time>
      </trkpt>
      <trkpt lat="45.92135" lon="4.7119">
        <ele>176</ele>
        <time>2017-07-13T15:08:58Z</time>
      </trkpt>
      <trkpt lat="45.92136" lon="4.71185">
        <ele>176</ele>
        <time>2017-07-13T15:08:59Z</time>
      </trkpt>
      <trkpt lat="45.92137" lon="4.71174">
        <ele>176</ele>
        <time>2017-07-13T15:09:01Z</time>
      </trkpt>
      <trkpt lat="45.92138" lon="4.71169">
        <ele>176</ele>
        <time>2017-07-13T15:09:02Z</time>
      </trkpt>
      <trkpt lat="45.92139" lon="4.71159">
        <ele>178</ele>
        <time>2017-07-13T15:09:04Z</time>
      </trkpt>
      <trkpt lat="45.92139" lon="4.71154">
        <ele>178</ele>
        <time>2017-07-13T15:09:05Z</time>
      </trkpt>
      <trkpt lat="45.9214" lon="4.71143">
        <ele>178</ele>
        <time>2017-07-13T15:09:07Z</time>
      </trkpt>
      <trkpt lat="45.92141" lon="4.71138">
        <ele>178</ele>
        <time>2017-07-13T15:09:08Z</time>
      </trkpt>
      <trkpt lat="45.92143" lon="4.71128">
        <ele>178</ele>
        <time>2017-07-13T15:09:10Z</time>
      </trkpt>
      <trkpt lat="45.92144" lon="4.71123">
        <ele>178</ele>
        <time>2017-07-13T15:09:11Z</time>
      </trkpt>
      <trkpt lat="45.92147" lon="4.71112">
        <ele>179</ele>
        <time>2017-07-13T15:09:13Z</time>
      </trkpt>
      <trkpt lat="45.92148" lon="4.71107">
        <ele>179</ele>
        <time>2017-07-13T15:09:14Z</time>
      </trkpt>
      <trkpt lat="45.9215" lon="4.71096">
        <ele>179</ele>
        <time>2017-07-13T15:09:16Z</time>
      </trkpt>
      <trkpt lat="45.92151" lon="4.71091">
        <ele>179</ele>
        <time>2017-07-13T15:09:17Z</time>
      </trkpt>
      <trkpt lat="45.92153" lon="4.71079">
        <ele>180</ele>
        <time>2017-07-13T15:09:19Z</time>
      </trkpt>
      <trkpt lat="45.92153" lon="4.71074">
        <ele>181</ele>
        <time>2017-07-13T15:09:20Z</time>
      </trkpt>
      <trkpt lat="45.92154" lon="4.71068">
        <ele>181</ele>
        <time>2017-07-13T15:09:21Z</time>
      </trkpt>
      <trkpt lat="45.92156" lon="4.71061">
        <ele>181</ele>
        <time>2017-07-13T15:09:22Z</time>
      </trkpt>
      <trkpt lat="45.92156" lon="4.71051">
        <ele>181</ele>
        <time>2017-07-13T15:09:24Z</time>
      </trkpt>
      <trkpt lat="45.92157" lon="4.71046">
        <ele>181</ele>
        <time>2017-07-13T15:09:25Z</time>
      </trkpt>
      <trkpt lat="45.9216" lon="4.71036">
        <ele>181</ele>
        <time>2017-07-13T15:09:27Z</time>
      </trkpt>
      <trkpt lat="45.9216" lon="4.71032">
        <ele>181</ele>
        <time>2017-07-13T15:09:28Z</time>
      </trkpt>
      <trkpt lat="45.92162" lon="4.71022">
        <ele>181</ele>
        <time>2017-07-13T15:09:30Z</time>
      </trkpt>
      <trkpt lat="45.92164" lon="4.71018">
        <ele>181</ele>
        <time>2017-07-13T15:09:31Z</time>
      </trkpt>
      <trkpt lat="45.92173" lon="4.71017">
        <ele>181</ele>
        <time>2017-07-13T15:09:35Z</time>
      </trkpt>
      <trkpt lat="45.92176" lon="4.71018">
        <ele>181</ele>
        <time>2017-07-13T15:09:36Z</time>
      </trkpt>
      <trkpt lat="45.92182" lon="4.71019">
        <ele>181</ele>
        <time>2017-07-13T15:09:38Z</time>
      </trkpt>
      <trkpt lat="45.92185" lon="4.7102">
        <ele>181</ele>
        <time>2017-07-13T15:09:39Z</time>
      </trkpt>
      <trkpt lat="45.92193" lon="4.71024">
        <ele>181</ele>
        <time>2017-07-13T15:09:42Z</time>
      </trkpt>
      <trkpt lat="45.92195" lon="4.71025">
        <ele>181</ele>
        <time>2017-07-13T15:09:43Z</time>
      </trkpt>
      <trkpt lat="45.92202" lon="4.71029">
        <ele>181</ele>
        <time>2017-07-13T15:09:46Z</time>
      </trkpt>
      <trkpt lat="45.92204" lon="4.7103">
        <ele>182</ele>
        <time>2017-07-13T15:09:47Z</time>
      </trkpt>
      <trkpt lat="45.92208" lon="4.71034">
        <ele>182</ele>
        <time>2017-07-13T15:09:50Z</time>
      </trkpt>
      <trkpt lat="45.92208" lon="4.71034">
        <ele>182</ele>
        <time>2017-07-13T15:09:51Z</time>
      </trkpt>
      <trkpt lat="45.92209" lon="4.7103">
        <ele>182</ele>
        <time>2017-07-13T15:15:28Z</time>
      </trkpt>
      <trkpt lat="45.92211" lon="4.71028">
        <ele>182</ele>
        <time>2017-07-13T15:15:29Z</time>
      </trkpt>
      <trkpt lat="45.92216" lon="4.71032">
        <ele>182</ele>
        <time>2017-07-13T15:15:32Z</time>
      </trkpt>
      <trkpt lat="45.92219" lon="4.71034">
        <ele>182</ele>
        <time>2017-07-13T15:15:33Z</time>
      </trkpt>
      <trkpt lat="45.92228" lon="4.71036">
        <ele>182</ele>
        <time>2017-07-13T15:15:37Z</time>
      </trkpt>
      <trkpt lat="45.92229" lon="4.71036">
        <ele>182</ele>
        <time>2017-07-13T15:15:38Z</time>
      </trkpt>
      <trkpt lat="45.92236" lon="4.71041">
        <ele>182</ele>
        <time>2017-07-13T15:15:42Z</time>
      </trkpt>
      <trkpt lat="45.92237" lon="4.71042">
        <ele>182</ele>
        <time>2017-07-13T15:15:43Z</time>
      </trkpt>
      <trkpt lat="45.92244" lon="4.71045">
        <ele>182</ele>
        <time>2017-07-13T15:15:47Z</time>
      </trkpt>
      <trkpt lat="45.92247" lon="4.71047">
        <ele>182</ele>
        <time>2017-07-13T15:15:48Z</time>
      </trkpt>
      <trkpt lat="45.92255" lon="4.71052">
        <ele>183</ele>
        <time>2017-07-13T15:15:51Z</time>
      </trkpt>
      <trkpt lat="45.92258" lon="4.71053">
        <ele>183</ele>
        <time>2017-07-13T15:15:52Z</time>
      </trkpt>
      <trkpt lat="45.92266" lon="4.71057">
        <ele>183</ele>
        <time>2017-07-13T15:15:55Z</time>
      </trkpt>
      <trkpt lat="45.92269" lon="4.71059">
        <ele>183</ele>
        <time>2017-07-13T15:15:56Z</time>
      </trkpt>
      <trkpt lat="45.92275" lon="4.71061">
        <ele>183</ele>
        <time>2017-07-13T15:15:58Z</time>
      </trkpt>
      <trkpt lat="45.92278" lon="4.71063">
        <ele>183</ele>
        <time>2017-07-13T15:15:59Z</time>
      </trkpt>
      <trkpt lat="45.92283" lon="4.71066">
        <ele>183</ele>
        <time>2017-07-13T15:16:01Z</time>
      </trkpt>
      <trkpt lat="45.92286" lon="4.71067">
        <ele>183</ele>
        <time>2017-07-13T15:16:02Z</time>
      </trkpt>
      <trkpt lat="45.92292" lon="4.71069">
        <ele>183</ele>
        <time>2017-07-13T15:16:04Z</time>
      </trkpt>
      <trkpt lat="45.92295" lon="4.7107">
        <ele>183</ele>
        <time>2017-07-13T15:16:05Z</time>
      </trkpt>
      <trkpt lat="45.92302" lon="4.71073">
        <ele>183</ele>
        <time>2017-07-13T15:16:07Z</time>
      </trkpt>
      <trkpt lat="45.92305" lon="4.71074">
        <ele>184</ele>
        <time>2017-07-13T15:16:08Z</time>
      </trkpt>
      <trkpt lat="45.92313" lon="4.71079">
        <ele>184</ele>
        <time>2017-07-13T15:16:11Z</time>
      </trkpt>
      <trkpt lat="45.92316" lon="4.71081">
        <ele>184</ele>
        <time>2017-07-13T15:16:12Z</time>
      </trkpt>
      <trkpt lat="45.92323" lon="4.71084">
        <ele>183</ele>
        <time>2017-07-13T15:16:15Z</time>
      </trkpt>
      <trkpt lat="45.92325" lon="4.71085">
        <ele>183</ele>
        <time>2017-07-13T15:16:16Z</time>
      </trkpt>
      <trkpt lat="45.92332" lon="4.71088">
        <ele>183</ele>
        <time>2017-07-13T15:16:19Z</time>
      </trkpt>
      <trkpt lat="45.92335" lon="4.71089">
        <ele>184</ele>
        <time>2017-07-13T15:16:20Z</time>
      </trkpt>
      <trkpt lat="45.92342" lon="4.71092">
        <ele>184</ele>
        <time>2017-07-13T15:16:23Z</time>
      </trkpt>
      <trkpt lat="45.92344" lon="4.71093">
        <ele>184</ele>
        <time>2017-07-13T15:16:24Z</time>
      </trkpt>
      <trkpt lat="45.92352" lon="4.71097">
        <ele>184</ele>
        <time>2017-07-13T15:16:27Z</time>
      </trkpt>
      <trkpt lat="45.92355" lon="4.71098">
        <ele>184</ele>
        <time>2017-07-13T15:16:28Z</time>
      </trkpt>
      <trkpt lat="45.92363" lon="4.71102">
        <ele>184</ele>
        <time>2017-07-13T15:16:31Z</time>
      </trkpt>
      <trkpt lat="45.92366" lon="4.71104">
        <ele>184</ele>
        <time>2017-07-13T15:16:32Z</time>
      </trkpt>
      <trkpt lat="45.92374" lon="4.71108">
        <ele>184</ele>
        <time>2017-07-13T15:16:35Z</time>
      </trkpt>
      <trkpt lat="45.92376" lon="4.7111">
        <ele>184</ele>
        <time>2017-07-13T15:16:36Z</time>
      </trkpt>
      <trkpt lat="45.92384" lon="4.71114">
        <ele>184</ele>
        <time>2017-07-13T15:16:39Z</time>
      </trkpt>
      <trkpt lat="45.92387" lon="4.71116">
        <ele>184</ele>
        <time>2017-07-13T15:16:40Z</time>
      </trkpt>
      <trkpt lat="45.92395" lon="4.71121">
        <ele>184</ele>
        <time>2017-07-13T15:16:43Z</time>
      </trkpt>
      <trkpt lat="45.92397" lon="4.71123">
        <ele>184</ele>
        <time>2017-07-13T15:16:44Z</time>
      </trkpt>
      <trkpt lat="45.92405" lon="4.71128">
        <ele>184</ele>
        <time>2017-07-13T15:16:47Z</time>
      </trkpt>
      <trkpt lat="45.92408" lon="4.7113">
        <ele>184</ele>
        <time>2017-07-13T15:16:48Z</time>
      </trkpt>
      <trkpt lat="45.92414" lon="4.71133">
        <ele>184</ele>
        <time>2017-07-13T15:16:50Z</time>
      </trkpt>
      <trkpt lat="45.92416" lon="4.71135">
        <ele>184</ele>
        <time>2017-07-13T15:16:51Z</time>
      </trkpt>
      <trkpt lat="45.92422" lon="4.71138">
        <ele>186</ele>
        <time>2017-07-13T15:16:53Z</time>
      </trkpt>
      <trkpt lat="45.92425" lon="4.7114">
        <ele>186</ele>
        <time>2017-07-13T15:16:54Z</time>
      </trkpt>
      <trkpt lat="45.9243" lon="4.71144">
        <ele>186</ele>
        <time>2017-07-13T15:16:56Z</time>
      </trkpt>
      <trkpt lat="45.92433" lon="4.71146">
        <ele>185</ele>
        <time>2017-07-13T15:16:57Z</time>
      </trkpt>
      <trkpt lat="45.92438" lon="4.71151">
        <ele>185</ele>
        <time>2017-07-13T15:16:59Z</time>
      </trkpt>
      <trkpt lat="45.92441" lon="4.71154">
        <ele>186</ele>
        <time>2017-07-13T15:17:00Z</time>
      </trkpt>
      <trkpt lat="45.92447" lon="4.71156">
        <ele>186</ele>
        <time>2017-07-13T15:17:02Z</time>
      </trkpt>
      <trkpt lat="45.9245" lon="4.71157">
        <ele>186</ele>
        <time>2017-07-13T15:17:03Z</time>
      </trkpt>
      <trkpt lat="45.92455" lon="4.71162">
        <ele>186</ele>
        <time>2017-07-13T15:17:05Z</time>
      </trkpt>
      <trkpt lat="45.92458" lon="4.71164">
        <ele>186</ele>
        <time>2017-07-13T15:17:06Z</time>
      </trkpt>
      <trkpt lat="45.92465" lon="4.71166">
        <ele>186</ele>
        <time>2017-07-13T15:17:08Z</time>
      </trkpt>
      <trkpt lat="45.92468" lon="4.71167">
        <ele>186</ele>
        <time>2017-07-13T15:17:09Z</time>
      </trkpt>
      <trkpt lat="45.92474" lon="4.7117">
        <ele>184</ele>
        <time>2017-07-13T15:17:11Z</time>
      </trkpt>
      <trkpt lat="45.92477" lon="4.71171">
        <ele>184</ele>
        <time>2017-07-13T15:17:12Z</time>
      </trkpt>
      <trkpt lat="45.92484" lon="4.71172">
        <ele>185</ele>
        <time>2017-07-13T15:17:14Z</time>
      </trkpt>
      <trkpt lat="45.92487" lon="4.71173">
        <ele>185</ele>
        <time>2017-07-13T15:17:15Z</time>
      </trkpt>
      <trkpt lat="45.92494" lon="4.71176">
        <ele>185</ele>
        <time>2017-07-13T15:17:17Z</time>
      </trkpt>
      <trkpt lat="45.92497" lon="4.71177">
        <ele>185</ele>
        <time>2017-07-13T15:17:18Z</time>
      </trkpt>
      <trkpt lat="45.92503" lon="4.71181">
        <ele>186</ele>
        <time>2017-07-13T15:17:20Z</time>
      </trkpt>
      <trkpt lat="45.92506" lon="4.71182">
        <ele>185</ele>
        <time>2017-07-13T15:17:21Z</time>
      </trkpt>
      <trkpt lat="45.92512" lon="4.71184">
        <ele>185</ele>
        <time>2017-07-13T15:17:23Z</time>
      </trkpt>
      <trkpt lat="45.92515" lon="4.71185">
        <ele>185</ele>
        <time>2017-07-13T15:17:24Z</time>
      </trkpt>
      <trkpt lat="45.92522" lon="4.71187">
        <ele>185</ele>
        <time>2017-07-13T15:17:26Z</time>
      </trkpt>
      <trkpt lat="45.92525" lon="4.71189">
        <ele>185</ele>
        <time>2017-07-13T15:17:27Z</time>
      </trkpt>
      <trkpt lat="45.92531" lon="4.71191">
        <ele>185</ele>
        <time>2017-07-13T15:17:29Z</time>
      </trkpt>
      <trkpt lat="45.92534" lon="4.71193">
        <ele>185</ele>
        <time>2017-07-13T15:17:30Z</time>
      </trkpt>
      <trkpt lat="45.92542" lon="4.71196">
        <ele>185</ele>
        <time>2017-07-13T15:17:33Z</time>
      </trkpt>
      <trkpt lat="45.92544" lon="4.71197">
        <ele>185</ele>
        <time>2017-07-13T15:17:34Z</time>
      </trkpt>
      <trkpt lat="45.92552" lon="4.71202">
        <ele>185</ele>
        <time>2017-07-13T15:17:37Z</time>
      </trkpt>
      <trkpt lat="45.92555" lon="4.71204">
        <ele>185</ele>
        <time>2017-07-13T15:17:38Z</time>
      </trkpt>
      <trkpt lat="45.92561" lon="4.71205">
        <ele>185</ele>
        <time>2017-07-13T15:17:40Z</time>
      </trkpt>
      <trkpt lat="45.92564" lon="4.71206">
        <ele>185</ele>
        <time>2017-07-13T15:17:41Z</time>
      </trkpt>
      <trkpt lat="45.92571" lon="4.71208">
        <ele>185</ele>
        <time>2017-07-13T15:17:43Z</time>
      </trkpt>
      <trkpt lat="45.92574" lon="4.71209">
        <ele>185</ele>
        <time>2017-07-13T15:17:44Z</time>
      </trkpt>
      <trkpt lat="45.9258" lon="4.71212">
        <ele>185</ele>
        <time>2017-07-13T15:17:46Z</time>
      </trkpt>
      <trkpt lat="45.92583" lon="4.71213">
        <ele>185</ele>
        <time>2017-07-13T15:17:47Z</time>
      </trkpt>
      <trkpt lat="45.92589" lon="4.71216">
        <ele>186</ele>
        <time>2017-07-13T15:17:49Z</time>
      </trkpt>
      <trkpt lat="45.92592" lon="4.71216">
        <ele>186</ele>
        <time>2017-07-13T15:17:50Z</time>
      </trkpt>
      <trkpt lat="45.92598" lon="4.71219">
        <ele>186</ele>
        <time>2017-07-13T15:17:52Z</time>
      </trkpt>
      <trkpt lat="45.92601" lon="4.7122">
        <ele>186</ele>
        <time>2017-07-13T15:17:53Z</time>
      </trkpt>
      <trkpt lat="45.92606" lon="4.71223">
        <ele>186</ele>
        <time>2017-07-13T15:17:55Z</time>
      </trkpt>
      <trkpt lat="45.9261" lon="4.71224">
        <ele>186</ele>
        <time>2017-07-13T15:17:56Z</time>
      </trkpt>
      <trkpt lat="45.92615" lon="4.71227">
        <ele>186</ele>
        <time>2017-07-13T15:17:58Z</time>
      </trkpt>
      <trkpt lat="45.92618" lon="4.71229">
        <ele>186</ele>
        <time>2017-07-13T15:17:59Z</time>
      </trkpt>
      <trkpt lat="45.92625" lon="4.71236">
        <ele>186</ele>
        <time>2017-07-13T15:18:02Z</time>
      </trkpt>
      <trkpt lat="45.92628" lon="4.71238">
        <ele>186</ele>
        <time>2017-07-13T15:18:03Z</time>
      </trkpt>
      <trkpt lat="45.92636" lon="4.71242">
        <ele>186</ele>
        <time>2017-07-13T15:18:06Z</time>
      </trkpt>
      <trkpt lat="45.92638" lon="4.71244">
        <ele>186</ele>
        <time>2017-07-13T15:18:07Z</time>
      </trkpt>
      <trkpt lat="45.92644" lon="4.71247">
        <ele>187</ele>
        <time>2017-07-13T15:18:09Z</time>
      </trkpt>
      <trkpt lat="45.92647" lon="4.71248">
        <ele>187</ele>
        <time>2017-07-13T15:18:10Z</time>
      </trkpt>
      <trkpt lat="45.92656" lon="4.7125">
        <ele>186</ele>
        <time>2017-07-13T15:18:13Z</time>
      </trkpt>
      <trkpt lat="45.92658" lon="4.71251">
        <ele>186</ele>
        <time>2017-07-13T15:18:14Z</time>
      </trkpt>
      <trkpt lat="45.92667" lon="4.71254">
        <ele>187</ele>
        <time>2017-07-13T15:18:17Z</time>
      </trkpt>
      <trkpt lat="45.92669" lon="4.71255">
        <ele>187</ele>
        <time>2017-07-13T15:18:18Z</time>
      </trkpt>
      <trkpt lat="45.92678" lon="4.71257">
        <ele>187</ele>
        <time>2017-07-13T15:18:22Z</time>
      </trkpt>
      <trkpt lat="45.9268" lon="4.71258">
        <ele>187</ele>
        <time>2017-07-13T15:18:23Z</time>
      </trkpt>
      <trkpt lat="45.92688" lon="4.71262">
        <ele>187</ele>
        <time>2017-07-13T15:18:27Z</time>
      </trkpt>
      <trkpt lat="45.92691" lon="4.71263">
        <ele>187</ele>
        <time>2017-07-13T15:18:28Z</time>
      </trkpt>
      <trkpt lat="45.92698" lon="4.71264">
        <ele>187</ele>
        <time>2017-07-13T15:18:31Z</time>
      </trkpt>
      <trkpt lat="45.927" lon="4.71264">
        <ele>187</ele>
        <time>2017-07-13T15:18:32Z</time>
      </trkpt>
      <trkpt lat="45.92707" lon="4.71267">
        <ele>187</ele>
        <time>2017-07-13T15:18:35Z</time>
      </trkpt>
      <trkpt lat="45.9271" lon="4.71267">
        <ele>187</ele>
        <time>2017-07-13T15:18:36Z</time>
      </trkpt>
      <trkpt lat="45.92717" lon="4.71269">
        <ele>188</ele>
        <time>2017-07-13T15:18:39Z</time>
      </trkpt>
      <trkpt lat="45.9272" lon="4.71269">
        <ele>188</ele>
        <time>2017-07-13T15:18:40Z</time>
      </trkpt>
      <trkpt lat="45.92727" lon="4.71271">
        <ele>188</ele>
        <time>2017-07-13T15:18:43Z</time>
      </trkpt>
      <trkpt lat="45.9273" lon="4.71271">
        <ele>188</ele>
        <time>2017-07-13T15:18:44Z</time>
      </trkpt>
      <trkpt lat="45.92737" lon="4.71273">
        <ele>188</ele>
        <time>2017-07-13T15:18:47Z</time>
      </trkpt>
      <trkpt lat="45.9274" lon="4.71274">
        <ele>188</ele>
        <time>2017-07-13T15:18:48Z</time>
      </trkpt>
      <trkpt lat="45.92748" lon="4.71277">
        <ele>188</ele>
        <time>2017-07-13T15:18:51Z</time>
      </trkpt>
      <trkpt lat="45.92751" lon="4.71277">
        <ele>189</ele>
        <time>2017-07-13T15:18:52Z</time>
      </trkpt>
      <trkpt lat="45.92757" lon="4.71279">
        <ele>189</ele>
        <time>2017-07-13T15:18:54Z</time>
      </trkpt>
      <trkpt lat="45.9276" lon="4.71279">
        <ele>189</ele>
        <time>2017-07-13T15:18:55Z</time>
      </trkpt>
      <trkpt lat="45.92766" lon="4.71279">
        <ele>189</ele>
        <time>2017-07-13T15:18:57Z</time>
      </trkpt>
      <trkpt lat="45.9277" lon="4.7128">
        <ele>189</ele>
        <time>2017-07-13T15:18:58Z</time>
      </trkpt>
      <trkpt lat="45.92776" lon="4.71282">
        <ele>189</ele>
        <time>2017-07-13T15:19:00Z</time>
      </trkpt>
      <trkpt lat="45.92779" lon="4.71284">
        <ele>189</ele>
        <time>2017-07-13T15:19:01Z</time>
      </trkpt>
      <trkpt lat="45.92785" lon="4.71286">
        <ele>189</ele>
        <time>2017-07-13T15:19:03Z</time>
      </trkpt>
      <trkpt lat="45.92788" lon="4.71286">
        <ele>189</ele>
        <time>2017-07-13T15:19:04Z</time>
      </trkpt>
      <trkpt lat="45.92797" lon="4.71288">
        <ele>189</ele>
        <time>2017-07-13T15:19:07Z</time>
      </trkpt>
      <trkpt lat="45.928" lon="4.71289">
        <ele>189</ele>
        <time>2017-07-13T15:19:08Z</time>
      </trkpt>
      <trkpt lat="45.92807" lon="4.71295">
        <ele>189</ele>
        <time>2017-07-13T15:19:11Z</time>
      </trkpt>
      <trkpt lat="45.9281" lon="4.71297">
        <ele>189</ele>
        <time>2017-07-13T15:19:12Z</time>
      </trkpt>
      <trkpt lat="45.92818" lon="4.71301">
        <ele>189</ele>
        <time>2017-07-13T15:19:15Z</time>
      </trkpt>
      <trkpt lat="45.92819" lon="4.71305">
        <ele>189</ele>
        <time>2017-07-13T15:19:16Z</time>
      </trkpt>
      <trkpt lat="45.92823" lon="4.71314">
        <ele>189</ele>
        <time>2017-07-13T15:19:18Z</time>
      </trkpt>
      <trkpt lat="45.92824" lon="4.71318">
        <ele>189</ele>
        <time>2017-07-13T15:19:19Z</time>
      </trkpt>
      <trkpt lat="45.92825" lon="4.71327">
        <ele>190</ele>
        <time>2017-07-13T15:19:21Z</time>
      </trkpt>
      <trkpt lat="45.92826" lon="4.71332">
        <ele>190</ele>
        <time>2017-07-13T15:19:22Z</time>
      </trkpt>
      <trkpt lat="45.92827" lon="4.71343">
        <ele>189</ele>
        <time>2017-07-13T15:19:24Z</time>
      </trkpt>
      <trkpt lat="45.92828" lon="4.71349">
        <ele>188</ele>
        <time>2017-07-13T15:19:25Z</time>
      </trkpt>
      <trkpt lat="45.92829" lon="4.71361">
        <ele>187</ele>
        <time>2017-07-13T15:19:27Z</time>
      </trkpt>
      <trkpt lat="45.92831" lon="4.71367">
        <ele>187</ele>
        <time>2017-07-13T15:19:28Z</time>
      </trkpt>
      <trkpt lat="45.92834" lon="4.71373">
        <ele>188</ele>
        <time>2017-07-13T15:19:29Z</time>
      </trkpt>
      <trkpt lat="45.92837" lon="4.71379">
        <ele>188</ele>
        <time>2017-07-13T15:19:30Z</time>
      </trkpt>
      <trkpt lat="45.9284" lon="4.71385">
        <ele>188</ele>
        <time>2017-07-13T15:19:31Z</time>
      </trkpt>
      <trkpt lat="45.92844" lon="4.71389">
        <ele>188</ele>
        <time>2017-07-13T15:19:32Z</time>
      </trkpt>
      <trkpt lat="45.92846" lon="4.71395">
        <ele>187</ele>
        <time>2017-07-13T15:19:33Z</time>
      </trkpt>
      <trkpt lat="45.92847" lon="4.71402">
        <ele>187</ele>
        <time>2017-07-13T15:19:34Z</time>
      </trkpt>
      <trkpt lat="45.92847" lon="4.7141">
        <ele>187</ele>
        <time>2017-07-13T15:19:35Z</time>
      </trkpt>
      <trkpt lat="45.92845" lon="4.71418">
        <ele>184</ele>
        <time>2017-07-13T15:19:36Z</time>
      </trkpt>
      <trkpt lat="45.92842" lon="4.71428">
        <ele>184</ele>
        <time>2017-07-13T15:19:37Z</time>
      </trkpt>
      <trkpt lat="45.92837" lon="4.71439">
        <ele>183</ele>
        <time>2017-07-13T15:19:38Z</time>
      </trkpt>
      <trkpt lat="45.92833" lon="4.7145">
        <ele>181</ele>
        <time>2017-07-13T15:19:39Z</time>
      </trkpt>
      <trkpt lat="45.92828" lon="4.71463">
        <ele>180</ele>
        <time>2017-07-13T15:19:40Z</time>
      </trkpt>
      <trkpt lat="45.92823" lon="4.71476">
        <ele>179</ele>
        <time>2017-07-13T15:19:41Z</time>
      </trkpt>
      <trkpt lat="45.92819" lon="4.7149">
        <ele>178</ele>
        <time>2017-07-13T15:19:42Z</time>
      </trkpt>
      <trkpt lat="45.92815" lon="4.71505">
        <ele>174</ele>
        <time>2017-07-13T15:19:43Z</time>
      </trkpt>
      <trkpt lat="45.92811" lon="4.71519">
        <ele>174</ele>
        <time>2017-07-13T15:19:44Z</time>
      </trkpt>
      <trkpt lat="45.92807" lon="4.71534">
        <ele>173</ele>
        <time>2017-07-13T15:19:45Z</time>
      </trkpt>
      <trkpt lat="45.92801" lon="4.71548">
        <ele>173</ele>
        <time>2017-07-13T15:19:46Z</time>
      </trkpt>
      <trkpt lat="45.92796" lon="4.71562">
        <ele>172</ele>
        <time>2017-07-13T15:19:47Z</time>
      </trkpt>
      <trkpt lat="45.92789" lon="4.71577">
        <ele>172</ele>
        <time>2017-07-13T15:19:48Z</time>
      </trkpt>
      <trkpt lat="45.92781" lon="4.71589">
        <ele>171</ele>
        <time>2017-07-13T15:19:49Z</time>
      </trkpt>
      <trkpt lat="45.92774" lon="4.71601">
        <ele>171</ele>
        <time>2017-07-13T15:19:50Z</time>
      </trkpt>
      <trkpt lat="45.92767" lon="4.71612">
        <ele>171</ele>
        <time>2017-07-13T15:19:51Z</time>
      </trkpt>
      <trkpt lat="45.92761" lon="4.71622">
        <ele>171</ele>
        <time>2017-07-13T15:19:52Z</time>
      </trkpt>
      <trkpt lat="45.92755" lon="4.71632">
        <ele>171</ele>
        <time>2017-07-13T15:19:53Z</time>
      </trkpt>
      <trkpt lat="45.92749" lon="4.71641">
        <ele>172</ele>
        <time>2017-07-13T15:19:54Z</time>
      </trkpt>
      <trkpt lat="45.92743" lon="4.7165">
        <ele>172</ele>
        <time>2017-07-13T15:19:55Z</time>
      </trkpt>
      <trkpt lat="45.92738" lon="4.71658">
        <ele>172</ele>
        <time>2017-07-13T15:19:56Z</time>
      </trkpt>
      <trkpt lat="45.92733" lon="4.71667">
        <ele>173</ele>
        <time>2017-07-13T15:19:57Z</time>
      </trkpt>
      <trkpt lat="45.92728" lon="4.71675">
        <ele>173</ele>
        <time>2017-07-13T15:19:58Z</time>
      </trkpt>
      <trkpt lat="45.92723" lon="4.71683">
        <ele>173</ele>
        <time>2017-07-13T15:19:59Z</time>
      </trkpt>
      <trkpt lat="45.92718" lon="4.71691">
        <ele>174</ele>
        <time>2017-07-13T15:20:00Z</time>
      </trkpt>
      <trkpt lat="45.92714" lon="4.717">
        <ele>174</ele>
        <time>2017-07-13T15:20:01Z</time>
      </trkpt>
      <trkpt lat="45.92711" lon="4.71708">
        <ele>174</ele>
        <time>2017-07-13T15:20:02Z</time>
      </trkpt>
      <trkpt lat="45.92708" lon="4.71717">
        <ele>174</ele>
        <time>2017-07-13T15:20:03Z</time>
      </trkpt>
      <trkpt lat="45.92707" lon="4.71726">
        <ele>174</ele>
        <time>2017-07-13T15:20:04Z</time>
      </trkpt>
      <trkpt lat="45.92706" lon="4.71735">
        <ele>174</ele>
        <time>2017-07-13T15:20:05Z</time>
      </trkpt>
      <trkpt lat="45.92705" lon="4.71743">
        <ele>175</ele>
        <time>2017-07-13T15:20:06Z</time>
      </trkpt>
      <trkpt lat="45.92706" lon="4.71753">
        <ele>175</ele>
        <time>2017-07-13T15:20:07Z</time>
      </trkpt>
      <trkpt lat="45.92706" lon="4.71761">
        <ele>175</ele>
        <time>2017-07-13T15:20:08Z</time>
      </trkpt>
      <trkpt lat="45.92707" lon="4.71769">
        <ele>174</ele>
        <time>2017-07-13T15:20:09Z</time>
      </trkpt>
      <trkpt lat="45.92707" lon="4.71777">
        <ele>174</ele>
        <time>2017-07-13T15:20:10Z</time>
      </trkpt>
      <trkpt lat="45.92707" lon="4.71783">
        <ele>174</ele>
        <time>2017-07-13T15:20:11Z</time>
      </trkpt>
      <trkpt lat="45.92707" lon="4.71791">
        <ele>174</ele>
        <time>2017-07-13T15:20:12Z</time>
      </trkpt>
      <trkpt lat="45.92707" lon="4.71803">
        <ele>174</ele>
        <time>2017-07-13T15:20:14Z</time>
      </trkpt>
      <trkpt lat="45.92707" lon="4.71809">
        <ele>174</ele>
        <time>2017-07-13T15:20:15Z</time>
      </trkpt>
      <trkpt lat="45.92711" lon="4.71816">
        <ele>174</ele>
        <time>2017-07-13T15:20:17Z</time>
      </trkpt>
      <trkpt lat="45.92715" lon="4.71817">
        <ele>174</ele>
        <time>2017-07-13T15:20:18Z</time>
      </trkpt>
      <trkpt lat="45.92722" lon="4.71822">
        <ele>174</ele>
        <time>2017-07-13T15:20:20Z</time>
      </trkpt>
      <trkpt lat="45.92725" lon="4.71825">
        <ele>174</ele>
        <time>2017-07-13T15:20:21Z</time>
      </trkpt>
      <trkpt lat="45.92733" lon="4.7183">
        <ele>173</ele>
        <time>2017-07-13T15:20:23Z</time>
      </trkpt>
      <trkpt lat="45.92737" lon="4.71833">
        <ele>173</ele>
        <time>2017-07-13T15:20:24Z</time>
      </trkpt>
      <trkpt lat="45.92742" lon="4.71836">
        <ele>172</ele>
        <time>2017-07-13T15:20:25Z</time>
      </trkpt>
      <trkpt lat="45.92746" lon="4.71839">
        <ele>172</ele>
        <time>2017-07-13T15:20:26Z</time>
      </trkpt>
      <trkpt lat="45.9275" lon="4.71842">
        <ele>173</ele>
        <time>2017-07-13T15:20:27Z</time>
      </trkpt>
      <trkpt lat="45.92755" lon="4.71843">
        <ele>172</ele>
        <time>2017-07-13T15:20:28Z</time>
      </trkpt>
      <trkpt lat="45.92762" lon="4.71849">
        <ele>172</ele>
        <time>2017-07-13T15:20:30Z</time>
      </trkpt>
      <trkpt lat="45.92767" lon="4.71851">
        <ele>172</ele>
        <time>2017-07-13T15:20:31Z</time>
      </trkpt>
      <trkpt lat="45.92774" lon="4.71854">
        <ele>172</ele>
        <time>2017-07-13T15:20:33Z</time>
      </trkpt>
      <trkpt lat="45.92777" lon="4.71856">
        <ele>172</ele>
        <time>2017-07-13T15:20:34Z</time>
      </trkpt>
      <trkpt lat="45.92783" lon="4.7186">
        <ele>172</ele>
        <time>2017-07-13T15:20:36Z</time>
      </trkpt>
      <trkpt lat="45.92787" lon="4.71862">
        <ele>172</ele>
        <time>2017-07-13T15:20:37Z</time>
      </trkpt>
      <trkpt lat="45.92794" lon="4.71866">
        <ele>172</ele>
        <time>2017-07-13T15:20:39Z</time>
      </trkpt>
      <trkpt lat="45.92798" lon="4.71869">
        <ele>172</ele>
        <time>2017-07-13T15:20:40Z</time>
      </trkpt>
      <trkpt lat="45.92802" lon="4.71871">
        <ele>172</ele>
        <time>2017-07-13T15:20:41Z</time>
      </trkpt>
      <trkpt lat="45.92807" lon="4.71872">
        <ele>172</ele>
        <time>2017-07-13T15:20:42Z</time>
      </trkpt>
      <trkpt lat="45.92814" lon="4.71877">
        <ele>171</ele>
        <time>2017-07-13T15:20:44Z</time>
      </trkpt>
      <trkpt lat="45.92818" lon="4.71879">
        <ele>171</ele>
        <time>2017-07-13T15:20:45Z</time>
      </trkpt>
      <trkpt lat="45.92825" lon="4.71883">
        <ele>171</ele>
        <time>2017-07-13T15:20:47Z</time>
      </trkpt>
      <trkpt lat="45.92829" lon="4.71885">
        <ele>171</ele>
        <time>2017-07-13T15:20:48Z</time>
      </trkpt>
      <trkpt lat="45.92837" lon="4.7189">
        <ele>171</ele>
        <time>2017-07-13T15:20:50Z</time>
      </trkpt>
      <trkpt lat="45.92841" lon="4.71892">
        <ele>171</ele>
        <time>2017-07-13T15:20:51Z</time>
      </trkpt>
      <trkpt lat="45.92849" lon="4.71895">
        <ele>171</ele>
        <time>2017-07-13T15:20:53Z</time>
      </trkpt>
      <trkpt lat="45.92852" lon="4.71898">
        <ele>171</ele>
        <time>2017-07-13T15:20:54Z</time>
      </trkpt>
      <trkpt lat="45.9286" lon="4.71903">
        <ele>171</ele>
        <time>2017-07-13T15:20:56Z</time>
      </trkpt>
      <trkpt lat="45.92864" lon="4.71906">
        <ele>171</ele>
        <time>2017-07-13T15:20:57Z</time>
      </trkpt>
      <trkpt lat="45.92872" lon="4.71911">
        <ele>171</ele>
        <time>2017-07-13T15:20:59Z</time>
      </trkpt>
      <trkpt lat="45.92876" lon="4.71914">
        <ele>171</ele>
        <time>2017-07-13T15:21:00Z</time>
      </trkpt>
      <trkpt lat="45.92881" lon="4.71917">
        <ele>171</ele>
        <time>2017-07-13T15:21:01Z</time>
      </trkpt>
      <trkpt lat="45.92885" lon="4.71919">
        <ele>170</ele>
        <time>2017-07-13T15:21:02Z</time>
      </trkpt>
      <trkpt lat="45.92893" lon="4.71924">
        <ele>170</ele>
        <time>2017-07-13T15:21:04Z</time>
      </trkpt>
      <trkpt lat="45.92896" lon="4.71926">
        <ele>170</ele>
        <time>2017-07-13T15:21:05Z</time>
      </trkpt>
      <trkpt lat="45.92903" lon="4.7193">
        <ele>170</ele>
        <time>2017-07-13T15:21:07Z</time>
      </trkpt>
      <trkpt lat="45.92907" lon="4.71932">
        <ele>170</ele>
        <time>2017-07-13T15:21:08Z</time>
      </trkpt>
      <trkpt lat="45.92915" lon="4.71936">
        <ele>170</ele>
        <time>2017-07-13T15:21:10Z</time>
      </trkpt>
      <trkpt lat="45.92919" lon="4.71938">
        <ele>170</ele>
        <time>2017-07-13T15:21:11Z</time>
      </trkpt>
      <trkpt lat="45.92924" lon="4.7194">
        <ele>170</ele>
        <time>2017-07-13T15:21:12Z</time>
      </trkpt>
      <trkpt lat="45.92929" lon="4.71941">
        <ele>170</ele>
        <time>2017-07-13T15:21:13Z</time>
      </trkpt>
      <trkpt lat="45.92937" lon="4.71944">
        <ele>170</ele>
        <time>2017-07-13T15:21:15Z</time>
      </trkpt>
      <trkpt lat="45.9294" lon="4.71945">
        <ele>170</ele>
        <time>2017-07-13T15:21:16Z</time>
      </trkpt>
      <trkpt lat="45.92948" lon="4.71947">
        <ele>169</ele>
        <time>2017-07-13T15:21:18Z</time>
      </trkpt>
      <trkpt lat="45.92951" lon="4.71948">
        <ele>169</ele>
        <time>2017-07-13T15:21:19Z</time>
      </trkpt>
      <trkpt lat="45.92959" lon="4.71951">
        <ele>169</ele>
        <time>2017-07-13T15:21:21Z</time>
      </trkpt>
      <trkpt lat="45.92963" lon="4.71953">
        <ele>169</ele>
        <time>2017-07-13T15:21:22Z</time>
      </trkpt>
      <trkpt lat="45.92968" lon="4.71954">
        <ele>169</ele>
        <time>2017-07-13T15:21:23Z</time>
      </trkpt>
      <trkpt lat="45.92972" lon="4.71955">
        <ele>169</ele>
        <time>2017-07-13T15:21:24Z</time>
      </trkpt>
      <trkpt lat="45.92977" lon="4.71957">
        <ele>169</ele>
        <time>2017-07-13T15:21:25Z</time>
      </trkpt>
      <trkpt lat="45.92981" lon="4.71958">
        <ele>169</ele>
        <time>2017-07-13T15:21:26Z</time>
      </trkpt>
      <trkpt lat="45.92989" lon="4.71961">
        <ele>169</ele>
        <time>2017-07-13T15:21:28Z</time>
      </trkpt>
      <trkpt lat="45.92993" lon="4.71962">
        <ele>169</ele>
        <time>2017-07-13T15:21:29Z</time>
      </trkpt>
      <trkpt lat="45.93" lon="4.71965">
        <ele>169</ele>
        <time>2017-07-13T15:21:31Z</time>
      </trkpt>
      <trkpt lat="45.93004" lon="4.71966">
        <ele>169</ele>
        <time>2017-07-13T15:21:32Z</time>
      </trkpt>
      <trkpt lat="45.93012" lon="4.71969">
        <ele>169</ele>
        <time>2017-07-13T15:21:34Z</time>
      </trkpt>
      <trkpt lat="45.93017" lon="4.71971">
        <ele>169</ele>
        <time>2017-07-13T15:21:35Z</time>
      </trkpt>
      <trkpt lat="45.93025" lon="4.71976">
        <ele>169</ele>
        <time>2017-07-13T15:21:37Z</time>
      </trkpt>
      <trkpt lat="45.93029" lon="4.71977">
        <ele>169</ele>
        <time>2017-07-13T15:21:38Z</time>
      </trkpt>
      <trkpt lat="45.93038" lon="4.7198">
        <ele>169</ele>
        <time>2017-07-13T15:21:40Z</time>
      </trkpt>
      <trkpt lat="45.93042" lon="4.71982">
        <ele>169</ele>
        <time>2017-07-13T15:21:41Z</time>
      </trkpt>
      <trkpt lat="45.93049" lon="4.71984">
        <ele>169</ele>
        <time>2017-07-13T15:21:43Z</time>
      </trkpt>
      <trkpt lat="45.93053" lon="4.71985">
        <ele>169</ele>
        <time>2017-07-13T15:21:44Z</time>
      </trkpt>
      <trkpt lat="45.9306" lon="4.71988">
        <ele>169</ele>
        <time>2017-07-13T15:21:46Z</time>
      </trkpt>
      <trkpt lat="45.93063" lon="4.71989">
        <ele>169</ele>
        <time>2017-07-13T15:21:47Z</time>
      </trkpt>
      <trkpt lat="45.93071" lon="4.71993">
        <ele>169</ele>
        <time>2017-07-13T15:21:49Z</time>
      </trkpt>
      <trkpt lat="45.93075" lon="4.71995">
        <ele>169</ele>
        <time>2017-07-13T15:21:50Z</time>
      </trkpt>
      <trkpt lat="45.9308" lon="4.71997">
        <ele>169</ele>
        <time>2017-07-13T15:21:51Z</time>
      </trkpt>
      <trkpt lat="45.93084" lon="4.71998">
        <ele>169</ele>
        <time>2017-07-13T15:21:52Z</time>
      </trkpt>
      <trkpt lat="45.93089" lon="4.72">
        <ele>169</ele>
        <time>2017-07-13T15:21:53Z</time>
      </trkpt>
      <trkpt lat="45.93093" lon="4.72002">
        <ele>169</ele>
        <time>2017-07-13T15:21:54Z</time>
      </trkpt>
      <trkpt lat="45.93101" lon="4.72005">
        <ele>169</ele>
        <time>2017-07-13T15:21:56Z</time>
      </trkpt>
      <trkpt lat="45.93105" lon="4.72007">
        <ele>169</ele>
        <time>2017-07-13T15:21:57Z</time>
      </trkpt>
      <trkpt lat="45.93113" lon="4.72009">
        <ele>169</ele>
        <time>2017-07-13T15:21:59Z</time>
      </trkpt>
      <trkpt lat="45.93116" lon="4.7201">
        <ele>169</ele>
        <time>2017-07-13T15:22:00Z</time>
      </trkpt>
      <trkpt lat="45.93123" lon="4.72012">
        <ele>169</ele>
        <time>2017-07-13T15:22:02Z</time>
      </trkpt>
      <trkpt lat="45.93127" lon="4.72014">
        <ele>169</ele>
        <time>2017-07-13T15:22:03Z</time>
      </trkpt>
      <trkpt lat="45.93135" lon="4.72017">
        <ele>169</ele>
        <time>2017-07-13T15:22:05Z</time>
      </trkpt>
      <trkpt lat="45.93139" lon="4.72018">
        <ele>169</ele>
        <time>2017-07-13T15:22:06Z</time>
      </trkpt>
      <trkpt lat="45.93143" lon="4.7202">
        <ele>169</ele>
        <time>2017-07-13T15:22:07Z</time>
      </trkpt>
      <trkpt lat="45.93148" lon="4.72022">
        <ele>169</ele>
        <time>2017-07-13T15:22:08Z</time>
      </trkpt>
      <trkpt lat="45.93156" lon="4.72025">
        <ele>169</ele>
        <time>2017-07-13T15:22:10Z</time>
      </trkpt>
      <trkpt lat="45.9316" lon="4.72026">
        <ele>169</ele>
        <time>2017-07-13T15:22:11Z</time>
      </trkpt>
      <trkpt lat="45.93167" lon="4.72027">
        <ele>170</ele>
        <time>2017-07-13T15:22:13Z</time>
      </trkpt>
      <trkpt lat="45.93171" lon="4.72028">
        <ele>170</ele>
        <time>2017-07-13T15:22:14Z</time>
      </trkpt>
      <trkpt lat="45.93179" lon="4.72033">
        <ele>170</ele>
        <time>2017-07-13T15:22:17Z</time>
      </trkpt>
      <trkpt lat="45.9318" lon="4.72035">
        <ele>170</ele>
        <time>2017-07-13T15:22:18Z</time>
      </trkpt>
      <trkpt lat="45.9318" lon="4.72047">
        <ele>170</ele>
        <time>2017-07-13T15:22:21Z</time>
      </trkpt>
      <trkpt lat="45.93179" lon="4.72053">
        <ele>170</ele>
        <time>2017-07-13T15:22:22Z</time>
      </trkpt>
      <trkpt lat="45.93178" lon="4.72059">
        <ele>170</ele>
        <time>2017-07-13T15:22:23Z</time>
      </trkpt>
      <trkpt lat="45.93178" lon="4.72065">
        <ele>170</ele>
        <time>2017-07-13T15:22:24Z</time>
      </trkpt>
      <trkpt lat="45.93177" lon="4.72072">
        <ele>169</ele>
        <time>2017-07-13T15:22:25Z</time>
      </trkpt>
      <trkpt lat="45.93176" lon="4.72079">
        <ele>169</ele>
        <time>2017-07-13T15:22:26Z</time>
      </trkpt>
      <trkpt lat="45.93175" lon="4.72086">
        <ele>169</ele>
        <time>2017-07-13T15:22:27Z</time>
      </trkpt>
      <trkpt lat="45.93174" lon="4.72094">
        <ele>169</ele>
        <time>2017-07-13T15:22:28Z</time>
      </trkpt>
      <trkpt lat="45.93173" lon="4.72101">
        <ele>169</ele>
        <time>2017-07-13T15:22:29Z</time>
      </trkpt>
      <trkpt lat="45.93172" lon="4.72109">
        <ele>170</ele>
        <time>2017-07-13T15:22:30Z</time>
      </trkpt>
      <trkpt lat="45.93171" lon="4.72116">
        <ele>170</ele>
        <time>2017-07-13T15:22:31Z</time>
      </trkpt>
      <trkpt lat="45.9317" lon="4.72124">
        <ele>170</ele>
        <time>2017-07-13T15:22:32Z</time>
      </trkpt>
      <trkpt lat="45.93169" lon="4.72132">
        <ele>170</ele>
        <time>2017-07-13T15:22:33Z</time>
      </trkpt>
      <trkpt lat="45.93168" lon="4.7214">
        <ele>170</ele>
        <time>2017-07-13T15:22:34Z</time>
      </trkpt>
      <trkpt lat="45.93167" lon="4.72148">
        <ele>169</ele>
        <time>2017-07-13T15:22:35Z</time>
      </trkpt>
      <trkpt lat="45.93166" lon="4.72156">
        <ele>169</ele>
        <time>2017-07-13T15:22:36Z</time>
      </trkpt>
      <trkpt lat="45.93166" lon="4.72163">
        <ele>169</ele>
        <time>2017-07-13T15:22:37Z</time>
      </trkpt>
      <trkpt lat="45.93165" lon="4.7217">
        <ele>169</ele>
        <time>2017-07-13T15:22:38Z</time>
      </trkpt>
      <trkpt lat="45.93164" lon="4.72177">
        <ele>169</ele>
        <time>2017-07-13T15:22:39Z</time>
      </trkpt>
      <trkpt lat="45.93164" lon="4.72184">
        <ele>169</ele>
        <time>2017-07-13T15:22:40Z</time>
      </trkpt>
      <trkpt lat="45.93163" lon="4.72196">
        <ele>170</ele>
        <time>2017-07-13T15:22:42Z</time>
      </trkpt>
      <trkpt lat="45.93163" lon="4.72202">
        <ele>170</ele>
        <time>2017-07-13T15:22:43Z</time>
      </trkpt>
      <trkpt lat="45.93164" lon="4.72212">
        <ele>170</ele>
        <time>2017-07-13T15:22:45Z</time>
      </trkpt>
      <trkpt lat="45.93166" lon="4.72216">
        <ele>170</ele>
        <time>2017-07-13T15:22:46Z</time>
      </trkpt>
      <trkpt lat="45.9317" lon="4.72218">
        <ele>170</ele>
        <time>2017-07-13T15:22:47Z</time>
      </trkpt>
      <trkpt lat="45.93175" lon="4.72219">
        <ele>170</ele>
        <time>2017-07-13T15:22:48Z</time>
      </trkpt>
      <trkpt lat="45.9318" lon="4.72219">
        <ele>170</ele>
        <time>2017-07-13T15:22:49Z</time>
      </trkpt>
      <trkpt lat="45.93185" lon="4.72218">
        <ele>170</ele>
        <time>2017-07-13T15:22:50Z</time>
      </trkpt>
      <trkpt lat="45.9319" lon="4.72218">
        <ele>171</ele>
        <time>2017-07-13T15:22:51Z</time>
      </trkpt>
      <trkpt lat="45.93195" lon="4.72217">
        <ele>171</ele>
        <time>2017-07-13T15:22:52Z</time>
      </trkpt>
      <trkpt lat="45.93201" lon="4.72217">
        <ele>171</ele>
        <time>2017-07-13T15:22:53Z</time>
      </trkpt>
      <trkpt lat="45.93206" lon="4.72216">
        <ele>171</ele>
        <time>2017-07-13T15:22:54Z</time>
      </trkpt>
      <trkpt lat="45.9321" lon="4.72216">
        <ele>171</ele>
        <time>2017-07-13T15:22:55Z</time>
      </trkpt>
      <trkpt lat="45.93215" lon="4.72215">
        <ele>171</ele>
        <time>2017-07-13T15:22:56Z</time>
      </trkpt>
      <trkpt lat="45.93223" lon="4.72214">
        <ele>171</ele>
        <time>2017-07-13T15:22:58Z</time>
      </trkpt>
      <trkpt lat="45.93227" lon="4.72214">
        <ele>171</ele>
        <time>2017-07-13T15:22:59Z</time>
      </trkpt>
      <trkpt lat="45.93236" lon="4.72213">
        <ele>171</ele>
        <time>2017-07-13T15:23:01Z</time>
      </trkpt>
      <trkpt lat="45.93241" lon="4.72212">
        <ele>171</ele>
        <time>2017-07-13T15:23:02Z</time>
      </trkpt>
      <trkpt lat="45.93246" lon="4.72212">
        <ele>171</ele>
        <time>2017-07-13T15:23:03Z</time>
      </trkpt>
      <trkpt lat="45.93251" lon="4.72213">
        <ele>174</ele>
        <time>2017-07-13T15:23:04Z</time>
      </trkpt>
      <trkpt lat="45.93257" lon="4.72214">
        <ele>174</ele>
        <time>2017-07-13T15:23:05Z</time>
      </trkpt>
      <trkpt lat="45.93263" lon="4.72215">
        <ele>174</ele>
        <time>2017-07-13T15:23:06Z</time>
      </trkpt>
      <trkpt lat="45.93268" lon="4.72216">
        <ele>174</ele>
        <time>2017-07-13T15:23:07Z</time>
      </trkpt>
      <trkpt lat="45.93273" lon="4.72217">
        <ele>174</ele>
        <time>2017-07-13T15:23:08Z</time>
      </trkpt>
      <trkpt lat="45.93278" lon="4.72218">
        <ele>174</ele>
        <time>2017-07-13T15:23:09Z</time>
      </trkpt>
      <trkpt lat="45.93283" lon="4.72218">
        <ele>174</ele>
        <time>2017-07-13T15:23:10Z</time>
      </trkpt>
      <trkpt lat="45.93288" lon="4.72219">
        <ele>174</ele>
        <time>2017-07-13T15:23:11Z</time>
      </trkpt>
      <trkpt lat="45.93292" lon="4.72219">
        <ele>175</ele>
        <time>2017-07-13T15:23:12Z</time>
      </trkpt>
      <trkpt lat="45.93297" lon="4.72219">
        <ele>175</ele>
        <time>2017-07-13T15:23:13Z</time>
      </trkpt>
      <trkpt lat="45.93302" lon="4.72218">
        <ele>175</ele>
        <time>2017-07-13T15:23:14Z</time>
      </trkpt>
      <trkpt lat="45.93311" lon="4.72217">
        <ele>175</ele>
        <time>2017-07-13T15:23:16Z</time>
      </trkpt>
      <trkpt lat="45.93316" lon="4.72216">
        <ele>175</ele>
        <time>2017-07-13T15:23:17Z</time>
      </trkpt>
      <trkpt lat="45.93321" lon="4.72216">
        <ele>175</ele>
        <time>2017-07-13T15:23:18Z</time>
      </trkpt>
      <trkpt lat="45.93327" lon="4.72212">
        <ele>176</ele>
        <time>2017-07-13T15:23:19Z</time>
      </trkpt>
      <trkpt lat="45.93332" lon="4.72212">
        <ele>176</ele>
        <time>2017-07-13T15:23:20Z</time>
      </trkpt>
      <trkpt lat="45.93337" lon="4.72212">
        <ele>177</ele>
        <time>2017-07-13T15:23:21Z</time>
      </trkpt>
      <trkpt lat="45.93342" lon="4.72212">
        <ele>177</ele>
        <time>2017-07-13T15:23:22Z</time>
      </trkpt>
      <trkpt lat="45.93347" lon="4.72212">
        <ele>176</ele>
        <time>2017-07-13T15:23:23Z</time>
      </trkpt>
      <trkpt lat="45.93352" lon="4.72213">
        <ele>176</ele>
        <time>2017-07-13T15:23:24Z</time>
      </trkpt>
      <trkpt lat="45.93357" lon="4.72214">
        <ele>176</ele>
        <time>2017-07-13T15:23:25Z</time>
      </trkpt>
      <trkpt lat="45.93364" lon="4.72215">
        <ele>176</ele>
        <time>2017-07-13T15:23:27Z</time>
      </trkpt>
      <trkpt lat="45.93368" lon="4.72216">
        <ele>176</ele>
        <time>2017-07-13T15:23:28Z</time>
      </trkpt>
      <trkpt lat="45.93376" lon="4.72216">
        <ele>176</ele>
        <time>2017-07-13T15:23:30Z</time>
      </trkpt>
      <trkpt lat="45.93379" lon="4.72216">
        <ele>176</ele>
        <time>2017-07-13T15:23:31Z</time>
      </trkpt>
      <trkpt lat="45.93387" lon="4.72216">
        <ele>176</ele>
        <time>2017-07-13T15:23:33Z</time>
      </trkpt>
      <trkpt lat="45.93391" lon="4.72216">
        <ele>176</ele>
        <time>2017-07-13T15:23:34Z</time>
      </trkpt>
      <trkpt lat="45.93396" lon="4.72213">
        <ele>176</ele>
        <time>2017-07-13T15:23:35Z</time>
      </trkpt>
      <trkpt lat="45.93402" lon="4.72209">
        <ele>176</ele>
        <time>2017-07-13T15:23:36Z</time>
      </trkpt>
      <trkpt lat="45.93406" lon="4.72209">
        <ele>176</ele>
        <time>2017-07-13T15:23:37Z</time>
      </trkpt>
      <trkpt lat="45.93411" lon="4.72207">
        <ele>176</ele>
        <time>2017-07-13T15:23:38Z</time>
      </trkpt>
      <trkpt lat="45.93416" lon="4.72203">
        <ele>176</ele>
        <time>2017-07-13T15:23:39Z</time>
      </trkpt>
      <trkpt lat="45.93421" lon="4.722">
        <ele>174</ele>
        <time>2017-07-13T15:23:40Z</time>
      </trkpt>
      <trkpt lat="45.93426" lon="4.72197">
        <ele>174</ele>
        <time>2017-07-13T15:23:41Z</time>
      </trkpt>
      <trkpt lat="45.9343" lon="4.72195">
        <ele>174</ele>
        <time>2017-07-13T15:23:42Z</time>
      </trkpt>
      <trkpt lat="45.93434" lon="4.72192">
        <ele>174</ele>
        <time>2017-07-13T15:23:43Z</time>
      </trkpt>
      <trkpt lat="45.93438" lon="4.7219">
        <ele>174</ele>
        <time>2017-07-13T15:23:44Z</time>
      </trkpt>
      <trkpt lat="45.93446" lon="4.72188">
        <ele>174</ele>
        <time>2017-07-13T15:23:46Z</time>
      </trkpt>
      <trkpt lat="45.9345" lon="4.72189">
        <ele>174</ele>
        <time>2017-07-13T15:23:47Z</time>
      </trkpt>
      <trkpt lat="45.93455" lon="4.72189">
        <ele>174</ele>
        <time>2017-07-13T15:23:48Z</time>
      </trkpt>
      <trkpt lat="45.9346" lon="4.7219">
        <ele>174</ele>
        <time>2017-07-13T15:23:49Z</time>
      </trkpt>
      <trkpt lat="45.93465" lon="4.72192">
        <ele>174</ele>
        <time>2017-07-13T15:23:50Z</time>
      </trkpt>
      <trkpt lat="45.9347" lon="4.72193">
        <ele>174</ele>
        <time>2017-07-13T15:23:51Z</time>
      </trkpt>
      <trkpt lat="45.93475" lon="4.72194">
        <ele>173</ele>
        <time>2017-07-13T15:23:52Z</time>
      </trkpt>
      <trkpt lat="45.93479" lon="4.72196">
        <ele>173</ele>
        <time>2017-07-13T15:23:53Z</time>
      </trkpt>
      <trkpt lat="45.93487" lon="4.722">
        <ele>173</ele>
        <time>2017-07-13T15:23:55Z</time>
      </trkpt>
      <trkpt lat="45.93491" lon="4.72201">
        <ele>173</ele>
        <time>2017-07-13T15:23:56Z</time>
      </trkpt>
      <trkpt lat="45.93498" lon="4.72204">
        <ele>173</ele>
        <time>2017-07-13T15:23:58Z</time>
      </trkpt>
      <trkpt lat="45.93501" lon="4.72206">
        <ele>172</ele>
        <time>2017-07-13T15:23:59Z</time>
      </trkpt>
      <trkpt lat="45.93509" lon="4.7221">
        <ele>172</ele>
        <time>2017-07-13T15:24:01Z</time>
      </trkpt>
      <trkpt lat="45.93513" lon="4.72212">
        <ele>172</ele>
        <time>2017-07-13T15:24:02Z</time>
      </trkpt>
      <trkpt lat="45.93518" lon="4.72214">
        <ele>172</ele>
        <time>2017-07-13T15:24:03Z</time>
      </trkpt>
      <trkpt lat="45.93522" lon="4.72216">
        <ele>172</ele>
        <time>2017-07-13T15:24:04Z</time>
      </trkpt>
      <trkpt lat="45.93531" lon="4.72218">
        <ele>172</ele>
        <time>2017-07-13T15:24:06Z</time>
      </trkpt>
      <trkpt lat="45.93535" lon="4.72217">
        <ele>172</ele>
        <time>2017-07-13T15:24:07Z</time>
      </trkpt>
      <trkpt lat="45.93541" lon="4.72219">
        <ele>172</ele>
        <time>2017-07-13T15:24:09Z</time>
      </trkpt>
      <trkpt lat="45.93543" lon="4.72222">
        <ele>172</ele>
        <time>2017-07-13T15:24:10Z</time>
      </trkpt>
      <trkpt lat="45.93542" lon="4.72234">
        <ele>172</ele>
        <time>2017-07-13T15:24:13Z</time>
      </trkpt>
      <trkpt lat="45.93541" lon="4.72239">
        <ele>172</ele>
        <time>2017-07-13T15:24:14Z</time>
      </trkpt>
      <trkpt lat="45.93537" lon="4.72249">
        <ele>172</ele>
        <time>2017-07-13T15:24:16Z</time>
      </trkpt>
      <trkpt lat="45.93535" lon="4.72255">
        <ele>172</ele>
        <time>2017-07-13T15:24:17Z</time>
      </trkpt>
      <trkpt lat="45.93532" lon="4.72267">
        <ele>172</ele>
        <time>2017-07-13T15:24:19Z</time>
      </trkpt>
      <trkpt lat="45.9353" lon="4.72272">
        <ele>172</ele>
        <time>2017-07-13T15:24:20Z</time>
      </trkpt>
      <trkpt lat="45.93526" lon="4.72281">
        <ele>172</ele>
        <time>2017-07-13T15:24:22Z</time>
      </trkpt>
      <trkpt lat="45.93523" lon="4.72287">
        <ele>172</ele>
        <time>2017-07-13T15:24:23Z</time>
      </trkpt>
      <trkpt lat="45.9352" lon="4.72292">
        <ele>172</ele>
        <time>2017-07-13T15:24:24Z</time>
      </trkpt>
      <trkpt lat="45.93517" lon="4.72298">
        <ele>172</ele>
        <time>2017-07-13T15:24:25Z</time>
      </trkpt>
      <trkpt lat="45.93515" lon="4.72304">
        <ele>173</ele>
        <time>2017-07-13T15:24:26Z</time>
      </trkpt>
      <trkpt lat="45.93514" lon="4.72311">
        <ele>173</ele>
        <time>2017-07-13T15:24:27Z</time>
      </trkpt>
      <trkpt lat="45.93513" lon="4.72318">
        <ele>173</ele>
        <time>2017-07-13T15:24:28Z</time>
      </trkpt>
      <trkpt lat="45.93513" lon="4.72326">
        <ele>173</ele>
        <time>2017-07-13T15:24:29Z</time>
      </trkpt>
      <trkpt lat="45.93513" lon="4.72333">
        <ele>173</ele>
        <time>2017-07-13T15:24:30Z</time>
      </trkpt>
      <trkpt lat="45.93515" lon="4.72341">
        <ele>173</ele>
        <time>2017-07-13T15:24:31Z</time>
      </trkpt>
      <trkpt lat="45.93519" lon="4.72348">
        <ele>173</ele>
        <time>2017-07-13T15:24:32Z</time>
      </trkpt>
      <trkpt lat="45.93522" lon="4.72355">
        <ele>173</ele>
        <time>2017-07-13T15:24:33Z</time>
      </trkpt>
      <trkpt lat="45.93525" lon="4.72362">
        <ele>173</ele>
        <time>2017-07-13T15:24:34Z</time>
      </trkpt>
      <trkpt lat="45.93528" lon="4.72369">
        <ele>173</ele>
        <time>2017-07-13T15:24:35Z</time>
      </trkpt>
      <trkpt lat="45.93532" lon="4.72375">
        <ele>173</ele>
        <time>2017-07-13T15:24:36Z</time>
      </trkpt>
      <trkpt lat="45.93535" lon="4.72382">
        <ele>173</ele>
        <time>2017-07-13T15:24:37Z</time>
      </trkpt>
      <trkpt lat="45.93537" lon="4.72389">
        <ele>173</ele>
        <time>2017-07-13T15:24:38Z</time>
      </trkpt>
      <trkpt lat="45.93539" lon="4.72396">
        <ele>173</ele>
        <time>2017-07-13T15:24:39Z</time>
      </trkpt>
      <trkpt lat="45.93541" lon="4.72403">
        <ele>173</ele>
        <time>2017-07-13T15:24:40Z</time>
      </trkpt>
      <trkpt lat="45.93542" lon="4.7241">
        <ele>173</ele>
        <time>2017-07-13T15:24:41Z</time>
      </trkpt>
      <trkpt lat="45.93544" lon="4.72418">
        <ele>172</ele>
        <time>2017-07-13T15:24:42Z</time>
      </trkpt>
      <trkpt lat="45.93544" lon="4.72425">
        <ele>172</ele>
        <time>2017-07-13T15:24:43Z</time>
      </trkpt>
      <trkpt lat="45.93544" lon="4.72432">
        <ele>172</ele>
        <time>2017-07-13T15:24:44Z</time>
      </trkpt>
      <trkpt lat="45.93544" lon="4.72438">
        <ele>172</ele>
        <time>2017-07-13T15:24:45Z</time>
      </trkpt>
      <trkpt lat="45.93543" lon="4.72451">
        <ele>172</ele>
        <time>2017-07-13T15:24:47Z</time>
      </trkpt>
      <trkpt lat="45.93544" lon="4.72457">
        <ele>172</ele>
        <time>2017-07-13T15:24:48Z</time>
      </trkpt>
      <trkpt lat="45.93545" lon="4.72463">
        <ele>172</ele>
        <time>2017-07-13T15:24:49Z</time>
      </trkpt>
      <trkpt lat="45.93548" lon="4.72469">
        <ele>172</ele>
        <time>2017-07-13T15:24:50Z</time>
      </trkpt>
      <trkpt lat="45.93552" lon="4.7248">
        <ele>172</ele>
        <time>2017-07-13T15:24:52Z</time>
      </trkpt>
      <trkpt lat="45.93553" lon="4.72486">
        <ele>172</ele>
        <time>2017-07-13T15:24:53Z</time>
      </trkpt>
      <trkpt lat="45.93556" lon="4.72493">
        <ele>172</ele>
        <time>2017-07-13T15:24:54Z</time>
      </trkpt>
      <trkpt lat="45.93559" lon="4.725">
        <ele>172</ele>
        <time>2017-07-13T15:24:55Z</time>
      </trkpt>
      <trkpt lat="45.93561" lon="4.72507">
        <ele>172</ele>
        <time>2017-07-13T15:24:56Z</time>
      </trkpt>
      <trkpt lat="45.93564" lon="4.72513">
        <ele>172</ele>
        <time>2017-07-13T15:24:57Z</time>
      </trkpt>
      <trkpt lat="45.93566" lon="4.7252">
        <ele>172</ele>
        <time>2017-07-13T15:24:58Z</time>
      </trkpt>
      <trkpt lat="45.93569" lon="4.72526">
        <ele>172</ele>
        <time>2017-07-13T15:24:59Z</time>
      </trkpt>
      <trkpt lat="45.93572" lon="4.72532">
        <ele>172</ele>
        <time>2017-07-13T15:25:00Z</time>
      </trkpt>
      <trkpt lat="45.93575" lon="4.72537">
        <ele>172</ele>
        <time>2017-07-13T15:25:01Z</time>
      </trkpt>
      <trkpt lat="45.93578" lon="4.72543">
        <ele>173</ele>
        <time>2017-07-13T15:25:02Z</time>
      </trkpt>
      <trkpt lat="45.93581" lon="4.72548">
        <ele>173</ele>
        <time>2017-07-13T15:25:03Z</time>
      </trkpt>
      <trkpt lat="45.93587" lon="4.72555">
        <ele>172</ele>
        <time>2017-07-13T15:25:05Z</time>
      </trkpt>
      <trkpt lat="45.93591" lon="4.72558">
        <ele>173</ele>
        <time>2017-07-13T15:25:06Z</time>
      </trkpt>
      <trkpt lat="45.93599" lon="4.7256">
        <ele>173</ele>
        <time>2017-07-13T15:25:08Z</time>
      </trkpt>
      <trkpt lat="45.93603" lon="4.72557">
        <ele>172</ele>
        <time>2017-07-13T15:25:09Z</time>
      </trkpt>
      <trkpt lat="45.93607" lon="4.72553">
        <ele>172</ele>
        <time>2017-07-13T15:25:10Z</time>
      </trkpt>
      <trkpt lat="45.9361" lon="4.72549">
        <ele>172</ele>
        <time>2017-07-13T15:25:11Z</time>
      </trkpt>
      <trkpt lat="45.93612" lon="4.72543">
        <ele>172</ele>
        <time>2017-07-13T15:25:12Z</time>
      </trkpt>
      <trkpt lat="45.93616" lon="4.72537">
        <ele>172</ele>
        <time>2017-07-13T15:25:13Z</time>
      </trkpt>
      <trkpt lat="45.9362" lon="4.72531">
        <ele>172</ele>
        <time>2017-07-13T15:25:14Z</time>
      </trkpt>
      <trkpt lat="45.93622" lon="4.72526">
        <ele>172</ele>
        <time>2017-07-13T15:25:15Z</time>
      </trkpt>
      <trkpt lat="45.93625" lon="4.7252">
        <ele>172</ele>
        <time>2017-07-13T15:25:16Z</time>
      </trkpt>
      <trkpt lat="45.93628" lon="4.72514">
        <ele>172</ele>
        <time>2017-07-13T15:25:17Z</time>
      </trkpt>
      <trkpt lat="45.9363" lon="4.72508">
        <ele>172</ele>
        <time>2017-07-13T15:25:18Z</time>
      </trkpt>
      <trkpt lat="45.93633" lon="4.72503">
        <ele>172</ele>
        <time>2017-07-13T15:25:19Z</time>
      </trkpt>
      <trkpt lat="45.93638" lon="4.72494">
        <ele>172</ele>
        <time>2017-07-13T15:25:21Z</time>
      </trkpt>
      <trkpt lat="45.93639" lon="4.7249">
        <ele>172</ele>
        <time>2017-07-13T15:25:22Z</time>
      </trkpt>
      <trkpt lat="45.93644" lon="4.72483">
        <ele>172</ele>
        <time>2017-07-13T15:25:24Z</time>
      </trkpt>
      <trkpt lat="45.93648" lon="4.72479">
        <ele>172</ele>
        <time>2017-07-13T15:25:25Z</time>
      </trkpt>
      <trkpt lat="45.9365" lon="4.72474">
        <ele>172</ele>
        <time>2017-07-13T15:25:26Z</time>
      </trkpt>
      <trkpt lat="45.93654" lon="4.72469">
        <ele>172</ele>
        <time>2017-07-13T15:25:27Z</time>
      </trkpt>
      <trkpt lat="45.93657" lon="4.72464">
        <ele>172</ele>
        <time>2017-07-13T15:25:28Z</time>
      </trkpt>
      <trkpt lat="45.9366" lon="4.72459">
        <ele>172</ele>
        <time>2017-07-13T15:25:29Z</time>
      </trkpt>
      <trkpt lat="45.93667" lon="4.72453">
        <ele>172</ele>
        <time>2017-07-13T15:25:31Z</time>
      </trkpt>
      <trkpt lat="45.93668" lon="4.72452">
        <ele>171</ele>
        <time>2017-07-13T15:25:32Z</time>
      </trkpt>
      <trkpt lat="45.93674" lon="4.72455">
        <ele>171</ele>
        <time>2017-07-13T15:25:34Z</time>
      </trkpt>
      <trkpt lat="45.93677" lon="4.72459">
        <ele>171</ele>
        <time>2017-07-13T15:25:35Z</time>
      </trkpt>
      <trkpt lat="45.93681" lon="4.72463">
        <ele>171</ele>
        <time>2017-07-13T15:25:36Z</time>
      </trkpt>
      <trkpt lat="45.93684" lon="4.72467">
        <ele>171</ele>
        <time>2017-07-13T15:25:37Z</time>
      </trkpt>
      <trkpt lat="45.93688" lon="4.72471">
        <ele>171</ele>
        <time>2017-07-13T15:25:38Z</time>
      </trkpt>
      <trkpt lat="45.93692" lon="4.72475">
        <ele>171</ele>
        <time>2017-07-13T15:25:39Z</time>
      </trkpt>
      <trkpt lat="45.93696" lon="4.72478">
        <ele>171</ele>
        <time>2017-07-13T15:25:40Z</time>
      </trkpt>
      <trkpt lat="45.937" lon="4.72481">
        <ele>171</ele>
        <time>2017-07-13T15:25:41Z</time>
      </trkpt>
      <trkpt lat="45.93707" lon="4.72488">
        <ele>171</ele>
        <time>2017-07-13T15:25:43Z</time>
      </trkpt>
      <trkpt lat="45.93711" lon="4.72491">
        <ele>171</ele>
        <time>2017-07-13T15:25:44Z</time>
      </trkpt>
      <trkpt lat="45.93717" lon="4.72497">
        <ele>171</ele>
        <time>2017-07-13T15:25:46Z</time>
      </trkpt>
      <trkpt lat="45.93721" lon="4.725">
        <ele>171</ele>
        <time>2017-07-13T15:25:47Z</time>
      </trkpt>
      <trkpt lat="45.93729" lon="4.72506">
        <ele>171</ele>
        <time>2017-07-13T15:25:49Z</time>
      </trkpt>
      <trkpt lat="45.93733" lon="4.7251">
        <ele>171</ele>
        <time>2017-07-13T15:25:50Z</time>
      </trkpt>
      <trkpt lat="45.93737" lon="4.72513">
        <ele>171</ele>
        <time>2017-07-13T15:25:51Z</time>
      </trkpt>
      <trkpt lat="45.93742" lon="4.72517">
        <ele>171</ele>
        <time>2017-07-13T15:25:52Z</time>
      </trkpt>
      <trkpt lat="45.93748" lon="4.72519">
        <ele>171</ele>
        <time>2017-07-13T15:25:53Z</time>
      </trkpt>
      <trkpt lat="45.93752" lon="4.72522">
        <ele>172</ele>
        <time>2017-07-13T15:25:54Z</time>
      </trkpt>
      <trkpt lat="45.93757" lon="4.72527">
        <ele>172</ele>
        <time>2017-07-13T15:25:55Z</time>
      </trkpt>
      <trkpt lat="45.93761" lon="4.72531">
        <ele>173</ele>
        <time>2017-07-13T15:25:56Z</time>
      </trkpt>
      <trkpt lat="45.93766" lon="4.72534">
        <ele>173</ele>
        <time>2017-07-13T15:25:57Z</time>
      </trkpt>
      <trkpt lat="45.9377" lon="4.7254">
        <ele>173</ele>
        <time>2017-07-13T15:25:58Z</time>
      </trkpt>
      <trkpt lat="45.93774" lon="4.72545">
        <ele>173</ele>
        <time>2017-07-13T15:25:59Z</time>
      </trkpt>
      <trkpt lat="45.93779" lon="4.72549">
        <ele>173</ele>
        <time>2017-07-13T15:26:00Z</time>
      </trkpt>
      <trkpt lat="45.93783" lon="4.72554">
        <ele>173</ele>
        <time>2017-07-13T15:26:01Z</time>
      </trkpt>
      <trkpt lat="45.93787" lon="4.72557">
        <ele>173</ele>
        <time>2017-07-13T15:26:02Z</time>
      </trkpt>
      <trkpt lat="45.93795" lon="4.72562">
        <ele>174</ele>
        <time>2017-07-13T15:26:04Z</time>
      </trkpt>
      <trkpt lat="45.93799" lon="4.72565">
        <ele>174</ele>
        <time>2017-07-13T15:26:05Z</time>
      </trkpt>
      <trkpt lat="45.93807" lon="4.7257">
        <ele>174</ele>
        <time>2017-07-13T15:26:07Z</time>
      </trkpt>
      <trkpt lat="45.93812" lon="4.72572">
        <ele>174</ele>
        <time>2017-07-13T15:26:08Z</time>
      </trkpt>
      <trkpt lat="45.93817" lon="4.72578">
        <ele>174</ele>
        <time>2017-07-13T15:26:10Z</time>
      </trkpt>
      <trkpt lat="45.93819" lon="4.72583">
        <ele>174</ele>
        <time>2017-07-13T15:26:11Z</time>
      </trkpt>
      <trkpt lat="45.93817" lon="4.72593">
        <ele>174</ele>
        <time>2017-07-13T15:26:12Z</time>
      </trkpt>
      <trkpt lat="45.93816" lon="4.72601">
        <ele>173</ele>
        <time>2017-07-13T15:26:13Z</time>
      </trkpt>
      <trkpt lat="45.93814" lon="4.72608">
        <ele>173</ele>
        <time>2017-07-13T15:26:14Z</time>
      </trkpt>
      <trkpt lat="45.9381" lon="4.72613">
        <ele>173</ele>
        <time>2017-07-13T15:26:15Z</time>
      </trkpt>
      <trkpt lat="45.93806" lon="4.72618">
        <ele>173</ele>
        <time>2017-07-13T15:26:16Z</time>
      </trkpt>
      <trkpt lat="45.93803" lon="4.72622">
        <ele>173</ele>
        <time>2017-07-13T15:26:17Z</time>
      </trkpt>
      <trkpt lat="45.93799" lon="4.72627">
        <ele>173</ele>
        <time>2017-07-13T15:26:18Z</time>
      </trkpt>
      <trkpt lat="45.93795" lon="4.72632">
        <ele>173</ele>
        <time>2017-07-13T15:26:19Z</time>
      </trkpt>
      <trkpt lat="45.93791" lon="4.72637">
        <ele>173</ele>
        <time>2017-07-13T15:26:20Z</time>
      </trkpt>
      <trkpt lat="45.93787" lon="4.72643">
        <ele>173</ele>
        <time>2017-07-13T15:26:21Z</time>
      </trkpt>
      <trkpt lat="45.93784" lon="4.72648">
        <ele>173</ele>
        <time>2017-07-13T15:26:22Z</time>
      </trkpt>
      <trkpt lat="45.9378" lon="4.72652">
        <ele>173</ele>
        <time>2017-07-13T15:26:23Z</time>
      </trkpt>
      <trkpt lat="45.93773" lon="4.72661">
        <ele>173</ele>
        <time>2017-07-13T15:26:25Z</time>
      </trkpt>
      <trkpt lat="45.9377" lon="4.72665">
        <ele>173</ele>
        <time>2017-07-13T15:26:26Z</time>
      </trkpt>
      <trkpt lat="45.93763" lon="4.72671">
        <ele>173</ele>
        <time>2017-07-13T15:26:28Z</time>
      </trkpt>
      <trkpt lat="45.9376" lon="4.72675">
        <ele>173</ele>
        <time>2017-07-13T15:26:29Z</time>
      </trkpt>
      <trkpt lat="45.93753" lon="4.72683">
        <ele>173</ele>
        <time>2017-07-13T15:26:31Z</time>
      </trkpt>
      <trkpt lat="45.93749" lon="4.72687">
        <ele>173</ele>
        <time>2017-07-13T15:26:32Z</time>
      </trkpt>
      <trkpt lat="45.93745" lon="4.72692">
        <ele>173</ele>
        <time>2017-07-13T15:26:33Z</time>
      </trkpt>
      <trkpt lat="45.93741" lon="4.72696">
        <ele>173</ele>
        <time>2017-07-13T15:26:34Z</time>
      </trkpt>
      <trkpt lat="45.93737" lon="4.727">
        <ele>173</ele>
        <time>2017-07-13T15:26:35Z</time>
      </trkpt>
      <trkpt lat="45.93733" lon="4.72705">
        <ele>173</ele>
        <time>2017-07-13T15:26:36Z</time>
      </trkpt>
      <trkpt lat="45.93729" lon="4.72709">
        <ele>173</ele>
        <time>2017-07-13T15:26:37Z</time>
      </trkpt>
      <trkpt lat="45.93726" lon="4.72713">
        <ele>173</ele>
        <time>2017-07-13T15:26:38Z</time>
      </trkpt>
      <trkpt lat="45.93719" lon="4.72721">
        <ele>173</ele>
        <time>2017-07-13T15:26:40Z</time>
      </trkpt>
      <trkpt lat="45.93715" lon="4.72725">
        <ele>173</ele>
        <time>2017-07-13T15:26:41Z</time>
      </trkpt>
      <trkpt lat="45.93708" lon="4.72731">
        <ele>173</ele>
        <time>2017-07-13T15:26:43Z</time>
      </trkpt>
      <trkpt lat="45.93705" lon="4.72734">
        <ele>173</ele>
        <time>2017-07-13T15:26:44Z</time>
      </trkpt>
      <trkpt lat="45.93699" lon="4.72741">
        <ele>173</ele>
        <time>2017-07-13T15:26:46Z</time>
      </trkpt>
      <trkpt lat="45.93695" lon="4.72744">
        <ele>173</ele>
        <time>2017-07-13T15:26:47Z</time>
      </trkpt>
      <trkpt lat="45.93692" lon="4.72747">
        <ele>173</ele>
        <time>2017-07-13T15:26:48Z</time>
      </trkpt>
      <trkpt lat="45.93688" lon="4.72751">
        <ele>173</ele>
        <time>2017-07-13T15:26:49Z</time>
      </trkpt>
      <trkpt lat="45.93684" lon="4.72754">
        <ele>173</ele>
        <time>2017-07-13T15:26:50Z</time>
      </trkpt>
      <trkpt lat="45.9368" lon="4.72758">
        <ele>173</ele>
        <time>2017-07-13T15:26:51Z</time>
      </trkpt>
      <trkpt lat="45.93673" lon="4.72764">
        <ele>173</ele>
        <time>2017-07-13T15:26:53Z</time>
      </trkpt>
      <trkpt lat="45.9367" lon="4.72767">
        <ele>173</ele>
        <time>2017-07-13T15:26:54Z</time>
      </trkpt>
      <trkpt lat="45.93664" lon="4.72774">
        <ele>174</ele>
        <time>2017-07-13T15:26:56Z</time>
      </trkpt>
      <trkpt lat="45.9366" lon="4.72777">
        <ele>174</ele>
        <time>2017-07-13T15:26:57Z</time>
      </trkpt>
      <trkpt lat="45.93656" lon="4.72781">
        <ele>174</ele>
        <time>2017-07-13T15:26:58Z</time>
      </trkpt>
      <trkpt lat="45.93651" lon="4.72784">
        <ele>173</ele>
        <time>2017-07-13T15:26:59Z</time>
      </trkpt>
      <trkpt lat="45.93647" lon="4.72788">
        <ele>173</ele>
        <time>2017-07-13T15:27:00Z</time>
      </trkpt>
      <trkpt lat="45.93642" lon="4.72791">
        <ele>173</ele>
        <time>2017-07-13T15:27:01Z</time>
      </trkpt>
      <trkpt lat="45.93637" lon="4.72795">
        <ele>173</ele>
        <time>2017-07-13T15:27:02Z</time>
      </trkpt>
      <trkpt lat="45.93633" lon="4.72799">
        <ele>173</ele>
        <time>2017-07-13T15:27:03Z</time>
      </trkpt>
      <trkpt lat="45.93628" lon="4.72802">
        <ele>173</ele>
        <time>2017-07-13T15:27:04Z</time>
      </trkpt>
      <trkpt lat="45.93624" lon="4.72806">
        <ele>173</ele>
        <time>2017-07-13T15:27:05Z</time>
      </trkpt>
      <trkpt lat="45.9362" lon="4.72809">
        <ele>173</ele>
        <time>2017-07-13T15:27:06Z</time>
      </trkpt>
      <trkpt lat="45.93615" lon="4.72813">
        <ele>173</ele>
        <time>2017-07-13T15:27:07Z</time>
      </trkpt>
      <trkpt lat="45.93611" lon="4.72816">
        <ele>173</ele>
        <time>2017-07-13T15:27:08Z</time>
      </trkpt>
      <trkpt lat="45.93607" lon="4.72819">
        <ele>173</ele>
        <time>2017-07-13T15:27:09Z</time>
      </trkpt>
      <trkpt lat="45.93603" lon="4.72822">
        <ele>173</ele>
        <time>2017-07-13T15:27:10Z</time>
      </trkpt>
      <trkpt lat="45.93599" lon="4.72825">
        <ele>173</ele>
        <time>2017-07-13T15:27:11Z</time>
      </trkpt>
      <trkpt lat="45.93594" lon="4.72828">
        <ele>173</ele>
        <time>2017-07-13T15:27:12Z</time>
      </trkpt>
      <trkpt lat="45.93591" lon="4.72831">
        <ele>172</ele>
        <time>2017-07-13T15:27:13Z</time>
      </trkpt>
      <trkpt lat="45.93583" lon="4.72837">
        <ele>172</ele>
        <time>2017-07-13T15:27:15Z</time>
      </trkpt>
      <trkpt lat="45.9358" lon="4.72839">
        <ele>172</ele>
        <time>2017-07-13T15:27:16Z</time>
      </trkpt>
      <trkpt lat="45.93573" lon="4.72845">
        <ele>172</ele>
        <time>2017-07-13T15:27:18Z</time>
      </trkpt>
      <trkpt lat="45.93569" lon="4.72849">
        <ele>172</ele>
        <time>2017-07-13T15:27:19Z</time>
      </trkpt>
      <trkpt lat="45.93565" lon="4.72852">
        <ele>172</ele>
        <time>2017-07-13T15:27:20Z</time>
      </trkpt>
      <trkpt lat="45.9356" lon="4.72856">
        <ele>172</ele>
        <time>2017-07-13T15:27:21Z</time>
      </trkpt>
      <trkpt lat="45.93555" lon="4.7286">
        <ele>172</ele>
        <time>2017-07-13T15:27:22Z</time>
      </trkpt>
      <trkpt lat="45.93551" lon="4.72865">
        <ele>172</ele>
        <time>2017-07-13T15:27:23Z</time>
      </trkpt>
      <trkpt lat="45.93547" lon="4.7287">
        <ele>173</ele>
        <time>2017-07-13T15:27:24Z</time>
      </trkpt>
      <trkpt lat="45.93542" lon="4.72874">
        <ele>173</ele>
        <time>2017-07-13T15:27:25Z</time>
      </trkpt>
      <trkpt lat="45.93538" lon="4.72879">
        <ele>172</ele>
        <time>2017-07-13T15:27:26Z</time>
      </trkpt>
      <trkpt lat="45.93533" lon="4.72884">
        <ele>172</ele>
        <time>2017-07-13T15:27:27Z</time>
      </trkpt>
      <trkpt lat="45.93529" lon="4.72889">
        <ele>172</ele>
        <time>2017-07-13T15:27:28Z</time>
      </trkpt>
      <trkpt lat="45.93525" lon="4.72893">
        <ele>172</ele>
        <time>2017-07-13T15:27:29Z</time>
      </trkpt>
      <trkpt lat="45.93522" lon="4.72898">
        <ele>172</ele>
        <time>2017-07-13T15:27:30Z</time>
      </trkpt>
      <trkpt lat="45.93518" lon="4.72902">
        <ele>172</ele>
        <time>2017-07-13T15:27:31Z</time>
      </trkpt>
      <trkpt lat="45.93511" lon="4.72909">
        <ele>172</ele>
        <time>2017-07-13T15:27:33Z</time>
      </trkpt>
      <trkpt lat="45.93508" lon="4.72912">
        <ele>172</ele>
        <time>2017-07-13T15:27:34Z</time>
      </trkpt>
      <trkpt lat="45.93502" lon="4.72918">
        <ele>172</ele>
        <time>2017-07-13T15:27:36Z</time>
      </trkpt>
      <trkpt lat="45.93501" lon="4.72922">
        <ele>172</ele>
        <time>2017-07-13T15:27:37Z</time>
      </trkpt>
      <trkpt lat="45.93498" lon="4.72931">
        <ele>172</ele>
        <time>2017-07-13T15:27:39Z</time>
      </trkpt>
      <trkpt lat="45.93497" lon="4.72937">
        <ele>172</ele>
        <time>2017-07-13T15:27:40Z</time>
      </trkpt>
      <trkpt lat="45.93494" lon="4.72948">
        <ele>171</ele>
        <time>2017-07-13T15:27:42Z</time>
      </trkpt>
      <trkpt lat="45.93492" lon="4.72954">
        <ele>171</ele>
        <time>2017-07-13T15:27:43Z</time>
      </trkpt>
      <trkpt lat="45.9349" lon="4.72967">
        <ele>171</ele>
        <time>2017-07-13T15:27:45Z</time>
      </trkpt>
      <trkpt lat="45.93489" lon="4.72973">
        <ele>171</ele>
        <time>2017-07-13T15:27:46Z</time>
      </trkpt>
      <trkpt lat="45.93487" lon="4.72983">
        <ele>170</ele>
        <time>2017-07-13T15:27:48Z</time>
      </trkpt>
      <trkpt lat="45.93486" lon="4.72989">
        <ele>170</ele>
        <time>2017-07-13T15:27:49Z</time>
      </trkpt>
      <trkpt lat="45.93485" lon="4.73001">
        <ele>170</ele>
        <time>2017-07-13T15:27:51Z</time>
      </trkpt>
      <trkpt lat="45.93485" lon="4.73008">
        <ele>170</ele>
        <time>2017-07-13T15:27:52Z</time>
      </trkpt>
      <trkpt lat="45.93484" lon="4.73015">
        <ele>170</ele>
        <time>2017-07-13T15:27:53Z</time>
      </trkpt>
      <trkpt lat="45.93484" lon="4.73022">
        <ele>170</ele>
        <time>2017-07-13T15:27:54Z</time>
      </trkpt>
      <trkpt lat="45.93484" lon="4.73029">
        <ele>170</ele>
        <time>2017-07-13T15:27:55Z</time>
      </trkpt>
      <trkpt lat="45.93486" lon="4.73036">
        <ele>170</ele>
        <time>2017-07-13T15:27:56Z</time>
      </trkpt>
      <trkpt lat="45.93487" lon="4.73043">
        <ele>170</ele>
        <time>2017-07-13T15:27:57Z</time>
      </trkpt>
      <trkpt lat="45.93487" lon="4.73049">
        <ele>170</ele>
        <time>2017-07-13T15:27:58Z</time>
      </trkpt>
      <trkpt lat="45.93486" lon="4.7306">
        <ele>170</ele>
        <time>2017-07-13T15:28:00Z</time>
      </trkpt>
      <trkpt lat="45.93486" lon="4.73066">
        <ele>170</ele>
        <time>2017-07-13T15:28:01Z</time>
      </trkpt>
      <trkpt lat="45.93486" lon="4.73072">
        <ele>170</ele>
        <time>2017-07-13T15:28:02Z</time>
      </trkpt>
      <trkpt lat="45.93486" lon="4.73079">
        <ele>170</ele>
        <time>2017-07-13T15:28:03Z</time>
      </trkpt>
      <trkpt lat="45.93486" lon="4.73086">
        <ele>170</ele>
        <time>2017-07-13T15:28:04Z</time>
      </trkpt>
      <trkpt lat="45.93486" lon="4.73093">
        <ele>170</ele>
        <time>2017-07-13T15:28:05Z</time>
      </trkpt>
      <trkpt lat="45.93486" lon="4.73101">
        <ele>170</ele>
        <time>2017-07-13T15:28:06Z</time>
      </trkpt>
      <trkpt lat="45.93486" lon="4.73108">
        <ele>170</ele>
        <time>2017-07-13T15:28:07Z</time>
      </trkpt>
      <trkpt lat="45.93487" lon="4.73114">
        <ele>170</ele>
        <time>2017-07-13T15:28:08Z</time>
      </trkpt>
      <trkpt lat="45.93487" lon="4.73121">
        <ele>170</ele>
        <time>2017-07-13T15:28:09Z</time>
      </trkpt>
      <trkpt lat="45.93487" lon="4.73133">
        <ele>170</ele>
        <time>2017-07-13T15:28:11Z</time>
      </trkpt>
      <trkpt lat="45.93488" lon="4.73139">
        <ele>170</ele>
        <time>2017-07-13T15:28:12Z</time>
      </trkpt>
      <trkpt lat="45.9349" lon="4.73149">
        <ele>170</ele>
        <time>2017-07-13T15:28:14Z</time>
      </trkpt>
      <trkpt lat="45.93492" lon="4.73155">
        <ele>170</ele>
        <time>2017-07-13T15:28:15Z</time>
      </trkpt>
      <trkpt lat="45.93494" lon="4.73167">
        <ele>170</ele>
        <time>2017-07-13T15:28:17Z</time>
      </trkpt>
      <trkpt lat="45.93496" lon="4.73174">
        <ele>170</ele>
        <time>2017-07-13T15:28:18Z</time>
      </trkpt>
      <trkpt lat="45.93499" lon="4.7318">
        <ele>169</ele>
        <time>2017-07-13T15:28:19Z</time>
      </trkpt>
      <trkpt lat="45.93501" lon="4.73187">
        <ele>169</ele>
        <time>2017-07-13T15:28:20Z</time>
      </trkpt>
      <trkpt lat="45.93503" lon="4.73194">
        <ele>169</ele>
        <time>2017-07-13T15:28:21Z</time>
      </trkpt>
      <trkpt lat="45.93505" lon="4.732">
        <ele>169</ele>
        <time>2017-07-13T15:28:22Z</time>
      </trkpt>
      <trkpt lat="45.93507" lon="4.73206">
        <ele>169</ele>
        <time>2017-07-13T15:28:23Z</time>
      </trkpt>
      <trkpt lat="45.93508" lon="4.73213">
        <ele>169</ele>
        <time>2017-07-13T15:28:24Z</time>
      </trkpt>
      <trkpt lat="45.9351" lon="4.73224">
        <ele>169</ele>
        <time>2017-07-13T15:28:26Z</time>
      </trkpt>
      <trkpt lat="45.93511" lon="4.7323">
        <ele>169</ele>
        <time>2017-07-13T15:28:27Z</time>
      </trkpt>
      <trkpt lat="45.93514" lon="4.73241">
        <ele>169</ele>
        <time>2017-07-13T15:28:29Z</time>
      </trkpt>
      <trkpt lat="45.93515" lon="4.73247">
        <ele>169</ele>
        <time>2017-07-13T15:28:30Z</time>
      </trkpt>
      <trkpt lat="45.93516" lon="4.73253">
        <ele>169</ele>
        <time>2017-07-13T15:28:31Z</time>
      </trkpt>
      <trkpt lat="45.93517" lon="4.7326">
        <ele>169</ele>
        <time>2017-07-13T15:28:32Z</time>
      </trkpt>
      <trkpt lat="45.93519" lon="4.73267">
        <ele>169</ele>
        <time>2017-07-13T15:28:33Z</time>
      </trkpt>
      <trkpt lat="45.9352" lon="4.73274">
        <ele>169</ele>
        <time>2017-07-13T15:28:34Z</time>
      </trkpt>
      <trkpt lat="45.93522" lon="4.73281">
        <ele>169</ele>
        <time>2017-07-13T15:28:35Z</time>
      </trkpt>
      <trkpt lat="45.93523" lon="4.73288">
        <ele>169</ele>
        <time>2017-07-13T15:28:36Z</time>
      </trkpt>
      <trkpt lat="45.93525" lon="4.73294">
        <ele>169</ele>
        <time>2017-07-13T15:28:37Z</time>
      </trkpt>
      <trkpt lat="45.93526" lon="4.733">
        <ele>169</ele>
        <time>2017-07-13T15:28:38Z</time>
      </trkpt>
      <trkpt lat="45.93527" lon="4.73312">
        <ele>169</ele>
        <time>2017-07-13T15:28:40Z</time>
      </trkpt>
      <trkpt lat="45.93528" lon="4.73317">
        <ele>169</ele>
        <time>2017-07-13T15:28:41Z</time>
      </trkpt>
      <trkpt lat="45.9353" lon="4.73328">
        <ele>169</ele>
        <time>2017-07-13T15:28:43Z</time>
      </trkpt>
      <trkpt lat="45.93531" lon="4.73335">
        <ele>169</ele>
        <time>2017-07-13T15:28:44Z</time>
      </trkpt>
      <trkpt lat="45.93532" lon="4.73341">
        <ele>169</ele>
        <time>2017-07-13T15:28:45Z</time>
      </trkpt>
      <trkpt lat="45.93533" lon="4.73348">
        <ele>169</ele>
        <time>2017-07-13T15:28:46Z</time>
      </trkpt>
      <trkpt lat="45.93535" lon="4.73355">
        <ele>169</ele>
        <time>2017-07-13T15:28:47Z</time>
      </trkpt>
      <trkpt lat="45.93536" lon="4.73361">
        <ele>169</ele>
        <time>2017-07-13T15:28:48Z</time>
      </trkpt>
      <trkpt lat="45.93538" lon="4.73373">
        <ele>169</ele>
        <time>2017-07-13T15:28:50Z</time>
      </trkpt>
      <trkpt lat="45.93539" lon="4.73379">
        <ele>169</ele>
        <time>2017-07-13T15:28:51Z</time>
      </trkpt>
      <trkpt lat="45.9354" lon="4.7339">
        <ele>169</ele>
        <time>2017-07-13T15:28:53Z</time>
      </trkpt>
      <trkpt lat="45.93541" lon="4.73396">
        <ele>169</ele>
        <time>2017-07-13T15:28:54Z</time>
      </trkpt>
      <trkpt lat="45.93543" lon="4.73408">
        <ele>169</ele>
        <time>2017-07-13T15:28:56Z</time>
      </trkpt>
      <trkpt lat="45.93544" lon="4.73414">
        <ele>169</ele>
        <time>2017-07-13T15:28:57Z</time>
      </trkpt>
      <trkpt lat="45.93544" lon="4.73421">
        <ele>169</ele>
        <time>2017-07-13T15:28:58Z</time>
      </trkpt>
      <trkpt lat="45.93546" lon="4.73427">
        <ele>169</ele>
        <time>2017-07-13T15:28:59Z</time>
      </trkpt>
      <trkpt lat="45.93547" lon="4.73434">
        <ele>169</ele>
        <time>2017-07-13T15:29:00Z</time>
      </trkpt>
      <trkpt lat="45.93549" lon="4.73441">
        <ele>169</ele>
        <time>2017-07-13T15:29:01Z</time>
      </trkpt>
      <trkpt lat="45.93551" lon="4.73447">
        <ele>169</ele>
        <time>2017-07-13T15:29:02Z</time>
      </trkpt>
      <trkpt lat="45.93553" lon="4.73453">
        <ele>169</ele>
        <time>2017-07-13T15:29:03Z</time>
      </trkpt>
      <trkpt lat="45.93557" lon="4.73465">
        <ele>169</ele>
        <time>2017-07-13T15:29:05Z</time>
      </trkpt>
      <trkpt lat="45.93559" lon="4.7347">
        <ele>169</ele>
        <time>2017-07-13T15:29:06Z</time>
      </trkpt>
      <trkpt lat="45.93561" lon="4.7348">
        <ele>169</ele>
        <time>2017-07-13T15:29:08Z</time>
      </trkpt>
      <trkpt lat="45.93562" lon="4.73486">
        <ele>169</ele>
        <time>2017-07-13T15:29:09Z</time>
      </trkpt>
      <trkpt lat="45.93563" lon="4.73492">
        <ele>169</ele>
        <time>2017-07-13T15:29:10Z</time>
      </trkpt>
      <trkpt lat="45.93564" lon="4.73499">
        <ele>169</ele>
        <time>2017-07-13T15:29:11Z</time>
      </trkpt>
      <trkpt lat="45.93567" lon="4.73506">
        <ele>168</ele>
        <time>2017-07-13T15:29:12Z</time>
      </trkpt>
      <trkpt lat="45.93569" lon="4.73514">
        <ele>168</ele>
        <time>2017-07-13T15:29:13Z</time>
      </trkpt>
      <trkpt lat="45.93571" lon="4.73522">
        <ele>168</ele>
        <time>2017-07-13T15:29:14Z</time>
      </trkpt>
      <trkpt lat="45.93572" lon="4.7353">
        <ele>168</ele>
        <time>2017-07-13T15:29:15Z</time>
      </trkpt>
      <trkpt lat="45.93574" lon="4.73537">
        <ele>169</ele>
        <time>2017-07-13T15:29:16Z</time>
      </trkpt>
      <trkpt lat="45.93576" lon="4.73545">
        <ele>168</ele>
        <time>2017-07-13T15:29:17Z</time>
      </trkpt>
      <trkpt lat="45.93578" lon="4.73552">
        <ele>168</ele>
        <time>2017-07-13T15:29:18Z</time>
      </trkpt>
      <trkpt lat="45.93579" lon="4.73559">
        <ele>168</ele>
        <time>2017-07-13T15:29:19Z</time>
      </trkpt>
      <trkpt lat="45.9358" lon="4.73566">
        <ele>168</ele>
        <time>2017-07-13T15:29:20Z</time>
      </trkpt>
      <trkpt lat="45.93581" lon="4.73573">
        <ele>168</ele>
        <time>2017-07-13T15:29:21Z</time>
      </trkpt>
      <trkpt lat="45.93582" lon="4.7358">
        <ele>168</ele>
        <time>2017-07-13T15:29:22Z</time>
      </trkpt>
      <trkpt lat="45.93583" lon="4.73587">
        <ele>168</ele>
        <time>2017-07-13T15:29:23Z</time>
      </trkpt>
      <trkpt lat="45.93583" lon="4.73593">
        <ele>168</ele>
        <time>2017-07-13T15:29:24Z</time>
      </trkpt>
      <trkpt lat="45.93584" lon="4.736">
        <ele>168</ele>
        <time>2017-07-13T15:29:25Z</time>
      </trkpt>
      <trkpt lat="45.93585" lon="4.73607">
        <ele>168</ele>
        <time>2017-07-13T15:29:26Z</time>
      </trkpt>
      <trkpt lat="45.93585" lon="4.73614">
        <ele>168</ele>
        <time>2017-07-13T15:29:27Z</time>
      </trkpt>
      <trkpt lat="45.93585" lon="4.73621">
        <ele>168</ele>
        <time>2017-07-13T15:29:28Z</time>
      </trkpt>
      <trkpt lat="45.93585" lon="4.73629">
        <ele>168</ele>
        <time>2017-07-13T15:29:29Z</time>
      </trkpt>
      <trkpt lat="45.93585" lon="4.73635">
        <ele>168</ele>
        <time>2017-07-13T15:29:30Z</time>
      </trkpt>
      <trkpt lat="45.93586" lon="4.73642">
        <ele>168</ele>
        <time>2017-07-13T15:29:31Z</time>
      </trkpt>
      <trkpt lat="45.93587" lon="4.73649">
        <ele>168</ele>
        <time>2017-07-13T15:29:32Z</time>
      </trkpt>
      <trkpt lat="45.93587" lon="4.73655">
        <ele>168</ele>
        <time>2017-07-13T15:29:33Z</time>
      </trkpt>
      <trkpt lat="45.93589" lon="4.73668">
        <ele>168</ele>
        <time>2017-07-13T15:29:35Z</time>
      </trkpt>
      <trkpt lat="45.9359" lon="4.73674">
        <ele>168</ele>
        <time>2017-07-13T15:29:36Z</time>
      </trkpt>
      <trkpt lat="45.93589" lon="4.73685">
        <ele>169</ele>
        <time>2017-07-13T15:29:38Z</time>
      </trkpt>
      <trkpt lat="45.93589" lon="4.73691">
        <ele>169</ele>
        <time>2017-07-13T15:29:39Z</time>
      </trkpt>
      <trkpt lat="45.93587" lon="4.73702">
        <ele>169</ele>
        <time>2017-07-13T15:29:41Z</time>
      </trkpt>
      <trkpt lat="45.93586" lon="4.73707">
        <ele>169</ele>
        <time>2017-07-13T15:29:42Z</time>
      </trkpt>
      <trkpt lat="45.93581" lon="4.73716">
        <ele>169</ele>
        <time>2017-07-13T15:29:44Z</time>
      </trkpt>
      <trkpt lat="45.93579" lon="4.7372">
        <ele>169</ele>
        <time>2017-07-13T15:29:45Z</time>
      </trkpt>
      <trkpt lat="45.93575" lon="4.73723">
        <ele>169</ele>
        <time>2017-07-13T15:29:46Z</time>
      </trkpt>
      <trkpt lat="45.93571" lon="4.73727">
        <ele>169</ele>
        <time>2017-07-13T15:29:47Z</time>
      </trkpt>
      <trkpt lat="45.93567" lon="4.7373">
        <ele>169</ele>
        <time>2017-07-13T15:29:48Z</time>
      </trkpt>
      <trkpt lat="45.93563" lon="4.73735">
        <ele>169</ele>
        <time>2017-07-13T15:29:49Z</time>
      </trkpt>
      <trkpt lat="45.93558" lon="4.73739">
        <ele>169</ele>
        <time>2017-07-13T15:29:50Z</time>
      </trkpt>
      <trkpt lat="45.93553" lon="4.73744">
        <ele>169</ele>
        <time>2017-07-13T15:29:51Z</time>
      </trkpt>
      <trkpt lat="45.93549" lon="4.73748">
        <ele>169</ele>
        <time>2017-07-13T15:29:52Z</time>
      </trkpt>
      <trkpt lat="45.93545" lon="4.73753">
        <ele>169</ele>
        <time>2017-07-13T15:29:53Z</time>
      </trkpt>
      <trkpt lat="45.9354" lon="4.73757">
        <ele>169</ele>
        <time>2017-07-13T15:29:54Z</time>
      </trkpt>
      <trkpt lat="45.93536" lon="4.73761">
        <ele>169</ele>
        <time>2017-07-13T15:29:55Z</time>
      </trkpt>
      <trkpt lat="45.93532" lon="4.73765">
        <ele>169</ele>
        <time>2017-07-13T15:29:56Z</time>
      </trkpt>
      <trkpt lat="45.93528" lon="4.73769">
        <ele>169</ele>
        <time>2017-07-13T15:29:57Z</time>
      </trkpt>
      <trkpt lat="45.93524" lon="4.73773">
        <ele>169</ele>
        <time>2017-07-13T15:29:58Z</time>
      </trkpt>
      <trkpt lat="45.93521" lon="4.73777">
        <ele>169</ele>
        <time>2017-07-13T15:29:59Z</time>
      </trkpt>
      <trkpt lat="45.93514" lon="4.73785">
        <ele>169</ele>
        <time>2017-07-13T15:30:01Z</time>
      </trkpt>
      <trkpt lat="45.93511" lon="4.73788">
        <ele>169</ele>
        <time>2017-07-13T15:30:02Z</time>
      </trkpt>
      <trkpt lat="45.93505" lon="4.73795">
        <ele>169</ele>
        <time>2017-07-13T15:30:04Z</time>
      </trkpt>
      <trkpt lat="45.93501" lon="4.73799">
        <ele>169</ele>
        <time>2017-07-13T15:30:05Z</time>
      </trkpt>
      <trkpt lat="45.93497" lon="4.73802">
        <ele>169</ele>
        <time>2017-07-13T15:30:06Z</time>
      </trkpt>
      <trkpt lat="45.93493" lon="4.73806">
        <ele>169</ele>
        <time>2017-07-13T15:30:07Z</time>
      </trkpt>
      <trkpt lat="45.93488" lon="4.73808">
        <ele>169</ele>
        <time>2017-07-13T15:30:08Z</time>
      </trkpt>
      <trkpt lat="45.93484" lon="4.7381">
        <ele>169</ele>
        <time>2017-07-13T15:30:09Z</time>
      </trkpt>
      <trkpt lat="45.93476" lon="4.73815">
        <ele>169</ele>
        <time>2017-07-13T15:30:11Z</time>
      </trkpt>
      <trkpt lat="45.93472" lon="4.73817">
        <ele>169</ele>
        <time>2017-07-13T15:30:12Z</time>
      </trkpt>
      <trkpt lat="45.93465" lon="4.73821">
        <ele>169</ele>
        <time>2017-07-13T15:30:14Z</time>
      </trkpt>
      <trkpt lat="45.93462" lon="4.73823">
        <ele>169</ele>
        <time>2017-07-13T15:30:15Z</time>
      </trkpt>
      <trkpt lat="45.93455" lon="4.73826">
        <ele>169</ele>
        <time>2017-07-13T15:30:17Z</time>
      </trkpt>
      <trkpt lat="45.93452" lon="4.73828">
        <ele>169</ele>
        <time>2017-07-13T15:30:18Z</time>
      </trkpt>
      <trkpt lat="45.93444" lon="4.73832">
        <ele>169</ele>
        <time>2017-07-13T15:30:21Z</time>
      </trkpt>
      <trkpt lat="45.93442" lon="4.73833">
        <ele>169</ele>
        <time>2017-07-13T15:30:22Z</time>
      </trkpt>
      <trkpt lat="45.93436" lon="4.73836">
        <ele>169</ele>
        <time>2017-07-13T15:30:24Z</time>
      </trkpt>
      <trkpt lat="45.93433" lon="4.73837">
        <ele>169</ele>
        <time>2017-07-13T15:30:25Z</time>
      </trkpt>
      <trkpt lat="45.93425" lon="4.7384">
        <ele>169</ele>
        <time>2017-07-13T15:30:27Z</time>
      </trkpt>
      <trkpt lat="45.93421" lon="4.73842">
        <ele>169</ele>
        <time>2017-07-13T15:30:28Z</time>
      </trkpt>
      <trkpt lat="45.93416" lon="4.73844">
        <ele>169</ele>
        <time>2017-07-13T15:30:29Z</time>
      </trkpt>
      <trkpt lat="45.93412" lon="4.73846">
        <ele>169</ele>
        <time>2017-07-13T15:30:30Z</time>
      </trkpt>
      <trkpt lat="45.93407" lon="4.73848">
        <ele>169</ele>
        <time>2017-07-13T15:30:31Z</time>
      </trkpt>
      <trkpt lat="45.93403" lon="4.73851">
        <ele>169</ele>
        <time>2017-07-13T15:30:32Z</time>
      </trkpt>
      <trkpt lat="45.93399" lon="4.73853">
        <ele>169</ele>
        <time>2017-07-13T15:30:33Z</time>
      </trkpt>
      <trkpt lat="45.93394" lon="4.73856">
        <ele>169</ele>
        <time>2017-07-13T15:30:34Z</time>
      </trkpt>
      <trkpt lat="45.93386" lon="4.73861">
        <ele>169</ele>
        <time>2017-07-13T15:30:36Z</time>
      </trkpt>
      <trkpt lat="45.93382" lon="4.73863">
        <ele>169</ele>
        <time>2017-07-13T15:30:37Z</time>
      </trkpt>
      <trkpt lat="45.93375" lon="4.73868">
        <ele>169</ele>
        <time>2017-07-13T15:30:39Z</time>
      </trkpt>
      <trkpt lat="45.93372" lon="4.73872">
        <ele>169</ele>
        <time>2017-07-13T15:30:40Z</time>
      </trkpt>
      <trkpt lat="45.93366" lon="4.73878">
        <ele>168</ele>
        <time>2017-07-13T15:30:42Z</time>
      </trkpt>
      <trkpt lat="45.93363" lon="4.73881">
        <ele>168</ele>
        <time>2017-07-13T15:30:43Z</time>
      </trkpt>
      <trkpt lat="45.93358" lon="4.73887">
        <ele>168</ele>
        <time>2017-07-13T15:30:45Z</time>
      </trkpt>
      <trkpt lat="45.93356" lon="4.7389">
        <ele>168</ele>
        <time>2017-07-13T15:30:46Z</time>
      </trkpt>
      <trkpt lat="45.93351" lon="4.73898">
        <ele>168</ele>
        <time>2017-07-13T15:30:49Z</time>
      </trkpt>
      <trkpt lat="45.93349" lon="4.739">
        <ele>168</ele>
        <time>2017-07-13T15:30:50Z</time>
      </trkpt>
      <trkpt lat="45.93345" lon="4.73907">
        <ele>168</ele>
        <time>2017-07-13T15:30:52Z</time>
      </trkpt>
      <trkpt lat="45.93343" lon="4.73911">
        <ele>168</ele>
        <time>2017-07-13T15:30:53Z</time>
      </trkpt>
      <trkpt lat="45.93338" lon="4.7392">
        <ele>168</ele>
        <time>2017-07-13T15:30:55Z</time>
      </trkpt>
      <trkpt lat="45.93335" lon="4.73925">
        <ele>168</ele>
        <time>2017-07-13T15:30:56Z</time>
      </trkpt>
      <trkpt lat="45.93332" lon="4.73929">
        <ele>168</ele>
        <time>2017-07-13T15:30:57Z</time>
      </trkpt>
      <trkpt lat="45.93329" lon="4.73935">
        <ele>168</ele>
        <time>2017-07-13T15:30:58Z</time>
      </trkpt>
      <trkpt lat="45.93326" lon="4.7394">
        <ele>168</ele>
        <time>2017-07-13T15:30:59Z</time>
      </trkpt>
      <trkpt lat="45.93323" lon="4.73946">
        <ele>168</ele>
        <time>2017-07-13T15:31:00Z</time>
      </trkpt>
      <trkpt lat="45.9332" lon="4.73951">
        <ele>168</ele>
        <time>2017-07-13T15:31:01Z</time>
      </trkpt>
      <trkpt lat="45.93317" lon="4.73956">
        <ele>168</ele>
        <time>2017-07-13T15:31:02Z</time>
      </trkpt>
      <trkpt lat="45.93314" lon="4.73961">
        <ele>168</ele>
        <time>2017-07-13T15:31:03Z</time>
      </trkpt>
      <trkpt lat="45.93311" lon="4.73966">
        <ele>168</ele>
        <time>2017-07-13T15:31:04Z</time>
      </trkpt>
      <trkpt lat="45.93306" lon="4.73975">
        <ele>168</ele>
        <time>2017-07-13T15:31:06Z</time>
      </trkpt>
      <trkpt lat="45.93304" lon="4.73978">
        <ele>168</ele>
        <time>2017-07-13T15:31:07Z</time>
      </trkpt>
      <trkpt lat="45.93301" lon="4.73986">
        <ele>168</ele>
        <time>2017-07-13T15:31:09Z</time>
      </trkpt>
      <trkpt lat="45.93299" lon="4.7399">
        <ele>168</ele>
        <time>2017-07-13T15:31:10Z</time>
      </trkpt>
      <trkpt lat="45.93295" lon="4.73998">
        <ele>168</ele>
        <time>2017-07-13T15:31:12Z</time>
      </trkpt>
      <trkpt lat="45.93292" lon="4.74002">
        <ele>168</ele>
        <time>2017-07-13T15:31:13Z</time>
      </trkpt>
      <trkpt lat="45.93289" lon="4.74007">
        <ele>168</ele>
        <time>2017-07-13T15:31:14Z</time>
      </trkpt>
      <trkpt lat="45.93286" lon="4.74013">
        <ele>168</ele>
        <time>2017-07-13T15:31:15Z</time>
      </trkpt>
      <trkpt lat="45.93284" lon="4.74019">
        <ele>168</ele>
        <time>2017-07-13T15:31:16Z</time>
      </trkpt>
      <trkpt lat="45.93282" lon="4.74024">
        <ele>168</ele>
        <time>2017-07-13T15:31:17Z</time>
      </trkpt>
      <trkpt lat="45.93276" lon="4.74035">
        <ele>168</ele>
        <time>2017-07-13T15:31:19Z</time>
      </trkpt>
      <trkpt lat="45.93274" lon="4.74039">
        <ele>168</ele>
        <time>2017-07-13T15:31:20Z</time>
      </trkpt>
      <trkpt lat="45.9327" lon="4.74047">
        <ele>168</ele>
        <time>2017-07-13T15:31:22Z</time>
      </trkpt>
      <trkpt lat="45.93268" lon="4.74051">
        <ele>168</ele>
        <time>2017-07-13T15:31:23Z</time>
      </trkpt>
      <trkpt lat="45.93262" lon="4.74061">
        <ele>168</ele>
        <time>2017-07-13T15:31:26Z</time>
      </trkpt>
      <trkpt lat="45.93261" lon="4.74065">
        <ele>167</ele>
        <time>2017-07-13T15:31:27Z</time>
      </trkpt>
      <trkpt lat="45.93256" lon="4.74074">
        <ele>167</ele>
        <time>2017-07-13T15:31:29Z</time>
      </trkpt>
      <trkpt lat="45.93253" lon="4.74078">
        <ele>167</ele>
        <time>2017-07-13T15:31:30Z</time>
      </trkpt>
      <trkpt lat="45.9325" lon="4.74084">
        <ele>167</ele>
        <time>2017-07-13T15:31:31Z</time>
      </trkpt>
      <trkpt lat="45.93248" lon="4.74089">
        <ele>167</ele>
        <time>2017-07-13T15:31:32Z</time>
      </trkpt>
      <trkpt lat="45.93245" lon="4.74095">
        <ele>167</ele>
        <time>2017-07-13T15:31:33Z</time>
      </trkpt>
      <trkpt lat="45.93242" lon="4.741">
        <ele>167</ele>
        <time>2017-07-13T15:31:34Z</time>
      </trkpt>
      <trkpt lat="45.93237" lon="4.74106">
        <ele>167</ele>
        <time>2017-07-13T15:31:36Z</time>
      </trkpt>
      <trkpt lat="45.93233" lon="4.74108">
        <ele>167</ele>
        <time>2017-07-13T15:31:37Z</time>
      </trkpt>
      <trkpt lat="45.93225" lon="4.74107">
        <ele>167</ele>
        <time>2017-07-13T15:31:39Z</time>
      </trkpt>
      <trkpt lat="45.93221" lon="4.74106">
        <ele>167</ele>
        <time>2017-07-13T15:31:40Z</time>
      </trkpt>
      <trkpt lat="45.93214" lon="4.74103">
        <ele>167</ele>
        <time>2017-07-13T15:31:42Z</time>
      </trkpt>
      <trkpt lat="45.9321" lon="4.74101">
        <ele>167</ele>
        <time>2017-07-13T15:31:43Z</time>
      </trkpt>
      <trkpt lat="45.93204" lon="4.74097">
        <ele>167</ele>
        <time>2017-07-13T15:31:45Z</time>
      </trkpt>
      <trkpt lat="45.93202" lon="4.74096">
        <ele>167</ele>
        <time>2017-07-13T15:31:46Z</time>
      </trkpt>
      <trkpt lat="45.93196" lon="4.74091">
        <ele>167</ele>
        <time>2017-07-13T15:31:48Z</time>
      </trkpt>
      <trkpt lat="45.93193" lon="4.74088">
        <ele>167</ele>
        <time>2017-07-13T15:31:49Z</time>
      </trkpt>
      <trkpt lat="45.93187" lon="4.74082">
        <ele>168</ele>
        <time>2017-07-13T15:31:51Z</time>
      </trkpt>
      <trkpt lat="45.93183" lon="4.74079">
        <ele>168</ele>
        <time>2017-07-13T15:31:52Z</time>
      </trkpt>
      <trkpt lat="45.93176" lon="4.74072">
        <ele>168</ele>
        <time>2017-07-13T15:31:54Z</time>
      </trkpt>
      <trkpt lat="45.93172" lon="4.74069">
        <ele>168</ele>
        <time>2017-07-13T15:31:55Z</time>
      </trkpt>
      <trkpt lat="45.93166" lon="4.74062">
        <ele>168</ele>
        <time>2017-07-13T15:31:57Z</time>
      </trkpt>
      <trkpt lat="45.93164" lon="4.74059">
        <ele>168</ele>
        <time>2017-07-13T15:31:58Z</time>
      </trkpt>
      <trkpt lat="45.93158" lon="4.74053">
        <ele>168</ele>
        <time>2017-07-13T15:32:00Z</time>
      </trkpt>
      <trkpt lat="45.93154" lon="4.74049">
        <ele>168</ele>
        <time>2017-07-13T15:32:01Z</time>
      </trkpt>
      <trkpt lat="45.93147" lon="4.74042">
        <ele>168</ele>
        <time>2017-07-13T15:32:03Z</time>
      </trkpt>
      <trkpt lat="45.93142" lon="4.74039">
        <ele>168</ele>
        <time>2017-07-13T15:32:04Z</time>
      </trkpt>
      <trkpt lat="45.93138" lon="4.74036">
        <ele>168</ele>
        <time>2017-07-13T15:32:05Z</time>
      </trkpt>
      <trkpt lat="45.93134" lon="4.74033">
        <ele>168</ele>
        <time>2017-07-13T15:32:06Z</time>
      </trkpt>
      <trkpt lat="45.9313" lon="4.7403">
        <ele>168</ele>
        <time>2017-07-13T15:32:07Z</time>
      </trkpt>
      <trkpt lat="45.93125" lon="4.74028">
        <ele>168</ele>
        <time>2017-07-13T15:32:08Z</time>
      </trkpt>
      <trkpt lat="45.93117" lon="4.74025">
        <ele>168</ele>
        <time>2017-07-13T15:32:10Z</time>
      </trkpt>
      <trkpt lat="45.93113" lon="4.74024">
        <ele>168</ele>
        <time>2017-07-13T15:32:11Z</time>
      </trkpt>
      <trkpt lat="45.93108" lon="4.74022">
        <ele>168</ele>
        <time>2017-07-13T15:32:12Z</time>
      </trkpt>
      <trkpt lat="45.93104" lon="4.74021">
        <ele>168</ele>
        <time>2017-07-13T15:32:13Z</time>
      </trkpt>
      <trkpt lat="45.93099" lon="4.7402">
        <ele>168</ele>
        <time>2017-07-13T15:32:14Z</time>
      </trkpt>
      <trkpt lat="45.93094" lon="4.7402">
        <ele>168</ele>
        <time>2017-07-13T15:32:15Z</time>
      </trkpt>
      <trkpt lat="45.93088" lon="4.7402">
        <ele>168</ele>
        <time>2017-07-13T15:32:16Z</time>
      </trkpt>
      <trkpt lat="45.93083" lon="4.74019">
        <ele>169</ele>
        <time>2017-07-13T15:32:17Z</time>
      </trkpt>
      <trkpt lat="45.93079" lon="4.74018">
        <ele>169</ele>
        <time>2017-07-13T15:32:18Z</time>
      </trkpt>
      <trkpt lat="45.93074" lon="4.74017">
        <ele>169</ele>
        <time>2017-07-13T15:32:19Z</time>
      </trkpt>
      <trkpt lat="45.93069" lon="4.74016">
        <ele>169</ele>
        <time>2017-07-13T15:32:20Z</time>
      </trkpt>
      <trkpt lat="45.93065" lon="4.74015">
        <ele>169</ele>
        <time>2017-07-13T15:32:21Z</time>
      </trkpt>
      <trkpt lat="45.9306" lon="4.74013">
        <ele>169</ele>
        <time>2017-07-13T15:32:22Z</time>
      </trkpt>
      <trkpt lat="45.93056" lon="4.74011">
        <ele>169</ele>
        <time>2017-07-13T15:32:23Z</time>
      </trkpt>
      <trkpt lat="45.93048" lon="4.74008">
        <ele>169</ele>
        <time>2017-07-13T15:32:25Z</time>
      </trkpt>
      <trkpt lat="45.93044" lon="4.74006">
        <ele>169</ele>
        <time>2017-07-13T15:32:26Z</time>
      </trkpt>
      <trkpt lat="45.93037" lon="4.74003">
        <ele>169</ele>
        <time>2017-07-13T15:32:28Z</time>
      </trkpt>
      <trkpt lat="45.93034" lon="4.74001">
        <ele>169</ele>
        <time>2017-07-13T15:32:29Z</time>
      </trkpt>
      <trkpt lat="45.93027" lon="4.73997">
        <ele>169</ele>
        <time>2017-07-13T15:32:31Z</time>
      </trkpt>
      <trkpt lat="45.93024" lon="4.73997">
        <ele>169</ele>
        <time>2017-07-13T15:32:32Z</time>
      </trkpt>
      <trkpt lat="45.93017" lon="4.73998">
        <ele>169</ele>
        <time>2017-07-13T15:32:34Z</time>
      </trkpt>
      <trkpt lat="45.93014" lon="4.74001">
        <ele>170</ele>
        <time>2017-07-13T15:32:35Z</time>
      </trkpt>
      <trkpt lat="45.93009" lon="4.74008">
        <ele>170</ele>
        <time>2017-07-13T15:32:37Z</time>
      </trkpt>
      <trkpt lat="45.93007" lon="4.74012">
        <ele>170</ele>
        <time>2017-07-13T15:32:38Z</time>
      </trkpt>
      <trkpt lat="45.93004" lon="4.74024">
        <ele>170</ele>
        <time>2017-07-13T15:32:40Z</time>
      </trkpt>
      <trkpt lat="45.93002" lon="4.74029">
        <ele>170</ele>
        <time>2017-07-13T15:32:41Z</time>
      </trkpt>
      <trkpt lat="45.93" lon="4.7404">
        <ele>171</ele>
        <time>2017-07-13T15:32:43Z</time>
      </trkpt>
      <trkpt lat="45.92999" lon="4.74045">
        <ele>171</ele>
        <time>2017-07-13T15:32:44Z</time>
      </trkpt>
      <trkpt lat="45.92999" lon="4.74054">
        <ele>171</ele>
        <time>2017-07-13T15:32:46Z</time>
      </trkpt>
      <trkpt lat="45.92999" lon="4.74059">
        <ele>171</ele>
        <time>2017-07-13T15:32:47Z</time>
      </trkpt>
      <trkpt lat="45.93" lon="4.74071">
        <ele>171</ele>
        <time>2017-07-13T15:32:49Z</time>
      </trkpt>
      <trkpt lat="45.93" lon="4.74076">
        <ele>171</ele>
        <time>2017-07-13T15:32:50Z</time>
      </trkpt>
      <trkpt lat="45.93" lon="4.74088">
        <ele>171</ele>
        <time>2017-07-13T15:32:52Z</time>
      </trkpt>
      <trkpt lat="45.93" lon="4.74093">
        <ele>171</ele>
        <time>2017-07-13T15:32:53Z</time>
      </trkpt>
      <trkpt lat="45.92997" lon="4.74104">
        <ele>171</ele>
        <time>2017-07-13T15:32:55Z</time>
      </trkpt>
      <trkpt lat="45.92996" lon="4.74109">
        <ele>171</ele>
        <time>2017-07-13T15:32:56Z</time>
      </trkpt>
      <trkpt lat="45.92993" lon="4.74119">
        <ele>171</ele>
        <time>2017-07-13T15:32:58Z</time>
      </trkpt>
      <trkpt lat="45.92991" lon="4.74124">
        <ele>171</ele>
        <time>2017-07-13T15:32:59Z</time>
      </trkpt>
      <trkpt lat="45.92988" lon="4.74133">
        <ele>171</ele>
        <time>2017-07-13T15:33:01Z</time>
      </trkpt>
      <trkpt lat="45.92987" lon="4.74137">
        <ele>171</ele>
        <time>2017-07-13T15:33:02Z</time>
      </trkpt>
      <trkpt lat="45.92985" lon="4.74145">
        <ele>170</ele>
        <time>2017-07-13T15:33:04Z</time>
      </trkpt>
      <trkpt lat="45.92984" lon="4.74149">
        <ele>170</ele>
        <time>2017-07-13T15:33:05Z</time>
      </trkpt>
      <trkpt lat="45.92981" lon="4.74158">
        <ele>170</ele>
        <time>2017-07-13T15:33:07Z</time>
      </trkpt>
      <trkpt lat="45.9298" lon="4.74162">
        <ele>170</ele>
        <time>2017-07-13T15:33:08Z</time>
      </trkpt>
      <trkpt lat="45.92978" lon="4.74173">
        <ele>170</ele>
        <time>2017-07-13T15:33:11Z</time>
      </trkpt>
      <trkpt lat="45.92976" lon="4.74177">
        <ele>170</ele>
        <time>2017-07-13T15:33:12Z</time>
      </trkpt>
      <trkpt lat="45.92973" lon="4.74186">
        <ele>170</ele>
        <time>2017-07-13T15:33:14Z</time>
      </trkpt>
      <trkpt lat="45.92971" lon="4.7419">
        <ele>170</ele>
        <time>2017-07-13T15:33:15Z</time>
      </trkpt>
      <trkpt lat="45.92965" lon="4.74198">
        <ele>170</ele>
        <time>2017-07-13T15:33:17Z</time>
      </trkpt>
      <trkpt lat="45.92962" lon="4.74201">
        <ele>170</ele>
        <time>2017-07-13T15:33:18Z</time>
      </trkpt>
      <trkpt lat="45.92955" lon="4.74203">
        <ele>170</ele>
        <time>2017-07-13T15:33:20Z</time>
      </trkpt>
      <trkpt lat="45.92951" lon="4.74203">
        <ele>170</ele>
        <time>2017-07-13T15:33:21Z</time>
      </trkpt>
      <trkpt lat="45.92945" lon="4.74202">
        <ele>170</ele>
        <time>2017-07-13T15:33:23Z</time>
      </trkpt>
      <trkpt lat="45.92942" lon="4.74201">
        <ele>170</ele>
        <time>2017-07-13T15:33:24Z</time>
      </trkpt>
      <trkpt lat="45.92937" lon="4.74197">
        <ele>170</ele>
        <time>2017-07-13T15:33:26Z</time>
      </trkpt>
      <trkpt lat="45.92934" lon="4.74195">
        <ele>170</ele>
        <time>2017-07-13T15:33:27Z</time>
      </trkpt>
      <trkpt lat="45.92927" lon="4.7419">
        <ele>171</ele>
        <time>2017-07-13T15:33:29Z</time>
      </trkpt>
      <trkpt lat="45.92924" lon="4.74188">
        <ele>171</ele>
        <time>2017-07-13T15:33:30Z</time>
      </trkpt>
      <trkpt lat="45.92917" lon="4.74184">
        <ele>171</ele>
        <time>2017-07-13T15:33:32Z</time>
      </trkpt>
      <trkpt lat="45.92915" lon="4.74182">
        <ele>172</ele>
        <time>2017-07-13T15:33:33Z</time>
      </trkpt>
      <trkpt lat="45.92907" lon="4.74178">
        <ele>172</ele>
        <time>2017-07-13T15:33:36Z</time>
      </trkpt>
      <trkpt lat="45.92904" lon="4.74176">
        <ele>172</ele>
        <time>2017-07-13T15:33:37Z</time>
      </trkpt>
      <trkpt lat="45.92898" lon="4.74172">
        <ele>172</ele>
        <time>2017-07-13T15:33:39Z</time>
      </trkpt>
      <trkpt lat="45.92895" lon="4.74171">
        <ele>172</ele>
        <time>2017-07-13T15:33:40Z</time>
      </trkpt>
      <trkpt lat="45.92889" lon="4.74166">
        <ele>172</ele>
        <time>2017-07-13T15:33:42Z</time>
      </trkpt>
      <trkpt lat="45.92887" lon="4.74162">
        <ele>172</ele>
        <time>2017-07-13T15:33:43Z</time>
      </trkpt>
      <trkpt lat="45.92883" lon="4.74152">
        <ele>172</ele>
        <time>2017-07-13T15:33:45Z</time>
      </trkpt>
      <trkpt lat="45.92882" lon="4.74146">
        <ele>172</ele>
        <time>2017-07-13T15:33:46Z</time>
      </trkpt>
      <trkpt lat="45.92883" lon="4.74134">
        <ele>172</ele>
        <time>2017-07-13T15:33:48Z</time>
      </trkpt>
      <trkpt lat="45.92886" lon="4.74127">
        <ele>172</ele>
        <time>2017-07-13T15:33:49Z</time>
      </trkpt>
      <trkpt lat="45.92889" lon="4.74121">
        <ele>172</ele>
        <time>2017-07-13T15:33:50Z</time>
      </trkpt>
      <trkpt lat="45.92894" lon="4.74115">
        <ele>172</ele>
        <time>2017-07-13T15:33:51Z</time>
      </trkpt>
      <trkpt lat="45.92899" lon="4.7411">
        <ele>172</ele>
        <time>2017-07-13T15:33:52Z</time>
      </trkpt>
      <trkpt lat="45.92904" lon="4.74104">
        <ele>172</ele>
        <time>2017-07-13T15:33:53Z</time>
      </trkpt>
      <trkpt lat="45.92908" lon="4.74095">
        <ele>172</ele>
        <time>2017-07-13T15:33:54Z</time>
      </trkpt>
      <trkpt lat="45.92911" lon="4.74086">
        <ele>173</ele>
        <time>2017-07-13T15:33:55Z</time>
      </trkpt>
      <trkpt lat="45.92913" lon="4.74075">
        <ele>173</ele>
        <time>2017-07-13T15:33:56Z</time>
      </trkpt>
      <trkpt lat="45.92914" lon="4.74065">
        <ele>173</ele>
        <time>2017-07-13T15:33:57Z</time>
      </trkpt>
      <trkpt lat="45.92914" lon="4.74055">
        <ele>172</ele>
        <time>2017-07-13T15:33:58Z</time>
      </trkpt>
      <trkpt lat="45.92914" lon="4.74045">
        <ele>172</ele>
        <time>2017-07-13T15:33:59Z</time>
      </trkpt>
      <trkpt lat="45.92915" lon="4.74036">
        <ele>172</ele>
        <time>2017-07-13T15:34:00Z</time>
      </trkpt>
      <trkpt lat="45.92917" lon="4.74027">
        <ele>172</ele>
        <time>2017-07-13T15:34:01Z</time>
      </trkpt>
      <trkpt lat="45.92919" lon="4.74019">
        <ele>172</ele>
        <time>2017-07-13T15:34:02Z</time>
      </trkpt>
      <trkpt lat="45.92919" lon="4.74011">
        <ele>172</ele>
        <time>2017-07-13T15:34:03Z</time>
      </trkpt>
      <trkpt lat="45.92918" lon="4.74002">
        <ele>172</ele>
        <time>2017-07-13T15:34:04Z</time>
      </trkpt>
      <trkpt lat="45.92914" lon="4.73995">
        <ele>172</ele>
        <time>2017-07-13T15:34:05Z</time>
      </trkpt>
      <trkpt lat="45.9291" lon="4.73989">
        <ele>172</ele>
        <time>2017-07-13T15:34:06Z</time>
      </trkpt>
      <trkpt lat="45.92906" lon="4.73985">
        <ele>172</ele>
        <time>2017-07-13T15:34:07Z</time>
      </trkpt>
      <trkpt lat="45.929" lon="4.73982">
        <ele>172</ele>
        <time>2017-07-13T15:34:08Z</time>
      </trkpt>
      <trkpt lat="45.92896" lon="4.73978">
        <ele>172</ele>
        <time>2017-07-13T15:34:09Z</time>
      </trkpt>
      <trkpt lat="45.92892" lon="4.73973">
        <ele>172</ele>
        <time>2017-07-13T15:34:10Z</time>
      </trkpt>
      <trkpt lat="45.92889" lon="4.73967">
        <ele>172</ele>
        <time>2017-07-13T15:34:11Z</time>
      </trkpt>
      <trkpt lat="45.92888" lon="4.73959">
        <ele>172</ele>
        <time>2017-07-13T15:34:12Z</time>
      </trkpt>
      <trkpt lat="45.92888" lon="4.73952">
        <ele>172</ele>
        <time>2017-07-13T15:34:13Z</time>
      </trkpt>
      <trkpt lat="45.92887" lon="4.73944">
        <ele>172</ele>
        <time>2017-07-13T15:34:14Z</time>
      </trkpt>
      <trkpt lat="45.92887" lon="4.73936">
        <ele>172</ele>
        <time>2017-07-13T15:34:15Z</time>
      </trkpt>
      <trkpt lat="45.92887" lon="4.73928">
        <ele>172</ele>
        <time>2017-07-13T15:34:16Z</time>
      </trkpt>
      <trkpt lat="45.92887" lon="4.7392">
        <ele>172</ele>
        <time>2017-07-13T15:34:17Z</time>
      </trkpt>
      <trkpt lat="45.92886" lon="4.73912">
        <ele>173</ele>
        <time>2017-07-13T15:34:18Z</time>
      </trkpt>
      <trkpt lat="45.92885" lon="4.73904">
        <ele>173</ele>
        <time>2017-07-13T15:34:19Z</time>
      </trkpt>
      <trkpt lat="45.92884" lon="4.73896">
        <ele>173</ele>
        <time>2017-07-13T15:34:20Z</time>
      </trkpt>
      <trkpt lat="45.92883" lon="4.73888">
        <ele>173</ele>
        <time>2017-07-13T15:34:21Z</time>
      </trkpt>
      <trkpt lat="45.92882" lon="4.73881">
        <ele>173</ele>
        <time>2017-07-13T15:34:22Z</time>
      </trkpt>
      <trkpt lat="45.92881" lon="4.73873">
        <ele>173</ele>
        <time>2017-07-13T15:34:23Z</time>
      </trkpt>
      <trkpt lat="45.92879" lon="4.73866">
        <ele>173</ele>
        <time>2017-07-13T15:34:24Z</time>
      </trkpt>
      <trkpt lat="45.92877" lon="4.73859">
        <ele>173</ele>
        <time>2017-07-13T15:34:25Z</time>
      </trkpt>
      <trkpt lat="45.92876" lon="4.73852">
        <ele>173</ele>
        <time>2017-07-13T15:34:26Z</time>
      </trkpt>
      <trkpt lat="45.92873" lon="4.73845">
        <ele>173</ele>
        <time>2017-07-13T15:34:27Z</time>
      </trkpt>
      <trkpt lat="45.92871" lon="4.73838">
        <ele>173</ele>
        <time>2017-07-13T15:34:28Z</time>
      </trkpt>
      <trkpt lat="45.92869" lon="4.7383">
        <ele>173</ele>
        <time>2017-07-13T15:34:29Z</time>
      </trkpt>
      <trkpt lat="45.92866" lon="4.73823">
        <ele>173</ele>
        <time>2017-07-13T15:34:30Z</time>
      </trkpt>
      <trkpt lat="45.92864" lon="4.73816">
        <ele>173</ele>
        <time>2017-07-13T15:34:31Z</time>
      </trkpt>
      <trkpt lat="45.92862" lon="4.73809">
        <ele>173</ele>
        <time>2017-07-13T15:34:32Z</time>
      </trkpt>
      <trkpt lat="45.9286" lon="4.73802">
        <ele>173</ele>
        <time>2017-07-13T15:34:33Z</time>
      </trkpt>
      <trkpt lat="45.92858" lon="4.73796">
        <ele>173</ele>
        <time>2017-07-13T15:34:34Z</time>
      </trkpt>
      <trkpt lat="45.92853" lon="4.73791">
        <ele>173</ele>
        <time>2017-07-13T15:34:35Z</time>
      </trkpt>
      <trkpt lat="45.92845" lon="4.73786">
        <ele>173</ele>
        <time>2017-07-13T15:34:37Z</time>
      </trkpt>
      <trkpt lat="45.92842" lon="4.73784">
        <ele>173</ele>
        <time>2017-07-13T15:34:38Z</time>
      </trkpt>
      <trkpt lat="45.92837" lon="4.73781">
        <ele>173</ele>
        <time>2017-07-13T15:34:39Z</time>
      </trkpt>
      <trkpt lat="45.92833" lon="4.73778">
        <ele>173</ele>
        <time>2017-07-13T15:34:40Z</time>
      </trkpt>
      <trkpt lat="45.92825" lon="4.73772">
        <ele>173</ele>
        <time>2017-07-13T15:34:42Z</time>
      </trkpt>
      <trkpt lat="45.92822" lon="4.73769">
        <ele>173</ele>
        <time>2017-07-13T15:34:43Z</time>
      </trkpt>
      <trkpt lat="45.92818" lon="4.73767">
        <ele>173</ele>
        <time>2017-07-13T15:34:44Z</time>
      </trkpt>
      <trkpt lat="45.92813" lon="4.73764">
        <ele>173</ele>
        <time>2017-07-13T15:34:45Z</time>
      </trkpt>
      <trkpt lat="45.92809" lon="4.73762">
        <ele>173</ele>
        <time>2017-07-13T15:34:46Z</time>
      </trkpt>
      <trkpt lat="45.92804" lon="4.73761">
        <ele>173</ele>
        <time>2017-07-13T15:34:47Z</time>
      </trkpt>
      <trkpt lat="45.92797" lon="4.73757">
        <ele>173</ele>
        <time>2017-07-13T15:34:49Z</time>
      </trkpt>
      <trkpt lat="45.92793" lon="4.73755">
        <ele>173</ele>
        <time>2017-07-13T15:34:50Z</time>
      </trkpt>
      <trkpt lat="45.92788" lon="4.73748">
        <ele>172</ele>
        <time>2017-07-13T15:34:52Z</time>
      </trkpt>
      <trkpt lat="45.92786" lon="4.73743">
        <ele>172</ele>
        <time>2017-07-13T15:34:53Z</time>
      </trkpt>
      <trkpt lat="45.9278" lon="4.73735">
        <ele>172</ele>
        <time>2017-07-13T15:34:55Z</time>
      </trkpt>
      <trkpt lat="45.92775" lon="4.73733">
        <ele>172</ele>
        <time>2017-07-13T15:34:56Z</time>
      </trkpt>
      <trkpt lat="45.92766" lon="4.7373">
        <ele>172</ele>
        <time>2017-07-13T15:34:58Z</time>
      </trkpt>
      <trkpt lat="45.92762" lon="4.73728">
        <ele>172</ele>
        <time>2017-07-13T15:34:59Z</time>
      </trkpt>
      <trkpt lat="45.92758" lon="4.73727">
        <ele>172</ele>
        <time>2017-07-13T15:35:00Z</time>
      </trkpt>
      <trkpt lat="45.92753" lon="4.73726">
        <ele>172</ele>
        <time>2017-07-13T15:35:01Z</time>
      </trkpt>
      <trkpt lat="45.92749" lon="4.73724">
        <ele>173</ele>
        <time>2017-07-13T15:35:02Z</time>
      </trkpt>
      <trkpt lat="45.92744" lon="4.73723">
        <ele>173</ele>
        <time>2017-07-13T15:35:03Z</time>
      </trkpt>
      <trkpt lat="45.92736" lon="4.7372">
        <ele>173</ele>
        <time>2017-07-13T15:35:05Z</time>
      </trkpt>
      <trkpt lat="45.92732" lon="4.73719">
        <ele>173</ele>
        <time>2017-07-13T15:35:06Z</time>
      </trkpt>
      <trkpt lat="45.92724" lon="4.73718">
        <ele>173</ele>
        <time>2017-07-13T15:35:08Z</time>
      </trkpt>
      <trkpt lat="45.92721" lon="4.73718">
        <ele>173</ele>
        <time>2017-07-13T15:35:09Z</time>
      </trkpt>
      <trkpt lat="45.92715" lon="4.73715">
        <ele>173</ele>
        <time>2017-07-13T15:35:10Z</time>
      </trkpt>
      <trkpt lat="45.9271" lon="4.73714">
        <ele>173</ele>
        <time>2017-07-13T15:35:11Z</time>
      </trkpt>
      <trkpt lat="45.92705" lon="4.73713">
        <ele>173</ele>
        <time>2017-07-13T15:35:12Z</time>
      </trkpt>
      <trkpt lat="45.927" lon="4.73712">
        <ele>173</ele>
        <time>2017-07-13T15:35:13Z</time>
      </trkpt>
      <trkpt lat="45.92695" lon="4.73711">
        <ele>173</ele>
        <time>2017-07-13T15:35:14Z</time>
      </trkpt>
      <trkpt lat="45.9269" lon="4.73709">
        <ele>173</ele>
        <time>2017-07-13T15:35:15Z</time>
      </trkpt>
      <trkpt lat="45.92684" lon="4.73708">
        <ele>173</ele>
        <time>2017-07-13T15:35:16Z</time>
      </trkpt>
      <trkpt lat="45.92679" lon="4.73706">
        <ele>173</ele>
        <time>2017-07-13T15:35:17Z</time>
      </trkpt>
      <trkpt lat="45.92674" lon="4.73704">
        <ele>174</ele>
        <time>2017-07-13T15:35:18Z</time>
      </trkpt>
      <trkpt lat="45.92669" lon="4.73701">
        <ele>174</ele>
        <time>2017-07-13T15:35:19Z</time>
      </trkpt>
      <trkpt lat="45.92664" lon="4.73699">
        <ele>173</ele>
        <time>2017-07-13T15:35:20Z</time>
      </trkpt>
      <trkpt lat="45.9266" lon="4.73696">
        <ele>173</ele>
        <time>2017-07-13T15:35:21Z</time>
      </trkpt>
      <trkpt lat="45.92652" lon="4.7369">
        <ele>173</ele>
        <time>2017-07-13T15:35:23Z</time>
      </trkpt>
      <trkpt lat="45.92649" lon="4.73686">
        <ele>173</ele>
        <time>2017-07-13T15:35:24Z</time>
      </trkpt>
      <trkpt lat="45.92643" lon="4.73677">
        <ele>173</ele>
        <time>2017-07-13T15:35:26Z</time>
      </trkpt>
      <trkpt lat="45.92639" lon="4.73672">
        <ele>173</ele>
        <time>2017-07-13T15:35:27Z</time>
      </trkpt>
      <trkpt lat="45.92636" lon="4.73666">
        <ele>173</ele>
        <time>2017-07-13T15:35:28Z</time>
      </trkpt>
      <trkpt lat="45.92632" lon="4.73659">
        <ele>173</ele>
        <time>2017-07-13T15:35:29Z</time>
      </trkpt>
      <trkpt lat="45.92629" lon="4.73653">
        <ele>173</ele>
        <time>2017-07-13T15:35:30Z</time>
      </trkpt>
      <trkpt lat="45.92627" lon="4.73646">
        <ele>173</ele>
        <time>2017-07-13T15:35:31Z</time>
      </trkpt>
      <trkpt lat="45.92625" lon="4.73639">
        <ele>173</ele>
        <time>2017-07-13T15:35:32Z</time>
      </trkpt>
      <trkpt lat="45.92622" lon="4.73634">
        <ele>173</ele>
        <time>2017-07-13T15:35:33Z</time>
      </trkpt>
      <trkpt lat="45.92618" lon="4.73629">
        <ele>173</ele>
        <time>2017-07-13T15:35:34Z</time>
      </trkpt>
      <trkpt lat="45.92613" lon="4.73626">
        <ele>173</ele>
        <time>2017-07-13T15:35:35Z</time>
      </trkpt>
      <trkpt lat="45.92608" lon="4.73624">
        <ele>173</ele>
        <time>2017-07-13T15:35:36Z</time>
      </trkpt>
      <trkpt lat="45.92604" lon="4.73623">
        <ele>173</ele>
        <time>2017-07-13T15:35:37Z</time>
      </trkpt>
      <trkpt lat="45.92595" lon="4.73623">
        <ele>173</ele>
        <time>2017-07-13T15:35:39Z</time>
      </trkpt>
      <trkpt lat="45.92591" lon="4.73623">
        <ele>173</ele>
        <time>2017-07-13T15:35:40Z</time>
      </trkpt>
      <trkpt lat="45.92586" lon="4.73625">
        <ele>172</ele>
        <time>2017-07-13T15:35:41Z</time>
      </trkpt>
      <trkpt lat="45.92582" lon="4.73626">
        <ele>173</ele>
        <time>2017-07-13T15:35:42Z</time>
      </trkpt>
      <trkpt lat="45.92577" lon="4.73627">
        <ele>173</ele>
        <time>2017-07-13T15:35:43Z</time>
      </trkpt>
      <trkpt lat="45.92572" lon="4.73628">
        <ele>173</ele>
        <time>2017-07-13T15:35:44Z</time>
      </trkpt>
      <trkpt lat="45.92567" lon="4.73629">
        <ele>173</ele>
        <time>2017-07-13T15:35:45Z</time>
      </trkpt>
      <trkpt lat="45.92562" lon="4.7363">
        <ele>173</ele>
        <time>2017-07-13T15:35:46Z</time>
      </trkpt>
      <trkpt lat="45.92556" lon="4.73631">
        <ele>173</ele>
        <time>2017-07-13T15:35:47Z</time>
      </trkpt>
      <trkpt lat="45.92551" lon="4.73632">
        <ele>173</ele>
        <time>2017-07-13T15:35:48Z</time>
      </trkpt>
      <trkpt lat="45.92546" lon="4.73632">
        <ele>173</ele>
        <time>2017-07-13T15:35:49Z</time>
      </trkpt>
      <trkpt lat="45.92541" lon="4.73634">
        <ele>173</ele>
        <time>2017-07-13T15:35:50Z</time>
      </trkpt>
      <trkpt lat="45.92536" lon="4.73635">
        <ele>173</ele>
        <time>2017-07-13T15:35:51Z</time>
      </trkpt>
      <trkpt lat="45.92531" lon="4.73636">
        <ele>173</ele>
        <time>2017-07-13T15:35:52Z</time>
      </trkpt>
      <trkpt lat="45.92527" lon="4.73638">
        <ele>173</ele>
        <time>2017-07-13T15:35:53Z</time>
      </trkpt>
      <trkpt lat="45.92522" lon="4.73638">
        <ele>173</ele>
        <time>2017-07-13T15:35:54Z</time>
      </trkpt>
      <trkpt lat="45.92514" lon="4.73638">
        <ele>173</ele>
        <time>2017-07-13T15:35:56Z</time>
      </trkpt>
      <trkpt lat="45.9251" lon="4.73639">
        <ele>174</ele>
        <time>2017-07-13T15:35:57Z</time>
      </trkpt>
      <trkpt lat="45.92505" lon="4.73639">
        <ele>174</ele>
        <time>2017-07-13T15:35:58Z</time>
      </trkpt>
      <trkpt lat="45.92501" lon="4.73639">
        <ele>174</ele>
        <time>2017-07-13T15:35:59Z</time>
      </trkpt>
      <trkpt lat="45.92496" lon="4.7364">
        <ele>174</ele>
        <time>2017-07-13T15:36:00Z</time>
      </trkpt>
      <trkpt lat="45.92491" lon="4.7364">
        <ele>174</ele>
        <time>2017-07-13T15:36:01Z</time>
      </trkpt>
      <trkpt lat="45.92482" lon="4.73639">
        <ele>174</ele>
        <time>2017-07-13T15:36:03Z</time>
      </trkpt>
      <trkpt lat="45.92478" lon="4.73638">
        <ele>174</ele>
        <time>2017-07-13T15:36:04Z</time>
      </trkpt>
      <trkpt lat="45.9247" lon="4.73644">
        <ele>174</ele>
        <time>2017-07-13T15:36:06Z</time>
      </trkpt>
      <trkpt lat="45.92468" lon="4.73649">
        <ele>174</ele>
        <time>2017-07-13T15:36:07Z</time>
      </trkpt>
      <trkpt lat="45.92465" lon="4.73659">
        <ele>174</ele>
        <time>2017-07-13T15:36:09Z</time>
      </trkpt>
      <trkpt lat="45.92465" lon="4.73665">
        <ele>174</ele>
        <time>2017-07-13T15:36:10Z</time>
      </trkpt>
      <trkpt lat="45.92466" lon="4.73675">
        <ele>174</ele>
        <time>2017-07-13T15:36:12Z</time>
      </trkpt>
      <trkpt lat="45.92467" lon="4.73681">
        <ele>174</ele>
        <time>2017-07-13T15:36:13Z</time>
      </trkpt>
      <trkpt lat="45.92468" lon="4.73692">
        <ele>174</ele>
        <time>2017-07-13T15:36:15Z</time>
      </trkpt>
      <trkpt lat="45.92467" lon="4.73696">
        <ele>174</ele>
        <time>2017-07-13T15:36:16Z</time>
      </trkpt>
      <trkpt lat="45.92464" lon="4.73708">
        <ele>174</ele>
        <time>2017-07-13T15:36:54Z</time>
      </trkpt>
      <trkpt lat="45.92459" lon="4.73709">
        <ele>174</ele>
        <time>2017-07-13T15:36:55Z</time>
      </trkpt>
      <trkpt lat="45.92459" lon="4.73709">
        <ele>174</ele>
        <time>2017-07-13T15:38:02.897Z</time>
      </trkpt>
    </trkseg>
  </trk>
</gpx>